<?xml version="1.0" encoding="UTF-8" standalone="no" ?>
<gpx xmlns="http://www.topografix.com/GPX/1/1" xmlns:xsi="http://www.w3.org/2001/XMLSchema-instance" xsi:schemaLocation="http://www.topografix.com/GPX/1/1 http://www.topografix.com/GPX/1/1/gpx.xsd" version="1.1" creator="VisuGPX - https://www.visugpx.com">
  <metadata>
    <name>15810231-TDLF 2023</name>
  </metadata>
  <trk>
    <name><![CDATA[15810231-TDLF 2023]]></name>
    <trkseg>
      <trkpt lat="45.46011" lon="4.38854">
        <ele>489</ele>
        <time>2022-11-18T05:07:10Z</time>
      </trkpt>
      <trkpt lat="45.4597" lon="4.3887">
        <ele>491</ele>
        <time>2022-11-18T05:07:18Z</time>
      </trkpt>
      <trkpt lat="45.45948" lon="4.38874">
        <ele>491</ele>
        <time>2022-11-18T05:07:22Z</time>
      </trkpt>
      <trkpt lat="45.45814" lon="4.38877">
        <ele>493</ele>
        <time>2022-11-18T05:07:45Z</time>
      </trkpt>
      <trkpt lat="45.45802" lon="4.38868">
        <ele>493</ele>
        <time>2022-11-18T05:07:48Z</time>
      </trkpt>
      <trkpt lat="45.45558" lon="4.3878">
        <ele>496</ele>
        <time>2022-11-18T05:08:33Z</time>
      </trkpt>
      <trkpt lat="45.45545" lon="4.38755">
        <ele>497</ele>
        <time>2022-11-18T05:08:36Z</time>
      </trkpt>
      <trkpt lat="45.45363" lon="4.3884">
        <ele>500</ele>
        <time>2022-11-18T05:09:11Z</time>
      </trkpt>
      <trkpt lat="45.45384" lon="4.38629">
        <ele>499</ele>
        <time>2022-11-18T05:09:37Z</time>
      </trkpt>
      <trkpt lat="45.45405" lon="4.38535">
        <ele>498</ele>
        <time>2022-11-18T05:09:49Z</time>
      </trkpt>
      <trkpt lat="45.45409" lon="4.38499">
        <ele>498</ele>
        <time>2022-11-18T05:09:54Z</time>
      </trkpt>
      <trkpt lat="45.4541" lon="4.38459">
        <ele>498</ele>
        <time>2022-11-18T05:09:59Z</time>
      </trkpt>
      <trkpt lat="45.45391" lon="4.38324">
        <ele>496</ele>
        <time>2022-11-18T05:10:16Z</time>
      </trkpt>
      <trkpt lat="45.45394" lon="4.383">
        <ele>495</ele>
        <time>2022-11-18T05:10:19Z</time>
      </trkpt>
      <trkpt lat="45.45385" lon="4.38301">
        <ele>496</ele>
        <time>2022-11-18T05:10:21Z</time>
      </trkpt>
      <trkpt lat="45.45226" lon="4.38239">
        <ele>501</ele>
        <time>2022-11-18T05:10:50Z</time>
      </trkpt>
      <trkpt lat="45.45221" lon="4.38234">
        <ele>501</ele>
        <time>2022-11-18T05:10:51Z</time>
      </trkpt>
      <trkpt lat="45.45215" lon="4.38201">
        <ele>501</ele>
        <time>2022-11-18T05:10:55Z</time>
      </trkpt>
      <trkpt lat="45.45201" lon="4.38192">
        <ele>502</ele>
        <time>2022-11-18T05:10:58Z</time>
      </trkpt>
      <trkpt lat="45.45144" lon="4.38207">
        <ele>503</ele>
        <time>2022-11-18T05:11:09Z</time>
      </trkpt>
      <trkpt lat="45.45035" lon="4.38162">
        <ele>506</ele>
        <time>2022-11-18T05:11:29Z</time>
      </trkpt>
      <trkpt lat="45.44979" lon="4.38176">
        <ele>505</ele>
        <time>2022-11-18T05:11:39Z</time>
      </trkpt>
      <trkpt lat="45.44695" lon="4.38259">
        <ele>507</ele>
        <time>2022-11-18T05:12:30Z</time>
      </trkpt>
      <trkpt lat="45.44674" lon="4.38243">
        <ele>507</ele>
        <time>2022-11-18T05:12:35Z</time>
      </trkpt>
      <trkpt lat="45.44662" lon="4.38149">
        <ele>509</ele>
        <time>2022-11-18T05:12:47Z</time>
      </trkpt>
      <trkpt lat="45.44663" lon="4.38141">
        <ele>509</ele>
        <time>2022-11-18T05:12:48Z</time>
      </trkpt>
      <trkpt lat="45.44655" lon="4.38123">
        <ele>510</ele>
        <time>2022-11-18T05:12:50Z</time>
      </trkpt>
      <trkpt lat="45.4464" lon="4.38112">
        <ele>510</ele>
        <time>2022-11-18T05:12:53Z</time>
      </trkpt>
      <trkpt lat="45.44622" lon="4.38104">
        <ele>511</ele>
        <time>2022-11-18T05:12:57Z</time>
      </trkpt>
      <trkpt lat="45.44559" lon="4.38103">
        <ele>513</ele>
        <time>2022-11-18T05:13:08Z</time>
      </trkpt>
      <trkpt lat="45.44555" lon="4.381">
        <ele>513</ele>
        <time>2022-11-18T05:13:09Z</time>
      </trkpt>
      <trkpt lat="45.44539" lon="4.38074">
        <ele>516</ele>
        <time>2022-11-18T05:13:13Z</time>
      </trkpt>
      <trkpt lat="45.44534" lon="4.38071">
        <ele>516</ele>
        <time>2022-11-18T05:13:14Z</time>
      </trkpt>
      <trkpt lat="45.44515" lon="4.38041">
        <ele>520</ele>
        <time>2022-11-18T05:13:19Z</time>
      </trkpt>
      <trkpt lat="45.44466" lon="4.37995">
        <ele>521</ele>
        <time>2022-11-18T05:13:29Z</time>
      </trkpt>
      <trkpt lat="45.44445" lon="4.37979">
        <ele>521</ele>
        <time>2022-11-18T05:13:34Z</time>
      </trkpt>
      <trkpt lat="45.44343" lon="4.37942">
        <ele>519</ele>
        <time>2022-11-18T05:13:52Z</time>
      </trkpt>
      <trkpt lat="45.44261" lon="4.37916">
        <ele>519</ele>
        <time>2022-11-18T05:14:07Z</time>
      </trkpt>
      <trkpt lat="45.44327" lon="4.37937">
        <ele>519</ele>
        <time>2022-11-18T05:14:19Z</time>
      </trkpt>
      <trkpt lat="45.44261" lon="4.37916">
        <ele>519</ele>
        <time>2022-11-18T05:14:31Z</time>
      </trkpt>
      <trkpt lat="45.44311" lon="4.37666">
        <ele>527</ele>
        <time>2022-11-18T05:15:04Z</time>
      </trkpt>
      <trkpt lat="45.44314" lon="4.37627">
        <ele>528</ele>
        <time>2022-11-18T05:15:09Z</time>
      </trkpt>
      <trkpt lat="45.4431" lon="4.37609">
        <ele>529</ele>
        <time>2022-11-18T05:15:11Z</time>
      </trkpt>
      <trkpt lat="45.44339" lon="4.37192">
        <ele>546</ele>
        <time>2022-11-18T05:16:03Z</time>
      </trkpt>
      <trkpt lat="45.44346" lon="4.3701">
        <ele>557</ele>
        <time>2022-11-18T05:16:26Z</time>
      </trkpt>
      <trkpt lat="45.4434" lon="4.36963">
        <ele>559</ele>
        <time>2022-11-18T05:16:32Z</time>
      </trkpt>
      <trkpt lat="45.4436" lon="4.3687">
        <ele>563</ele>
        <time>2022-11-18T05:16:44Z</time>
      </trkpt>
      <trkpt lat="45.44388" lon="4.36716">
        <ele>567</ele>
        <time>2022-11-18T05:17:04Z</time>
      </trkpt>
      <trkpt lat="45.4437" lon="4.36564">
        <ele>574</ele>
        <time>2022-11-18T05:17:23Z</time>
      </trkpt>
      <trkpt lat="45.44371" lon="4.36546">
        <ele>576</ele>
        <time>2022-11-18T05:17:26Z</time>
      </trkpt>
      <trkpt lat="45.44377" lon="4.36527">
        <ele>578</ele>
        <time>2022-11-18T05:17:28Z</time>
      </trkpt>
      <trkpt lat="45.44431" lon="4.36425">
        <ele>585</ele>
        <time>2022-11-18T05:17:44Z</time>
      </trkpt>
      <trkpt lat="45.44432" lon="4.36369">
        <ele>587</ele>
        <time>2022-11-18T05:17:51Z</time>
      </trkpt>
      <trkpt lat="45.44381" lon="4.36394">
        <ele>587</ele>
        <time>2022-11-18T05:18:01Z</time>
      </trkpt>
      <trkpt lat="45.44129" lon="4.36529">
        <ele>598</ele>
        <time>2022-11-18T05:18:49Z</time>
      </trkpt>
      <trkpt lat="45.43848" lon="4.36673">
        <ele>601</ele>
        <time>2022-11-18T05:19:42Z</time>
      </trkpt>
      <trkpt lat="45.4383" lon="4.3668">
        <ele>602</ele>
        <time>2022-11-18T05:19:45Z</time>
      </trkpt>
      <trkpt lat="45.43816" lon="4.36557">
        <ele>600</ele>
        <time>2022-11-18T05:20:01Z</time>
      </trkpt>
      <trkpt lat="45.4383" lon="4.3668">
        <ele>602</ele>
        <time>2022-11-18T05:20:16Z</time>
      </trkpt>
      <trkpt lat="45.43842" lon="4.36675">
        <ele>602</ele>
        <time>2022-11-18T05:20:18Z</time>
      </trkpt>
      <trkpt lat="45.43759" lon="4.35903">
        <ele>599</ele>
        <time>2022-11-18T05:21:56Z</time>
      </trkpt>
      <trkpt lat="45.43752" lon="4.35858">
        <ele>598</ele>
        <time>2022-11-18T05:22:02Z</time>
      </trkpt>
      <trkpt lat="45.43744" lon="4.35825">
        <ele>597</ele>
        <time>2022-11-18T05:22:06Z</time>
      </trkpt>
      <trkpt lat="45.43731" lon="4.35792">
        <ele>594</ele>
        <time>2022-11-18T05:22:11Z</time>
      </trkpt>
      <trkpt lat="45.43718" lon="4.35768">
        <ele>593</ele>
        <time>2022-11-18T05:22:15Z</time>
      </trkpt>
      <trkpt lat="45.43685" lon="4.35724">
        <ele>591</ele>
        <time>2022-11-18T05:22:23Z</time>
      </trkpt>
      <trkpt lat="45.43388" lon="4.35418">
        <ele>580</ele>
        <time>2022-11-18T05:23:28Z</time>
      </trkpt>
      <trkpt lat="45.43358" lon="4.35375">
        <ele>580</ele>
        <time>2022-11-18T05:23:35Z</time>
      </trkpt>
      <trkpt lat="45.43338" lon="4.35339">
        <ele>581</ele>
        <time>2022-11-18T05:23:41Z</time>
      </trkpt>
      <trkpt lat="45.43319" lon="4.3529">
        <ele>580</ele>
        <time>2022-11-18T05:23:48Z</time>
      </trkpt>
      <trkpt lat="45.4331" lon="4.35261">
        <ele>579</ele>
        <time>2022-11-18T05:23:52Z</time>
      </trkpt>
      <trkpt lat="45.43298" lon="4.35186">
        <ele>576</ele>
        <time>2022-11-18T05:24:02Z</time>
      </trkpt>
      <trkpt lat="45.43296" lon="4.35154">
        <ele>576</ele>
        <time>2022-11-18T05:24:06Z</time>
      </trkpt>
      <trkpt lat="45.433" lon="4.35055">
        <ele>581</ele>
        <time>2022-11-18T05:24:18Z</time>
      </trkpt>
      <trkpt lat="45.4331" lon="4.34995">
        <ele>584</ele>
        <time>2022-11-18T05:24:26Z</time>
      </trkpt>
      <trkpt lat="45.43352" lon="4.34811">
        <ele>577</ele>
        <time>2022-11-18T05:24:50Z</time>
      </trkpt>
      <trkpt lat="45.43366" lon="4.34739">
        <ele>573</ele>
        <time>2022-11-18T05:24:59Z</time>
      </trkpt>
      <trkpt lat="45.43376" lon="4.34662">
        <ele>566</ele>
        <time>2022-11-18T05:25:09Z</time>
      </trkpt>
      <trkpt lat="45.43396" lon="4.34639">
        <ele>566</ele>
        <time>2022-11-18T05:25:14Z</time>
      </trkpt>
      <trkpt lat="45.43403" lon="4.34624">
        <ele>566</ele>
        <time>2022-11-18T05:25:16Z</time>
      </trkpt>
      <trkpt lat="45.4341" lon="4.34589">
        <ele>565</ele>
        <time>2022-11-18T05:25:20Z</time>
      </trkpt>
      <trkpt lat="45.43408" lon="4.34566">
        <ele>565</ele>
        <time>2022-11-18T05:25:23Z</time>
      </trkpt>
      <trkpt lat="45.43403" lon="4.34545">
        <ele>564</ele>
        <time>2022-11-18T05:25:26Z</time>
      </trkpt>
      <trkpt lat="45.43393" lon="4.34526">
        <ele>563</ele>
        <time>2022-11-18T05:25:29Z</time>
      </trkpt>
      <trkpt lat="45.4338" lon="4.34512">
        <ele>563</ele>
        <time>2022-11-18T05:25:32Z</time>
      </trkpt>
      <trkpt lat="45.43369" lon="4.34504">
        <ele>562</ele>
        <time>2022-11-18T05:25:34Z</time>
      </trkpt>
      <trkpt lat="45.43345" lon="4.345">
        <ele>561</ele>
        <time>2022-11-18T05:25:38Z</time>
      </trkpt>
      <trkpt lat="45.43335" lon="4.34483">
        <ele>559</ele>
        <time>2022-11-18T05:25:41Z</time>
      </trkpt>
      <trkpt lat="45.43332" lon="4.34465">
        <ele>557</ele>
        <time>2022-11-18T05:25:44Z</time>
      </trkpt>
      <trkpt lat="45.43335" lon="4.34447">
        <ele>556</ele>
        <time>2022-11-18T05:25:46Z</time>
      </trkpt>
      <trkpt lat="45.43344" lon="4.34425">
        <ele>555</ele>
        <time>2022-11-18T05:25:49Z</time>
      </trkpt>
      <trkpt lat="45.43372" lon="4.34387">
        <ele>555</ele>
        <time>2022-11-18T05:25:56Z</time>
      </trkpt>
      <trkpt lat="45.43382" lon="4.34369">
        <ele>554</ele>
        <time>2022-11-18T05:25:59Z</time>
      </trkpt>
      <trkpt lat="45.43398" lon="4.34332">
        <ele>553</ele>
        <time>2022-11-18T05:26:04Z</time>
      </trkpt>
      <trkpt lat="45.43413" lon="4.34289">
        <ele>553</ele>
        <time>2022-11-18T05:26:10Z</time>
      </trkpt>
      <trkpt lat="45.43423" lon="4.34213">
        <ele>550</ele>
        <time>2022-11-18T05:26:20Z</time>
      </trkpt>
      <trkpt lat="45.43426" lon="4.34137">
        <ele>545</ele>
        <time>2022-11-18T05:26:29Z</time>
      </trkpt>
      <trkpt lat="45.43434" lon="4.34088">
        <ele>543</ele>
        <time>2022-11-18T05:26:36Z</time>
      </trkpt>
      <trkpt lat="45.43441" lon="4.34082">
        <ele>544</ele>
        <time>2022-11-18T05:26:37Z</time>
      </trkpt>
      <trkpt lat="45.43446" lon="4.34073">
        <ele>545</ele>
        <time>2022-11-18T05:26:38Z</time>
      </trkpt>
      <trkpt lat="45.43449" lon="4.3405">
        <ele>544</ele>
        <time>2022-11-18T05:26:41Z</time>
      </trkpt>
      <trkpt lat="45.43441" lon="4.34034">
        <ele>542</ele>
        <time>2022-11-18T05:26:44Z</time>
      </trkpt>
      <trkpt lat="45.43434" lon="4.34028">
        <ele>540</ele>
        <time>2022-11-18T05:26:45Z</time>
      </trkpt>
      <trkpt lat="45.43424" lon="4.34026">
        <ele>538</ele>
        <time>2022-11-18T05:26:47Z</time>
      </trkpt>
      <trkpt lat="45.43419" lon="4.34019">
        <ele>537</ele>
        <time>2022-11-18T05:26:48Z</time>
      </trkpt>
      <trkpt lat="45.43413" lon="4.34003">
        <ele>536</ele>
        <time>2022-11-18T05:26:51Z</time>
      </trkpt>
      <trkpt lat="45.43407" lon="4.33973">
        <ele>535</ele>
        <time>2022-11-18T05:26:55Z</time>
      </trkpt>
      <trkpt lat="45.43346" lon="4.33483">
        <ele>527</ele>
        <time>2022-11-18T05:27:57Z</time>
      </trkpt>
      <trkpt lat="45.43313" lon="4.33304">
        <ele>529</ele>
        <time>2022-11-18T05:28:20Z</time>
      </trkpt>
      <trkpt lat="45.43285" lon="4.33198">
        <ele>529</ele>
        <time>2022-11-18T05:28:34Z</time>
      </trkpt>
      <trkpt lat="45.4327" lon="4.33122">
        <ele>530</ele>
        <time>2022-11-18T05:28:44Z</time>
      </trkpt>
      <trkpt lat="45.43266" lon="4.33075">
        <ele>530</ele>
        <time>2022-11-18T05:28:50Z</time>
      </trkpt>
      <trkpt lat="45.43268" lon="4.32961">
        <ele>533</ele>
        <time>2022-11-18T05:29:04Z</time>
      </trkpt>
      <trkpt lat="45.43281" lon="4.32803">
        <ele>535</ele>
        <time>2022-11-18T05:29:24Z</time>
      </trkpt>
      <trkpt lat="45.43283" lon="4.32735">
        <ele>536</ele>
        <time>2022-11-18T05:29:32Z</time>
      </trkpt>
      <trkpt lat="45.43267" lon="4.32627">
        <ele>540</ele>
        <time>2022-11-18T05:29:46Z</time>
      </trkpt>
      <trkpt lat="45.43258" lon="4.32504">
        <ele>544</ele>
        <time>2022-11-18T05:30:01Z</time>
      </trkpt>
      <trkpt lat="45.4325" lon="4.32239">
        <ele>546</ele>
        <time>2022-11-18T05:30:35Z</time>
      </trkpt>
      <trkpt lat="45.43239" lon="4.32158">
        <ele>543</ele>
        <time>2022-11-18T05:30:45Z</time>
      </trkpt>
      <trkpt lat="45.43227" lon="4.32105">
        <ele>540</ele>
        <time>2022-11-18T05:30:52Z</time>
      </trkpt>
      <trkpt lat="45.4323" lon="4.32086">
        <ele>539</ele>
        <time>2022-11-18T05:30:54Z</time>
      </trkpt>
      <trkpt lat="45.43224" lon="4.32075">
        <ele>539</ele>
        <time>2022-11-18T05:30:56Z</time>
      </trkpt>
      <trkpt lat="45.43226" lon="4.32068">
        <ele>538</ele>
        <time>2022-11-18T05:30:57Z</time>
      </trkpt>
      <trkpt lat="45.43221" lon="4.32022">
        <ele>535</ele>
        <time>2022-11-18T05:31:03Z</time>
      </trkpt>
      <trkpt lat="45.43217" lon="4.319">
        <ele>531</ele>
        <time>2022-11-18T05:31:18Z</time>
      </trkpt>
      <trkpt lat="45.4323" lon="4.31806">
        <ele>531</ele>
        <time>2022-11-18T05:31:30Z</time>
      </trkpt>
      <trkpt lat="45.4324" lon="4.31758">
        <ele>531</ele>
        <time>2022-11-18T05:31:36Z</time>
      </trkpt>
      <trkpt lat="45.43274" lon="4.31629">
        <ele>529</ele>
        <time>2022-11-18T05:31:53Z</time>
      </trkpt>
      <trkpt lat="45.43282" lon="4.31572">
        <ele>528</ele>
        <time>2022-11-18T05:32:01Z</time>
      </trkpt>
      <trkpt lat="45.43286" lon="4.31558">
        <ele>529</ele>
        <time>2022-11-18T05:32:03Z</time>
      </trkpt>
      <trkpt lat="45.43296" lon="4.3154">
        <ele>529</ele>
        <time>2022-11-18T05:32:05Z</time>
      </trkpt>
      <trkpt lat="45.43301" lon="4.31547">
        <ele>529</ele>
        <time>2022-11-18T05:32:07Z</time>
      </trkpt>
      <trkpt lat="45.43313" lon="4.31551">
        <ele>529</ele>
        <time>2022-11-18T05:32:09Z</time>
      </trkpt>
      <trkpt lat="45.4332" lon="4.31548">
        <ele>529</ele>
        <time>2022-11-18T05:32:10Z</time>
      </trkpt>
      <trkpt lat="45.43328" lon="4.31538">
        <ele>529</ele>
        <time>2022-11-18T05:32:12Z</time>
      </trkpt>
      <trkpt lat="45.43331" lon="4.31523">
        <ele>529</ele>
        <time>2022-11-18T05:32:14Z</time>
      </trkpt>
      <trkpt lat="45.43327" lon="4.31505">
        <ele>530</ele>
        <time>2022-11-18T05:32:16Z</time>
      </trkpt>
      <trkpt lat="45.43316" lon="4.31495">
        <ele>530</ele>
        <time>2022-11-18T05:32:19Z</time>
      </trkpt>
      <trkpt lat="45.43341" lon="4.3138">
        <ele>537</ele>
        <time>2022-11-18T05:32:34Z</time>
      </trkpt>
      <trkpt lat="45.43392" lon="4.31191">
        <ele>544</ele>
        <time>2022-11-18T05:32:59Z</time>
      </trkpt>
      <trkpt lat="45.43397" lon="4.31155">
        <ele>545</ele>
        <time>2022-11-18T05:33:04Z</time>
      </trkpt>
      <trkpt lat="45.43397" lon="4.31122">
        <ele>545</ele>
        <time>2022-11-18T05:33:08Z</time>
      </trkpt>
      <trkpt lat="45.43382" lon="4.30986">
        <ele>540</ele>
        <time>2022-11-18T05:33:25Z</time>
      </trkpt>
      <trkpt lat="45.43382" lon="4.3094">
        <ele>539</ele>
        <time>2022-11-18T05:33:31Z</time>
      </trkpt>
      <trkpt lat="45.43385" lon="4.30909">
        <ele>538</ele>
        <time>2022-11-18T05:33:35Z</time>
      </trkpt>
      <trkpt lat="45.43394" lon="4.30852">
        <ele>541</ele>
        <time>2022-11-18T05:33:42Z</time>
      </trkpt>
      <trkpt lat="45.43401" lon="4.30826">
        <ele>542</ele>
        <time>2022-11-18T05:33:45Z</time>
      </trkpt>
      <trkpt lat="45.43441" lon="4.30726">
        <ele>549</ele>
        <time>2022-11-18T05:34:00Z</time>
      </trkpt>
      <trkpt lat="45.43445" lon="4.30707">
        <ele>549</ele>
        <time>2022-11-18T05:34:02Z</time>
      </trkpt>
      <trkpt lat="45.43442" lon="4.30659">
        <ele>551</ele>
        <time>2022-11-18T05:34:08Z</time>
      </trkpt>
      <trkpt lat="45.43417" lon="4.30533">
        <ele>556</ele>
        <time>2022-11-18T05:34:25Z</time>
      </trkpt>
      <trkpt lat="45.43399" lon="4.30351">
        <ele>565</ele>
        <time>2022-11-18T05:34:48Z</time>
      </trkpt>
      <trkpt lat="45.43388" lon="4.30314">
        <ele>567</ele>
        <time>2022-11-18T05:34:53Z</time>
      </trkpt>
      <trkpt lat="45.4333" lon="4.30198">
        <ele>571</ele>
        <time>2022-11-18T05:35:10Z</time>
      </trkpt>
      <trkpt lat="45.43318" lon="4.30163">
        <ele>573</ele>
        <time>2022-11-18T05:35:15Z</time>
      </trkpt>
      <trkpt lat="45.43312" lon="4.30129">
        <ele>575</ele>
        <time>2022-11-18T05:35:20Z</time>
      </trkpt>
      <trkpt lat="45.4331" lon="4.30079">
        <ele>576</ele>
        <time>2022-11-18T05:35:26Z</time>
      </trkpt>
      <trkpt lat="45.43316" lon="4.30039">
        <ele>576</ele>
        <time>2022-11-18T05:35:31Z</time>
      </trkpt>
      <trkpt lat="45.43322" lon="4.30017">
        <ele>576</ele>
        <time>2022-11-18T05:35:34Z</time>
      </trkpt>
      <trkpt lat="45.43382" lon="4.29888">
        <ele>576</ele>
        <time>2022-11-18T05:35:53Z</time>
      </trkpt>
      <trkpt lat="45.43393" lon="4.29856">
        <ele>577</ele>
        <time>2022-11-18T05:35:58Z</time>
      </trkpt>
      <trkpt lat="45.43402" lon="4.29812">
        <ele>579</ele>
        <time>2022-11-18T05:36:03Z</time>
      </trkpt>
      <trkpt lat="45.43412" lon="4.29658">
        <ele>587</ele>
        <time>2022-11-18T05:36:23Z</time>
      </trkpt>
      <trkpt lat="45.43412" lon="4.2964">
        <ele>586</ele>
        <time>2022-11-18T05:36:25Z</time>
      </trkpt>
      <trkpt lat="45.43408" lon="4.29615">
        <ele>584</ele>
        <time>2022-11-18T05:36:28Z</time>
      </trkpt>
      <trkpt lat="45.43408" lon="4.29594">
        <ele>583</ele>
        <time>2022-11-18T05:36:31Z</time>
      </trkpt>
      <trkpt lat="45.43412" lon="4.29584">
        <ele>583</ele>
        <time>2022-11-18T05:36:32Z</time>
      </trkpt>
      <trkpt lat="45.43411" lon="4.2957">
        <ele>582</ele>
        <time>2022-11-18T05:36:34Z</time>
      </trkpt>
      <trkpt lat="45.43405" lon="4.29559">
        <ele>582</ele>
        <time>2022-11-18T05:36:36Z</time>
      </trkpt>
      <trkpt lat="45.43401" lon="4.29556">
        <ele>582</ele>
        <time>2022-11-18T05:36:36Z</time>
      </trkpt>
      <trkpt lat="45.4339" lon="4.29555">
        <ele>582</ele>
        <time>2022-11-18T05:36:38Z</time>
      </trkpt>
      <trkpt lat="45.43382" lon="4.29564">
        <ele>582</ele>
        <time>2022-11-18T05:36:40Z</time>
      </trkpt>
      <trkpt lat="45.4336" lon="4.29563">
        <ele>582</ele>
        <time>2022-11-18T05:36:44Z</time>
      </trkpt>
      <trkpt lat="45.43261" lon="4.29543">
        <ele>579</ele>
        <time>2022-11-18T05:37:02Z</time>
      </trkpt>
      <trkpt lat="45.43146" lon="4.29502">
        <ele>580</ele>
        <time>2022-11-18T05:37:23Z</time>
      </trkpt>
      <trkpt lat="45.43135" lon="4.29494">
        <ele>580</ele>
        <time>2022-11-18T05:37:25Z</time>
      </trkpt>
      <trkpt lat="45.43105" lon="4.29455">
        <ele>576</ele>
        <time>2022-11-18T05:37:32Z</time>
      </trkpt>
      <trkpt lat="45.43095" lon="4.29446">
        <ele>576</ele>
        <time>2022-11-18T05:37:35Z</time>
      </trkpt>
      <trkpt lat="45.43063" lon="4.29436">
        <ele>574</ele>
        <time>2022-11-18T05:37:40Z</time>
      </trkpt>
      <trkpt lat="45.43038" lon="4.29437">
        <ele>573</ele>
        <time>2022-11-18T05:37:45Z</time>
      </trkpt>
      <trkpt lat="45.43028" lon="4.29443">
        <ele>573</ele>
        <time>2022-11-18T05:37:47Z</time>
      </trkpt>
      <trkpt lat="45.43011" lon="4.29459">
        <ele>574</ele>
        <time>2022-11-18T05:37:50Z</time>
      </trkpt>
      <trkpt lat="45.42982" lon="4.29495">
        <ele>575</ele>
        <time>2022-11-18T05:37:57Z</time>
      </trkpt>
      <trkpt lat="45.42968" lon="4.29507">
        <ele>575</ele>
        <time>2022-11-18T05:38:00Z</time>
      </trkpt>
      <trkpt lat="45.42935" lon="4.29526">
        <ele>575</ele>
        <time>2022-11-18T05:38:07Z</time>
      </trkpt>
      <trkpt lat="45.42922" lon="4.29529">
        <ele>574</ele>
        <time>2022-11-18T05:38:09Z</time>
      </trkpt>
      <trkpt lat="45.42912" lon="4.29529">
        <ele>574</ele>
        <time>2022-11-18T05:38:11Z</time>
      </trkpt>
      <trkpt lat="45.42903" lon="4.29526">
        <ele>574</ele>
        <time>2022-11-18T05:38:12Z</time>
      </trkpt>
      <trkpt lat="45.42849" lon="4.295">
        <ele>575</ele>
        <time>2022-11-18T05:38:22Z</time>
      </trkpt>
      <trkpt lat="45.42813" lon="4.29488">
        <ele>576</ele>
        <time>2022-11-18T05:38:29Z</time>
      </trkpt>
      <trkpt lat="45.4259" lon="4.29473">
        <ele>582</ele>
        <time>2022-11-18T05:39:09Z</time>
      </trkpt>
      <trkpt lat="45.42457" lon="4.29479">
        <ele>584</ele>
        <time>2022-11-18T05:39:32Z</time>
      </trkpt>
      <trkpt lat="45.42433" lon="4.29484">
        <ele>585</ele>
        <time>2022-11-18T05:39:37Z</time>
      </trkpt>
      <trkpt lat="45.42348" lon="4.29561">
        <ele>585</ele>
        <time>2022-11-18T05:39:55Z</time>
      </trkpt>
      <trkpt lat="45.42249" lon="4.29695">
        <ele>582</ele>
        <time>2022-11-18T05:40:19Z</time>
      </trkpt>
      <trkpt lat="45.42138" lon="4.29798">
        <ele>575</ele>
        <time>2022-11-18T05:40:43Z</time>
      </trkpt>
      <trkpt lat="45.42017" lon="4.29948">
        <ele>567</ele>
        <time>2022-11-18T05:41:11Z</time>
      </trkpt>
      <trkpt lat="45.41976" lon="4.2999">
        <ele>567</ele>
        <time>2022-11-18T05:41:20Z</time>
      </trkpt>
      <trkpt lat="45.41795" lon="4.30104">
        <ele>558</ele>
        <time>2022-11-18T05:41:55Z</time>
      </trkpt>
      <trkpt lat="45.41773" lon="4.30112">
        <ele>558</ele>
        <time>2022-11-18T05:41:59Z</time>
      </trkpt>
      <trkpt lat="45.4176" lon="4.30114">
        <ele>557</ele>
        <time>2022-11-18T05:42:02Z</time>
      </trkpt>
      <trkpt lat="45.4174" lon="4.30112">
        <ele>557</ele>
        <time>2022-11-18T05:42:05Z</time>
      </trkpt>
      <trkpt lat="45.41688" lon="4.30084">
        <ele>554</ele>
        <time>2022-11-18T05:42:15Z</time>
      </trkpt>
      <trkpt lat="45.41665" lon="4.30075">
        <ele>552</ele>
        <time>2022-11-18T05:42:19Z</time>
      </trkpt>
      <trkpt lat="45.41615" lon="4.30065">
        <ele>554</ele>
        <time>2022-11-18T05:42:28Z</time>
      </trkpt>
      <trkpt lat="45.41597" lon="4.30056">
        <ele>555</ele>
        <time>2022-11-18T05:42:32Z</time>
      </trkpt>
      <trkpt lat="45.41591" lon="4.30049">
        <ele>555</ele>
        <time>2022-11-18T05:42:33Z</time>
      </trkpt>
      <trkpt lat="45.41556" lon="4.29969">
        <ele>560</ele>
        <time>2022-11-18T05:42:45Z</time>
      </trkpt>
      <trkpt lat="45.4155" lon="4.2995">
        <ele>562</ele>
        <time>2022-11-18T05:42:47Z</time>
      </trkpt>
      <trkpt lat="45.4154" lon="4.29888">
        <ele>566</ele>
        <time>2022-11-18T05:42:55Z</time>
      </trkpt>
      <trkpt lat="45.41521" lon="4.29713">
        <ele>566</ele>
        <time>2022-11-18T05:43:18Z</time>
      </trkpt>
      <trkpt lat="45.41512" lon="4.29661">
        <ele>564</ele>
        <time>2022-11-18T05:43:24Z</time>
      </trkpt>
      <trkpt lat="45.41503" lon="4.29645">
        <ele>566</ele>
        <time>2022-11-18T05:43:27Z</time>
      </trkpt>
      <trkpt lat="45.41493" lon="4.2964">
        <ele>567</ele>
        <time>2022-11-18T05:43:29Z</time>
      </trkpt>
      <trkpt lat="45.41483" lon="4.29642">
        <ele>567</ele>
        <time>2022-11-18T05:43:30Z</time>
      </trkpt>
      <trkpt lat="45.41476" lon="4.2963">
        <ele>567</ele>
        <time>2022-11-18T05:43:32Z</time>
      </trkpt>
      <trkpt lat="45.41471" lon="4.29626">
        <ele>567</ele>
        <time>2022-11-18T05:43:33Z</time>
      </trkpt>
      <trkpt lat="45.41465" lon="4.29625">
        <ele>567</ele>
        <time>2022-11-18T05:43:34Z</time>
      </trkpt>
      <trkpt lat="45.41442" lon="4.29486">
        <ele>565</ele>
        <time>2022-11-18T05:43:52Z</time>
      </trkpt>
      <trkpt lat="45.41421" lon="4.29385">
        <ele>561</ele>
        <time>2022-11-18T05:44:05Z</time>
      </trkpt>
      <trkpt lat="45.41421" lon="4.29341">
        <ele>559</ele>
        <time>2022-11-18T05:44:11Z</time>
      </trkpt>
      <trkpt lat="45.41441" lon="4.29243">
        <ele>555</ele>
        <time>2022-11-18T05:44:24Z</time>
      </trkpt>
      <trkpt lat="45.41441" lon="4.29225">
        <ele>556</ele>
        <time>2022-11-18T05:44:26Z</time>
      </trkpt>
      <trkpt lat="45.41435" lon="4.29184">
        <ele>556</ele>
        <time>2022-11-18T05:44:31Z</time>
      </trkpt>
      <trkpt lat="45.41425" lon="4.29158">
        <ele>556</ele>
        <time>2022-11-18T05:44:35Z</time>
      </trkpt>
      <trkpt lat="45.41413" lon="4.29139">
        <ele>556</ele>
        <time>2022-11-18T05:44:38Z</time>
      </trkpt>
      <trkpt lat="45.41394" lon="4.2912">
        <ele>556</ele>
        <time>2022-11-18T05:44:42Z</time>
      </trkpt>
      <trkpt lat="45.41372" lon="4.29108">
        <ele>555</ele>
        <time>2022-11-18T05:44:46Z</time>
      </trkpt>
      <trkpt lat="45.41262" lon="4.29088">
        <ele>548</ele>
        <time>2022-11-18T05:45:06Z</time>
      </trkpt>
      <trkpt lat="45.4125" lon="4.29083">
        <ele>548</ele>
        <time>2022-11-18T05:45:08Z</time>
      </trkpt>
      <trkpt lat="45.41241" lon="4.29076">
        <ele>547</ele>
        <time>2022-11-18T05:45:10Z</time>
      </trkpt>
      <trkpt lat="45.41228" lon="4.29059">
        <ele>546</ele>
        <time>2022-11-18T05:45:13Z</time>
      </trkpt>
      <trkpt lat="45.41219" lon="4.29042">
        <ele>545</ele>
        <time>2022-11-18T05:45:16Z</time>
      </trkpt>
      <trkpt lat="45.41214" lon="4.29022">
        <ele>545</ele>
        <time>2022-11-18T05:45:19Z</time>
      </trkpt>
      <trkpt lat="45.412" lon="4.28809">
        <ele>538</ele>
        <time>2022-11-18T05:45:45Z</time>
      </trkpt>
      <trkpt lat="45.41206" lon="4.28769">
        <ele>537</ele>
        <time>2022-11-18T05:45:50Z</time>
      </trkpt>
      <trkpt lat="45.4123" lon="4.2868">
        <ele>536</ele>
        <time>2022-11-18T05:46:02Z</time>
      </trkpt>
      <trkpt lat="45.41233" lon="4.2865">
        <ele>536</ele>
        <time>2022-11-18T05:46:06Z</time>
      </trkpt>
      <trkpt lat="45.41231" lon="4.28631">
        <ele>536</ele>
        <time>2022-11-18T05:46:09Z</time>
      </trkpt>
      <trkpt lat="45.41221" lon="4.28603">
        <ele>534</ele>
        <time>2022-11-18T05:46:12Z</time>
      </trkpt>
      <trkpt lat="45.41205" lon="4.28579">
        <ele>532</ele>
        <time>2022-11-18T05:46:17Z</time>
      </trkpt>
      <trkpt lat="45.41176" lon="4.2855">
        <ele>528</ele>
        <time>2022-11-18T05:46:23Z</time>
      </trkpt>
      <trkpt lat="45.41148" lon="4.28515">
        <ele>526</ele>
        <time>2022-11-18T05:46:30Z</time>
      </trkpt>
      <trkpt lat="45.41128" lon="4.28472">
        <ele>523</ele>
        <time>2022-11-18T05:46:36Z</time>
      </trkpt>
      <trkpt lat="45.41123" lon="4.28449">
        <ele>522</ele>
        <time>2022-11-18T05:46:39Z</time>
      </trkpt>
      <trkpt lat="45.41119" lon="4.28408">
        <ele>521</ele>
        <time>2022-11-18T05:46:44Z</time>
      </trkpt>
      <trkpt lat="45.41122" lon="4.28375">
        <ele>519</ele>
        <time>2022-11-18T05:46:48Z</time>
      </trkpt>
      <trkpt lat="45.41126" lon="4.28357">
        <ele>519</ele>
        <time>2022-11-18T05:46:51Z</time>
      </trkpt>
      <trkpt lat="45.41149" lon="4.28291">
        <ele>517</ele>
        <time>2022-11-18T05:47:00Z</time>
      </trkpt>
      <trkpt lat="45.4115" lon="4.28259">
        <ele>514</ele>
        <time>2022-11-18T05:47:04Z</time>
      </trkpt>
      <trkpt lat="45.41144" lon="4.28232">
        <ele>513</ele>
        <time>2022-11-18T05:47:07Z</time>
      </trkpt>
      <trkpt lat="45.41139" lon="4.2822">
        <ele>513</ele>
        <time>2022-11-18T05:47:09Z</time>
      </trkpt>
      <trkpt lat="45.41119" lon="4.28192">
        <ele>512</ele>
        <time>2022-11-18T05:47:14Z</time>
      </trkpt>
      <trkpt lat="45.41057" lon="4.28132">
        <ele>507</ele>
        <time>2022-11-18T05:47:28Z</time>
      </trkpt>
      <trkpt lat="45.40981" lon="4.2805">
        <ele>500</ele>
        <time>2022-11-18T05:47:44Z</time>
      </trkpt>
      <trkpt lat="45.40965" lon="4.28029">
        <ele>499</ele>
        <time>2022-11-18T05:47:48Z</time>
      </trkpt>
      <trkpt lat="45.40956" lon="4.28011">
        <ele>498</ele>
        <time>2022-11-18T05:47:51Z</time>
      </trkpt>
      <trkpt lat="45.40946" lon="4.27977">
        <ele>498</ele>
        <time>2022-11-18T05:47:56Z</time>
      </trkpt>
      <trkpt lat="45.40929" lon="4.27819">
        <ele>498</ele>
        <time>2022-11-18T05:48:16Z</time>
      </trkpt>
      <trkpt lat="45.40921" lon="4.27782">
        <ele>498</ele>
        <time>2022-11-18T05:48:21Z</time>
      </trkpt>
      <trkpt lat="45.40912" lon="4.27759">
        <ele>497</ele>
        <time>2022-11-18T05:48:24Z</time>
      </trkpt>
      <trkpt lat="45.40895" lon="4.2774">
        <ele>494</ele>
        <time>2022-11-18T05:48:28Z</time>
      </trkpt>
      <trkpt lat="45.4084" lon="4.27706">
        <ele>484</ele>
        <time>2022-11-18T05:48:38Z</time>
      </trkpt>
      <trkpt lat="45.40832" lon="4.27697">
        <ele>482</ele>
        <time>2022-11-18T05:48:40Z</time>
      </trkpt>
      <trkpt lat="45.40825" lon="4.27684">
        <ele>482</ele>
        <time>2022-11-18T05:48:42Z</time>
      </trkpt>
      <trkpt lat="45.40806" lon="4.27604">
        <ele>482</ele>
        <time>2022-11-18T05:48:53Z</time>
      </trkpt>
      <trkpt lat="45.40793" lon="4.27568">
        <ele>481</ele>
        <time>2022-11-18T05:48:58Z</time>
      </trkpt>
      <trkpt lat="45.40715" lon="4.27408">
        <ele>477</ele>
        <time>2022-11-18T05:49:22Z</time>
      </trkpt>
      <trkpt lat="45.40694" lon="4.27356">
        <ele>478</ele>
        <time>2022-11-18T05:49:30Z</time>
      </trkpt>
      <trkpt lat="45.40657" lon="4.27285">
        <ele>475</ele>
        <time>2022-11-18T05:49:41Z</time>
      </trkpt>
      <trkpt lat="45.40641" lon="4.27229">
        <ele>473</ele>
        <time>2022-11-18T05:49:48Z</time>
      </trkpt>
      <trkpt lat="45.40628" lon="4.26875">
        <ele>460</ele>
        <time>2022-11-18T05:50:32Z</time>
      </trkpt>
      <trkpt lat="45.4063" lon="4.26867">
        <ele>460</ele>
        <time>2022-11-18T05:50:34Z</time>
      </trkpt>
      <trkpt lat="45.40626" lon="4.26812">
        <ele>457</ele>
        <time>2022-11-18T05:50:40Z</time>
      </trkpt>
      <trkpt lat="45.40628" lon="4.26805">
        <ele>457</ele>
        <time>2022-11-18T05:50:41Z</time>
      </trkpt>
      <trkpt lat="45.40627" lon="4.26776">
        <ele>457</ele>
        <time>2022-11-18T05:50:45Z</time>
      </trkpt>
      <trkpt lat="45.40636" lon="4.26723">
        <ele>457</ele>
        <time>2022-11-18T05:50:52Z</time>
      </trkpt>
      <trkpt lat="45.40648" lon="4.26671">
        <ele>459</ele>
        <time>2022-11-18T05:50:59Z</time>
      </trkpt>
      <trkpt lat="45.40654" lon="4.26624">
        <ele>460</ele>
        <time>2022-11-18T05:51:05Z</time>
      </trkpt>
      <trkpt lat="45.40645" lon="4.26534">
        <ele>463</ele>
        <time>2022-11-18T05:51:16Z</time>
      </trkpt>
      <trkpt lat="45.40589" lon="4.26375">
        <ele>467</ele>
        <time>2022-11-18T05:51:38Z</time>
      </trkpt>
      <trkpt lat="45.40585" lon="4.2635">
        <ele>467</ele>
        <time>2022-11-18T05:51:41Z</time>
      </trkpt>
      <trkpt lat="45.40585" lon="4.26329">
        <ele>469</ele>
        <time>2022-11-18T05:51:44Z</time>
      </trkpt>
      <trkpt lat="45.40659" lon="4.26064">
        <ele>469</ele>
        <time>2022-11-18T05:52:20Z</time>
      </trkpt>
      <trkpt lat="45.40679" lon="4.26022">
        <ele>467</ele>
        <time>2022-11-18T05:52:26Z</time>
      </trkpt>
      <trkpt lat="45.40707" lon="4.25987">
        <ele>465</ele>
        <time>2022-11-18T05:52:33Z</time>
      </trkpt>
      <trkpt lat="45.40726" lon="4.25953">
        <ele>463</ele>
        <time>2022-11-18T05:52:38Z</time>
      </trkpt>
      <trkpt lat="45.40732" lon="4.25928">
        <ele>462</ele>
        <time>2022-11-18T05:52:41Z</time>
      </trkpt>
      <trkpt lat="45.40736" lon="4.25883">
        <ele>459</ele>
        <time>2022-11-18T05:52:47Z</time>
      </trkpt>
      <trkpt lat="45.40733" lon="4.25823">
        <ele>455</ele>
        <time>2022-11-18T05:52:55Z</time>
      </trkpt>
      <trkpt lat="45.40737" lon="4.25796">
        <ele>452</ele>
        <time>2022-11-18T05:52:58Z</time>
      </trkpt>
      <trkpt lat="45.40787" lon="4.25624">
        <ele>448</ele>
        <time>2022-11-18T05:53:21Z</time>
      </trkpt>
      <trkpt lat="45.40818" lon="4.25468">
        <ele>438</ele>
        <time>2022-11-18T05:53:42Z</time>
      </trkpt>
      <trkpt lat="45.40859" lon="4.25381">
        <ele>438</ele>
        <time>2022-11-18T05:53:55Z</time>
      </trkpt>
      <trkpt lat="45.4086" lon="4.25343">
        <ele>437</ele>
        <time>2022-11-18T05:53:59Z</time>
      </trkpt>
      <trkpt lat="45.40883" lon="4.25304">
        <ele>440</ele>
        <time>2022-11-18T05:54:06Z</time>
      </trkpt>
      <trkpt lat="45.40897" lon="4.25271">
        <ele>440</ele>
        <time>2022-11-18T05:54:11Z</time>
      </trkpt>
      <trkpt lat="45.40906" lon="4.25222">
        <ele>439</ele>
        <time>2022-11-18T05:54:17Z</time>
      </trkpt>
      <trkpt lat="45.40907" lon="4.25195">
        <ele>438</ele>
        <time>2022-11-18T05:54:20Z</time>
      </trkpt>
      <trkpt lat="45.40905" lon="4.25174">
        <ele>438</ele>
        <time>2022-11-18T05:54:23Z</time>
      </trkpt>
      <trkpt lat="45.40888" lon="4.25094">
        <ele>443</ele>
        <time>2022-11-18T05:54:33Z</time>
      </trkpt>
      <trkpt lat="45.40865" lon="4.24961">
        <ele>438</ele>
        <time>2022-11-18T05:54:50Z</time>
      </trkpt>
      <trkpt lat="45.40874" lon="4.24955">
        <ele>435</ele>
        <time>2022-11-18T05:54:52Z</time>
      </trkpt>
      <trkpt lat="45.40878" lon="4.24935">
        <ele>432</ele>
        <time>2022-11-18T05:54:55Z</time>
      </trkpt>
      <trkpt lat="45.4087" lon="4.24918">
        <ele>430</ele>
        <time>2022-11-18T05:54:57Z</time>
      </trkpt>
      <trkpt lat="45.40861" lon="4.24916">
        <ele>430</ele>
        <time>2022-11-18T05:54:59Z</time>
      </trkpt>
      <trkpt lat="45.40849" lon="4.24681">
        <ele>422</ele>
        <time>2022-11-18T05:55:28Z</time>
      </trkpt>
      <trkpt lat="45.40845" lon="4.24645">
        <ele>424</ele>
        <time>2022-11-18T05:55:33Z</time>
      </trkpt>
      <trkpt lat="45.40838" lon="4.24612">
        <ele>425</ele>
        <time>2022-11-18T05:55:37Z</time>
      </trkpt>
      <trkpt lat="45.40824" lon="4.24566">
        <ele>427</ele>
        <time>2022-11-18T05:55:44Z</time>
      </trkpt>
      <trkpt lat="45.40835" lon="4.24558">
        <ele>427</ele>
        <time>2022-11-18T05:55:46Z</time>
      </trkpt>
      <trkpt lat="45.40838" lon="4.24545">
        <ele>427</ele>
        <time>2022-11-18T05:55:47Z</time>
      </trkpt>
      <trkpt lat="45.40779" lon="4.24199">
        <ele>448</ele>
        <time>2022-11-18T05:56:32Z</time>
      </trkpt>
      <trkpt lat="45.40769" lon="4.24094">
        <ele>456</ele>
        <time>2022-11-18T05:56:45Z</time>
      </trkpt>
      <trkpt lat="45.40767" lon="4.23966">
        <ele>461</ele>
        <time>2022-11-18T05:57:01Z</time>
      </trkpt>
      <trkpt lat="45.40773" lon="4.23927">
        <ele>461</ele>
        <time>2022-11-18T05:57:06Z</time>
      </trkpt>
      <trkpt lat="45.40786" lon="4.23879">
        <ele>464</ele>
        <time>2022-11-18T05:57:13Z</time>
      </trkpt>
      <trkpt lat="45.40815" lon="4.23807">
        <ele>467</ele>
        <time>2022-11-18T05:57:23Z</time>
      </trkpt>
      <trkpt lat="45.40836" lon="4.23767">
        <ele>468</ele>
        <time>2022-11-18T05:57:29Z</time>
      </trkpt>
      <trkpt lat="45.40857" lon="4.23738">
        <ele>472</ele>
        <time>2022-11-18T05:57:34Z</time>
      </trkpt>
      <trkpt lat="45.40878" lon="4.23717">
        <ele>474</ele>
        <time>2022-11-18T05:57:39Z</time>
      </trkpt>
      <trkpt lat="45.40971" lon="4.23655">
        <ele>473</ele>
        <time>2022-11-18T05:57:57Z</time>
      </trkpt>
      <trkpt lat="45.40991" lon="4.23647">
        <ele>472</ele>
        <time>2022-11-18T05:58:01Z</time>
      </trkpt>
      <trkpt lat="45.4101" lon="4.23643">
        <ele>472</ele>
        <time>2022-11-18T05:58:04Z</time>
      </trkpt>
      <trkpt lat="45.4105" lon="4.23643">
        <ele>473</ele>
        <time>2022-11-18T05:58:11Z</time>
      </trkpt>
      <trkpt lat="45.41156" lon="4.23662">
        <ele>474</ele>
        <time>2022-11-18T05:58:30Z</time>
      </trkpt>
      <trkpt lat="45.41171" lon="4.2367">
        <ele>473</ele>
        <time>2022-11-18T05:58:33Z</time>
      </trkpt>
      <trkpt lat="45.41182" lon="4.23679">
        <ele>474</ele>
        <time>2022-11-18T05:58:36Z</time>
      </trkpt>
      <trkpt lat="45.41218" lon="4.23724">
        <ele>467</ele>
        <time>2022-11-18T05:58:44Z</time>
      </trkpt>
      <trkpt lat="45.41226" lon="4.23726">
        <ele>468</ele>
        <time>2022-11-18T05:58:46Z</time>
      </trkpt>
      <trkpt lat="45.41257" lon="4.23725">
        <ele>477</ele>
        <time>2022-11-18T05:58:51Z</time>
      </trkpt>
      <trkpt lat="45.41267" lon="4.23729">
        <ele>476</ele>
        <time>2022-11-18T05:58:53Z</time>
      </trkpt>
      <trkpt lat="45.41299" lon="4.23761">
        <ele>465</ele>
        <time>2022-11-18T05:59:00Z</time>
      </trkpt>
      <trkpt lat="45.41319" lon="4.23766">
        <ele>465</ele>
        <time>2022-11-18T05:59:03Z</time>
      </trkpt>
      <trkpt lat="45.41329" lon="4.23763">
        <ele>467</ele>
        <time>2022-11-18T05:59:05Z</time>
      </trkpt>
      <trkpt lat="45.41338" lon="4.23754">
        <ele>470</ele>
        <time>2022-11-18T05:59:07Z</time>
      </trkpt>
      <trkpt lat="45.41355" lon="4.23715">
        <ele>483</ele>
        <time>2022-11-18T05:59:13Z</time>
      </trkpt>
      <trkpt lat="45.41384" lon="4.23661">
        <ele>494</ele>
        <time>2022-11-18T05:59:21Z</time>
      </trkpt>
      <trkpt lat="45.41412" lon="4.2362">
        <ele>498</ele>
        <time>2022-11-18T05:59:29Z</time>
      </trkpt>
      <trkpt lat="45.4143" lon="4.23601">
        <ele>503</ele>
        <time>2022-11-18T05:59:33Z</time>
      </trkpt>
      <trkpt lat="45.41444" lon="4.23598">
        <ele>505</ele>
        <time>2022-11-18T05:59:35Z</time>
      </trkpt>
      <trkpt lat="45.41451" lon="4.23602">
        <ele>505</ele>
        <time>2022-11-18T05:59:36Z</time>
      </trkpt>
      <trkpt lat="45.41461" lon="4.23621">
        <ele>504</ele>
        <time>2022-11-18T05:59:39Z</time>
      </trkpt>
      <trkpt lat="45.41462" lon="4.23636">
        <ele>503</ele>
        <time>2022-11-18T05:59:41Z</time>
      </trkpt>
      <trkpt lat="45.41451" lon="4.23688">
        <ele>493</ele>
        <time>2022-11-18T05:59:48Z</time>
      </trkpt>
      <trkpt lat="45.41451" lon="4.23737">
        <ele>488</ele>
        <time>2022-11-18T05:59:54Z</time>
      </trkpt>
      <trkpt lat="45.41483" lon="4.239">
        <ele>486</ele>
        <time>2022-11-18T06:00:15Z</time>
      </trkpt>
      <trkpt lat="45.41487" lon="4.23914">
        <ele>487</ele>
        <time>2022-11-18T06:00:17Z</time>
      </trkpt>
      <trkpt lat="45.41504" lon="4.23952">
        <ele>488</ele>
        <time>2022-11-18T06:00:23Z</time>
      </trkpt>
      <trkpt lat="45.41528" lon="4.23986">
        <ele>495</ele>
        <time>2022-11-18T06:00:29Z</time>
      </trkpt>
      <trkpt lat="45.41535" lon="4.24">
        <ele>496</ele>
        <time>2022-11-18T06:00:31Z</time>
      </trkpt>
      <trkpt lat="45.41541" lon="4.24016">
        <ele>497</ele>
        <time>2022-11-18T06:00:33Z</time>
      </trkpt>
      <trkpt lat="45.41549" lon="4.24069">
        <ele>492</ele>
        <time>2022-11-18T06:00:40Z</time>
      </trkpt>
      <trkpt lat="45.41556" lon="4.24088">
        <ele>492</ele>
        <time>2022-11-18T06:00:43Z</time>
      </trkpt>
      <trkpt lat="45.41595" lon="4.24148">
        <ele>499</ele>
        <time>2022-11-18T06:00:53Z</time>
      </trkpt>
      <trkpt lat="45.4162" lon="4.24214">
        <ele>496</ele>
        <time>2022-11-18T06:01:02Z</time>
      </trkpt>
      <trkpt lat="45.41642" lon="4.2425">
        <ele>498</ele>
        <time>2022-11-18T06:01:08Z</time>
      </trkpt>
      <trkpt lat="45.41663" lon="4.24276">
        <ele>500</ele>
        <time>2022-11-18T06:01:13Z</time>
      </trkpt>
      <trkpt lat="45.41694" lon="4.24298">
        <ele>502</ele>
        <time>2022-11-18T06:01:19Z</time>
      </trkpt>
      <trkpt lat="45.41781" lon="4.24351">
        <ele>504</ele>
        <time>2022-11-18T06:01:36Z</time>
      </trkpt>
      <trkpt lat="45.418" lon="4.24358">
        <ele>505</ele>
        <time>2022-11-18T06:01:40Z</time>
      </trkpt>
      <trkpt lat="45.41867" lon="4.24374">
        <ele>510</ele>
        <time>2022-11-18T06:01:52Z</time>
      </trkpt>
      <trkpt lat="45.4188" lon="4.24381">
        <ele>510</ele>
        <time>2022-11-18T06:01:54Z</time>
      </trkpt>
      <trkpt lat="45.41891" lon="4.2439">
        <ele>510</ele>
        <time>2022-11-18T06:01:57Z</time>
      </trkpt>
      <trkpt lat="45.41911" lon="4.24419">
        <ele>510</ele>
        <time>2022-11-18T06:02:02Z</time>
      </trkpt>
      <trkpt lat="45.41927" lon="4.2443">
        <ele>510</ele>
        <time>2022-11-18T06:02:05Z</time>
      </trkpt>
      <trkpt lat="45.41939" lon="4.2443">
        <ele>510</ele>
        <time>2022-11-18T06:02:07Z</time>
      </trkpt>
      <trkpt lat="45.41956" lon="4.24422">
        <ele>510</ele>
        <time>2022-11-18T06:02:10Z</time>
      </trkpt>
      <trkpt lat="45.41963" lon="4.24415">
        <ele>510</ele>
        <time>2022-11-18T06:02:12Z</time>
      </trkpt>
      <trkpt lat="45.41972" lon="4.24391">
        <ele>512</ele>
        <time>2022-11-18T06:02:15Z</time>
      </trkpt>
      <trkpt lat="45.41972" lon="4.24373">
        <ele>513</ele>
        <time>2022-11-18T06:02:17Z</time>
      </trkpt>
      <trkpt lat="45.41968" lon="4.24352">
        <ele>514</ele>
        <time>2022-11-18T06:02:20Z</time>
      </trkpt>
      <trkpt lat="45.41935" lon="4.24238">
        <ele>524</ele>
        <time>2022-11-18T06:02:35Z</time>
      </trkpt>
      <trkpt lat="45.41934" lon="4.24216">
        <ele>526</ele>
        <time>2022-11-18T06:02:38Z</time>
      </trkpt>
      <trkpt lat="45.41935" lon="4.24201">
        <ele>527</ele>
        <time>2022-11-18T06:02:40Z</time>
      </trkpt>
      <trkpt lat="45.41957" lon="4.2412">
        <ele>530</ele>
        <time>2022-11-18T06:02:51Z</time>
      </trkpt>
      <trkpt lat="45.41966" lon="4.24023">
        <ele>541</ele>
        <time>2022-11-18T06:03:03Z</time>
      </trkpt>
      <trkpt lat="45.41972" lon="4.24001">
        <ele>543</ele>
        <time>2022-11-18T06:03:06Z</time>
      </trkpt>
      <trkpt lat="45.41979" lon="4.2399">
        <ele>543</ele>
        <time>2022-11-18T06:03:08Z</time>
      </trkpt>
      <trkpt lat="45.41998" lon="4.23983">
        <ele>539</ele>
        <time>2022-11-18T06:03:11Z</time>
      </trkpt>
      <trkpt lat="45.4203" lon="4.23995">
        <ele>534</ele>
        <time>2022-11-18T06:03:17Z</time>
      </trkpt>
      <trkpt lat="45.42042" lon="4.23995">
        <ele>534</ele>
        <time>2022-11-18T06:03:19Z</time>
      </trkpt>
      <trkpt lat="45.42053" lon="4.23992">
        <ele>534</ele>
        <time>2022-11-18T06:03:21Z</time>
      </trkpt>
      <trkpt lat="45.42073" lon="4.23973">
        <ele>538</ele>
        <time>2022-11-18T06:03:26Z</time>
      </trkpt>
      <trkpt lat="45.42081" lon="4.23958">
        <ele>540</ele>
        <time>2022-11-18T06:03:28Z</time>
      </trkpt>
      <trkpt lat="45.42085" lon="4.23941">
        <ele>543</ele>
        <time>2022-11-18T06:03:30Z</time>
      </trkpt>
      <trkpt lat="45.42086" lon="4.23848">
        <ele>558</ele>
        <time>2022-11-18T06:03:42Z</time>
      </trkpt>
      <trkpt lat="45.4209" lon="4.23836">
        <ele>559</ele>
        <time>2022-11-18T06:03:44Z</time>
      </trkpt>
      <trkpt lat="45.42097" lon="4.23828">
        <ele>560</ele>
        <time>2022-11-18T06:03:45Z</time>
      </trkpt>
      <trkpt lat="45.42108" lon="4.23822">
        <ele>561</ele>
        <time>2022-11-18T06:03:47Z</time>
      </trkpt>
      <trkpt lat="45.42116" lon="4.23823">
        <ele>560</ele>
        <time>2022-11-18T06:03:49Z</time>
      </trkpt>
      <trkpt lat="45.42127" lon="4.23832">
        <ele>559</ele>
        <time>2022-11-18T06:03:51Z</time>
      </trkpt>
      <trkpt lat="45.4216" lon="4.23895">
        <ele>547</ele>
        <time>2022-11-18T06:04:01Z</time>
      </trkpt>
      <trkpt lat="45.4218" lon="4.23924">
        <ele>545</ele>
        <time>2022-11-18T06:04:06Z</time>
      </trkpt>
      <trkpt lat="45.42199" lon="4.23945">
        <ele>545</ele>
        <time>2022-11-18T06:04:10Z</time>
      </trkpt>
      <trkpt lat="45.42266" lon="4.24008">
        <ele>545</ele>
        <time>2022-11-18T06:04:24Z</time>
      </trkpt>
      <trkpt lat="45.42279" lon="4.24017">
        <ele>545</ele>
        <time>2022-11-18T06:04:27Z</time>
      </trkpt>
      <trkpt lat="45.42298" lon="4.24021">
        <ele>547</ele>
        <time>2022-11-18T06:04:30Z</time>
      </trkpt>
      <trkpt lat="45.42313" lon="4.2402">
        <ele>549</ele>
        <time>2022-11-18T06:04:33Z</time>
      </trkpt>
      <trkpt lat="45.42396" lon="4.23982">
        <ele>563</ele>
        <time>2022-11-18T06:04:49Z</time>
      </trkpt>
      <trkpt lat="45.42405" lon="4.23984">
        <ele>563</ele>
        <time>2022-11-18T06:04:50Z</time>
      </trkpt>
      <trkpt lat="45.42416" lon="4.23992">
        <ele>562</ele>
        <time>2022-11-18T06:04:52Z</time>
      </trkpt>
      <trkpt lat="45.42456" lon="4.2405">
        <ele>556</ele>
        <time>2022-11-18T06:05:03Z</time>
      </trkpt>
      <trkpt lat="45.42478" lon="4.2406">
        <ele>556</ele>
        <time>2022-11-18T06:05:07Z</time>
      </trkpt>
      <trkpt lat="45.42489" lon="4.2406">
        <ele>558</ele>
        <time>2022-11-18T06:05:09Z</time>
      </trkpt>
      <trkpt lat="45.425" lon="4.24056">
        <ele>560</ele>
        <time>2022-11-18T06:05:11Z</time>
      </trkpt>
      <trkpt lat="45.42548" lon="4.24024">
        <ele>569</ele>
        <time>2022-11-18T06:05:20Z</time>
      </trkpt>
      <trkpt lat="45.42561" lon="4.24021">
        <ele>570</ele>
        <time>2022-11-18T06:05:22Z</time>
      </trkpt>
      <trkpt lat="45.42569" lon="4.24022">
        <ele>570</ele>
        <time>2022-11-18T06:05:24Z</time>
      </trkpt>
      <trkpt lat="45.42578" lon="4.24027">
        <ele>569</ele>
        <time>2022-11-18T06:05:26Z</time>
      </trkpt>
      <trkpt lat="45.42587" lon="4.24036">
        <ele>569</ele>
        <time>2022-11-18T06:05:27Z</time>
      </trkpt>
      <trkpt lat="45.42599" lon="4.24055">
        <ele>568</ele>
        <time>2022-11-18T06:05:31Z</time>
      </trkpt>
      <trkpt lat="45.42631" lon="4.24128">
        <ele>566</ele>
        <time>2022-11-18T06:05:41Z</time>
      </trkpt>
      <trkpt lat="45.4265" lon="4.24152">
        <ele>567</ele>
        <time>2022-11-18T06:05:46Z</time>
      </trkpt>
      <trkpt lat="45.42677" lon="4.24159">
        <ele>570</ele>
        <time>2022-11-18T06:05:51Z</time>
      </trkpt>
      <trkpt lat="45.42791" lon="4.24148">
        <ele>583</ele>
        <time>2022-11-18T06:06:11Z</time>
      </trkpt>
      <trkpt lat="45.42823" lon="4.24148">
        <ele>586</ele>
        <time>2022-11-18T06:06:17Z</time>
      </trkpt>
      <trkpt lat="45.42846" lon="4.24152">
        <ele>588</ele>
        <time>2022-11-18T06:06:21Z</time>
      </trkpt>
      <trkpt lat="45.42864" lon="4.24159">
        <ele>589</ele>
        <time>2022-11-18T06:06:24Z</time>
      </trkpt>
      <trkpt lat="45.4289" lon="4.24185">
        <ele>587</ele>
        <time>2022-11-18T06:06:30Z</time>
      </trkpt>
      <trkpt lat="45.42925" lon="4.2423">
        <ele>583</ele>
        <time>2022-11-18T06:06:38Z</time>
      </trkpt>
      <trkpt lat="45.42937" lon="4.24241">
        <ele>581</ele>
        <time>2022-11-18T06:06:41Z</time>
      </trkpt>
      <trkpt lat="45.42948" lon="4.24246">
        <ele>581</ele>
        <time>2022-11-18T06:06:43Z</time>
      </trkpt>
      <trkpt lat="45.42965" lon="4.24247">
        <ele>582</ele>
        <time>2022-11-18T06:06:46Z</time>
      </trkpt>
      <trkpt lat="45.42978" lon="4.24243">
        <ele>585</ele>
        <time>2022-11-18T06:06:48Z</time>
      </trkpt>
      <trkpt lat="45.43005" lon="4.24229">
        <ele>590</ele>
        <time>2022-11-18T06:06:53Z</time>
      </trkpt>
      <trkpt lat="45.4309" lon="4.24167">
        <ele>592</ele>
        <time>2022-11-18T06:07:10Z</time>
      </trkpt>
      <trkpt lat="45.43104" lon="4.24147">
        <ele>588</ele>
        <time>2022-11-18T06:07:14Z</time>
      </trkpt>
      <trkpt lat="45.43105" lon="4.24138">
        <ele>587</ele>
        <time>2022-11-18T06:07:15Z</time>
      </trkpt>
      <trkpt lat="45.43104" lon="4.24129">
        <ele>587</ele>
        <time>2022-11-18T06:07:16Z</time>
      </trkpt>
      <trkpt lat="45.43097" lon="4.2411">
        <ele>588</ele>
        <time>2022-11-18T06:07:19Z</time>
      </trkpt>
      <trkpt lat="45.43029" lon="4.24028">
        <ele>598</ele>
        <time>2022-11-18T06:07:35Z</time>
      </trkpt>
      <trkpt lat="45.43016" lon="4.24006">
        <ele>600</ele>
        <time>2022-11-18T06:07:38Z</time>
      </trkpt>
      <trkpt lat="45.43011" lon="4.23988">
        <ele>601</ele>
        <time>2022-11-18T06:07:41Z</time>
      </trkpt>
      <trkpt lat="45.42991" lon="4.23858">
        <ele>599</ele>
        <time>2022-11-18T06:07:57Z</time>
      </trkpt>
      <trkpt lat="45.42962" lon="4.23791">
        <ele>600</ele>
        <time>2022-11-18T06:08:07Z</time>
      </trkpt>
      <trkpt lat="45.42937" lon="4.23721">
        <ele>600</ele>
        <time>2022-11-18T06:08:17Z</time>
      </trkpt>
      <trkpt lat="45.42917" lon="4.2369">
        <ele>604</ele>
        <time>2022-11-18T06:08:22Z</time>
      </trkpt>
      <trkpt lat="45.42914" lon="4.23677">
        <ele>604</ele>
        <time>2022-11-18T06:08:24Z</time>
      </trkpt>
      <trkpt lat="45.42914" lon="4.23662">
        <ele>603</ele>
        <time>2022-11-18T06:08:26Z</time>
      </trkpt>
      <trkpt lat="45.4293" lon="4.23614">
        <ele>599</ele>
        <time>2022-11-18T06:08:32Z</time>
      </trkpt>
      <trkpt lat="45.42931" lon="4.23587">
        <ele>600</ele>
        <time>2022-11-18T06:08:36Z</time>
      </trkpt>
      <trkpt lat="45.42928" lon="4.2357">
        <ele>600</ele>
        <time>2022-11-18T06:08:38Z</time>
      </trkpt>
      <trkpt lat="45.42914" lon="4.23529">
        <ele>600</ele>
        <time>2022-11-18T06:08:44Z</time>
      </trkpt>
      <trkpt lat="45.42879" lon="4.23451">
        <ele>609</ele>
        <time>2022-11-18T06:08:55Z</time>
      </trkpt>
      <trkpt lat="45.42875" lon="4.23431">
        <ele>610</ele>
        <time>2022-11-18T06:08:58Z</time>
      </trkpt>
      <trkpt lat="45.42878" lon="4.23377">
        <ele>607</ele>
        <time>2022-11-18T06:09:05Z</time>
      </trkpt>
      <trkpt lat="45.42874" lon="4.23324">
        <ele>610</ele>
        <time>2022-11-18T06:09:11Z</time>
      </trkpt>
      <trkpt lat="45.42889" lon="4.23244">
        <ele>604</ele>
        <time>2022-11-18T06:09:22Z</time>
      </trkpt>
      <trkpt lat="45.42887" lon="4.23219">
        <ele>605</ele>
        <time>2022-11-18T06:09:25Z</time>
      </trkpt>
      <trkpt lat="45.42881" lon="4.23201">
        <ele>607</ele>
        <time>2022-11-18T06:09:27Z</time>
      </trkpt>
      <trkpt lat="45.4286" lon="4.23177">
        <ele>615</ele>
        <time>2022-11-18T06:09:32Z</time>
      </trkpt>
      <trkpt lat="45.42845" lon="4.23149">
        <ele>620</ele>
        <time>2022-11-18T06:09:36Z</time>
      </trkpt>
      <trkpt lat="45.42842" lon="4.23134">
        <ele>620</ele>
        <time>2022-11-18T06:09:38Z</time>
      </trkpt>
      <trkpt lat="45.42844" lon="4.23107">
        <ele>618</ele>
        <time>2022-11-18T06:09:42Z</time>
      </trkpt>
      <trkpt lat="45.42857" lon="4.23087">
        <ele>617</ele>
        <time>2022-11-18T06:09:45Z</time>
      </trkpt>
      <trkpt lat="45.42866" lon="4.23085">
        <ele>616</ele>
        <time>2022-11-18T06:09:47Z</time>
      </trkpt>
      <trkpt lat="45.42886" lon="4.23088">
        <ele>614</ele>
        <time>2022-11-18T06:09:50Z</time>
      </trkpt>
      <trkpt lat="45.42979" lon="4.23123">
        <ele>612</ele>
        <time>2022-11-18T06:10:08Z</time>
      </trkpt>
      <trkpt lat="45.43005" lon="4.23137">
        <ele>611</ele>
        <time>2022-11-18T06:10:12Z</time>
      </trkpt>
      <trkpt lat="45.43015" lon="4.23145">
        <ele>611</ele>
        <time>2022-11-18T06:10:15Z</time>
      </trkpt>
      <trkpt lat="45.43029" lon="4.23166">
        <ele>608</ele>
        <time>2022-11-18T06:10:18Z</time>
      </trkpt>
      <trkpt lat="45.43035" lon="4.23179">
        <ele>606</ele>
        <time>2022-11-18T06:10:20Z</time>
      </trkpt>
      <trkpt lat="45.43042" lon="4.23216">
        <ele>600</ele>
        <time>2022-11-18T06:10:25Z</time>
      </trkpt>
      <trkpt lat="45.43057" lon="4.23237">
        <ele>601</ele>
        <time>2022-11-18T06:10:29Z</time>
      </trkpt>
      <trkpt lat="45.43122" lon="4.23273">
        <ele>608</ele>
        <time>2022-11-18T06:10:41Z</time>
      </trkpt>
      <trkpt lat="45.43196" lon="4.23307">
        <ele>611</ele>
        <time>2022-11-18T06:10:55Z</time>
      </trkpt>
      <trkpt lat="45.43236" lon="4.23331">
        <ele>609</ele>
        <time>2022-11-18T06:11:03Z</time>
      </trkpt>
      <trkpt lat="45.43253" lon="4.23336">
        <ele>609</ele>
        <time>2022-11-18T06:11:06Z</time>
      </trkpt>
      <trkpt lat="45.43261" lon="4.23335">
        <ele>609</ele>
        <time>2022-11-18T06:11:07Z</time>
      </trkpt>
      <trkpt lat="45.43284" lon="4.23321">
        <ele>615</ele>
        <time>2022-11-18T06:11:12Z</time>
      </trkpt>
      <trkpt lat="45.43321" lon="4.23289">
        <ele>627</ele>
        <time>2022-11-18T06:11:19Z</time>
      </trkpt>
      <trkpt lat="45.43331" lon="4.23288">
        <ele>627</ele>
        <time>2022-11-18T06:11:21Z</time>
      </trkpt>
      <trkpt lat="45.4334" lon="4.2329">
        <ele>628</ele>
        <time>2022-11-18T06:11:23Z</time>
      </trkpt>
      <trkpt lat="45.43356" lon="4.23309">
        <ele>624</ele>
        <time>2022-11-18T06:11:26Z</time>
      </trkpt>
      <trkpt lat="45.43373" lon="4.23341">
        <ele>617</ele>
        <time>2022-11-18T06:11:31Z</time>
      </trkpt>
      <trkpt lat="45.43391" lon="4.23353">
        <ele>619</ele>
        <time>2022-11-18T06:11:35Z</time>
      </trkpt>
      <trkpt lat="45.43415" lon="4.23362">
        <ele>624</ele>
        <time>2022-11-18T06:11:39Z</time>
      </trkpt>
      <trkpt lat="45.43426" lon="4.23371">
        <ele>626</ele>
        <time>2022-11-18T06:11:42Z</time>
      </trkpt>
      <trkpt lat="45.43434" lon="4.23398">
        <ele>623</ele>
        <time>2022-11-18T06:11:45Z</time>
      </trkpt>
      <trkpt lat="45.43434" lon="4.23455">
        <ele>615</ele>
        <time>2022-11-18T06:11:52Z</time>
      </trkpt>
      <trkpt lat="45.43437" lon="4.23474">
        <ele>614</ele>
        <time>2022-11-18T06:11:55Z</time>
      </trkpt>
      <trkpt lat="45.43448" lon="4.23499">
        <ele>613</ele>
        <time>2022-11-18T06:11:58Z</time>
      </trkpt>
      <trkpt lat="45.43459" lon="4.23507">
        <ele>614</ele>
        <time>2022-11-18T06:12:01Z</time>
      </trkpt>
      <trkpt lat="45.43506" lon="4.23516">
        <ele>620</ele>
        <time>2022-11-18T06:12:09Z</time>
      </trkpt>
      <trkpt lat="45.43529" lon="4.23523">
        <ele>622</ele>
        <time>2022-11-18T06:12:13Z</time>
      </trkpt>
      <trkpt lat="45.4354" lon="4.23531">
        <ele>621</ele>
        <time>2022-11-18T06:12:15Z</time>
      </trkpt>
      <trkpt lat="45.4356" lon="4.23555">
        <ele>618</ele>
        <time>2022-11-18T06:12:20Z</time>
      </trkpt>
      <trkpt lat="45.43578" lon="4.23569">
        <ele>618</ele>
        <time>2022-11-18T06:12:24Z</time>
      </trkpt>
      <trkpt lat="45.43586" lon="4.23569">
        <ele>619</ele>
        <time>2022-11-18T06:12:25Z</time>
      </trkpt>
      <trkpt lat="45.43595" lon="4.23565">
        <ele>620</ele>
        <time>2022-11-18T06:12:27Z</time>
      </trkpt>
      <trkpt lat="45.43603" lon="4.23558">
        <ele>622</ele>
        <time>2022-11-18T06:12:29Z</time>
      </trkpt>
      <trkpt lat="45.43612" lon="4.23546">
        <ele>625</ele>
        <time>2022-11-18T06:12:31Z</time>
      </trkpt>
      <trkpt lat="45.43629" lon="4.23509">
        <ele>636</ele>
        <time>2022-11-18T06:12:36Z</time>
      </trkpt>
      <trkpt lat="45.43637" lon="4.23502">
        <ele>638</ele>
        <time>2022-11-18T06:12:38Z</time>
      </trkpt>
      <trkpt lat="45.43644" lon="4.23499">
        <ele>639</ele>
        <time>2022-11-18T06:12:39Z</time>
      </trkpt>
      <trkpt lat="45.43661" lon="4.23503">
        <ele>638</ele>
        <time>2022-11-18T06:12:42Z</time>
      </trkpt>
      <trkpt lat="45.4375" lon="4.23592">
        <ele>630</ele>
        <time>2022-11-18T06:13:02Z</time>
      </trkpt>
      <trkpt lat="45.43786" lon="4.2361">
        <ele>634</ele>
        <time>2022-11-18T06:13:08Z</time>
      </trkpt>
      <trkpt lat="45.43814" lon="4.23634">
        <ele>633</ele>
        <time>2022-11-18T06:13:14Z</time>
      </trkpt>
      <trkpt lat="45.43835" lon="4.23644">
        <ele>634</ele>
        <time>2022-11-18T06:13:18Z</time>
      </trkpt>
      <trkpt lat="45.43862" lon="4.2365">
        <ele>635</ele>
        <time>2022-11-18T06:13:23Z</time>
      </trkpt>
      <trkpt lat="45.43949" lon="4.23662">
        <ele>638</ele>
        <time>2022-11-18T06:13:39Z</time>
      </trkpt>
      <trkpt lat="45.43992" lon="4.23675">
        <ele>637</ele>
        <time>2022-11-18T06:13:46Z</time>
      </trkpt>
      <trkpt lat="45.44081" lon="4.23722">
        <ele>633</ele>
        <time>2022-11-18T06:14:03Z</time>
      </trkpt>
      <trkpt lat="45.44138" lon="4.23743">
        <ele>633</ele>
        <time>2022-11-18T06:14:14Z</time>
      </trkpt>
      <trkpt lat="45.44178" lon="4.23754">
        <ele>634</ele>
        <time>2022-11-18T06:14:21Z</time>
      </trkpt>
      <trkpt lat="45.44222" lon="4.23752">
        <ele>633</ele>
        <time>2022-11-18T06:14:29Z</time>
      </trkpt>
      <trkpt lat="45.44294" lon="4.23756">
        <ele>630</ele>
        <time>2022-11-18T06:14:42Z</time>
      </trkpt>
      <trkpt lat="45.44346" lon="4.2375">
        <ele>627</ele>
        <time>2022-11-18T06:14:51Z</time>
      </trkpt>
      <trkpt lat="45.44384" lon="4.23732">
        <ele>625</ele>
        <time>2022-11-18T06:14:58Z</time>
      </trkpt>
      <trkpt lat="45.44403" lon="4.23717">
        <ele>624</ele>
        <time>2022-11-18T06:15:02Z</time>
      </trkpt>
      <trkpt lat="45.44465" lon="4.23646">
        <ele>623</ele>
        <time>2022-11-18T06:15:16Z</time>
      </trkpt>
      <trkpt lat="45.4449" lon="4.23626">
        <ele>623</ele>
        <time>2022-11-18T06:15:21Z</time>
      </trkpt>
      <trkpt lat="45.4453" lon="4.236">
        <ele>621</ele>
        <time>2022-11-18T06:15:29Z</time>
      </trkpt>
      <trkpt lat="45.44583" lon="4.23575">
        <ele>617</ele>
        <time>2022-11-18T06:15:39Z</time>
      </trkpt>
      <trkpt lat="45.44639" lon="4.23544">
        <ele>617</ele>
        <time>2022-11-18T06:15:50Z</time>
      </trkpt>
      <trkpt lat="45.44765" lon="4.2347">
        <ele>616</ele>
        <time>2022-11-18T06:16:14Z</time>
      </trkpt>
      <trkpt lat="45.44785" lon="4.23456">
        <ele>615</ele>
        <time>2022-11-18T06:16:18Z</time>
      </trkpt>
      <trkpt lat="45.44802" lon="4.2344">
        <ele>614</ele>
        <time>2022-11-18T06:16:21Z</time>
      </trkpt>
      <trkpt lat="45.4483" lon="4.23403">
        <ele>613</ele>
        <time>2022-11-18T06:16:28Z</time>
      </trkpt>
      <trkpt lat="45.44934" lon="4.23253">
        <ele>604</ele>
        <time>2022-11-18T06:16:55Z</time>
      </trkpt>
      <trkpt lat="45.45039" lon="4.23108">
        <ele>602</ele>
        <time>2022-11-18T06:17:21Z</time>
      </trkpt>
      <trkpt lat="45.45053" lon="4.23093">
        <ele>602</ele>
        <time>2022-11-18T06:17:24Z</time>
      </trkpt>
      <trkpt lat="45.45067" lon="4.23085">
        <ele>602</ele>
        <time>2022-11-18T06:17:26Z</time>
      </trkpt>
      <trkpt lat="45.45117" lon="4.23069">
        <ele>603</ele>
        <time>2022-11-18T06:17:36Z</time>
      </trkpt>
      <trkpt lat="45.45199" lon="4.23065">
        <ele>601</ele>
        <time>2022-11-18T06:17:50Z</time>
      </trkpt>
      <trkpt lat="45.4523" lon="4.23052">
        <ele>598</ele>
        <time>2022-11-18T06:17:56Z</time>
      </trkpt>
      <trkpt lat="45.45259" lon="4.2303">
        <ele>596</ele>
        <time>2022-11-18T06:18:02Z</time>
      </trkpt>
      <trkpt lat="45.45291" lon="4.22989">
        <ele>594</ele>
        <time>2022-11-18T06:18:09Z</time>
      </trkpt>
      <trkpt lat="45.45304" lon="4.22962">
        <ele>593</ele>
        <time>2022-11-18T06:18:13Z</time>
      </trkpt>
      <trkpt lat="45.45321" lon="4.22902">
        <ele>591</ele>
        <time>2022-11-18T06:18:22Z</time>
      </trkpt>
      <trkpt lat="45.45367" lon="4.22673">
        <ele>584</ele>
        <time>2022-11-18T06:18:51Z</time>
      </trkpt>
      <trkpt lat="45.45377" lon="4.22638">
        <ele>583</ele>
        <time>2022-11-18T06:18:56Z</time>
      </trkpt>
      <trkpt lat="45.45407" lon="4.22589">
        <ele>579</ele>
        <time>2022-11-18T06:19:04Z</time>
      </trkpt>
      <trkpt lat="45.457" lon="4.22294">
        <ele>560</ele>
        <time>2022-11-18T06:20:08Z</time>
      </trkpt>
      <trkpt lat="45.4573" lon="4.2228">
        <ele>557</ele>
        <time>2022-11-18T06:20:14Z</time>
      </trkpt>
      <trkpt lat="45.45764" lon="4.2227">
        <ele>554</ele>
        <time>2022-11-18T06:20:20Z</time>
      </trkpt>
      <trkpt lat="45.45788" lon="4.22268">
        <ele>551</ele>
        <time>2022-11-18T06:20:24Z</time>
      </trkpt>
      <trkpt lat="45.45805" lon="4.2227">
        <ele>549</ele>
        <time>2022-11-18T06:20:27Z</time>
      </trkpt>
      <trkpt lat="45.45827" lon="4.22277">
        <ele>547</ele>
        <time>2022-11-18T06:20:31Z</time>
      </trkpt>
      <trkpt lat="45.45847" lon="4.22287">
        <ele>546</ele>
        <time>2022-11-18T06:20:35Z</time>
      </trkpt>
      <trkpt lat="45.45891" lon="4.22315">
        <ele>547</ele>
        <time>2022-11-18T06:20:43Z</time>
      </trkpt>
      <trkpt lat="45.45943" lon="4.22358">
        <ele>548</ele>
        <time>2022-11-18T06:20:54Z</time>
      </trkpt>
      <trkpt lat="45.45957" lon="4.22377">
        <ele>548</ele>
        <time>2022-11-18T06:20:58Z</time>
      </trkpt>
      <trkpt lat="45.45969" lon="4.22404">
        <ele>549</ele>
        <time>2022-11-18T06:21:02Z</time>
      </trkpt>
      <trkpt lat="45.45976" lon="4.2243">
        <ele>549</ele>
        <time>2022-11-18T06:21:05Z</time>
      </trkpt>
      <trkpt lat="45.4598" lon="4.2247">
        <ele>549</ele>
        <time>2022-11-18T06:21:10Z</time>
      </trkpt>
      <trkpt lat="45.45982" lon="4.22557">
        <ele>545</ele>
        <time>2022-11-18T06:21:21Z</time>
      </trkpt>
      <trkpt lat="45.45987" lon="4.22592">
        <ele>543</ele>
        <time>2022-11-18T06:21:25Z</time>
      </trkpt>
      <trkpt lat="45.46003" lon="4.22661">
        <ele>537</ele>
        <time>2022-11-18T06:21:34Z</time>
      </trkpt>
      <trkpt lat="45.46022" lon="4.22705">
        <ele>534</ele>
        <time>2022-11-18T06:21:41Z</time>
      </trkpt>
      <trkpt lat="45.46042" lon="4.22729">
        <ele>533</ele>
        <time>2022-11-18T06:21:46Z</time>
      </trkpt>
      <trkpt lat="45.461" lon="4.22771">
        <ele>535</ele>
        <time>2022-11-18T06:21:57Z</time>
      </trkpt>
      <trkpt lat="45.46124" lon="4.22799">
        <ele>532</ele>
        <time>2022-11-18T06:22:03Z</time>
      </trkpt>
      <trkpt lat="45.46243" lon="4.22966">
        <ele>525</ele>
        <time>2022-11-18T06:22:32Z</time>
      </trkpt>
      <trkpt lat="45.46296" lon="4.23034">
        <ele>521</ele>
        <time>2022-11-18T06:22:45Z</time>
      </trkpt>
      <trkpt lat="45.46412" lon="4.23122">
        <ele>514</ele>
        <time>2022-11-18T06:23:08Z</time>
      </trkpt>
      <trkpt lat="45.46434" lon="4.23133">
        <ele>513</ele>
        <time>2022-11-18T06:23:13Z</time>
      </trkpt>
      <trkpt lat="45.46465" lon="4.23136">
        <ele>513</ele>
        <time>2022-11-18T06:23:18Z</time>
      </trkpt>
      <trkpt lat="45.465" lon="4.23134">
        <ele>514</ele>
        <time>2022-11-18T06:23:24Z</time>
      </trkpt>
      <trkpt lat="45.4652" lon="4.23127">
        <ele>512</ele>
        <time>2022-11-18T06:23:28Z</time>
      </trkpt>
      <trkpt lat="45.46536" lon="4.23113">
        <ele>511</ele>
        <time>2022-11-18T06:23:31Z</time>
      </trkpt>
      <trkpt lat="45.46566" lon="4.23063">
        <ele>511</ele>
        <time>2022-11-18T06:23:40Z</time>
      </trkpt>
      <trkpt lat="45.46603" lon="4.23013">
        <ele>510</ele>
        <time>2022-11-18T06:23:49Z</time>
      </trkpt>
      <trkpt lat="45.46621" lon="4.22996">
        <ele>508</ele>
        <time>2022-11-18T06:23:52Z</time>
      </trkpt>
      <trkpt lat="45.4664" lon="4.22991">
        <ele>505</ele>
        <time>2022-11-18T06:23:56Z</time>
      </trkpt>
      <trkpt lat="45.46655" lon="4.22995">
        <ele>502</ele>
        <time>2022-11-18T06:23:59Z</time>
      </trkpt>
      <trkpt lat="45.46669" lon="4.23004">
        <ele>499</ele>
        <time>2022-11-18T06:24:01Z</time>
      </trkpt>
      <trkpt lat="45.4668" lon="4.23023">
        <ele>498</ele>
        <time>2022-11-18T06:24:04Z</time>
      </trkpt>
      <trkpt lat="45.46684" lon="4.23043">
        <ele>497</ele>
        <time>2022-11-18T06:24:07Z</time>
      </trkpt>
      <trkpt lat="45.46684" lon="4.23066">
        <ele>496</ele>
        <time>2022-11-18T06:24:10Z</time>
      </trkpt>
      <trkpt lat="45.4667" lon="4.23157">
        <ele>491</ele>
        <time>2022-11-18T06:24:21Z</time>
      </trkpt>
      <trkpt lat="45.46673" lon="4.23182">
        <ele>490</ele>
        <time>2022-11-18T06:24:25Z</time>
      </trkpt>
      <trkpt lat="45.46689" lon="4.23216">
        <ele>488</ele>
        <time>2022-11-18T06:24:30Z</time>
      </trkpt>
      <trkpt lat="45.467" lon="4.23229">
        <ele>488</ele>
        <time>2022-11-18T06:24:32Z</time>
      </trkpt>
      <trkpt lat="45.46771" lon="4.23253">
        <ele>490</ele>
        <time>2022-11-18T06:24:45Z</time>
      </trkpt>
      <trkpt lat="45.4682" lon="4.23282">
        <ele>490</ele>
        <time>2022-11-18T06:24:55Z</time>
      </trkpt>
      <trkpt lat="45.46852" lon="4.23312">
        <ele>488</ele>
        <time>2022-11-18T06:25:02Z</time>
      </trkpt>
      <trkpt lat="45.46966" lon="4.23431">
        <ele>486</ele>
        <time>2022-11-18T06:25:27Z</time>
      </trkpt>
      <trkpt lat="45.47025" lon="4.23502">
        <ele>486</ele>
        <time>2022-11-18T06:25:40Z</time>
      </trkpt>
      <trkpt lat="45.47063" lon="4.23542">
        <ele>489</ele>
        <time>2022-11-18T06:25:49Z</time>
      </trkpt>
      <trkpt lat="45.47085" lon="4.23569">
        <ele>490</ele>
        <time>2022-11-18T06:25:54Z</time>
      </trkpt>
      <trkpt lat="45.47093" lon="4.23586">
        <ele>490</ele>
        <time>2022-11-18T06:25:57Z</time>
      </trkpt>
      <trkpt lat="45.47096" lon="4.23603">
        <ele>490</ele>
        <time>2022-11-18T06:25:59Z</time>
      </trkpt>
      <trkpt lat="45.47094" lon="4.23621">
        <ele>490</ele>
        <time>2022-11-18T06:26:01Z</time>
      </trkpt>
      <trkpt lat="45.47088" lon="4.23632">
        <ele>490</ele>
        <time>2022-11-18T06:26:03Z</time>
      </trkpt>
      <trkpt lat="45.47075" lon="4.2365">
        <ele>489</ele>
        <time>2022-11-18T06:26:06Z</time>
      </trkpt>
      <trkpt lat="45.47047" lon="4.23678">
        <ele>487</ele>
        <time>2022-11-18T06:26:12Z</time>
      </trkpt>
      <trkpt lat="45.46999" lon="4.23759">
        <ele>489</ele>
        <time>2022-11-18T06:26:25Z</time>
      </trkpt>
      <trkpt lat="45.46989" lon="4.23772">
        <ele>489</ele>
        <time>2022-11-18T06:26:28Z</time>
      </trkpt>
      <trkpt lat="45.46978" lon="4.23784">
        <ele>488</ele>
        <time>2022-11-18T06:26:30Z</time>
      </trkpt>
      <trkpt lat="45.46947" lon="4.23801">
        <ele>484</ele>
        <time>2022-11-18T06:26:36Z</time>
      </trkpt>
      <trkpt lat="45.46917" lon="4.23825">
        <ele>481</ele>
        <time>2022-11-18T06:26:42Z</time>
      </trkpt>
      <trkpt lat="45.46909" lon="4.23841">
        <ele>480</ele>
        <time>2022-11-18T06:26:45Z</time>
      </trkpt>
      <trkpt lat="45.46904" lon="4.23861">
        <ele>478</ele>
        <time>2022-11-18T06:26:47Z</time>
      </trkpt>
      <trkpt lat="45.46905" lon="4.23879">
        <ele>477</ele>
        <time>2022-11-18T06:26:50Z</time>
      </trkpt>
      <trkpt lat="45.4691" lon="4.23898">
        <ele>478</ele>
        <time>2022-11-18T06:26:52Z</time>
      </trkpt>
      <trkpt lat="45.46917" lon="4.23909">
        <ele>479</ele>
        <time>2022-11-18T06:26:54Z</time>
      </trkpt>
      <trkpt lat="45.46937" lon="4.23926">
        <ele>481</ele>
        <time>2022-11-18T06:26:58Z</time>
      </trkpt>
      <trkpt lat="45.46973" lon="4.23951">
        <ele>483</ele>
        <time>2022-11-18T06:27:05Z</time>
      </trkpt>
      <trkpt lat="45.4701" lon="4.23988">
        <ele>484</ele>
        <time>2022-11-18T06:27:13Z</time>
      </trkpt>
      <trkpt lat="45.47031" lon="4.24017">
        <ele>484</ele>
        <time>2022-11-18T06:27:18Z</time>
      </trkpt>
      <trkpt lat="45.47058" lon="4.24066">
        <ele>481</ele>
        <time>2022-11-18T06:27:26Z</time>
      </trkpt>
      <trkpt lat="45.4711" lon="4.24127">
        <ele>477</ele>
        <time>2022-11-18T06:27:38Z</time>
      </trkpt>
      <trkpt lat="45.47143" lon="4.24149">
        <ele>477</ele>
        <time>2022-11-18T06:27:45Z</time>
      </trkpt>
      <trkpt lat="45.47226" lon="4.24189">
        <ele>471</ele>
        <time>2022-11-18T06:28:00Z</time>
      </trkpt>
      <trkpt lat="45.47256" lon="4.24196">
        <ele>470</ele>
        <time>2022-11-18T06:28:06Z</time>
      </trkpt>
      <trkpt lat="45.47349" lon="4.24195">
        <ele>468</ele>
        <time>2022-11-18T06:28:22Z</time>
      </trkpt>
      <trkpt lat="45.47378" lon="4.24207">
        <ele>465</ele>
        <time>2022-11-18T06:28:28Z</time>
      </trkpt>
      <trkpt lat="45.4741" lon="4.24232">
        <ele>460</ele>
        <time>2022-11-18T06:28:34Z</time>
      </trkpt>
      <trkpt lat="45.47426" lon="4.24239">
        <ele>458</ele>
        <time>2022-11-18T06:28:37Z</time>
      </trkpt>
      <trkpt lat="45.47447" lon="4.2424">
        <ele>457</ele>
        <time>2022-11-18T06:28:41Z</time>
      </trkpt>
      <trkpt lat="45.47634" lon="4.24199">
        <ele>454</ele>
        <time>2022-11-18T06:29:14Z</time>
      </trkpt>
      <trkpt lat="45.47805" lon="4.24196">
        <ele>443</ele>
        <time>2022-11-18T06:29:45Z</time>
      </trkpt>
      <trkpt lat="45.4782" lon="4.24191">
        <ele>442</ele>
        <time>2022-11-18T06:29:48Z</time>
      </trkpt>
      <trkpt lat="45.47836" lon="4.24181">
        <ele>441</ele>
        <time>2022-11-18T06:29:51Z</time>
      </trkpt>
      <trkpt lat="45.47887" lon="4.24124">
        <ele>440</ele>
        <time>2022-11-18T06:30:02Z</time>
      </trkpt>
      <trkpt lat="45.4794" lon="4.24093">
        <ele>440</ele>
        <time>2022-11-18T06:30:12Z</time>
      </trkpt>
      <trkpt lat="45.48" lon="4.24071">
        <ele>439</ele>
        <time>2022-11-18T06:30:23Z</time>
      </trkpt>
      <trkpt lat="45.48061" lon="4.24058">
        <ele>439</ele>
        <time>2022-11-18T06:30:34Z</time>
      </trkpt>
      <trkpt lat="45.48093" lon="4.24066">
        <ele>439</ele>
        <time>2022-11-18T06:30:40Z</time>
      </trkpt>
      <trkpt lat="45.48136" lon="4.24084">
        <ele>437</ele>
        <time>2022-11-18T06:30:48Z</time>
      </trkpt>
      <trkpt lat="45.48152" lon="4.24093">
        <ele>436</ele>
        <time>2022-11-18T06:30:51Z</time>
      </trkpt>
      <trkpt lat="45.48182" lon="4.24131">
        <ele>435</ele>
        <time>2022-11-18T06:30:58Z</time>
      </trkpt>
      <trkpt lat="45.48198" lon="4.24145">
        <ele>434</ele>
        <time>2022-11-18T06:31:02Z</time>
      </trkpt>
      <trkpt lat="45.48361" lon="4.24193">
        <ele>429</ele>
        <time>2022-11-18T06:31:31Z</time>
      </trkpt>
      <trkpt lat="45.4856" lon="4.24234">
        <ele>424</ele>
        <time>2022-11-18T06:32:07Z</time>
      </trkpt>
      <trkpt lat="45.48632" lon="4.24266">
        <ele>420</ele>
        <time>2022-11-18T06:32:21Z</time>
      </trkpt>
      <trkpt lat="45.48668" lon="4.2429">
        <ele>418</ele>
        <time>2022-11-18T06:32:28Z</time>
      </trkpt>
      <trkpt lat="45.48704" lon="4.24309">
        <ele>415</ele>
        <time>2022-11-18T06:32:34Z</time>
      </trkpt>
      <trkpt lat="45.48747" lon="4.24322">
        <ele>412</ele>
        <time>2022-11-18T06:32:42Z</time>
      </trkpt>
      <trkpt lat="45.48805" lon="4.24334">
        <ele>408</ele>
        <time>2022-11-18T06:32:53Z</time>
      </trkpt>
      <trkpt lat="45.48931" lon="4.24345">
        <ele>403</ele>
        <time>2022-11-18T06:33:15Z</time>
      </trkpt>
      <trkpt lat="45.49006" lon="4.24347">
        <ele>399</ele>
        <time>2022-11-18T06:33:29Z</time>
      </trkpt>
      <trkpt lat="45.49122" lon="4.24345">
        <ele>395</ele>
        <time>2022-11-18T06:33:49Z</time>
      </trkpt>
      <trkpt lat="45.49369" lon="4.24377">
        <ele>393</ele>
        <time>2022-11-18T06:34:33Z</time>
      </trkpt>
      <trkpt lat="45.49396" lon="4.24387">
        <ele>393</ele>
        <time>2022-11-18T06:34:38Z</time>
      </trkpt>
      <trkpt lat="45.49426" lon="4.24403">
        <ele>393</ele>
        <time>2022-11-18T06:34:44Z</time>
      </trkpt>
      <trkpt lat="45.49529" lon="4.24449">
        <ele>393</ele>
        <time>2022-11-18T06:35:03Z</time>
      </trkpt>
      <trkpt lat="45.49548" lon="4.24453">
        <ele>393</ele>
        <time>2022-11-18T06:35:07Z</time>
      </trkpt>
      <trkpt lat="45.49574" lon="4.2445">
        <ele>393</ele>
        <time>2022-11-18T06:35:11Z</time>
      </trkpt>
      <trkpt lat="45.49715" lon="4.24391">
        <ele>394</ele>
        <time>2022-11-18T06:35:37Z</time>
      </trkpt>
      <trkpt lat="45.49785" lon="4.24332">
        <ele>393</ele>
        <time>2022-11-18T06:35:52Z</time>
      </trkpt>
      <trkpt lat="45.49875" lon="4.24271">
        <ele>391</ele>
        <time>2022-11-18T06:36:10Z</time>
      </trkpt>
      <trkpt lat="45.49885" lon="4.24267">
        <ele>391</ele>
        <time>2022-11-18T06:36:11Z</time>
      </trkpt>
      <trkpt lat="45.49881" lon="4.24228">
        <ele>392</ele>
        <time>2022-11-18T06:36:16Z</time>
      </trkpt>
      <trkpt lat="45.49881" lon="4.2418">
        <ele>392</ele>
        <time>2022-11-18T06:36:22Z</time>
      </trkpt>
      <trkpt lat="45.49894" lon="4.24093">
        <ele>392</ele>
        <time>2022-11-18T06:36:33Z</time>
      </trkpt>
      <trkpt lat="45.49906" lon="4.24077">
        <ele>391</ele>
        <time>2022-11-18T06:36:36Z</time>
      </trkpt>
      <trkpt lat="45.49938" lon="4.2405">
        <ele>391</ele>
        <time>2022-11-18T06:36:43Z</time>
      </trkpt>
      <trkpt lat="45.49992" lon="4.24023">
        <ele>390</ele>
        <time>2022-11-18T06:36:53Z</time>
      </trkpt>
      <trkpt lat="45.5" lon="4.24027">
        <ele>390</ele>
        <time>2022-11-18T06:36:55Z</time>
      </trkpt>
      <trkpt lat="45.50025" lon="4.24014">
        <ele>389</ele>
        <time>2022-11-18T06:36:59Z</time>
      </trkpt>
      <trkpt lat="45.50064" lon="4.24002">
        <ele>388</ele>
        <time>2022-11-18T06:37:06Z</time>
      </trkpt>
      <trkpt lat="45.50085" lon="4.23998">
        <ele>388</ele>
        <time>2022-11-18T06:37:10Z</time>
      </trkpt>
      <trkpt lat="45.50135" lon="4.24014">
        <ele>387</ele>
        <time>2022-11-18T06:37:19Z</time>
      </trkpt>
      <trkpt lat="45.50212" lon="4.24075">
        <ele>387</ele>
        <time>2022-11-18T06:37:35Z</time>
      </trkpt>
      <trkpt lat="45.50282" lon="4.24017">
        <ele>385</ele>
        <time>2022-11-18T06:37:49Z</time>
      </trkpt>
      <trkpt lat="45.50331" lon="4.2398">
        <ele>385</ele>
        <time>2022-11-18T06:37:59Z</time>
      </trkpt>
      <trkpt lat="45.50362" lon="4.23966">
        <ele>385</ele>
        <time>2022-11-18T06:38:05Z</time>
      </trkpt>
      <trkpt lat="45.50645" lon="4.23924">
        <ele>376</ele>
        <time>2022-11-18T06:38:56Z</time>
      </trkpt>
      <trkpt lat="45.50735" lon="4.23913">
        <ele>374</ele>
        <time>2022-11-18T06:39:12Z</time>
      </trkpt>
      <trkpt lat="45.50802" lon="4.239">
        <ele>374</ele>
        <time>2022-11-18T06:39:24Z</time>
      </trkpt>
      <trkpt lat="45.50897" lon="4.23886">
        <ele>374</ele>
        <time>2022-11-18T06:39:41Z</time>
      </trkpt>
      <trkpt lat="45.50918" lon="4.23875">
        <ele>374</ele>
        <time>2022-11-18T06:39:45Z</time>
      </trkpt>
      <trkpt lat="45.50929" lon="4.23864">
        <ele>374</ele>
        <time>2022-11-18T06:39:47Z</time>
      </trkpt>
      <trkpt lat="45.50955" lon="4.23826">
        <ele>374</ele>
        <time>2022-11-18T06:39:54Z</time>
      </trkpt>
      <trkpt lat="45.50976" lon="4.23804">
        <ele>374</ele>
        <time>2022-11-18T06:39:58Z</time>
      </trkpt>
      <trkpt lat="45.50985" lon="4.23802">
        <ele>374</ele>
        <time>2022-11-18T06:40:00Z</time>
      </trkpt>
      <trkpt lat="45.50998" lon="4.23805">
        <ele>374</ele>
        <time>2022-11-18T06:40:02Z</time>
      </trkpt>
      <trkpt lat="45.51013" lon="4.23814">
        <ele>374</ele>
        <time>2022-11-18T06:40:05Z</time>
      </trkpt>
      <trkpt lat="45.5101" lon="4.2382">
        <ele>374</ele>
        <time>2022-11-18T06:40:06Z</time>
      </trkpt>
      <trkpt lat="45.5101" lon="4.23835">
        <ele>375</ele>
        <time>2022-11-18T06:40:08Z</time>
      </trkpt>
      <trkpt lat="45.51016" lon="4.23847">
        <ele>374</ele>
        <time>2022-11-18T06:40:10Z</time>
      </trkpt>
      <trkpt lat="45.51021" lon="4.23851">
        <ele>374</ele>
        <time>2022-11-18T06:40:11Z</time>
      </trkpt>
      <trkpt lat="45.51032" lon="4.23851">
        <ele>374</ele>
        <time>2022-11-18T06:40:13Z</time>
      </trkpt>
      <trkpt lat="45.51038" lon="4.23847">
        <ele>374</ele>
        <time>2022-11-18T06:40:14Z</time>
      </trkpt>
      <trkpt lat="45.51041" lon="4.23841">
        <ele>373</ele>
        <time>2022-11-18T06:40:15Z</time>
      </trkpt>
      <trkpt lat="45.51055" lon="4.2385">
        <ele>373</ele>
        <time>2022-11-18T06:40:18Z</time>
      </trkpt>
      <trkpt lat="45.51066" lon="4.23854">
        <ele>373</ele>
        <time>2022-11-18T06:40:20Z</time>
      </trkpt>
      <trkpt lat="45.51319" lon="4.23828">
        <ele>371</ele>
        <time>2022-11-18T06:41:05Z</time>
      </trkpt>
      <trkpt lat="45.51484" lon="4.23827">
        <ele>372</ele>
        <time>2022-11-18T06:41:34Z</time>
      </trkpt>
      <trkpt lat="45.5174" lon="4.23802">
        <ele>370</ele>
        <time>2022-11-18T06:42:20Z</time>
      </trkpt>
      <trkpt lat="45.51756" lon="4.23805">
        <ele>370</ele>
        <time>2022-11-18T06:42:23Z</time>
      </trkpt>
      <trkpt lat="45.51795" lon="4.23818">
        <ele>371</ele>
        <time>2022-11-18T06:42:30Z</time>
      </trkpt>
      <trkpt lat="45.51823" lon="4.23817">
        <ele>372</ele>
        <time>2022-11-18T06:42:35Z</time>
      </trkpt>
      <trkpt lat="45.51848" lon="4.23797">
        <ele>372</ele>
        <time>2022-11-18T06:42:40Z</time>
      </trkpt>
      <trkpt lat="45.51944" lon="4.23707">
        <ele>368</ele>
        <time>2022-11-18T06:43:00Z</time>
      </trkpt>
      <trkpt lat="45.51991" lon="4.23672">
        <ele>368</ele>
        <time>2022-11-18T06:43:10Z</time>
      </trkpt>
      <trkpt lat="45.52007" lon="4.23668">
        <ele>368</ele>
        <time>2022-11-18T06:43:13Z</time>
      </trkpt>
      <trkpt lat="45.52028" lon="4.23667">
        <ele>368</ele>
        <time>2022-11-18T06:43:16Z</time>
      </trkpt>
      <trkpt lat="45.52057" lon="4.23671">
        <ele>369</ele>
        <time>2022-11-18T06:43:22Z</time>
      </trkpt>
      <trkpt lat="45.52123" lon="4.23689">
        <ele>368</ele>
        <time>2022-11-18T06:43:34Z</time>
      </trkpt>
      <trkpt lat="45.52143" lon="4.2369">
        <ele>369</ele>
        <time>2022-11-18T06:43:37Z</time>
      </trkpt>
      <trkpt lat="45.52254" lon="4.23664">
        <ele>370</ele>
        <time>2022-11-18T06:43:57Z</time>
      </trkpt>
      <trkpt lat="45.52294" lon="4.23648">
        <ele>369</ele>
        <time>2022-11-18T06:44:05Z</time>
      </trkpt>
      <trkpt lat="45.52347" lon="4.23614">
        <ele>369</ele>
        <time>2022-11-18T06:44:15Z</time>
      </trkpt>
      <trkpt lat="45.52397" lon="4.23569">
        <ele>369</ele>
        <time>2022-11-18T06:44:25Z</time>
      </trkpt>
      <trkpt lat="45.52506" lon="4.23491">
        <ele>368</ele>
        <time>2022-11-18T06:44:47Z</time>
      </trkpt>
      <trkpt lat="45.52641" lon="4.2341">
        <ele>370</ele>
        <time>2022-11-18T06:45:13Z</time>
      </trkpt>
      <trkpt lat="45.52657" lon="4.23406">
        <ele>370</ele>
        <time>2022-11-18T06:45:16Z</time>
      </trkpt>
      <trkpt lat="45.52672" lon="4.23406">
        <ele>370</ele>
        <time>2022-11-18T06:45:19Z</time>
      </trkpt>
      <trkpt lat="45.5268" lon="4.23423">
        <ele>369</ele>
        <time>2022-11-18T06:45:21Z</time>
      </trkpt>
      <trkpt lat="45.52689" lon="4.23426">
        <ele>369</ele>
        <time>2022-11-18T06:45:23Z</time>
      </trkpt>
      <trkpt lat="45.52695" lon="4.23425">
        <ele>369</ele>
        <time>2022-11-18T06:45:24Z</time>
      </trkpt>
      <trkpt lat="45.52703" lon="4.23415">
        <ele>369</ele>
        <time>2022-11-18T06:45:26Z</time>
      </trkpt>
      <trkpt lat="45.52706" lon="4.23404">
        <ele>369</ele>
        <time>2022-11-18T06:45:27Z</time>
      </trkpt>
      <trkpt lat="45.52705" lon="4.2339">
        <ele>369</ele>
        <time>2022-11-18T06:45:29Z</time>
      </trkpt>
      <trkpt lat="45.52759" lon="4.2336">
        <ele>368</ele>
        <time>2022-11-18T06:45:39Z</time>
      </trkpt>
      <trkpt lat="45.52837" lon="4.23336">
        <ele>370</ele>
        <time>2022-11-18T06:45:54Z</time>
      </trkpt>
      <trkpt lat="45.52856" lon="4.23332">
        <ele>371</ele>
        <time>2022-11-18T06:45:57Z</time>
      </trkpt>
      <trkpt lat="45.52877" lon="4.23331">
        <ele>371</ele>
        <time>2022-11-18T06:46:01Z</time>
      </trkpt>
      <trkpt lat="45.52897" lon="4.23335">
        <ele>371</ele>
        <time>2022-11-18T06:46:04Z</time>
      </trkpt>
      <trkpt lat="45.52932" lon="4.23352">
        <ele>371</ele>
        <time>2022-11-18T06:46:11Z</time>
      </trkpt>
      <trkpt lat="45.52965" lon="4.23361">
        <ele>371</ele>
        <time>2022-11-18T06:46:17Z</time>
      </trkpt>
      <trkpt lat="45.52995" lon="4.23359">
        <ele>371</ele>
        <time>2022-11-18T06:46:22Z</time>
      </trkpt>
      <trkpt lat="45.53022" lon="4.23352">
        <ele>372</ele>
        <time>2022-11-18T06:46:27Z</time>
      </trkpt>
      <trkpt lat="45.53061" lon="4.23347">
        <ele>372</ele>
        <time>2022-11-18T06:46:34Z</time>
      </trkpt>
      <trkpt lat="45.53148" lon="4.23315">
        <ele>373</ele>
        <time>2022-11-18T06:46:50Z</time>
      </trkpt>
      <trkpt lat="45.53153" lon="4.23321">
        <ele>373</ele>
        <time>2022-11-18T06:46:51Z</time>
      </trkpt>
      <trkpt lat="45.53157" lon="4.23321">
        <ele>373</ele>
        <time>2022-11-18T06:46:52Z</time>
      </trkpt>
      <trkpt lat="45.53162" lon="4.23316">
        <ele>373</ele>
        <time>2022-11-18T06:46:53Z</time>
      </trkpt>
      <trkpt lat="45.53162" lon="4.23309">
        <ele>373</ele>
        <time>2022-11-18T06:46:54Z</time>
      </trkpt>
      <trkpt lat="45.532" lon="4.23294">
        <ele>373</ele>
        <time>2022-11-18T06:47:01Z</time>
      </trkpt>
      <trkpt lat="45.5334" lon="4.23231">
        <ele>374</ele>
        <time>2022-11-18T06:47:27Z</time>
      </trkpt>
      <trkpt lat="45.53587" lon="4.23172">
        <ele>372</ele>
        <time>2022-11-18T06:48:12Z</time>
      </trkpt>
      <trkpt lat="45.53658" lon="4.23186">
        <ele>371</ele>
        <time>2022-11-18T06:48:24Z</time>
      </trkpt>
      <trkpt lat="45.53685" lon="4.23181">
        <ele>371</ele>
        <time>2022-11-18T06:48:29Z</time>
      </trkpt>
      <trkpt lat="45.5374" lon="4.23151">
        <ele>371</ele>
        <time>2022-11-18T06:48:40Z</time>
      </trkpt>
      <trkpt lat="45.53839" lon="4.23134">
        <ele>372</ele>
        <time>2022-11-18T06:48:57Z</time>
      </trkpt>
      <trkpt lat="45.53939" lon="4.23141">
        <ele>372</ele>
        <time>2022-11-18T06:49:15Z</time>
      </trkpt>
      <trkpt lat="45.54041" lon="4.2317">
        <ele>372</ele>
        <time>2022-11-18T06:49:34Z</time>
      </trkpt>
      <trkpt lat="45.54118" lon="4.23172">
        <ele>371</ele>
        <time>2022-11-18T06:49:47Z</time>
      </trkpt>
      <trkpt lat="45.54121" lon="4.23187">
        <ele>371</ele>
        <time>2022-11-18T06:49:49Z</time>
      </trkpt>
      <trkpt lat="45.5413" lon="4.23195">
        <ele>371</ele>
        <time>2022-11-18T06:49:51Z</time>
      </trkpt>
      <trkpt lat="45.54136" lon="4.23195">
        <ele>371</ele>
        <time>2022-11-18T06:49:52Z</time>
      </trkpt>
      <trkpt lat="45.54145" lon="4.23187">
        <ele>371</ele>
        <time>2022-11-18T06:49:54Z</time>
      </trkpt>
      <trkpt lat="45.54148" lon="4.2317">
        <ele>370</ele>
        <time>2022-11-18T06:49:56Z</time>
      </trkpt>
      <trkpt lat="45.54276" lon="4.23145">
        <ele>370</ele>
        <time>2022-11-18T06:50:19Z</time>
      </trkpt>
      <trkpt lat="45.54312" lon="4.23153">
        <ele>371</ele>
        <time>2022-11-18T06:50:26Z</time>
      </trkpt>
      <trkpt lat="45.54492" lon="4.23217">
        <ele>369</ele>
        <time>2022-11-18T06:50:59Z</time>
      </trkpt>
      <trkpt lat="45.5453" lon="4.23214">
        <ele>369</ele>
        <time>2022-11-18T06:51:06Z</time>
      </trkpt>
      <trkpt lat="45.54573" lon="4.23194">
        <ele>370</ele>
        <time>2022-11-18T06:51:14Z</time>
      </trkpt>
      <trkpt lat="45.54609" lon="4.23184">
        <ele>370</ele>
        <time>2022-11-18T06:51:20Z</time>
      </trkpt>
      <trkpt lat="45.54799" lon="4.23157">
        <ele>370</ele>
        <time>2022-11-18T06:51:54Z</time>
      </trkpt>
      <trkpt lat="45.54891" lon="4.23159">
        <ele>370</ele>
        <time>2022-11-18T06:52:11Z</time>
      </trkpt>
      <trkpt lat="45.54959" lon="4.23171">
        <ele>369</ele>
        <time>2022-11-18T06:52:23Z</time>
      </trkpt>
      <trkpt lat="45.55007" lon="4.23185">
        <ele>369</ele>
        <time>2022-11-18T06:52:32Z</time>
      </trkpt>
      <trkpt lat="45.55063" lon="4.23194">
        <ele>369</ele>
        <time>2022-11-18T06:52:42Z</time>
      </trkpt>
      <trkpt lat="45.55233" lon="4.2317">
        <ele>370</ele>
        <time>2022-11-18T06:53:12Z</time>
      </trkpt>
      <trkpt lat="45.5532" lon="4.23161">
        <ele>368</ele>
        <time>2022-11-18T06:53:27Z</time>
      </trkpt>
      <trkpt lat="45.55355" lon="4.23154">
        <ele>367</ele>
        <time>2022-11-18T06:53:34Z</time>
      </trkpt>
      <trkpt lat="45.55391" lon="4.23142">
        <ele>368</ele>
        <time>2022-11-18T06:53:40Z</time>
      </trkpt>
      <trkpt lat="45.55435" lon="4.2312">
        <ele>367</ele>
        <time>2022-11-18T06:53:49Z</time>
      </trkpt>
      <trkpt lat="45.55455" lon="4.23116">
        <ele>367</ele>
        <time>2022-11-18T06:53:52Z</time>
      </trkpt>
      <trkpt lat="45.55582" lon="4.23104">
        <ele>367</ele>
        <time>2022-11-18T06:54:15Z</time>
      </trkpt>
      <trkpt lat="45.55687" lon="4.23079">
        <ele>368</ele>
        <time>2022-11-18T06:54:34Z</time>
      </trkpt>
      <trkpt lat="45.55717" lon="4.23074">
        <ele>367</ele>
        <time>2022-11-18T06:54:39Z</time>
      </trkpt>
      <trkpt lat="45.55731" lon="4.23075">
        <ele>367</ele>
        <time>2022-11-18T06:54:42Z</time>
      </trkpt>
      <trkpt lat="45.5582" lon="4.23116">
        <ele>367</ele>
        <time>2022-11-18T06:54:58Z</time>
      </trkpt>
      <trkpt lat="45.55847" lon="4.23122">
        <ele>367</ele>
        <time>2022-11-18T06:55:03Z</time>
      </trkpt>
      <trkpt lat="45.5587" lon="4.23124">
        <ele>367</ele>
        <time>2022-11-18T06:55:07Z</time>
      </trkpt>
      <trkpt lat="45.55981" lon="4.2311">
        <ele>365</ele>
        <time>2022-11-18T06:55:27Z</time>
      </trkpt>
      <trkpt lat="45.5604" lon="4.23111">
        <ele>365</ele>
        <time>2022-11-18T06:55:38Z</time>
      </trkpt>
      <trkpt lat="45.56177" lon="4.23131">
        <ele>363</ele>
        <time>2022-11-18T06:56:02Z</time>
      </trkpt>
      <trkpt lat="45.56243" lon="4.23136">
        <ele>364</ele>
        <time>2022-11-18T06:56:14Z</time>
      </trkpt>
      <trkpt lat="45.56261" lon="4.23135">
        <ele>364</ele>
        <time>2022-11-18T06:56:17Z</time>
      </trkpt>
      <trkpt lat="45.56302" lon="4.2312">
        <ele>364</ele>
        <time>2022-11-18T06:56:25Z</time>
      </trkpt>
      <trkpt lat="45.56324" lon="4.23103">
        <ele>365</ele>
        <time>2022-11-18T06:56:29Z</time>
      </trkpt>
      <trkpt lat="45.56338" lon="4.23088">
        <ele>365</ele>
        <time>2022-11-18T06:56:32Z</time>
      </trkpt>
      <trkpt lat="45.5639" lon="4.23018">
        <ele>365</ele>
        <time>2022-11-18T06:56:45Z</time>
      </trkpt>
      <trkpt lat="45.56404" lon="4.23004">
        <ele>366</ele>
        <time>2022-11-18T06:56:48Z</time>
      </trkpt>
      <trkpt lat="45.56418" lon="4.22994">
        <ele>366</ele>
        <time>2022-11-18T06:56:51Z</time>
      </trkpt>
      <trkpt lat="45.56437" lon="4.22984">
        <ele>366</ele>
        <time>2022-11-18T06:56:54Z</time>
      </trkpt>
      <trkpt lat="45.56459" lon="4.22978">
        <ele>365</ele>
        <time>2022-11-18T06:56:58Z</time>
      </trkpt>
      <trkpt lat="45.56481" lon="4.22978">
        <ele>365</ele>
        <time>2022-11-18T06:57:02Z</time>
      </trkpt>
      <trkpt lat="45.56505" lon="4.22983">
        <ele>365</ele>
        <time>2022-11-18T06:57:07Z</time>
      </trkpt>
      <trkpt lat="45.56529" lon="4.22995">
        <ele>365</ele>
        <time>2022-11-18T06:57:11Z</time>
      </trkpt>
      <trkpt lat="45.5656" lon="4.23018">
        <ele>366</ele>
        <time>2022-11-18T06:57:17Z</time>
      </trkpt>
      <trkpt lat="45.56665" lon="4.23105">
        <ele>364</ele>
        <time>2022-11-18T06:57:39Z</time>
      </trkpt>
      <trkpt lat="45.56724" lon="4.23146">
        <ele>363</ele>
        <time>2022-11-18T06:57:51Z</time>
      </trkpt>
      <trkpt lat="45.56794" lon="4.23179">
        <ele>363</ele>
        <time>2022-11-18T06:58:04Z</time>
      </trkpt>
      <trkpt lat="45.5684" lon="4.23195">
        <ele>363</ele>
        <time>2022-11-18T06:58:12Z</time>
      </trkpt>
      <trkpt lat="45.56865" lon="4.23201">
        <ele>363</ele>
        <time>2022-11-18T06:58:17Z</time>
      </trkpt>
      <trkpt lat="45.56894" lon="4.23203">
        <ele>364</ele>
        <time>2022-11-18T06:58:22Z</time>
      </trkpt>
      <trkpt lat="45.57059" lon="4.23161">
        <ele>361</ele>
        <time>2022-11-18T06:58:52Z</time>
      </trkpt>
      <trkpt lat="45.5709" lon="4.23157">
        <ele>361</ele>
        <time>2022-11-18T06:58:57Z</time>
      </trkpt>
      <trkpt lat="45.57128" lon="4.23157">
        <ele>361</ele>
        <time>2022-11-18T06:59:04Z</time>
      </trkpt>
      <trkpt lat="45.57387" lon="4.23193">
        <ele>361</ele>
        <time>2022-11-18T06:59:50Z</time>
      </trkpt>
      <trkpt lat="45.57443" lon="4.23205">
        <ele>359</ele>
        <time>2022-11-18T07:00:00Z</time>
      </trkpt>
      <trkpt lat="45.575" lon="4.23223">
        <ele>357</ele>
        <time>2022-11-18T07:00:11Z</time>
      </trkpt>
      <trkpt lat="45.57647" lon="4.23279">
        <ele>357</ele>
        <time>2022-11-18T07:00:38Z</time>
      </trkpt>
      <trkpt lat="45.57682" lon="4.23278">
        <ele>357</ele>
        <time>2022-11-18T07:00:44Z</time>
      </trkpt>
      <trkpt lat="45.57711" lon="4.23272">
        <ele>357</ele>
        <time>2022-11-18T07:00:49Z</time>
      </trkpt>
      <trkpt lat="45.57734" lon="4.2327">
        <ele>357</ele>
        <time>2022-11-18T07:00:53Z</time>
      </trkpt>
      <trkpt lat="45.57769" lon="4.23279">
        <ele>357</ele>
        <time>2022-11-18T07:01:00Z</time>
      </trkpt>
      <trkpt lat="45.5779" lon="4.23295">
        <ele>357</ele>
        <time>2022-11-18T07:01:04Z</time>
      </trkpt>
      <trkpt lat="45.57829" lon="4.23336">
        <ele>357</ele>
        <time>2022-11-18T07:01:12Z</time>
      </trkpt>
      <trkpt lat="45.57902" lon="4.23421">
        <ele>357</ele>
        <time>2022-11-18T07:01:29Z</time>
      </trkpt>
      <trkpt lat="45.5794" lon="4.23458">
        <ele>357</ele>
        <time>2022-11-18T07:01:37Z</time>
      </trkpt>
      <trkpt lat="45.57986" lon="4.23493">
        <ele>356</ele>
        <time>2022-11-18T07:01:47Z</time>
      </trkpt>
      <trkpt lat="45.58023" lon="4.23515">
        <ele>355</ele>
        <time>2022-11-18T07:01:54Z</time>
      </trkpt>
      <trkpt lat="45.58109" lon="4.23551">
        <ele>354</ele>
        <time>2022-11-18T07:02:10Z</time>
      </trkpt>
      <trkpt lat="45.58174" lon="4.23543">
        <ele>355</ele>
        <time>2022-11-18T07:02:21Z</time>
      </trkpt>
      <trkpt lat="45.5819" lon="4.23554">
        <ele>355</ele>
        <time>2022-11-18T07:02:24Z</time>
      </trkpt>
      <trkpt lat="45.58192" lon="4.23561">
        <ele>355</ele>
        <time>2022-11-18T07:02:25Z</time>
      </trkpt>
      <trkpt lat="45.58201" lon="4.23568">
        <ele>354</ele>
        <time>2022-11-18T07:02:27Z</time>
      </trkpt>
      <trkpt lat="45.58207" lon="4.23564">
        <ele>354</ele>
        <time>2022-11-18T07:02:28Z</time>
      </trkpt>
      <trkpt lat="45.5821" lon="4.23557">
        <ele>354</ele>
        <time>2022-11-18T07:02:29Z</time>
      </trkpt>
      <trkpt lat="45.58209" lon="4.23548">
        <ele>355</ele>
        <time>2022-11-18T07:02:31Z</time>
      </trkpt>
      <trkpt lat="45.5822" lon="4.23532">
        <ele>355</ele>
        <time>2022-11-18T07:02:33Z</time>
      </trkpt>
      <trkpt lat="45.58335" lon="4.23501">
        <ele>355</ele>
        <time>2022-11-18T07:02:54Z</time>
      </trkpt>
      <trkpt lat="45.58369" lon="4.23488">
        <ele>355</ele>
        <time>2022-11-18T07:03:00Z</time>
      </trkpt>
      <trkpt lat="45.58389" lon="4.23473">
        <ele>355</ele>
        <time>2022-11-18T07:03:04Z</time>
      </trkpt>
      <trkpt lat="45.58411" lon="4.23447">
        <ele>355</ele>
        <time>2022-11-18T07:03:10Z</time>
      </trkpt>
      <trkpt lat="45.58432" lon="4.23292">
        <ele>356</ele>
        <time>2022-11-18T07:03:29Z</time>
      </trkpt>
      <trkpt lat="45.58474" lon="4.2311">
        <ele>360</ele>
        <time>2022-11-18T07:03:53Z</time>
      </trkpt>
      <trkpt lat="45.58479" lon="4.23093">
        <ele>359</ele>
        <time>2022-11-18T07:03:55Z</time>
      </trkpt>
      <trkpt lat="45.58486" lon="4.23081">
        <ele>359</ele>
        <time>2022-11-18T07:03:57Z</time>
      </trkpt>
      <trkpt lat="45.58497" lon="4.23074">
        <ele>359</ele>
        <time>2022-11-18T07:03:59Z</time>
      </trkpt>
      <trkpt lat="45.58537" lon="4.23065">
        <ele>359</ele>
        <time>2022-11-18T07:04:07Z</time>
      </trkpt>
      <trkpt lat="45.58595" lon="4.23048">
        <ele>359</ele>
        <time>2022-11-18T07:04:17Z</time>
      </trkpt>
      <trkpt lat="45.58611" lon="4.23037">
        <ele>358</ele>
        <time>2022-11-18T07:04:20Z</time>
      </trkpt>
      <trkpt lat="45.58619" lon="4.23027">
        <ele>358</ele>
        <time>2022-11-18T07:04:22Z</time>
      </trkpt>
      <trkpt lat="45.58629" lon="4.23004">
        <ele>358</ele>
        <time>2022-11-18T07:04:26Z</time>
      </trkpt>
      <trkpt lat="45.58636" lon="4.23004">
        <ele>357</ele>
        <time>2022-11-18T07:04:27Z</time>
      </trkpt>
      <trkpt lat="45.58649" lon="4.22992">
        <ele>357</ele>
        <time>2022-11-18T07:04:30Z</time>
      </trkpt>
      <trkpt lat="45.58725" lon="4.22909">
        <ele>358</ele>
        <time>2022-11-18T07:04:47Z</time>
      </trkpt>
      <trkpt lat="45.58805" lon="4.22767">
        <ele>357</ele>
        <time>2022-11-18T07:05:09Z</time>
      </trkpt>
      <trkpt lat="45.58844" lon="4.22709">
        <ele>357</ele>
        <time>2022-11-18T07:05:19Z</time>
      </trkpt>
      <trkpt lat="45.58873" lon="4.22676">
        <ele>357</ele>
        <time>2022-11-18T07:05:26Z</time>
      </trkpt>
      <trkpt lat="45.58933" lon="4.22594">
        <ele>359</ele>
        <time>2022-11-18T07:05:41Z</time>
      </trkpt>
      <trkpt lat="45.58974" lon="4.22549">
        <ele>358</ele>
        <time>2022-11-18T07:05:50Z</time>
      </trkpt>
      <trkpt lat="45.5899" lon="4.22544">
        <ele>358</ele>
        <time>2022-11-18T07:05:53Z</time>
      </trkpt>
      <trkpt lat="45.59005" lon="4.22543">
        <ele>358</ele>
        <time>2022-11-18T07:05:55Z</time>
      </trkpt>
      <trkpt lat="45.59033" lon="4.22551">
        <ele>358</ele>
        <time>2022-11-18T07:06:01Z</time>
      </trkpt>
      <trkpt lat="45.59094" lon="4.22599">
        <ele>359</ele>
        <time>2022-11-18T07:06:13Z</time>
      </trkpt>
      <trkpt lat="45.59123" lon="4.22612">
        <ele>358</ele>
        <time>2022-11-18T07:06:18Z</time>
      </trkpt>
      <trkpt lat="45.59286" lon="4.22629">
        <ele>357</ele>
        <time>2022-11-18T07:06:47Z</time>
      </trkpt>
      <trkpt lat="45.59329" lon="4.22629">
        <ele>356</ele>
        <time>2022-11-18T07:06:55Z</time>
      </trkpt>
      <trkpt lat="45.59376" lon="4.22624">
        <ele>357</ele>
        <time>2022-11-18T07:07:03Z</time>
      </trkpt>
      <trkpt lat="45.59412" lon="4.22623">
        <ele>357</ele>
        <time>2022-11-18T07:07:10Z</time>
      </trkpt>
      <trkpt lat="45.59438" lon="4.22626">
        <ele>357</ele>
        <time>2022-11-18T07:07:15Z</time>
      </trkpt>
      <trkpt lat="45.59547" lon="4.22652">
        <ele>356</ele>
        <time>2022-11-18T07:07:34Z</time>
      </trkpt>
      <trkpt lat="45.59739" lon="4.2268">
        <ele>356</ele>
        <time>2022-11-18T07:08:09Z</time>
      </trkpt>
      <trkpt lat="45.59809" lon="4.22677">
        <ele>356</ele>
        <time>2022-11-18T07:08:21Z</time>
      </trkpt>
      <trkpt lat="45.59866" lon="4.22666">
        <ele>355</ele>
        <time>2022-11-18T07:08:31Z</time>
      </trkpt>
      <trkpt lat="45.59943" lon="4.2266">
        <ele>355</ele>
        <time>2022-11-18T07:08:45Z</time>
      </trkpt>
      <trkpt lat="45.60051" lon="4.22637">
        <ele>355</ele>
        <time>2022-11-18T07:09:04Z</time>
      </trkpt>
      <trkpt lat="45.60279" lon="4.22626">
        <ele>354</ele>
        <time>2022-11-18T07:09:45Z</time>
      </trkpt>
      <trkpt lat="45.60396" lon="4.22654">
        <ele>354</ele>
        <time>2022-11-18T07:10:06Z</time>
      </trkpt>
      <trkpt lat="45.60491" lon="4.22672">
        <ele>354</ele>
        <time>2022-11-18T07:10:23Z</time>
      </trkpt>
      <trkpt lat="45.6052" lon="4.22701">
        <ele>353</ele>
        <time>2022-11-18T07:10:29Z</time>
      </trkpt>
      <trkpt lat="45.60529" lon="4.22705">
        <ele>353</ele>
        <time>2022-11-18T07:10:31Z</time>
      </trkpt>
      <trkpt lat="45.60546" lon="4.22701">
        <ele>354</ele>
        <time>2022-11-18T07:10:34Z</time>
      </trkpt>
      <trkpt lat="45.60594" lon="4.22674">
        <ele>354</ele>
        <time>2022-11-18T07:10:43Z</time>
      </trkpt>
      <trkpt lat="45.60608" lon="4.2266">
        <ele>353</ele>
        <time>2022-11-18T07:10:46Z</time>
      </trkpt>
      <trkpt lat="45.60627" lon="4.22627">
        <ele>353</ele>
        <time>2022-11-18T07:10:52Z</time>
      </trkpt>
      <trkpt lat="45.60653" lon="4.22574">
        <ele>353</ele>
        <time>2022-11-18T07:11:00Z</time>
      </trkpt>
      <trkpt lat="45.60676" lon="4.22506">
        <ele>353</ele>
        <time>2022-11-18T07:11:09Z</time>
      </trkpt>
      <trkpt lat="45.60697" lon="4.22458">
        <ele>352</ele>
        <time>2022-11-18T07:11:16Z</time>
      </trkpt>
      <trkpt lat="45.60741" lon="4.22338">
        <ele>352</ele>
        <time>2022-11-18T07:11:33Z</time>
      </trkpt>
      <trkpt lat="45.60792" lon="4.2222">
        <ele>353</ele>
        <time>2022-11-18T07:11:50Z</time>
      </trkpt>
      <trkpt lat="45.60803" lon="4.22202">
        <ele>353</ele>
        <time>2022-11-18T07:11:53Z</time>
      </trkpt>
      <trkpt lat="45.6082" lon="4.22183">
        <ele>354</ele>
        <time>2022-11-18T07:11:57Z</time>
      </trkpt>
      <trkpt lat="45.60896" lon="4.2212">
        <ele>353</ele>
        <time>2022-11-18T07:12:13Z</time>
      </trkpt>
      <trkpt lat="45.60921" lon="4.22103">
        <ele>352</ele>
        <time>2022-11-18T07:12:18Z</time>
      </trkpt>
      <trkpt lat="45.60982" lon="4.22049">
        <ele>349</ele>
        <time>2022-11-18T07:12:30Z</time>
      </trkpt>
      <trkpt lat="45.61001" lon="4.22028">
        <ele>350</ele>
        <time>2022-11-18T07:12:35Z</time>
      </trkpt>
      <trkpt lat="45.61131" lon="4.21833">
        <ele>348</ele>
        <time>2022-11-18T07:13:08Z</time>
      </trkpt>
      <trkpt lat="45.61152" lon="4.21805">
        <ele>348</ele>
        <time>2022-11-18T07:13:13Z</time>
      </trkpt>
      <trkpt lat="45.61287" lon="4.21787">
        <ele>349</ele>
        <time>2022-11-18T07:13:38Z</time>
      </trkpt>
      <trkpt lat="45.61473" lon="4.21775">
        <ele>347</ele>
        <time>2022-11-18T07:14:11Z</time>
      </trkpt>
      <trkpt lat="45.61517" lon="4.21764">
        <ele>347</ele>
        <time>2022-11-18T07:14:19Z</time>
      </trkpt>
      <trkpt lat="45.61545" lon="4.21752">
        <ele>347</ele>
        <time>2022-11-18T07:14:24Z</time>
      </trkpt>
      <trkpt lat="45.61636" lon="4.2167">
        <ele>348</ele>
        <time>2022-11-18T07:14:43Z</time>
      </trkpt>
      <trkpt lat="45.61691" lon="4.21605">
        <ele>348</ele>
        <time>2022-11-18T07:14:56Z</time>
      </trkpt>
      <trkpt lat="45.61726" lon="4.21539">
        <ele>349</ele>
        <time>2022-11-18T07:15:06Z</time>
      </trkpt>
      <trkpt lat="45.61779" lon="4.21367">
        <ele>349</ele>
        <time>2022-11-18T07:15:29Z</time>
      </trkpt>
      <trkpt lat="45.61791" lon="4.21349">
        <ele>349</ele>
        <time>2022-11-18T07:15:32Z</time>
      </trkpt>
      <trkpt lat="45.61793" lon="4.2134">
        <ele>349</ele>
        <time>2022-11-18T07:15:34Z</time>
      </trkpt>
      <trkpt lat="45.61852" lon="4.21368">
        <ele>348</ele>
        <time>2022-11-18T07:15:45Z</time>
      </trkpt>
      <trkpt lat="45.61866" lon="4.21371">
        <ele>347</ele>
        <time>2022-11-18T07:15:47Z</time>
      </trkpt>
      <trkpt lat="45.61885" lon="4.2137">
        <ele>347</ele>
        <time>2022-11-18T07:15:51Z</time>
      </trkpt>
      <trkpt lat="45.61911" lon="4.21362">
        <ele>347</ele>
        <time>2022-11-18T07:15:55Z</time>
      </trkpt>
      <trkpt lat="45.62016" lon="4.21313">
        <ele>349</ele>
        <time>2022-11-18T07:16:15Z</time>
      </trkpt>
      <trkpt lat="45.6203" lon="4.21304">
        <ele>349</ele>
        <time>2022-11-18T07:16:18Z</time>
      </trkpt>
      <trkpt lat="45.6207" lon="4.21295">
        <ele>348</ele>
        <time>2022-11-18T07:16:25Z</time>
      </trkpt>
      <trkpt lat="45.62082" lon="4.21288">
        <ele>348</ele>
        <time>2022-11-18T07:16:27Z</time>
      </trkpt>
      <trkpt lat="45.62091" lon="4.21195">
        <ele>349</ele>
        <time>2022-11-18T07:16:39Z</time>
      </trkpt>
      <trkpt lat="45.62095" lon="4.21196">
        <ele>349</ele>
        <time>2022-11-18T07:16:40Z</time>
      </trkpt>
      <trkpt lat="45.62102" lon="4.21192">
        <ele>349</ele>
        <time>2022-11-18T07:16:41Z</time>
      </trkpt>
      <trkpt lat="45.6211" lon="4.21192">
        <ele>349</ele>
        <time>2022-11-18T07:16:42Z</time>
      </trkpt>
      <trkpt lat="45.6211" lon="4.21186">
        <ele>349</ele>
        <time>2022-11-18T07:16:43Z</time>
      </trkpt>
      <trkpt lat="45.6224" lon="4.21231">
        <ele>346</ele>
        <time>2022-11-18T07:17:07Z</time>
      </trkpt>
      <trkpt lat="45.62294" lon="4.21244">
        <ele>346</ele>
        <time>2022-11-18T07:17:17Z</time>
      </trkpt>
      <trkpt lat="45.62359" lon="4.21249">
        <ele>346</ele>
        <time>2022-11-18T07:17:28Z</time>
      </trkpt>
      <trkpt lat="45.62411" lon="4.21244">
        <ele>345</ele>
        <time>2022-11-18T07:17:38Z</time>
      </trkpt>
      <trkpt lat="45.62517" lon="4.21281">
        <ele>345</ele>
        <time>2022-11-18T07:17:57Z</time>
      </trkpt>
      <trkpt lat="45.6262" lon="4.21298">
        <ele>344</ele>
        <time>2022-11-18T07:18:15Z</time>
      </trkpt>
      <trkpt lat="45.62709" lon="4.2128">
        <ele>345</ele>
        <time>2022-11-18T07:18:31Z</time>
      </trkpt>
      <trkpt lat="45.62778" lon="4.21276">
        <ele>345</ele>
        <time>2022-11-18T07:18:44Z</time>
      </trkpt>
      <trkpt lat="45.62812" lon="4.21263">
        <ele>345</ele>
        <time>2022-11-18T07:18:50Z</time>
      </trkpt>
      <trkpt lat="45.62996" lon="4.21152">
        <ele>343</ele>
        <time>2022-11-18T07:19:25Z</time>
      </trkpt>
      <trkpt lat="45.63138" lon="4.21059">
        <ele>343</ele>
        <time>2022-11-18T07:19:53Z</time>
      </trkpt>
      <trkpt lat="45.63371" lon="4.2096">
        <ele>345</ele>
        <time>2022-11-18T07:20:36Z</time>
      </trkpt>
      <trkpt lat="45.6341" lon="4.2093">
        <ele>345</ele>
        <time>2022-11-18T07:20:44Z</time>
      </trkpt>
      <trkpt lat="45.63484" lon="4.20857">
        <ele>345</ele>
        <time>2022-11-18T07:21:00Z</time>
      </trkpt>
      <trkpt lat="45.63578" lon="4.20727">
        <ele>345</ele>
        <time>2022-11-18T07:21:24Z</time>
      </trkpt>
      <trkpt lat="45.63728" lon="4.20639">
        <ele>344</ele>
        <time>2022-11-18T07:21:52Z</time>
      </trkpt>
      <trkpt lat="45.63755" lon="4.20617">
        <ele>344</ele>
        <time>2022-11-18T07:21:58Z</time>
      </trkpt>
      <trkpt lat="45.63763" lon="4.20614">
        <ele>344</ele>
        <time>2022-11-18T07:21:59Z</time>
      </trkpt>
      <trkpt lat="45.63783" lon="4.20614">
        <ele>344</ele>
        <time>2022-11-18T07:22:03Z</time>
      </trkpt>
      <trkpt lat="45.63789" lon="4.20622">
        <ele>344</ele>
        <time>2022-11-18T07:22:04Z</time>
      </trkpt>
      <trkpt lat="45.63797" lon="4.20626">
        <ele>343</ele>
        <time>2022-11-18T07:22:06Z</time>
      </trkpt>
      <trkpt lat="45.63806" lon="4.20624">
        <ele>343</ele>
        <time>2022-11-18T07:22:08Z</time>
      </trkpt>
      <trkpt lat="45.63817" lon="4.20607">
        <ele>343</ele>
        <time>2022-11-18T07:22:11Z</time>
      </trkpt>
      <trkpt lat="45.63815" lon="4.20584">
        <ele>343</ele>
        <time>2022-11-18T07:22:13Z</time>
      </trkpt>
      <trkpt lat="45.63864" lon="4.20532">
        <ele>342</ele>
        <time>2022-11-18T07:22:24Z</time>
      </trkpt>
      <trkpt lat="45.64015" lon="4.2045">
        <ele>341</ele>
        <time>2022-11-18T07:22:53Z</time>
      </trkpt>
      <trkpt lat="45.64168" lon="4.20359">
        <ele>343</ele>
        <time>2022-11-18T07:23:22Z</time>
      </trkpt>
      <trkpt lat="45.64415" lon="4.20232">
        <ele>340</ele>
        <time>2022-11-18T07:24:09Z</time>
      </trkpt>
      <trkpt lat="45.64455" lon="4.20203">
        <ele>340</ele>
        <time>2022-11-18T07:24:17Z</time>
      </trkpt>
      <trkpt lat="45.64484" lon="4.20176">
        <ele>340</ele>
        <time>2022-11-18T07:24:23Z</time>
      </trkpt>
      <trkpt lat="45.64506" lon="4.20141">
        <ele>340</ele>
        <time>2022-11-18T07:24:29Z</time>
      </trkpt>
      <trkpt lat="45.6461" lon="4.19924">
        <ele>339</ele>
        <time>2022-11-18T07:25:02Z</time>
      </trkpt>
      <trkpt lat="45.64635" lon="4.19883">
        <ele>340</ele>
        <time>2022-11-18T07:25:09Z</time>
      </trkpt>
      <trkpt lat="45.64666" lon="4.19845">
        <ele>342</ele>
        <time>2022-11-18T07:25:16Z</time>
      </trkpt>
      <trkpt lat="45.64803" lon="4.19698">
        <ele>340</ele>
        <time>2022-11-18T07:25:46Z</time>
      </trkpt>
      <trkpt lat="45.66378" lon="4.17968">
        <ele>336</ele>
        <time>2022-11-18T07:31:40Z</time>
      </trkpt>
      <trkpt lat="45.66704" lon="4.17615">
        <ele>339</ele>
        <time>2022-11-18T07:32:52Z</time>
      </trkpt>
      <trkpt lat="45.66723" lon="4.17589">
        <ele>338</ele>
        <time>2022-11-18T07:32:57Z</time>
      </trkpt>
      <trkpt lat="45.6673" lon="4.17562">
        <ele>338</ele>
        <time>2022-11-18T07:33:01Z</time>
      </trkpt>
      <trkpt lat="45.66732" lon="4.17542">
        <ele>339</ele>
        <time>2022-11-18T07:33:03Z</time>
      </trkpt>
      <trkpt lat="45.66728" lon="4.17504">
        <ele>340</ele>
        <time>2022-11-18T07:33:08Z</time>
      </trkpt>
      <trkpt lat="45.66723" lon="4.17486">
        <ele>341</ele>
        <time>2022-11-18T07:33:10Z</time>
      </trkpt>
      <trkpt lat="45.66708" lon="4.17451">
        <ele>342</ele>
        <time>2022-11-18T07:33:15Z</time>
      </trkpt>
      <trkpt lat="45.66697" lon="4.17414">
        <ele>343</ele>
        <time>2022-11-18T07:33:20Z</time>
      </trkpt>
      <trkpt lat="45.66692" lon="4.17373">
        <ele>345</ele>
        <time>2022-11-18T07:33:26Z</time>
      </trkpt>
      <trkpt lat="45.66694" lon="4.17342">
        <ele>345</ele>
        <time>2022-11-18T07:33:30Z</time>
      </trkpt>
      <trkpt lat="45.66703" lon="4.17309">
        <ele>345</ele>
        <time>2022-11-18T07:33:34Z</time>
      </trkpt>
      <trkpt lat="45.66715" lon="4.17289">
        <ele>346</ele>
        <time>2022-11-18T07:33:37Z</time>
      </trkpt>
      <trkpt lat="45.66729" lon="4.17274">
        <ele>346</ele>
        <time>2022-11-18T07:33:40Z</time>
      </trkpt>
      <trkpt lat="45.66754" lon="4.17263">
        <ele>347</ele>
        <time>2022-11-18T07:33:45Z</time>
      </trkpt>
      <trkpt lat="45.66787" lon="4.17254">
        <ele>347</ele>
        <time>2022-11-18T07:33:51Z</time>
      </trkpt>
      <trkpt lat="45.66841" lon="4.1723">
        <ele>348</ele>
        <time>2022-11-18T07:34:01Z</time>
      </trkpt>
      <trkpt lat="45.66893" lon="4.17218">
        <ele>347</ele>
        <time>2022-11-18T07:34:10Z</time>
      </trkpt>
      <trkpt lat="45.66948" lon="4.17194">
        <ele>347</ele>
        <time>2022-11-18T07:34:21Z</time>
      </trkpt>
      <trkpt lat="45.66987" lon="4.1717">
        <ele>346</ele>
        <time>2022-11-18T07:34:28Z</time>
      </trkpt>
      <trkpt lat="45.67072" lon="4.17107">
        <ele>345</ele>
        <time>2022-11-18T07:34:45Z</time>
      </trkpt>
      <trkpt lat="45.67087" lon="4.17103">
        <ele>345</ele>
        <time>2022-11-18T07:34:48Z</time>
      </trkpt>
      <trkpt lat="45.67088" lon="4.17109">
        <ele>345</ele>
        <time>2022-11-18T07:34:49Z</time>
      </trkpt>
      <trkpt lat="45.67096" lon="4.17116">
        <ele>344</ele>
        <time>2022-11-18T07:34:50Z</time>
      </trkpt>
      <trkpt lat="45.67104" lon="4.1711">
        <ele>344</ele>
        <time>2022-11-18T07:34:52Z</time>
      </trkpt>
      <trkpt lat="45.67105" lon="4.17099">
        <ele>344</ele>
        <time>2022-11-18T07:34:53Z</time>
      </trkpt>
      <trkpt lat="45.671" lon="4.17092">
        <ele>344</ele>
        <time>2022-11-18T07:34:55Z</time>
      </trkpt>
      <trkpt lat="45.67102" lon="4.17075">
        <ele>345</ele>
        <time>2022-11-18T07:34:57Z</time>
      </trkpt>
      <trkpt lat="45.67097" lon="4.17047">
        <ele>345</ele>
        <time>2022-11-18T07:35:00Z</time>
      </trkpt>
      <trkpt lat="45.67081" lon="4.16997">
        <ele>346</ele>
        <time>2022-11-18T07:35:07Z</time>
      </trkpt>
      <trkpt lat="45.67072" lon="4.16953">
        <ele>346</ele>
        <time>2022-11-18T07:35:13Z</time>
      </trkpt>
      <trkpt lat="45.67072" lon="4.16938">
        <ele>345</ele>
        <time>2022-11-18T07:35:15Z</time>
      </trkpt>
      <trkpt lat="45.6709" lon="4.16831">
        <ele>346</ele>
        <time>2022-11-18T07:35:28Z</time>
      </trkpt>
      <trkpt lat="45.6712" lon="4.16602">
        <ele>348</ele>
        <time>2022-11-18T07:35:57Z</time>
      </trkpt>
      <trkpt lat="45.67118" lon="4.16468">
        <ele>351</ele>
        <time>2022-11-18T07:36:14Z</time>
      </trkpt>
      <trkpt lat="45.67102" lon="4.16073">
        <ele>361</ele>
        <time>2022-11-18T07:37:03Z</time>
      </trkpt>
      <trkpt lat="45.67107" lon="4.15956">
        <ele>363</ele>
        <time>2022-11-18T07:37:18Z</time>
      </trkpt>
      <trkpt lat="45.67138" lon="4.15649">
        <ele>368</ele>
        <time>2022-11-18T07:37:56Z</time>
      </trkpt>
      <trkpt lat="45.67153" lon="4.15535">
        <ele>368</ele>
        <time>2022-11-18T07:38:11Z</time>
      </trkpt>
      <trkpt lat="45.67165" lon="4.15484">
        <ele>369</ele>
        <time>2022-11-18T07:38:17Z</time>
      </trkpt>
      <trkpt lat="45.67202" lon="4.15367">
        <ele>372</ele>
        <time>2022-11-18T07:38:33Z</time>
      </trkpt>
      <trkpt lat="45.6742" lon="4.14698">
        <ele>374</ele>
        <time>2022-11-18T07:40:05Z</time>
      </trkpt>
      <trkpt lat="45.67434" lon="4.14677">
        <ele>374</ele>
        <time>2022-11-18T07:40:09Z</time>
      </trkpt>
      <trkpt lat="45.67439" lon="4.14677">
        <ele>374</ele>
        <time>2022-11-18T07:40:10Z</time>
      </trkpt>
      <trkpt lat="45.67446" lon="4.14673">
        <ele>374</ele>
        <time>2022-11-18T07:40:11Z</time>
      </trkpt>
      <trkpt lat="45.67452" lon="4.14661">
        <ele>374</ele>
        <time>2022-11-18T07:40:13Z</time>
      </trkpt>
      <trkpt lat="45.67452" lon="4.14653">
        <ele>374</ele>
        <time>2022-11-18T07:40:14Z</time>
      </trkpt>
      <trkpt lat="45.67448" lon="4.14642">
        <ele>375</ele>
        <time>2022-11-18T07:40:15Z</time>
      </trkpt>
      <trkpt lat="45.67448" lon="4.14616">
        <ele>376</ele>
        <time>2022-11-18T07:40:19Z</time>
      </trkpt>
      <trkpt lat="45.67926" lon="4.13151">
        <ele>351</ele>
        <time>2022-11-18T07:43:40Z</time>
      </trkpt>
      <trkpt lat="45.68012" lon="4.1288">
        <ele>349</ele>
        <time>2022-11-18T07:44:17Z</time>
      </trkpt>
      <trkpt lat="45.6803" lon="4.12793">
        <ele>349</ele>
        <time>2022-11-18T07:44:28Z</time>
      </trkpt>
      <trkpt lat="45.6804" lon="4.12697">
        <ele>348</ele>
        <time>2022-11-18T07:44:40Z</time>
      </trkpt>
      <trkpt lat="45.68042" lon="4.12631">
        <ele>348</ele>
        <time>2022-11-18T07:44:48Z</time>
      </trkpt>
      <trkpt lat="45.6804" lon="4.12577">
        <ele>349</ele>
        <time>2022-11-18T07:44:55Z</time>
      </trkpt>
      <trkpt lat="45.68027" lon="4.12505">
        <ele>350</ele>
        <time>2022-11-18T07:45:04Z</time>
      </trkpt>
      <trkpt lat="45.68031" lon="4.12488">
        <ele>350</ele>
        <time>2022-11-18T07:45:06Z</time>
      </trkpt>
      <trkpt lat="45.68041" lon="4.12484">
        <ele>350</ele>
        <time>2022-11-18T07:45:08Z</time>
      </trkpt>
      <trkpt lat="45.68085" lon="4.12454">
        <ele>350</ele>
        <time>2022-11-18T07:45:17Z</time>
      </trkpt>
      <trkpt lat="45.68136" lon="4.12426">
        <ele>351</ele>
        <time>2022-11-18T07:45:27Z</time>
      </trkpt>
      <trkpt lat="45.6815" lon="4.12309">
        <ele>350</ele>
        <time>2022-11-18T07:45:41Z</time>
      </trkpt>
      <trkpt lat="45.68155" lon="4.12248">
        <ele>348</ele>
        <time>2022-11-18T07:45:49Z</time>
      </trkpt>
      <trkpt lat="45.68158" lon="4.12099">
        <ele>349</ele>
        <time>2022-11-18T07:46:08Z</time>
      </trkpt>
      <trkpt lat="45.68152" lon="4.12007">
        <ele>352</ele>
        <time>2022-11-18T07:46:19Z</time>
      </trkpt>
      <trkpt lat="45.68153" lon="4.11982">
        <ele>352</ele>
        <time>2022-11-18T07:46:22Z</time>
      </trkpt>
      <trkpt lat="45.68215" lon="4.11341">
        <ele>355</ele>
        <time>2022-11-18T07:47:43Z</time>
      </trkpt>
      <trkpt lat="45.68271" lon="4.10792">
        <ele>357</ele>
        <time>2022-11-18T07:48:52Z</time>
      </trkpt>
      <trkpt lat="45.68283" lon="4.10723">
        <ele>358</ele>
        <time>2022-11-18T07:49:00Z</time>
      </trkpt>
      <trkpt lat="45.68297" lon="4.10687">
        <ele>359</ele>
        <time>2022-11-18T07:49:06Z</time>
      </trkpt>
      <trkpt lat="45.68325" lon="4.10629">
        <ele>358</ele>
        <time>2022-11-18T07:49:14Z</time>
      </trkpt>
      <trkpt lat="45.68406" lon="4.10487">
        <ele>355</ele>
        <time>2022-11-18T07:49:37Z</time>
      </trkpt>
      <trkpt lat="45.68447" lon="4.10424">
        <ele>356</ele>
        <time>2022-11-18T07:49:48Z</time>
      </trkpt>
      <trkpt lat="45.68472" lon="4.10393">
        <ele>356</ele>
        <time>2022-11-18T07:49:54Z</time>
      </trkpt>
      <trkpt lat="45.68501" lon="4.10368">
        <ele>355</ele>
        <time>2022-11-18T07:50:00Z</time>
      </trkpt>
      <trkpt lat="45.68955" lon="4.10143">
        <ele>354</ele>
        <time>2022-11-18T07:51:25Z</time>
      </trkpt>
      <trkpt lat="45.6904" lon="4.10075">
        <ele>355</ele>
        <time>2022-11-18T07:51:43Z</time>
      </trkpt>
      <trkpt lat="45.69178" lon="4.09979">
        <ele>357</ele>
        <time>2022-11-18T07:52:10Z</time>
      </trkpt>
      <trkpt lat="45.69327" lon="4.09934">
        <ele>355</ele>
        <time>2022-11-18T07:52:37Z</time>
      </trkpt>
      <trkpt lat="45.69811" lon="4.09634">
        <ele>354</ele>
        <time>2022-11-18T07:54:11Z</time>
      </trkpt>
      <trkpt lat="45.70268" lon="4.09418">
        <ele>358</ele>
        <time>2022-11-18T07:55:36Z</time>
      </trkpt>
      <trkpt lat="45.70344" lon="4.09379">
        <ele>359</ele>
        <time>2022-11-18T07:55:51Z</time>
      </trkpt>
      <trkpt lat="45.70372" lon="4.09353">
        <ele>359</ele>
        <time>2022-11-18T07:55:57Z</time>
      </trkpt>
      <trkpt lat="45.70385" lon="4.09374">
        <ele>359</ele>
        <time>2022-11-18T07:56:00Z</time>
      </trkpt>
      <trkpt lat="45.70407" lon="4.09378">
        <ele>359</ele>
        <time>2022-11-18T07:56:04Z</time>
      </trkpt>
      <trkpt lat="45.70706" lon="4.09326">
        <ele>361</ele>
        <time>2022-11-18T07:56:58Z</time>
      </trkpt>
      <trkpt lat="45.71588" lon="4.0949">
        <ele>360</ele>
        <time>2022-11-18T07:59:36Z</time>
      </trkpt>
      <trkpt lat="45.71871" lon="4.09523">
        <ele>357</ele>
        <time>2022-11-18T08:00:27Z</time>
      </trkpt>
      <trkpt lat="45.71907" lon="4.09514">
        <ele>356</ele>
        <time>2022-11-18T08:00:33Z</time>
      </trkpt>
      <trkpt lat="45.72293" lon="4.09342">
        <ele>351</ele>
        <time>2022-11-18T08:01:45Z</time>
      </trkpt>
      <trkpt lat="45.72931" lon="4.09064">
        <ele>353</ele>
        <time>2022-11-18T08:03:44Z</time>
      </trkpt>
      <trkpt lat="45.72982" lon="4.09034">
        <ele>355</ele>
        <time>2022-11-18T08:03:53Z</time>
      </trkpt>
      <trkpt lat="45.73042" lon="4.08994">
        <ele>358</ele>
        <time>2022-11-18T08:04:05Z</time>
      </trkpt>
      <trkpt lat="45.73051" lon="4.08982">
        <ele>358</ele>
        <time>2022-11-18T08:04:07Z</time>
      </trkpt>
      <trkpt lat="45.73173" lon="4.08919">
        <ele>368</ele>
        <time>2022-11-18T08:04:30Z</time>
      </trkpt>
      <trkpt lat="45.73196" lon="4.08918">
        <ele>370</ele>
        <time>2022-11-18T08:04:35Z</time>
      </trkpt>
      <trkpt lat="45.73237" lon="4.08922">
        <ele>373</ele>
        <time>2022-11-18T08:04:42Z</time>
      </trkpt>
      <trkpt lat="45.73255" lon="4.08915">
        <ele>374</ele>
        <time>2022-11-18T08:04:45Z</time>
      </trkpt>
      <trkpt lat="45.73295" lon="4.08892">
        <ele>377</ele>
        <time>2022-11-18T08:04:53Z</time>
      </trkpt>
      <trkpt lat="45.73325" lon="4.08887">
        <ele>378</ele>
        <time>2022-11-18T08:04:58Z</time>
      </trkpt>
      <trkpt lat="45.7335" lon="4.08894">
        <ele>379</ele>
        <time>2022-11-18T08:05:03Z</time>
      </trkpt>
      <trkpt lat="45.73373" lon="4.08914">
        <ele>380</ele>
        <time>2022-11-18T08:05:08Z</time>
      </trkpt>
      <trkpt lat="45.73402" lon="4.08956">
        <ele>380</ele>
        <time>2022-11-18T08:05:15Z</time>
      </trkpt>
      <trkpt lat="45.73411" lon="4.08965">
        <ele>380</ele>
        <time>2022-11-18T08:05:17Z</time>
      </trkpt>
      <trkpt lat="45.73442" lon="4.08987">
        <ele>380</ele>
        <time>2022-11-18T08:05:23Z</time>
      </trkpt>
      <trkpt lat="45.73466" lon="4.09">
        <ele>381</ele>
        <time>2022-11-18T08:05:28Z</time>
      </trkpt>
      <trkpt lat="45.7352" lon="4.09036">
        <ele>382</ele>
        <time>2022-11-18T08:05:38Z</time>
      </trkpt>
      <trkpt lat="45.73586" lon="4.09071">
        <ele>384</ele>
        <time>2022-11-18T08:05:51Z</time>
      </trkpt>
      <trkpt lat="45.73733" lon="4.09258">
        <ele>386</ele>
        <time>2022-11-18T08:06:26Z</time>
      </trkpt>
      <trkpt lat="45.73743" lon="4.09276">
        <ele>386</ele>
        <time>2022-11-18T08:06:28Z</time>
      </trkpt>
      <trkpt lat="45.73765" lon="4.09336">
        <ele>386</ele>
        <time>2022-11-18T08:06:37Z</time>
      </trkpt>
      <trkpt lat="45.73781" lon="4.09354">
        <ele>385</ele>
        <time>2022-11-18T08:06:41Z</time>
      </trkpt>
      <trkpt lat="45.73818" lon="4.09354">
        <ele>385</ele>
        <time>2022-11-18T08:06:47Z</time>
      </trkpt>
      <trkpt lat="45.73885" lon="4.09359">
        <ele>386</ele>
        <time>2022-11-18T08:06:59Z</time>
      </trkpt>
      <trkpt lat="45.73921" lon="4.09364">
        <ele>387</ele>
        <time>2022-11-18T08:07:05Z</time>
      </trkpt>
      <trkpt lat="45.73988" lon="4.0938">
        <ele>387</ele>
        <time>2022-11-18T08:07:18Z</time>
      </trkpt>
      <trkpt lat="45.75555" lon="4.09808">
        <ele>378</ele>
        <time>2022-11-18T08:12:01Z</time>
      </trkpt>
      <trkpt lat="45.75921" lon="4.0991">
        <ele>376</ele>
        <time>2022-11-18T08:13:08Z</time>
      </trkpt>
      <trkpt lat="45.76118" lon="4.0997">
        <ele>373</ele>
        <time>2022-11-18T08:13:44Z</time>
      </trkpt>
      <trkpt lat="45.76326" lon="4.09913">
        <ele>369</ele>
        <time>2022-11-18T08:14:21Z</time>
      </trkpt>
      <trkpt lat="45.76776" lon="4.09799">
        <ele>366</ele>
        <time>2022-11-18T08:15:43Z</time>
      </trkpt>
      <trkpt lat="45.77391" lon="4.09436">
        <ele>357</ele>
        <time>2022-11-18T08:17:41Z</time>
      </trkpt>
      <trkpt lat="45.77844" lon="4.0916">
        <ele>350</ele>
        <time>2022-11-18T08:19:08Z</time>
      </trkpt>
      <trkpt lat="45.78434" lon="4.08805">
        <ele>345</ele>
        <time>2022-11-18T08:21:02Z</time>
      </trkpt>
      <trkpt lat="45.78818" lon="4.08701">
        <ele>343</ele>
        <time>2022-11-18T08:22:12Z</time>
      </trkpt>
      <trkpt lat="45.79357" lon="4.08561">
        <ele>340</ele>
        <time>2022-11-18T08:23:49Z</time>
      </trkpt>
      <trkpt lat="45.79579" lon="4.08499">
        <ele>337</ele>
        <time>2022-11-18T08:24:30Z</time>
      </trkpt>
      <trkpt lat="45.79803" lon="4.08445">
        <ele>340</ele>
        <time>2022-11-18T08:25:10Z</time>
      </trkpt>
      <trkpt lat="45.80231" lon="4.08333">
        <ele>342</ele>
        <time>2022-11-18T08:26:27Z</time>
      </trkpt>
      <trkpt lat="45.80772" lon="4.07931">
        <ele>346</ele>
        <time>2022-11-18T08:28:16Z</time>
      </trkpt>
      <trkpt lat="45.81964" lon="4.07027">
        <ele>337</ele>
        <time>2022-11-18T08:32:16Z</time>
      </trkpt>
      <trkpt lat="45.81979" lon="4.07012">
        <ele>337</ele>
        <time>2022-11-18T08:32:19Z</time>
      </trkpt>
      <trkpt lat="45.81995" lon="4.07013">
        <ele>337</ele>
        <time>2022-11-18T08:32:22Z</time>
      </trkpt>
      <trkpt lat="45.82038" lon="4.0688">
        <ele>337</ele>
        <time>2022-11-18T08:32:40Z</time>
      </trkpt>
      <trkpt lat="45.8223" lon="4.069">
        <ele>337</ele>
        <time>2022-11-18T08:33:14Z</time>
      </trkpt>
      <trkpt lat="45.82256" lon="4.06897">
        <ele>337</ele>
        <time>2022-11-18T08:33:19Z</time>
      </trkpt>
      <trkpt lat="45.82282" lon="4.06881">
        <ele>337</ele>
        <time>2022-11-18T08:33:24Z</time>
      </trkpt>
      <trkpt lat="45.82531" lon="4.06683">
        <ele>338</ele>
        <time>2022-11-18T08:34:15Z</time>
      </trkpt>
      <trkpt lat="45.82566" lon="4.0667">
        <ele>338</ele>
        <time>2022-11-18T08:34:21Z</time>
      </trkpt>
      <trkpt lat="45.82604" lon="4.0667">
        <ele>337</ele>
        <time>2022-11-18T08:34:28Z</time>
      </trkpt>
      <trkpt lat="45.82717" lon="4.06679">
        <ele>337</ele>
        <time>2022-11-18T08:34:48Z</time>
      </trkpt>
      <trkpt lat="45.82751" lon="4.06689">
        <ele>339</ele>
        <time>2022-11-18T08:34:54Z</time>
      </trkpt>
      <trkpt lat="45.82762" lon="4.0669">
        <ele>339</ele>
        <time>2022-11-18T08:34:56Z</time>
      </trkpt>
      <trkpt lat="45.82832" lon="4.06715">
        <ele>341</ele>
        <time>2022-11-18T08:35:09Z</time>
      </trkpt>
      <trkpt lat="45.82842" lon="4.06713">
        <ele>341</ele>
        <time>2022-11-18T08:35:11Z</time>
      </trkpt>
      <trkpt lat="45.82887" lon="4.06667">
        <ele>342</ele>
        <time>2022-11-18T08:35:20Z</time>
      </trkpt>
      <trkpt lat="45.82906" lon="4.06644">
        <ele>343</ele>
        <time>2022-11-18T08:35:25Z</time>
      </trkpt>
      <trkpt lat="45.82922" lon="4.06615">
        <ele>343</ele>
        <time>2022-11-18T08:35:29Z</time>
      </trkpt>
      <trkpt lat="45.82924" lon="4.06577">
        <ele>344</ele>
        <time>2022-11-18T08:35:34Z</time>
      </trkpt>
      <trkpt lat="45.82934" lon="4.06548">
        <ele>346</ele>
        <time>2022-11-18T08:35:38Z</time>
      </trkpt>
      <trkpt lat="45.82981" lon="4.06476">
        <ele>349</ele>
        <time>2022-11-18T08:35:50Z</time>
      </trkpt>
      <trkpt lat="45.82982" lon="4.06449">
        <ele>351</ele>
        <time>2022-11-18T08:35:54Z</time>
      </trkpt>
      <trkpt lat="45.82975" lon="4.06343">
        <ele>354</ele>
        <time>2022-11-18T08:36:07Z</time>
      </trkpt>
      <trkpt lat="45.82977" lon="4.0631">
        <ele>354</ele>
        <time>2022-11-18T08:36:11Z</time>
      </trkpt>
      <trkpt lat="45.83002" lon="4.06261">
        <ele>356</ele>
        <time>2022-11-18T08:36:19Z</time>
      </trkpt>
      <trkpt lat="45.83057" lon="4.06184">
        <ele>356</ele>
        <time>2022-11-18T08:36:32Z</time>
      </trkpt>
      <trkpt lat="45.83055" lon="4.06176">
        <ele>356</ele>
        <time>2022-11-18T08:36:33Z</time>
      </trkpt>
      <trkpt lat="45.83057" lon="4.06155">
        <ele>355</ele>
        <time>2022-11-18T08:36:36Z</time>
      </trkpt>
      <trkpt lat="45.83097" lon="4.06011">
        <ele>355</ele>
        <time>2022-11-18T08:36:55Z</time>
      </trkpt>
      <trkpt lat="45.83122" lon="4.05847">
        <ele>355</ele>
        <time>2022-11-18T08:37:16Z</time>
      </trkpt>
      <trkpt lat="45.83133" lon="4.05812">
        <ele>356</ele>
        <time>2022-11-18T08:37:21Z</time>
      </trkpt>
      <trkpt lat="45.83258" lon="4.05497">
        <ele>355</ele>
        <time>2022-11-18T08:38:06Z</time>
      </trkpt>
      <trkpt lat="45.83267" lon="4.05446">
        <ele>354</ele>
        <time>2022-11-18T08:38:12Z</time>
      </trkpt>
      <trkpt lat="45.83287" lon="4.05225">
        <ele>349</ele>
        <time>2022-11-18T08:38:40Z</time>
      </trkpt>
      <trkpt lat="45.83282" lon="4.04887">
        <ele>347</ele>
        <time>2022-11-18T08:39:22Z</time>
      </trkpt>
      <trkpt lat="45.83292" lon="4.0474">
        <ele>347</ele>
        <time>2022-11-18T08:39:40Z</time>
      </trkpt>
      <trkpt lat="45.83286" lon="4.04623">
        <ele>349</ele>
        <time>2022-11-18T08:39:55Z</time>
      </trkpt>
      <trkpt lat="45.83288" lon="4.0456">
        <ele>352</ele>
        <time>2022-11-18T08:40:02Z</time>
      </trkpt>
      <trkpt lat="45.83283" lon="4.04465">
        <ele>354</ele>
        <time>2022-11-18T08:40:14Z</time>
      </trkpt>
      <trkpt lat="45.83298" lon="4.04232">
        <ele>357</ele>
        <time>2022-11-18T08:40:43Z</time>
      </trkpt>
      <trkpt lat="45.83304" lon="4.04209">
        <ele>358</ele>
        <time>2022-11-18T08:40:46Z</time>
      </trkpt>
      <trkpt lat="45.8332" lon="4.04183">
        <ele>360</ele>
        <time>2022-11-18T08:40:51Z</time>
      </trkpt>
      <trkpt lat="45.83343" lon="4.04153">
        <ele>361</ele>
        <time>2022-11-18T08:40:56Z</time>
      </trkpt>
      <trkpt lat="45.83353" lon="4.04129">
        <ele>361</ele>
        <time>2022-11-18T08:41:00Z</time>
      </trkpt>
      <trkpt lat="45.83357" lon="4.04082">
        <ele>361</ele>
        <time>2022-11-18T08:41:06Z</time>
      </trkpt>
      <trkpt lat="45.83356" lon="4.03992">
        <ele>362</ele>
        <time>2022-11-18T08:41:17Z</time>
      </trkpt>
      <trkpt lat="45.83363" lon="4.03777">
        <ele>363</ele>
        <time>2022-11-18T08:41:43Z</time>
      </trkpt>
      <trkpt lat="45.8338" lon="4.0369">
        <ele>365</ele>
        <time>2022-11-18T08:41:55Z</time>
      </trkpt>
      <trkpt lat="45.83377" lon="4.03496">
        <ele>365</ele>
        <time>2022-11-18T08:42:19Z</time>
      </trkpt>
      <trkpt lat="45.83355" lon="4.03398">
        <ele>366</ele>
        <time>2022-11-18T08:42:31Z</time>
      </trkpt>
      <trkpt lat="45.83348" lon="4.03329">
        <ele>367</ele>
        <time>2022-11-18T08:42:40Z</time>
      </trkpt>
      <trkpt lat="45.83341" lon="4.0315">
        <ele>368</ele>
        <time>2022-11-18T08:43:02Z</time>
      </trkpt>
      <trkpt lat="45.83331" lon="4.03071">
        <ele>368</ele>
        <time>2022-11-18T08:43:12Z</time>
      </trkpt>
      <trkpt lat="45.83258" lon="4.02652">
        <ele>370</ele>
        <time>2022-11-18T08:44:06Z</time>
      </trkpt>
      <trkpt lat="45.83272" lon="4.0262">
        <ele>371</ele>
        <time>2022-11-18T08:44:10Z</time>
      </trkpt>
      <trkpt lat="45.83339" lon="4.02535">
        <ele>374</ele>
        <time>2022-11-18T08:44:26Z</time>
      </trkpt>
      <trkpt lat="45.83285" lon="4.02285">
        <ele>379</ele>
        <time>2022-11-18T08:44:59Z</time>
      </trkpt>
      <trkpt lat="45.83268" lon="4.0225">
        <ele>379</ele>
        <time>2022-11-18T08:45:04Z</time>
      </trkpt>
      <trkpt lat="45.83266" lon="4.02197">
        <ele>382</ele>
        <time>2022-11-18T08:45:11Z</time>
      </trkpt>
      <trkpt lat="45.83256" lon="4.02145">
        <ele>385</ele>
        <time>2022-11-18T08:45:17Z</time>
      </trkpt>
      <trkpt lat="45.83164" lon="4.01735">
        <ele>407</ele>
        <time>2022-11-18T08:46:11Z</time>
      </trkpt>
      <trkpt lat="45.83161" lon="4.01715">
        <ele>408</ele>
        <time>2022-11-18T08:46:13Z</time>
      </trkpt>
      <trkpt lat="45.8316" lon="4.0166">
        <ele>411</ele>
        <time>2022-11-18T08:46:20Z</time>
      </trkpt>
      <trkpt lat="45.83153" lon="4.01611">
        <ele>413</ele>
        <time>2022-11-18T08:46:26Z</time>
      </trkpt>
      <trkpt lat="45.83138" lon="4.01579">
        <ele>415</ele>
        <time>2022-11-18T08:46:31Z</time>
      </trkpt>
      <trkpt lat="45.83118" lon="4.01544">
        <ele>417</ele>
        <time>2022-11-18T08:46:37Z</time>
      </trkpt>
      <trkpt lat="45.83101" lon="4.01505">
        <ele>419</ele>
        <time>2022-11-18T08:46:42Z</time>
      </trkpt>
      <trkpt lat="45.83098" lon="4.01477">
        <ele>421</ele>
        <time>2022-11-18T08:46:46Z</time>
      </trkpt>
      <trkpt lat="45.83108" lon="4.01394">
        <ele>424</ele>
        <time>2022-11-18T08:46:56Z</time>
      </trkpt>
      <trkpt lat="45.83098" lon="4.01491">
        <ele>420</ele>
        <time>2022-11-18T08:47:09Z</time>
      </trkpt>
      <trkpt lat="45.83101" lon="4.01505">
        <ele>419</ele>
        <time>2022-11-18T08:47:10Z</time>
      </trkpt>
      <trkpt lat="45.83118" lon="4.01544">
        <ele>417</ele>
        <time>2022-11-18T08:47:16Z</time>
      </trkpt>
      <trkpt lat="45.83138" lon="4.01579">
        <ele>415</ele>
        <time>2022-11-18T08:47:22Z</time>
      </trkpt>
      <trkpt lat="45.83153" lon="4.01611">
        <ele>413</ele>
        <time>2022-11-18T08:47:26Z</time>
      </trkpt>
      <trkpt lat="45.8316" lon="4.0166">
        <ele>411</ele>
        <time>2022-11-18T08:47:33Z</time>
      </trkpt>
      <trkpt lat="45.8316" lon="4.01695">
        <ele>409</ele>
        <time>2022-11-18T08:47:37Z</time>
      </trkpt>
      <trkpt lat="45.83184" lon="4.01742">
        <ele>408</ele>
        <time>2022-11-18T08:47:44Z</time>
      </trkpt>
      <trkpt lat="45.83246" lon="4.01841">
        <ele>405</ele>
        <time>2022-11-18T08:48:01Z</time>
      </trkpt>
      <trkpt lat="45.83287" lon="4.01891">
        <ele>403</ele>
        <time>2022-11-18T08:48:10Z</time>
      </trkpt>
      <trkpt lat="45.83415" lon="4.0199">
        <ele>402</ele>
        <time>2022-11-18T08:48:36Z</time>
      </trkpt>
      <trkpt lat="45.83454" lon="4.02057">
        <ele>400</ele>
        <time>2022-11-18T08:48:47Z</time>
      </trkpt>
      <trkpt lat="45.83468" lon="4.021">
        <ele>397</ele>
        <time>2022-11-18T08:48:53Z</time>
      </trkpt>
      <trkpt lat="45.83514" lon="4.02182">
        <ele>394</ele>
        <time>2022-11-18T08:49:06Z</time>
      </trkpt>
      <trkpt lat="45.83554" lon="4.02305">
        <ele>389</ele>
        <time>2022-11-18T08:49:23Z</time>
      </trkpt>
      <trkpt lat="45.83637" lon="4.02399">
        <ele>386</ele>
        <time>2022-11-18T08:49:42Z</time>
      </trkpt>
      <trkpt lat="45.8368" lon="4.02471">
        <ele>384</ele>
        <time>2022-11-18T08:49:53Z</time>
      </trkpt>
      <trkpt lat="45.83835" lon="4.02811">
        <ele>379</ele>
        <time>2022-11-18T08:50:44Z</time>
      </trkpt>
      <trkpt lat="45.83855" lon="4.02863">
        <ele>378</ele>
        <time>2022-11-18T08:50:51Z</time>
      </trkpt>
      <trkpt lat="45.83863" lon="4.02895">
        <ele>378</ele>
        <time>2022-11-18T08:50:55Z</time>
      </trkpt>
      <trkpt lat="45.83868" lon="4.02966">
        <ele>377</ele>
        <time>2022-11-18T08:51:04Z</time>
      </trkpt>
      <trkpt lat="45.83855" lon="4.03138">
        <ele>375</ele>
        <time>2022-11-18T08:51:26Z</time>
      </trkpt>
      <trkpt lat="45.83853" lon="4.0321">
        <ele>374</ele>
        <time>2022-11-18T08:51:34Z</time>
      </trkpt>
      <trkpt lat="45.83855" lon="4.03262">
        <ele>373</ele>
        <time>2022-11-18T08:51:41Z</time>
      </trkpt>
      <trkpt lat="45.8388" lon="4.03394">
        <ele>372</ele>
        <time>2022-11-18T08:51:58Z</time>
      </trkpt>
      <trkpt lat="45.83886" lon="4.0344">
        <ele>371</ele>
        <time>2022-11-18T08:52:04Z</time>
      </trkpt>
      <trkpt lat="45.83908" lon="4.037">
        <ele>369</ele>
        <time>2022-11-18T08:52:36Z</time>
      </trkpt>
      <trkpt lat="45.83911" lon="4.03792">
        <ele>368</ele>
        <time>2022-11-18T08:52:48Z</time>
      </trkpt>
      <trkpt lat="45.83912" lon="4.04141">
        <ele>359</ele>
        <time>2022-11-18T08:53:31Z</time>
      </trkpt>
      <trkpt lat="45.83921" lon="4.04184">
        <ele>357</ele>
        <time>2022-11-18T08:53:36Z</time>
      </trkpt>
      <trkpt lat="45.8394" lon="4.04229">
        <ele>355</ele>
        <time>2022-11-18T08:53:43Z</time>
      </trkpt>
      <trkpt lat="45.84031" lon="4.04393">
        <ele>353</ele>
        <time>2022-11-18T08:54:09Z</time>
      </trkpt>
      <trkpt lat="45.84043" lon="4.04424">
        <ele>353</ele>
        <time>2022-11-18T08:54:13Z</time>
      </trkpt>
      <trkpt lat="45.84095" lon="4.04711">
        <ele>362</ele>
        <time>2022-11-18T08:54:50Z</time>
      </trkpt>
      <trkpt lat="45.84143" lon="4.05126">
        <ele>367</ele>
        <time>2022-11-18T08:55:42Z</time>
      </trkpt>
      <trkpt lat="45.84146" lon="4.05192">
        <ele>368</ele>
        <time>2022-11-18T08:55:50Z</time>
      </trkpt>
      <trkpt lat="45.84144" lon="4.05258">
        <ele>368</ele>
        <time>2022-11-18T08:55:59Z</time>
      </trkpt>
      <trkpt lat="45.84147" lon="4.05287">
        <ele>367</ele>
        <time>2022-11-18T08:56:02Z</time>
      </trkpt>
      <trkpt lat="45.84159" lon="4.05326">
        <ele>366</ele>
        <time>2022-11-18T08:56:07Z</time>
      </trkpt>
      <trkpt lat="45.84195" lon="4.05393">
        <ele>368</ele>
        <time>2022-11-18T08:56:18Z</time>
      </trkpt>
      <trkpt lat="45.84201" lon="4.05435">
        <ele>368</ele>
        <time>2022-11-18T08:56:23Z</time>
      </trkpt>
      <trkpt lat="45.84194" lon="4.05557">
        <ele>367</ele>
        <time>2022-11-18T08:56:38Z</time>
      </trkpt>
      <trkpt lat="45.84202" lon="4.05656">
        <ele>366</ele>
        <time>2022-11-18T08:56:51Z</time>
      </trkpt>
      <trkpt lat="45.84509" lon="4.08538">
        <ele>370</ele>
        <time>2022-11-18T09:02:52Z</time>
      </trkpt>
      <trkpt lat="45.8454" lon="4.088">
        <ele>371</ele>
        <time>2022-11-18T09:03:25Z</time>
      </trkpt>
      <trkpt lat="45.84835" lon="4.11563">
        <ele>394</ele>
        <time>2022-11-18T09:09:12Z</time>
      </trkpt>
      <trkpt lat="45.84847" lon="4.11654">
        <ele>394</ele>
        <time>2022-11-18T09:09:23Z</time>
      </trkpt>
      <trkpt lat="45.84855" lon="4.11758">
        <ele>394</ele>
        <time>2022-11-18T09:09:36Z</time>
      </trkpt>
      <trkpt lat="45.84864" lon="4.1183">
        <ele>394</ele>
        <time>2022-11-18T09:09:45Z</time>
      </trkpt>
      <trkpt lat="45.84876" lon="4.11877">
        <ele>395</ele>
        <time>2022-11-18T09:09:51Z</time>
      </trkpt>
      <trkpt lat="45.84927" lon="4.12008">
        <ele>396</ele>
        <time>2022-11-18T09:10:10Z</time>
      </trkpt>
      <trkpt lat="45.84947" lon="4.12067">
        <ele>397</ele>
        <time>2022-11-18T09:10:18Z</time>
      </trkpt>
      <trkpt lat="45.84957" lon="4.12118">
        <ele>396</ele>
        <time>2022-11-18T09:10:25Z</time>
      </trkpt>
      <trkpt lat="45.8497" lon="4.12258">
        <ele>395</ele>
        <time>2022-11-18T09:10:42Z</time>
      </trkpt>
      <trkpt lat="45.84981" lon="4.12344">
        <ele>394</ele>
        <time>2022-11-18T09:10:53Z</time>
      </trkpt>
      <trkpt lat="45.84985" lon="4.12407">
        <ele>393</ele>
        <time>2022-11-18T09:11:01Z</time>
      </trkpt>
      <trkpt lat="45.84984" lon="4.12457">
        <ele>393</ele>
        <time>2022-11-18T09:11:07Z</time>
      </trkpt>
      <trkpt lat="45.84975" lon="4.12531">
        <ele>394</ele>
        <time>2022-11-18T09:11:16Z</time>
      </trkpt>
      <trkpt lat="45.8498" lon="4.12636">
        <ele>395</ele>
        <time>2022-11-18T09:11:29Z</time>
      </trkpt>
      <trkpt lat="45.84975" lon="4.12949">
        <ele>391</ele>
        <time>2022-11-18T09:12:08Z</time>
      </trkpt>
      <trkpt lat="45.8497" lon="4.12965">
        <ele>391</ele>
        <time>2022-11-18T09:12:10Z</time>
      </trkpt>
      <trkpt lat="45.84956" lon="4.1299">
        <ele>391</ele>
        <time>2022-11-18T09:12:14Z</time>
      </trkpt>
      <trkpt lat="45.84901" lon="4.13068">
        <ele>390</ele>
        <time>2022-11-18T09:12:28Z</time>
      </trkpt>
      <trkpt lat="45.84917" lon="4.13137">
        <ele>392</ele>
        <time>2022-11-18T09:12:37Z</time>
      </trkpt>
      <trkpt lat="45.84942" lon="4.13186">
        <ele>391</ele>
        <time>2022-11-18T09:12:45Z</time>
      </trkpt>
      <trkpt lat="45.84949" lon="4.13193">
        <ele>390</ele>
        <time>2022-11-18T09:12:46Z</time>
      </trkpt>
      <trkpt lat="45.84958" lon="4.13187">
        <ele>390</ele>
        <time>2022-11-18T09:12:48Z</time>
      </trkpt>
      <trkpt lat="45.84989" lon="4.13137">
        <ele>391</ele>
        <time>2022-11-18T09:12:56Z</time>
      </trkpt>
      <trkpt lat="45.85005" lon="4.13122">
        <ele>390</ele>
        <time>2022-11-18T09:13:00Z</time>
      </trkpt>
      <trkpt lat="45.85077" lon="4.13072">
        <ele>391</ele>
        <time>2022-11-18T09:13:14Z</time>
      </trkpt>
      <trkpt lat="45.85106" lon="4.13046">
        <ele>392</ele>
        <time>2022-11-18T09:13:20Z</time>
      </trkpt>
      <trkpt lat="45.85145" lon="4.13018">
        <ele>392</ele>
        <time>2022-11-18T09:13:28Z</time>
      </trkpt>
      <trkpt lat="45.8517" lon="4.13007">
        <ele>392</ele>
        <time>2022-11-18T09:13:32Z</time>
      </trkpt>
      <trkpt lat="45.85442" lon="4.12921">
        <ele>388</ele>
        <time>2022-11-18T09:14:22Z</time>
      </trkpt>
      <trkpt lat="45.85477" lon="4.12914">
        <ele>388</ele>
        <time>2022-11-18T09:14:28Z</time>
      </trkpt>
      <trkpt lat="45.85515" lon="4.12914">
        <ele>388</ele>
        <time>2022-11-18T09:14:35Z</time>
      </trkpt>
      <trkpt lat="45.85557" lon="4.12921">
        <ele>385</ele>
        <time>2022-11-18T09:14:42Z</time>
      </trkpt>
      <trkpt lat="45.85671" lon="4.12975">
        <ele>375</ele>
        <time>2022-11-18T09:15:04Z</time>
      </trkpt>
      <trkpt lat="45.85708" lon="4.1298">
        <ele>374</ele>
        <time>2022-11-18T09:15:10Z</time>
      </trkpt>
      <trkpt lat="45.8574" lon="4.12981">
        <ele>373</ele>
        <time>2022-11-18T09:15:16Z</time>
      </trkpt>
      <trkpt lat="45.85791" lon="4.12977">
        <ele>373</ele>
        <time>2022-11-18T09:15:25Z</time>
      </trkpt>
      <trkpt lat="45.85835" lon="4.12985">
        <ele>371</ele>
        <time>2022-11-18T09:15:33Z</time>
      </trkpt>
      <trkpt lat="45.85867" lon="4.13004">
        <ele>368</ele>
        <time>2022-11-18T09:15:39Z</time>
      </trkpt>
      <trkpt lat="45.85895" lon="4.13027">
        <ele>365</ele>
        <time>2022-11-18T09:15:45Z</time>
      </trkpt>
      <trkpt lat="45.8591" lon="4.13031">
        <ele>365</ele>
        <time>2022-11-18T09:15:48Z</time>
      </trkpt>
      <trkpt lat="45.85927" lon="4.13031">
        <ele>366</ele>
        <time>2022-11-18T09:15:51Z</time>
      </trkpt>
      <trkpt lat="45.85956" lon="4.13026">
        <ele>368</ele>
        <time>2022-11-18T09:15:56Z</time>
      </trkpt>
      <trkpt lat="45.85988" lon="4.1303">
        <ele>367</ele>
        <time>2022-11-18T09:16:02Z</time>
      </trkpt>
      <trkpt lat="45.86038" lon="4.13054">
        <ele>361</ele>
        <time>2022-11-18T09:16:11Z</time>
      </trkpt>
      <trkpt lat="45.8605" lon="4.13056">
        <ele>361</ele>
        <time>2022-11-18T09:16:13Z</time>
      </trkpt>
      <trkpt lat="45.86121" lon="4.13055">
        <ele>359</ele>
        <time>2022-11-18T09:16:26Z</time>
      </trkpt>
      <trkpt lat="45.86188" lon="4.13065">
        <ele>354</ele>
        <time>2022-11-18T09:16:38Z</time>
      </trkpt>
      <trkpt lat="45.86205" lon="4.13063">
        <ele>354</ele>
        <time>2022-11-18T09:16:41Z</time>
      </trkpt>
      <trkpt lat="45.86256" lon="4.13045">
        <ele>356</ele>
        <time>2022-11-18T09:16:50Z</time>
      </trkpt>
      <trkpt lat="45.86286" lon="4.13038">
        <ele>356</ele>
        <time>2022-11-18T09:16:56Z</time>
      </trkpt>
      <trkpt lat="45.86317" lon="4.13033">
        <ele>356</ele>
        <time>2022-11-18T09:17:01Z</time>
      </trkpt>
      <trkpt lat="45.86378" lon="4.1303">
        <ele>353</ele>
        <time>2022-11-18T09:17:12Z</time>
      </trkpt>
      <trkpt lat="45.86503" lon="4.12983">
        <ele>349</ele>
        <time>2022-11-18T09:17:35Z</time>
      </trkpt>
      <trkpt lat="45.86534" lon="4.12978">
        <ele>347</ele>
        <time>2022-11-18T09:17:40Z</time>
      </trkpt>
      <trkpt lat="45.8657" lon="4.12977">
        <ele>344</ele>
        <time>2022-11-18T09:17:47Z</time>
      </trkpt>
      <trkpt lat="45.86619" lon="4.12972">
        <ele>339</ele>
        <time>2022-11-18T09:17:56Z</time>
      </trkpt>
      <trkpt lat="45.86637" lon="4.12966">
        <ele>338</ele>
        <time>2022-11-18T09:17:59Z</time>
      </trkpt>
      <trkpt lat="45.86662" lon="4.12953">
        <ele>338</ele>
        <time>2022-11-18T09:18:04Z</time>
      </trkpt>
      <trkpt lat="45.86682" lon="4.1294">
        <ele>339</ele>
        <time>2022-11-18T09:18:08Z</time>
      </trkpt>
      <trkpt lat="45.86714" lon="4.12912">
        <ele>340</ele>
        <time>2022-11-18T09:18:14Z</time>
      </trkpt>
      <trkpt lat="45.86814" lon="4.12892">
        <ele>322</ele>
        <time>2022-11-18T09:18:32Z</time>
      </trkpt>
      <trkpt lat="45.86876" lon="4.12889">
        <ele>322</ele>
        <time>2022-11-18T09:18:43Z</time>
      </trkpt>
      <trkpt lat="45.86957" lon="4.12892">
        <ele>335</ele>
        <time>2022-11-18T09:18:58Z</time>
      </trkpt>
      <trkpt lat="45.86966" lon="4.12883">
        <ele>337</ele>
        <time>2022-11-18T09:19:00Z</time>
      </trkpt>
      <trkpt lat="45.86977" lon="4.1286">
        <ele>337</ele>
        <time>2022-11-18T09:19:03Z</time>
      </trkpt>
      <trkpt lat="45.86987" lon="4.12795">
        <ele>334</ele>
        <time>2022-11-18T09:19:11Z</time>
      </trkpt>
      <trkpt lat="45.86992" lon="4.12742">
        <ele>333</ele>
        <time>2022-11-18T09:19:18Z</time>
      </trkpt>
      <trkpt lat="45.86988" lon="4.12726">
        <ele>332</ele>
        <time>2022-11-18T09:19:20Z</time>
      </trkpt>
      <trkpt lat="45.86997" lon="4.12702">
        <ele>335</ele>
        <time>2022-11-18T09:19:23Z</time>
      </trkpt>
      <trkpt lat="45.87" lon="4.1268">
        <ele>336</ele>
        <time>2022-11-18T09:19:26Z</time>
      </trkpt>
      <trkpt lat="45.86998" lon="4.12656">
        <ele>337</ele>
        <time>2022-11-18T09:19:29Z</time>
      </trkpt>
      <trkpt lat="45.86992" lon="4.12631">
        <ele>339</ele>
        <time>2022-11-18T09:19:32Z</time>
      </trkpt>
      <trkpt lat="45.86977" lon="4.12594">
        <ele>339</ele>
        <time>2022-11-18T09:19:38Z</time>
      </trkpt>
      <trkpt lat="45.86957" lon="4.12555">
        <ele>341</ele>
        <time>2022-11-18T09:19:44Z</time>
      </trkpt>
      <trkpt lat="45.86901" lon="4.12486">
        <ele>341</ele>
        <time>2022-11-18T09:19:57Z</time>
      </trkpt>
      <trkpt lat="45.86889" lon="4.12467">
        <ele>342</ele>
        <time>2022-11-18T09:20:00Z</time>
      </trkpt>
      <trkpt lat="45.86867" lon="4.12421">
        <ele>344</ele>
        <time>2022-11-18T09:20:07Z</time>
      </trkpt>
      <trkpt lat="45.86823" lon="4.12371">
        <ele>343</ele>
        <time>2022-11-18T09:20:17Z</time>
      </trkpt>
      <trkpt lat="45.86795" lon="4.12307">
        <ele>345</ele>
        <time>2022-11-18T09:20:26Z</time>
      </trkpt>
      <trkpt lat="45.86783" lon="4.1226">
        <ele>346</ele>
        <time>2022-11-18T09:20:33Z</time>
      </trkpt>
      <trkpt lat="45.86794" lon="4.12183">
        <ele>351</ele>
        <time>2022-11-18T09:20:42Z</time>
      </trkpt>
      <trkpt lat="45.86794" lon="4.12169">
        <ele>352</ele>
        <time>2022-11-18T09:20:44Z</time>
      </trkpt>
      <trkpt lat="45.86791" lon="4.12156">
        <ele>352</ele>
        <time>2022-11-18T09:20:46Z</time>
      </trkpt>
      <trkpt lat="45.86745" lon="4.12057">
        <ele>348</ele>
        <time>2022-11-18T09:21:00Z</time>
      </trkpt>
      <trkpt lat="45.86744" lon="4.12034">
        <ele>349</ele>
        <time>2022-11-18T09:21:03Z</time>
      </trkpt>
      <trkpt lat="45.86748" lon="4.12026">
        <ele>350</ele>
        <time>2022-11-18T09:21:05Z</time>
      </trkpt>
      <trkpt lat="45.86754" lon="4.12023">
        <ele>352</ele>
        <time>2022-11-18T09:21:06Z</time>
      </trkpt>
      <trkpt lat="45.86767" lon="4.12031">
        <ele>354</ele>
        <time>2022-11-18T09:21:08Z</time>
      </trkpt>
      <trkpt lat="45.868" lon="4.12107">
        <ele>358</ele>
        <time>2022-11-18T09:21:19Z</time>
      </trkpt>
      <trkpt lat="45.86829" lon="4.12151">
        <ele>362</ele>
        <time>2022-11-18T09:21:27Z</time>
      </trkpt>
      <trkpt lat="45.86842" lon="4.12213">
        <ele>362</ele>
        <time>2022-11-18T09:21:35Z</time>
      </trkpt>
      <trkpt lat="45.86849" lon="4.1223">
        <ele>363</ele>
        <time>2022-11-18T09:21:37Z</time>
      </trkpt>
      <trkpt lat="45.86861" lon="4.12248">
        <ele>364</ele>
        <time>2022-11-18T09:21:40Z</time>
      </trkpt>
      <trkpt lat="45.86955" lon="4.12331">
        <ele>371</ele>
        <time>2022-11-18T09:22:00Z</time>
      </trkpt>
      <trkpt lat="45.86979" lon="4.12359">
        <ele>373</ele>
        <time>2022-11-18T09:22:05Z</time>
      </trkpt>
      <trkpt lat="45.86987" lon="4.12376">
        <ele>373</ele>
        <time>2022-11-18T09:22:08Z</time>
      </trkpt>
      <trkpt lat="45.87017" lon="4.12464">
        <ele>371</ele>
        <time>2022-11-18T09:22:20Z</time>
      </trkpt>
      <trkpt lat="45.87026" lon="4.12478">
        <ele>371</ele>
        <time>2022-11-18T09:22:23Z</time>
      </trkpt>
      <trkpt lat="45.87037" lon="4.1249">
        <ele>372</ele>
        <time>2022-11-18T09:22:25Z</time>
      </trkpt>
      <trkpt lat="45.87106" lon="4.1253">
        <ele>380</ele>
        <time>2022-11-18T09:22:38Z</time>
      </trkpt>
      <trkpt lat="45.87118" lon="4.12541">
        <ele>381</ele>
        <time>2022-11-18T09:22:41Z</time>
      </trkpt>
      <trkpt lat="45.87139" lon="4.12584">
        <ele>380</ele>
        <time>2022-11-18T09:22:47Z</time>
      </trkpt>
      <trkpt lat="45.8717" lon="4.1266">
        <ele>383</ele>
        <time>2022-11-18T09:22:58Z</time>
      </trkpt>
      <trkpt lat="45.87182" lon="4.12678">
        <ele>382</ele>
        <time>2022-11-18T09:23:01Z</time>
      </trkpt>
      <trkpt lat="45.87198" lon="4.12691">
        <ele>383</ele>
        <time>2022-11-18T09:23:05Z</time>
      </trkpt>
      <trkpt lat="45.87286" lon="4.1272">
        <ele>388</ele>
        <time>2022-11-18T09:23:21Z</time>
      </trkpt>
      <trkpt lat="45.87296" lon="4.12727">
        <ele>388</ele>
        <time>2022-11-18T09:23:23Z</time>
      </trkpt>
      <trkpt lat="45.87307" lon="4.12743">
        <ele>387</ele>
        <time>2022-11-18T09:23:25Z</time>
      </trkpt>
      <trkpt lat="45.87317" lon="4.12766">
        <ele>387</ele>
        <time>2022-11-18T09:23:29Z</time>
      </trkpt>
      <trkpt lat="45.87349" lon="4.1292">
        <ele>394</ele>
        <time>2022-11-18T09:23:49Z</time>
      </trkpt>
      <trkpt lat="45.87346" lon="4.1296">
        <ele>396</ele>
        <time>2022-11-18T09:23:54Z</time>
      </trkpt>
      <trkpt lat="45.87311" lon="4.13092">
        <ele>401</ele>
        <time>2022-11-18T09:24:11Z</time>
      </trkpt>
      <trkpt lat="45.87304" lon="4.13181">
        <ele>401</ele>
        <time>2022-11-18T09:24:22Z</time>
      </trkpt>
      <trkpt lat="45.87304" lon="4.13219">
        <ele>401</ele>
        <time>2022-11-18T09:24:27Z</time>
      </trkpt>
      <trkpt lat="45.87307" lon="4.13286">
        <ele>402</ele>
        <time>2022-11-18T09:24:35Z</time>
      </trkpt>
      <trkpt lat="45.87327" lon="4.13526">
        <ele>407</ele>
        <time>2022-11-18T09:25:05Z</time>
      </trkpt>
      <trkpt lat="45.87347" lon="4.13609">
        <ele>410</ele>
        <time>2022-11-18T09:25:16Z</time>
      </trkpt>
      <trkpt lat="45.87355" lon="4.13628">
        <ele>410</ele>
        <time>2022-11-18T09:25:19Z</time>
      </trkpt>
      <trkpt lat="45.8736" lon="4.1366">
        <ele>411</ele>
        <time>2022-11-18T09:25:23Z</time>
      </trkpt>
      <trkpt lat="45.87364" lon="4.13712">
        <ele>412</ele>
        <time>2022-11-18T09:25:29Z</time>
      </trkpt>
      <trkpt lat="45.87348" lon="4.13723">
        <ele>413</ele>
        <time>2022-11-18T09:25:32Z</time>
      </trkpt>
      <trkpt lat="45.87306" lon="4.13742">
        <ele>414</ele>
        <time>2022-11-18T09:25:40Z</time>
      </trkpt>
      <trkpt lat="45.87294" lon="4.13743">
        <ele>414</ele>
        <time>2022-11-18T09:25:42Z</time>
      </trkpt>
      <trkpt lat="45.87276" lon="4.13739">
        <ele>414</ele>
        <time>2022-11-18T09:25:46Z</time>
      </trkpt>
      <trkpt lat="45.87266" lon="4.13743">
        <ele>414</ele>
        <time>2022-11-18T09:25:48Z</time>
      </trkpt>
      <trkpt lat="45.87259" lon="4.13754">
        <ele>414</ele>
        <time>2022-11-18T09:25:49Z</time>
      </trkpt>
      <trkpt lat="45.87199" lon="4.13824">
        <ele>410</ele>
        <time>2022-11-18T09:26:03Z</time>
      </trkpt>
      <trkpt lat="45.87198" lon="4.14054">
        <ele>405</ele>
        <time>2022-11-18T09:26:32Z</time>
      </trkpt>
      <trkpt lat="45.87201" lon="4.1409">
        <ele>404</ele>
        <time>2022-11-18T09:26:36Z</time>
      </trkpt>
      <trkpt lat="45.87211" lon="4.14146">
        <ele>404</ele>
        <time>2022-11-18T09:26:43Z</time>
      </trkpt>
      <trkpt lat="45.87229" lon="4.14203">
        <ele>404</ele>
        <time>2022-11-18T09:26:51Z</time>
      </trkpt>
      <trkpt lat="45.87286" lon="4.1428">
        <ele>407</ele>
        <time>2022-11-18T09:27:05Z</time>
      </trkpt>
      <trkpt lat="45.87295" lon="4.143">
        <ele>408</ele>
        <time>2022-11-18T09:27:08Z</time>
      </trkpt>
      <trkpt lat="45.87296" lon="4.14318">
        <ele>408</ele>
        <time>2022-11-18T09:27:10Z</time>
      </trkpt>
      <trkpt lat="45.87294" lon="4.14333">
        <ele>408</ele>
        <time>2022-11-18T09:27:12Z</time>
      </trkpt>
      <trkpt lat="45.87287" lon="4.14347">
        <ele>409</ele>
        <time>2022-11-18T09:27:14Z</time>
      </trkpt>
      <trkpt lat="45.87278" lon="4.14352">
        <ele>409</ele>
        <time>2022-11-18T09:27:16Z</time>
      </trkpt>
      <trkpt lat="45.87257" lon="4.14351">
        <ele>409</ele>
        <time>2022-11-18T09:27:20Z</time>
      </trkpt>
      <trkpt lat="45.87217" lon="4.1433">
        <ele>406</ele>
        <time>2022-11-18T09:27:27Z</time>
      </trkpt>
      <trkpt lat="45.87178" lon="4.14317">
        <ele>405</ele>
        <time>2022-11-18T09:27:34Z</time>
      </trkpt>
      <trkpt lat="45.87132" lon="4.14319">
        <ele>406</ele>
        <time>2022-11-18T09:27:43Z</time>
      </trkpt>
      <trkpt lat="45.87077" lon="4.14326">
        <ele>408</ele>
        <time>2022-11-18T09:27:52Z</time>
      </trkpt>
      <trkpt lat="45.87063" lon="4.14331">
        <ele>409</ele>
        <time>2022-11-18T09:27:55Z</time>
      </trkpt>
      <trkpt lat="45.87042" lon="4.14347">
        <ele>411</ele>
        <time>2022-11-18T09:27:59Z</time>
      </trkpt>
      <trkpt lat="45.86965" lon="4.14429">
        <ele>415</ele>
        <time>2022-11-18T09:28:16Z</time>
      </trkpt>
      <trkpt lat="45.86893" lon="4.14469">
        <ele>416</ele>
        <time>2022-11-18T09:28:30Z</time>
      </trkpt>
      <trkpt lat="45.86851" lon="4.14511">
        <ele>417</ele>
        <time>2022-11-18T09:28:39Z</time>
      </trkpt>
      <trkpt lat="45.86836" lon="4.14545">
        <ele>418</ele>
        <time>2022-11-18T09:28:44Z</time>
      </trkpt>
      <trkpt lat="45.86793" lon="4.14721">
        <ele>421</ele>
        <time>2022-11-18T09:29:07Z</time>
      </trkpt>
      <trkpt lat="45.86761" lon="4.14807">
        <ele>423</ele>
        <time>2022-11-18T09:29:19Z</time>
      </trkpt>
      <trkpt lat="45.86733" lon="4.14866">
        <ele>422</ele>
        <time>2022-11-18T09:29:28Z</time>
      </trkpt>
      <trkpt lat="45.8673" lon="4.14881">
        <ele>422</ele>
        <time>2022-11-18T09:29:30Z</time>
      </trkpt>
      <trkpt lat="45.86729" lon="4.14905">
        <ele>421</ele>
        <time>2022-11-18T09:29:33Z</time>
      </trkpt>
      <trkpt lat="45.86736" lon="4.14925">
        <ele>421</ele>
        <time>2022-11-18T09:29:36Z</time>
      </trkpt>
      <trkpt lat="45.8674" lon="4.14953">
        <ele>420</ele>
        <time>2022-11-18T09:29:39Z</time>
      </trkpt>
      <trkpt lat="45.86736" lon="4.14977">
        <ele>419</ele>
        <time>2022-11-18T09:29:42Z</time>
      </trkpt>
      <trkpt lat="45.86719" lon="4.15036">
        <ele>416</ele>
        <time>2022-11-18T09:29:50Z</time>
      </trkpt>
      <trkpt lat="45.86716" lon="4.15077">
        <ele>415</ele>
        <time>2022-11-18T09:29:55Z</time>
      </trkpt>
      <trkpt lat="45.86721" lon="4.15112">
        <ele>416</ele>
        <time>2022-11-18T09:30:00Z</time>
      </trkpt>
      <trkpt lat="45.86744" lon="4.15167">
        <ele>415</ele>
        <time>2022-11-18T09:30:08Z</time>
      </trkpt>
      <trkpt lat="45.86747" lon="4.15181">
        <ele>415</ele>
        <time>2022-11-18T09:30:10Z</time>
      </trkpt>
      <trkpt lat="45.86745" lon="4.15206">
        <ele>416</ele>
        <time>2022-11-18T09:30:13Z</time>
      </trkpt>
      <trkpt lat="45.86739" lon="4.15219">
        <ele>417</ele>
        <time>2022-11-18T09:30:15Z</time>
      </trkpt>
      <trkpt lat="45.86723" lon="4.15231">
        <ele>419</ele>
        <time>2022-11-18T09:30:18Z</time>
      </trkpt>
      <trkpt lat="45.86712" lon="4.15231">
        <ele>420</ele>
        <time>2022-11-18T09:30:20Z</time>
      </trkpt>
      <trkpt lat="45.86695" lon="4.15215">
        <ele>421</ele>
        <time>2022-11-18T09:30:23Z</time>
      </trkpt>
      <trkpt lat="45.86647" lon="4.15119">
        <ele>414</ele>
        <time>2022-11-18T09:30:38Z</time>
      </trkpt>
      <trkpt lat="45.86637" lon="4.15105">
        <ele>413</ele>
        <time>2022-11-18T09:30:41Z</time>
      </trkpt>
      <trkpt lat="45.86626" lon="4.15097">
        <ele>413</ele>
        <time>2022-11-18T09:30:43Z</time>
      </trkpt>
      <trkpt lat="45.86486" lon="4.15072">
        <ele>419</ele>
        <time>2022-11-18T09:31:08Z</time>
      </trkpt>
      <trkpt lat="45.86469" lon="4.15075">
        <ele>420</ele>
        <time>2022-11-18T09:31:11Z</time>
      </trkpt>
      <trkpt lat="45.86451" lon="4.15085">
        <ele>422</ele>
        <time>2022-11-18T09:31:14Z</time>
      </trkpt>
      <trkpt lat="45.86389" lon="4.15152">
        <ele>427</ele>
        <time>2022-11-18T09:31:28Z</time>
      </trkpt>
      <trkpt lat="45.86373" lon="4.15173">
        <ele>427</ele>
        <time>2022-11-18T09:31:32Z</time>
      </trkpt>
      <trkpt lat="45.8636" lon="4.15201">
        <ele>428</ele>
        <time>2022-11-18T09:31:36Z</time>
      </trkpt>
      <trkpt lat="45.86349" lon="4.15235">
        <ele>429</ele>
        <time>2022-11-18T09:31:41Z</time>
      </trkpt>
      <trkpt lat="45.86333" lon="4.15301">
        <ele>430</ele>
        <time>2022-11-18T09:31:49Z</time>
      </trkpt>
      <trkpt lat="45.86331" lon="4.15325">
        <ele>431</ele>
        <time>2022-11-18T09:31:52Z</time>
      </trkpt>
      <trkpt lat="45.86331" lon="4.1539">
        <ele>432</ele>
        <time>2022-11-18T09:32:01Z</time>
      </trkpt>
      <trkpt lat="45.8634" lon="4.15457">
        <ele>433</ele>
        <time>2022-11-18T09:32:09Z</time>
      </trkpt>
      <trkpt lat="45.86339" lon="4.15467">
        <ele>433</ele>
        <time>2022-11-18T09:32:10Z</time>
      </trkpt>
      <trkpt lat="45.86333" lon="4.15483">
        <ele>434</ele>
        <time>2022-11-18T09:32:12Z</time>
      </trkpt>
      <trkpt lat="45.86316" lon="4.15499">
        <ele>434</ele>
        <time>2022-11-18T09:32:16Z</time>
      </trkpt>
      <trkpt lat="45.86239" lon="4.1552">
        <ele>432</ele>
        <time>2022-11-18T09:32:30Z</time>
      </trkpt>
      <trkpt lat="45.86225" lon="4.15529">
        <ele>431</ele>
        <time>2022-11-18T09:32:33Z</time>
      </trkpt>
      <trkpt lat="45.86203" lon="4.15564">
        <ele>431</ele>
        <time>2022-11-18T09:32:39Z</time>
      </trkpt>
      <trkpt lat="45.86198" lon="4.15588">
        <ele>431</ele>
        <time>2022-11-18T09:32:42Z</time>
      </trkpt>
      <trkpt lat="45.86199" lon="4.15613">
        <ele>431</ele>
        <time>2022-11-18T09:32:45Z</time>
      </trkpt>
      <trkpt lat="45.86287" lon="4.15851">
        <ele>430</ele>
        <time>2022-11-18T09:33:18Z</time>
      </trkpt>
      <trkpt lat="45.8631" lon="4.15925">
        <ele>433</ele>
        <time>2022-11-18T09:33:28Z</time>
      </trkpt>
      <trkpt lat="45.86309" lon="4.15975">
        <ele>432</ele>
        <time>2022-11-18T09:33:34Z</time>
      </trkpt>
      <trkpt lat="45.86296" lon="4.1603">
        <ele>431</ele>
        <time>2022-11-18T09:33:42Z</time>
      </trkpt>
      <trkpt lat="45.8627" lon="4.16109">
        <ele>430</ele>
        <time>2022-11-18T09:33:52Z</time>
      </trkpt>
      <trkpt lat="45.86243" lon="4.16161">
        <ele>430</ele>
        <time>2022-11-18T09:34:00Z</time>
      </trkpt>
      <trkpt lat="45.86206" lon="4.16205">
        <ele>430</ele>
        <time>2022-11-18T09:34:09Z</time>
      </trkpt>
      <trkpt lat="45.86102" lon="4.16416">
        <ele>429</ele>
        <time>2022-11-18T09:34:41Z</time>
      </trkpt>
      <trkpt lat="45.86096" lon="4.16462">
        <ele>430</ele>
        <time>2022-11-18T09:34:47Z</time>
      </trkpt>
      <trkpt lat="45.86098" lon="4.16515">
        <ele>431</ele>
        <time>2022-11-18T09:34:53Z</time>
      </trkpt>
      <trkpt lat="45.86124" lon="4.16643">
        <ele>432</ele>
        <time>2022-11-18T09:35:10Z</time>
      </trkpt>
      <trkpt lat="45.8613" lon="4.16769">
        <ele>431</ele>
        <time>2022-11-18T09:35:26Z</time>
      </trkpt>
      <trkpt lat="45.86111" lon="4.16918">
        <ele>430</ele>
        <time>2022-11-18T09:35:44Z</time>
      </trkpt>
      <trkpt lat="45.86111" lon="4.16971">
        <ele>430</ele>
        <time>2022-11-18T09:35:51Z</time>
      </trkpt>
      <trkpt lat="45.86127" lon="4.17068">
        <ele>428</ele>
        <time>2022-11-18T09:36:03Z</time>
      </trkpt>
      <trkpt lat="45.86152" lon="4.17155">
        <ele>424</ele>
        <time>2022-11-18T09:36:15Z</time>
      </trkpt>
      <trkpt lat="45.86166" lon="4.1718">
        <ele>424</ele>
        <time>2022-11-18T09:36:19Z</time>
      </trkpt>
      <trkpt lat="45.86186" lon="4.17201">
        <ele>424</ele>
        <time>2022-11-18T09:36:23Z</time>
      </trkpt>
      <trkpt lat="45.86243" lon="4.17249">
        <ele>425</ele>
        <time>2022-11-18T09:36:35Z</time>
      </trkpt>
      <trkpt lat="45.86249" lon="4.17264">
        <ele>424</ele>
        <time>2022-11-18T09:36:37Z</time>
      </trkpt>
      <trkpt lat="45.86253" lon="4.17304">
        <ele>423</ele>
        <time>2022-11-18T09:36:42Z</time>
      </trkpt>
      <trkpt lat="45.86246" lon="4.17397">
        <ele>415</ele>
        <time>2022-11-18T09:36:54Z</time>
      </trkpt>
      <trkpt lat="45.86248" lon="4.17423">
        <ele>413</ele>
        <time>2022-11-18T09:36:57Z</time>
      </trkpt>
      <trkpt lat="45.86253" lon="4.17439">
        <ele>411</ele>
        <time>2022-11-18T09:36:59Z</time>
      </trkpt>
      <trkpt lat="45.8626" lon="4.17448">
        <ele>410</ele>
        <time>2022-11-18T09:37:01Z</time>
      </trkpt>
      <trkpt lat="45.86276" lon="4.1746">
        <ele>410</ele>
        <time>2022-11-18T09:37:04Z</time>
      </trkpt>
      <trkpt lat="45.8635" lon="4.17485">
        <ele>412</ele>
        <time>2022-11-18T09:37:18Z</time>
      </trkpt>
      <trkpt lat="45.86361" lon="4.17494">
        <ele>411</ele>
        <time>2022-11-18T09:37:20Z</time>
      </trkpt>
      <trkpt lat="45.86366" lon="4.17507">
        <ele>409</ele>
        <time>2022-11-18T09:37:22Z</time>
      </trkpt>
      <trkpt lat="45.86254" lon="4.17573">
        <ele>394</ele>
        <time>2022-11-18T09:37:43Z</time>
      </trkpt>
      <trkpt lat="45.86177" lon="4.17645">
        <ele>396</ele>
        <time>2022-11-18T09:38:00Z</time>
      </trkpt>
      <trkpt lat="45.86156" lon="4.1766">
        <ele>398</ele>
        <time>2022-11-18T09:38:04Z</time>
      </trkpt>
      <trkpt lat="45.86131" lon="4.17671">
        <ele>401</ele>
        <time>2022-11-18T09:38:08Z</time>
      </trkpt>
      <trkpt lat="45.86094" lon="4.17675">
        <ele>404</ele>
        <time>2022-11-18T09:38:15Z</time>
      </trkpt>
      <trkpt lat="45.86071" lon="4.17673">
        <ele>404</ele>
        <time>2022-11-18T09:38:19Z</time>
      </trkpt>
      <trkpt lat="45.8604" lon="4.17664">
        <ele>405</ele>
        <time>2022-11-18T09:38:25Z</time>
      </trkpt>
      <trkpt lat="45.85998" lon="4.17624">
        <ele>405</ele>
        <time>2022-11-18T09:38:34Z</time>
      </trkpt>
      <trkpt lat="45.85975" lon="4.17593">
        <ele>405</ele>
        <time>2022-11-18T09:38:39Z</time>
      </trkpt>
      <trkpt lat="45.85947" lon="4.1754">
        <ele>405</ele>
        <time>2022-11-18T09:38:48Z</time>
      </trkpt>
      <trkpt lat="45.85933" lon="4.17562">
        <ele>407</ele>
        <time>2022-11-18T09:38:51Z</time>
      </trkpt>
      <trkpt lat="45.85918" lon="4.17597">
        <ele>410</ele>
        <time>2022-11-18T09:38:56Z</time>
      </trkpt>
      <trkpt lat="45.85915" lon="4.17625">
        <ele>412</ele>
        <time>2022-11-18T09:39:00Z</time>
      </trkpt>
      <trkpt lat="45.85919" lon="4.17641">
        <ele>413</ele>
        <time>2022-11-18T09:39:02Z</time>
      </trkpt>
      <trkpt lat="45.85926" lon="4.17653">
        <ele>413</ele>
        <time>2022-11-18T09:39:04Z</time>
      </trkpt>
      <trkpt lat="45.85936" lon="4.17661">
        <ele>413</ele>
        <time>2022-11-18T09:39:06Z</time>
      </trkpt>
      <trkpt lat="45.85955" lon="4.17663">
        <ele>411</ele>
        <time>2022-11-18T09:39:09Z</time>
      </trkpt>
      <trkpt lat="45.85977" lon="4.17659">
        <ele>409</ele>
        <time>2022-11-18T09:39:13Z</time>
      </trkpt>
      <trkpt lat="45.85992" lon="4.17663">
        <ele>408</ele>
        <time>2022-11-18T09:39:16Z</time>
      </trkpt>
      <trkpt lat="45.86002" lon="4.1767">
        <ele>407</ele>
        <time>2022-11-18T09:39:18Z</time>
      </trkpt>
      <trkpt lat="45.86036" lon="4.17713">
        <ele>410</ele>
        <time>2022-11-18T09:39:26Z</time>
      </trkpt>
      <trkpt lat="45.86048" lon="4.17722">
        <ele>411</ele>
        <time>2022-11-18T09:39:29Z</time>
      </trkpt>
      <trkpt lat="45.86108" lon="4.17749">
        <ele>413</ele>
        <time>2022-11-18T09:39:40Z</time>
      </trkpt>
      <trkpt lat="45.86126" lon="4.17765">
        <ele>413</ele>
        <time>2022-11-18T09:39:43Z</time>
      </trkpt>
      <trkpt lat="45.86208" lon="4.17878">
        <ele>418</ele>
        <time>2022-11-18T09:40:04Z</time>
      </trkpt>
      <trkpt lat="45.86314" lon="4.18041">
        <ele>423</ele>
        <time>2022-11-18T09:40:31Z</time>
      </trkpt>
      <trkpt lat="45.86331" lon="4.18059">
        <ele>423</ele>
        <time>2022-11-18T09:40:35Z</time>
      </trkpt>
      <trkpt lat="45.864" lon="4.18107">
        <ele>426</ele>
        <time>2022-11-18T09:40:49Z</time>
      </trkpt>
      <trkpt lat="45.86419" lon="4.18124">
        <ele>427</ele>
        <time>2022-11-18T09:40:53Z</time>
      </trkpt>
      <trkpt lat="45.86474" lon="4.18191">
        <ele>429</ele>
        <time>2022-11-18T09:41:06Z</time>
      </trkpt>
      <trkpt lat="45.86481" lon="4.18205">
        <ele>430</ele>
        <time>2022-11-18T09:41:08Z</time>
      </trkpt>
      <trkpt lat="45.86486" lon="4.18224">
        <ele>431</ele>
        <time>2022-11-18T09:41:10Z</time>
      </trkpt>
      <trkpt lat="45.86492" lon="4.1826">
        <ele>432</ele>
        <time>2022-11-18T09:41:15Z</time>
      </trkpt>
      <trkpt lat="45.86494" lon="4.18306">
        <ele>432</ele>
        <time>2022-11-18T09:41:20Z</time>
      </trkpt>
      <trkpt lat="45.865" lon="4.18332">
        <ele>432</ele>
        <time>2022-11-18T09:41:24Z</time>
      </trkpt>
      <trkpt lat="45.86505" lon="4.18343">
        <ele>432</ele>
        <time>2022-11-18T09:41:26Z</time>
      </trkpt>
      <trkpt lat="45.86518" lon="4.1836">
        <ele>433</ele>
        <time>2022-11-18T09:41:29Z</time>
      </trkpt>
      <trkpt lat="45.86564" lon="4.18401">
        <ele>435</ele>
        <time>2022-11-18T09:41:38Z</time>
      </trkpt>
      <trkpt lat="45.86578" lon="4.18421">
        <ele>435</ele>
        <time>2022-11-18T09:41:42Z</time>
      </trkpt>
      <trkpt lat="45.86585" lon="4.18451">
        <ele>437</ele>
        <time>2022-11-18T09:41:46Z</time>
      </trkpt>
      <trkpt lat="45.86601" lon="4.18585">
        <ele>442</ele>
        <time>2022-11-18T09:42:03Z</time>
      </trkpt>
      <trkpt lat="45.86601" lon="4.18655">
        <ele>444</ele>
        <time>2022-11-18T09:42:11Z</time>
      </trkpt>
      <trkpt lat="45.86618" lon="4.18718">
        <ele>445</ele>
        <time>2022-11-18T09:42:20Z</time>
      </trkpt>
      <trkpt lat="45.86621" lon="4.1874">
        <ele>446</ele>
        <time>2022-11-18T09:42:22Z</time>
      </trkpt>
      <trkpt lat="45.86615" lon="4.18814">
        <ele>451</ele>
        <time>2022-11-18T09:42:32Z</time>
      </trkpt>
      <trkpt lat="45.86616" lon="4.18881">
        <ele>451</ele>
        <time>2022-11-18T09:42:40Z</time>
      </trkpt>
      <trkpt lat="45.86605" lon="4.18945">
        <ele>451</ele>
        <time>2022-11-18T09:42:48Z</time>
      </trkpt>
      <trkpt lat="45.86608" lon="4.18958">
        <ele>451</ele>
        <time>2022-11-18T09:42:50Z</time>
      </trkpt>
      <trkpt lat="45.86614" lon="4.18965">
        <ele>451</ele>
        <time>2022-11-18T09:42:51Z</time>
      </trkpt>
      <trkpt lat="45.86631" lon="4.18973">
        <ele>451</ele>
        <time>2022-11-18T09:42:54Z</time>
      </trkpt>
      <trkpt lat="45.86642" lon="4.18968">
        <ele>450</ele>
        <time>2022-11-18T09:42:56Z</time>
      </trkpt>
      <trkpt lat="45.86655" lon="4.18946">
        <ele>450</ele>
        <time>2022-11-18T09:43:00Z</time>
      </trkpt>
      <trkpt lat="45.8668" lon="4.18864">
        <ele>449</ele>
        <time>2022-11-18T09:43:11Z</time>
      </trkpt>
      <trkpt lat="45.86701" lon="4.18832">
        <ele>450</ele>
        <time>2022-11-18T09:43:16Z</time>
      </trkpt>
      <trkpt lat="45.86712" lon="4.18823">
        <ele>450</ele>
        <time>2022-11-18T09:43:19Z</time>
      </trkpt>
      <trkpt lat="45.86745" lon="4.18812">
        <ele>452</ele>
        <time>2022-11-18T09:43:25Z</time>
      </trkpt>
      <trkpt lat="45.86783" lon="4.18806">
        <ele>454</ele>
        <time>2022-11-18T09:43:32Z</time>
      </trkpt>
      <trkpt lat="45.86818" lon="4.18809">
        <ele>456</ele>
        <time>2022-11-18T09:43:38Z</time>
      </trkpt>
      <trkpt lat="45.86836" lon="4.18814">
        <ele>457</ele>
        <time>2022-11-18T09:43:41Z</time>
      </trkpt>
      <trkpt lat="45.86911" lon="4.18868">
        <ele>463</ele>
        <time>2022-11-18T09:43:56Z</time>
      </trkpt>
      <trkpt lat="45.86936" lon="4.1888">
        <ele>464</ele>
        <time>2022-11-18T09:44:01Z</time>
      </trkpt>
      <trkpt lat="45.86962" lon="4.18873">
        <ele>464</ele>
        <time>2022-11-18T09:44:05Z</time>
      </trkpt>
      <trkpt lat="45.87002" lon="4.18854">
        <ele>464</ele>
        <time>2022-11-18T09:44:13Z</time>
      </trkpt>
      <trkpt lat="45.87042" lon="4.18848">
        <ele>465</ele>
        <time>2022-11-18T09:44:20Z</time>
      </trkpt>
      <trkpt lat="45.87072" lon="4.1886">
        <ele>466</ele>
        <time>2022-11-18T09:44:26Z</time>
      </trkpt>
      <trkpt lat="45.87092" lon="4.1888">
        <ele>467</ele>
        <time>2022-11-18T09:44:30Z</time>
      </trkpt>
      <trkpt lat="45.87106" lon="4.18906">
        <ele>468</ele>
        <time>2022-11-18T09:44:34Z</time>
      </trkpt>
      <trkpt lat="45.87114" lon="4.18934">
        <ele>469</ele>
        <time>2022-11-18T09:44:38Z</time>
      </trkpt>
      <trkpt lat="45.87116" lon="4.18952">
        <ele>470</ele>
        <time>2022-11-18T09:44:40Z</time>
      </trkpt>
      <trkpt lat="45.87114" lon="4.18997">
        <ele>472</ele>
        <time>2022-11-18T09:44:46Z</time>
      </trkpt>
      <trkpt lat="45.87108" lon="4.1904">
        <ele>475</ele>
        <time>2022-11-18T09:44:51Z</time>
      </trkpt>
      <trkpt lat="45.87094" lon="4.19071">
        <ele>478</ele>
        <time>2022-11-18T09:44:56Z</time>
      </trkpt>
      <trkpt lat="45.8708" lon="4.19082">
        <ele>479</ele>
        <time>2022-11-18T09:44:58Z</time>
      </trkpt>
      <trkpt lat="45.87066" lon="4.19089">
        <ele>479</ele>
        <time>2022-11-18T09:45:01Z</time>
      </trkpt>
      <trkpt lat="45.86999" lon="4.19102">
        <ele>479</ele>
        <time>2022-11-18T09:45:13Z</time>
      </trkpt>
      <trkpt lat="45.86925" lon="4.19103">
        <ele>478</ele>
        <time>2022-11-18T09:45:26Z</time>
      </trkpt>
      <trkpt lat="45.86901" lon="4.19105">
        <ele>477</ele>
        <time>2022-11-18T09:45:31Z</time>
      </trkpt>
      <trkpt lat="45.86893" lon="4.19109">
        <ele>477</ele>
        <time>2022-11-18T09:45:32Z</time>
      </trkpt>
      <trkpt lat="45.86883" lon="4.19119">
        <ele>477</ele>
        <time>2022-11-18T09:45:34Z</time>
      </trkpt>
      <trkpt lat="45.86881" lon="4.19128">
        <ele>477</ele>
        <time>2022-11-18T09:45:35Z</time>
      </trkpt>
      <trkpt lat="45.86883" lon="4.19177">
        <ele>478</ele>
        <time>2022-11-18T09:45:41Z</time>
      </trkpt>
      <trkpt lat="45.86891" lon="4.19233">
        <ele>477</ele>
        <time>2022-11-18T09:45:49Z</time>
      </trkpt>
      <trkpt lat="45.86918" lon="4.19342">
        <ele>475</ele>
        <time>2022-11-18T09:46:03Z</time>
      </trkpt>
      <trkpt lat="45.86944" lon="4.19418">
        <ele>480</ele>
        <time>2022-11-18T09:46:13Z</time>
      </trkpt>
      <trkpt lat="45.86958" lon="4.19446">
        <ele>480</ele>
        <time>2022-11-18T09:46:18Z</time>
      </trkpt>
      <trkpt lat="45.87088" lon="4.19674">
        <ele>484</ele>
        <time>2022-11-18T09:46:54Z</time>
      </trkpt>
      <trkpt lat="45.87176" lon="4.19943">
        <ele>484</ele>
        <time>2022-11-18T09:47:31Z</time>
      </trkpt>
      <trkpt lat="45.87285" lon="4.20303">
        <ele>486</ele>
        <time>2022-11-18T09:48:20Z</time>
      </trkpt>
      <trkpt lat="45.87323" lon="4.2068">
        <ele>487</ele>
        <time>2022-11-18T09:49:07Z</time>
      </trkpt>
      <trkpt lat="45.87344" lon="4.20777">
        <ele>488</ele>
        <time>2022-11-18T09:49:19Z</time>
      </trkpt>
      <trkpt lat="45.87516" lon="4.21152">
        <ele>502</ele>
        <time>2022-11-18T09:50:15Z</time>
      </trkpt>
      <trkpt lat="45.87674" lon="4.21412">
        <ele>502</ele>
        <time>2022-11-18T09:50:58Z</time>
      </trkpt>
      <trkpt lat="45.87738" lon="4.21508">
        <ele>504</ele>
        <time>2022-11-18T09:51:14Z</time>
      </trkpt>
      <trkpt lat="45.8776" lon="4.21532">
        <ele>503</ele>
        <time>2022-11-18T09:51:19Z</time>
      </trkpt>
      <trkpt lat="45.87949" lon="4.21657">
        <ele>497</ele>
        <time>2022-11-18T09:51:56Z</time>
      </trkpt>
      <trkpt lat="45.88017" lon="4.21749">
        <ele>499</ele>
        <time>2022-11-18T09:52:13Z</time>
      </trkpt>
      <trkpt lat="45.88061" lon="4.21817">
        <ele>504</ele>
        <time>2022-11-18T09:52:24Z</time>
      </trkpt>
      <trkpt lat="45.88121" lon="4.21902">
        <ele>508</ele>
        <time>2022-11-18T09:52:39Z</time>
      </trkpt>
      <trkpt lat="45.88296" lon="4.22088">
        <ele>519</ele>
        <time>2022-11-18T09:53:18Z</time>
      </trkpt>
      <trkpt lat="45.88332" lon="4.22139">
        <ele>524</ele>
        <time>2022-11-18T09:53:27Z</time>
      </trkpt>
      <trkpt lat="45.88491" lon="4.22423">
        <ele>523</ele>
        <time>2022-11-18T09:54:12Z</time>
      </trkpt>
      <trkpt lat="45.88516" lon="4.2245">
        <ele>524</ele>
        <time>2022-11-18T09:54:18Z</time>
      </trkpt>
      <trkpt lat="45.88553" lon="4.22467">
        <ele>524</ele>
        <time>2022-11-18T09:54:25Z</time>
      </trkpt>
      <trkpt lat="45.88625" lon="4.22475">
        <ele>525</ele>
        <time>2022-11-18T09:54:37Z</time>
      </trkpt>
      <trkpt lat="45.88691" lon="4.22489">
        <ele>528</ele>
        <time>2022-11-18T09:54:49Z</time>
      </trkpt>
      <trkpt lat="45.88762" lon="4.22521">
        <ele>532</ele>
        <time>2022-11-18T09:55:03Z</time>
      </trkpt>
      <trkpt lat="45.89164" lon="4.22773">
        <ele>543</ele>
        <time>2022-11-18T09:56:21Z</time>
      </trkpt>
      <trkpt lat="45.89197" lon="4.22779">
        <ele>544</ele>
        <time>2022-11-18T09:56:27Z</time>
      </trkpt>
      <trkpt lat="45.89269" lon="4.22785">
        <ele>546</ele>
        <time>2022-11-18T09:56:39Z</time>
      </trkpt>
      <trkpt lat="45.89307" lon="4.22798">
        <ele>547</ele>
        <time>2022-11-18T09:56:46Z</time>
      </trkpt>
      <trkpt lat="45.89451" lon="4.22878">
        <ele>551</ele>
        <time>2022-11-18T09:57:14Z</time>
      </trkpt>
      <trkpt lat="45.89594" lon="4.22924">
        <ele>555</ele>
        <time>2022-11-18T09:57:40Z</time>
      </trkpt>
      <trkpt lat="45.89614" lon="4.22937">
        <ele>556</ele>
        <time>2022-11-18T09:57:44Z</time>
      </trkpt>
      <trkpt lat="45.89629" lon="4.22952">
        <ele>556</ele>
        <time>2022-11-18T09:57:47Z</time>
      </trkpt>
      <trkpt lat="45.89643" lon="4.22971">
        <ele>556</ele>
        <time>2022-11-18T09:57:50Z</time>
      </trkpt>
      <trkpt lat="45.89647" lon="4.22992">
        <ele>556</ele>
        <time>2022-11-18T09:57:53Z</time>
      </trkpt>
      <trkpt lat="45.89647" lon="4.23005">
        <ele>556</ele>
        <time>2022-11-18T09:57:55Z</time>
      </trkpt>
      <trkpt lat="45.89633" lon="4.23047">
        <ele>558</ele>
        <time>2022-11-18T09:58:01Z</time>
      </trkpt>
      <trkpt lat="45.89539" lon="4.23118">
        <ele>559</ele>
        <time>2022-11-18T09:58:19Z</time>
      </trkpt>
      <trkpt lat="45.89384" lon="4.23242">
        <ele>562</ele>
        <time>2022-11-18T09:58:51Z</time>
      </trkpt>
      <trkpt lat="45.89363" lon="4.23256">
        <ele>563</ele>
        <time>2022-11-18T09:58:55Z</time>
      </trkpt>
      <trkpt lat="45.89341" lon="4.23266">
        <ele>564</ele>
        <time>2022-11-18T09:58:59Z</time>
      </trkpt>
      <trkpt lat="45.89238" lon="4.23286">
        <ele>563</ele>
        <time>2022-11-18T09:59:18Z</time>
      </trkpt>
      <trkpt lat="45.89218" lon="4.23294">
        <ele>562</ele>
        <time>2022-11-18T09:59:21Z</time>
      </trkpt>
      <trkpt lat="45.89206" lon="4.23309">
        <ele>562</ele>
        <time>2022-11-18T09:59:24Z</time>
      </trkpt>
      <trkpt lat="45.89198" lon="4.23329">
        <ele>563</ele>
        <time>2022-11-18T09:59:27Z</time>
      </trkpt>
      <trkpt lat="45.89194" lon="4.23347">
        <ele>563</ele>
        <time>2022-11-18T09:59:29Z</time>
      </trkpt>
      <trkpt lat="45.89205" lon="4.23548">
        <ele>566</ele>
        <time>2022-11-18T09:59:54Z</time>
      </trkpt>
      <trkpt lat="45.89213" lon="4.23619">
        <ele>566</ele>
        <time>2022-11-18T10:00:03Z</time>
      </trkpt>
      <trkpt lat="45.8922" lon="4.23626">
        <ele>566</ele>
        <time>2022-11-18T10:00:05Z</time>
      </trkpt>
      <trkpt lat="45.89218" lon="4.23636">
        <ele>566</ele>
        <time>2022-11-18T10:00:06Z</time>
      </trkpt>
      <trkpt lat="45.89258" lon="4.23839">
        <ele>566</ele>
        <time>2022-11-18T10:00:32Z</time>
      </trkpt>
      <trkpt lat="45.8932" lon="4.24048">
        <ele>569</ele>
        <time>2022-11-18T10:01:00Z</time>
      </trkpt>
      <trkpt lat="45.89322" lon="4.24075">
        <ele>570</ele>
        <time>2022-11-18T10:01:04Z</time>
      </trkpt>
      <trkpt lat="45.89319" lon="4.24115">
        <ele>570</ele>
        <time>2022-11-18T10:01:09Z</time>
      </trkpt>
      <trkpt lat="45.89295" lon="4.24162">
        <ele>569</ele>
        <time>2022-11-18T10:01:16Z</time>
      </trkpt>
      <trkpt lat="45.89286" lon="4.24171">
        <ele>569</ele>
        <time>2022-11-18T10:01:18Z</time>
      </trkpt>
      <trkpt lat="45.89117" lon="4.24275">
        <ele>556</ele>
        <time>2022-11-18T10:01:51Z</time>
      </trkpt>
      <trkpt lat="45.89086" lon="4.24297">
        <ele>554</ele>
        <time>2022-11-18T10:01:57Z</time>
      </trkpt>
      <trkpt lat="45.89037" lon="4.24344">
        <ele>550</ele>
        <time>2022-11-18T10:02:07Z</time>
      </trkpt>
      <trkpt lat="45.88983" lon="4.24404">
        <ele>546</ele>
        <time>2022-11-18T10:02:19Z</time>
      </trkpt>
      <trkpt lat="45.88956" lon="4.2444">
        <ele>543</ele>
        <time>2022-11-18T10:02:26Z</time>
      </trkpt>
      <trkpt lat="45.88935" lon="4.24486">
        <ele>540</ele>
        <time>2022-11-18T10:02:33Z</time>
      </trkpt>
      <trkpt lat="45.88923" lon="4.24501">
        <ele>540</ele>
        <time>2022-11-18T10:02:36Z</time>
      </trkpt>
      <trkpt lat="45.88898" lon="4.24512">
        <ele>540</ele>
        <time>2022-11-18T10:02:40Z</time>
      </trkpt>
      <trkpt lat="45.88879" lon="4.24515">
        <ele>539</ele>
        <time>2022-11-18T10:02:44Z</time>
      </trkpt>
      <trkpt lat="45.88857" lon="4.24531">
        <ele>538</ele>
        <time>2022-11-18T10:02:48Z</time>
      </trkpt>
      <trkpt lat="45.88849" lon="4.24561">
        <ele>536</ele>
        <time>2022-11-18T10:02:52Z</time>
      </trkpt>
      <trkpt lat="45.88853" lon="4.24589">
        <ele>535</ele>
        <time>2022-11-18T10:02:56Z</time>
      </trkpt>
      <trkpt lat="45.88869" lon="4.24607">
        <ele>534</ele>
        <time>2022-11-18T10:02:59Z</time>
      </trkpt>
      <trkpt lat="45.88853" lon="4.24648">
        <ele>534</ele>
        <time>2022-11-18T10:03:05Z</time>
      </trkpt>
      <trkpt lat="45.88826" lon="4.24737">
        <ele>535</ele>
        <time>2022-11-18T10:03:17Z</time>
      </trkpt>
      <trkpt lat="45.8879" lon="4.24888">
        <ele>529</ele>
        <time>2022-11-18T10:03:37Z</time>
      </trkpt>
      <trkpt lat="45.88768" lon="4.24955">
        <ele>529</ele>
        <time>2022-11-18T10:03:46Z</time>
      </trkpt>
      <trkpt lat="45.88738" lon="4.25008">
        <ele>529</ele>
        <time>2022-11-18T10:03:54Z</time>
      </trkpt>
      <trkpt lat="45.88706" lon="4.25048">
        <ele>529</ele>
        <time>2022-11-18T10:04:02Z</time>
      </trkpt>
      <trkpt lat="45.88557" lon="4.25127">
        <ele>527</ele>
        <time>2022-11-18T10:04:30Z</time>
      </trkpt>
      <trkpt lat="45.88523" lon="4.25153">
        <ele>526</ele>
        <time>2022-11-18T10:04:37Z</time>
      </trkpt>
      <trkpt lat="45.88508" lon="4.25178">
        <ele>526</ele>
        <time>2022-11-18T10:04:41Z</time>
      </trkpt>
      <trkpt lat="45.8846" lon="4.2539">
        <ele>522</ele>
        <time>2022-11-18T10:05:09Z</time>
      </trkpt>
      <trkpt lat="45.88449" lon="4.25499">
        <ele>524</ele>
        <time>2022-11-18T10:05:22Z</time>
      </trkpt>
      <trkpt lat="45.88436" lon="4.25556">
        <ele>527</ele>
        <time>2022-11-18T10:05:30Z</time>
      </trkpt>
      <trkpt lat="45.88419" lon="4.25598">
        <ele>529</ele>
        <time>2022-11-18T10:05:36Z</time>
      </trkpt>
      <trkpt lat="45.88393" lon="4.2563">
        <ele>529</ele>
        <time>2022-11-18T10:05:42Z</time>
      </trkpt>
      <trkpt lat="45.88364" lon="4.2565">
        <ele>531</ele>
        <time>2022-11-18T10:05:48Z</time>
      </trkpt>
      <trkpt lat="45.88332" lon="4.25663">
        <ele>532</ele>
        <time>2022-11-18T10:05:54Z</time>
      </trkpt>
      <trkpt lat="45.88259" lon="4.25661">
        <ele>536</ele>
        <time>2022-11-18T10:06:07Z</time>
      </trkpt>
      <trkpt lat="45.88206" lon="4.25664">
        <ele>538</ele>
        <time>2022-11-18T10:06:16Z</time>
      </trkpt>
      <trkpt lat="45.88128" lon="4.25696">
        <ele>542</ele>
        <time>2022-11-18T10:06:30Z</time>
      </trkpt>
      <trkpt lat="45.88086" lon="4.25694">
        <ele>548</ele>
        <time>2022-11-18T10:06:38Z</time>
      </trkpt>
      <trkpt lat="45.88052" lon="4.25703">
        <ele>549</ele>
        <time>2022-11-18T10:06:44Z</time>
      </trkpt>
      <trkpt lat="45.87943" lon="4.25781">
        <ele>542</ele>
        <time>2022-11-18T10:07:06Z</time>
      </trkpt>
      <trkpt lat="45.87899" lon="4.25803">
        <ele>544</ele>
        <time>2022-11-18T10:07:14Z</time>
      </trkpt>
      <trkpt lat="45.87886" lon="4.25816">
        <ele>545</ele>
        <time>2022-11-18T10:07:17Z</time>
      </trkpt>
      <trkpt lat="45.87876" lon="4.25854">
        <ele>547</ele>
        <time>2022-11-18T10:07:22Z</time>
      </trkpt>
      <trkpt lat="45.87871" lon="4.25908">
        <ele>551</ele>
        <time>2022-11-18T10:07:29Z</time>
      </trkpt>
      <trkpt lat="45.87876" lon="4.25947">
        <ele>553</ele>
        <time>2022-11-18T10:07:34Z</time>
      </trkpt>
      <trkpt lat="45.8793" lon="4.26043">
        <ele>554</ele>
        <time>2022-11-18T10:07:49Z</time>
      </trkpt>
      <trkpt lat="45.88041" lon="4.26177">
        <ele>555</ele>
        <time>2022-11-18T10:08:15Z</time>
      </trkpt>
      <trkpt lat="45.88055" lon="4.26211">
        <ele>554</ele>
        <time>2022-11-18T10:08:20Z</time>
      </trkpt>
      <trkpt lat="45.88068" lon="4.26272">
        <ele>553</ele>
        <time>2022-11-18T10:08:27Z</time>
      </trkpt>
      <trkpt lat="45.88064" lon="4.263">
        <ele>553</ele>
        <time>2022-11-18T10:08:31Z</time>
      </trkpt>
      <trkpt lat="45.88054" lon="4.26338">
        <ele>554</ele>
        <time>2022-11-18T10:08:36Z</time>
      </trkpt>
      <trkpt lat="45.88037" lon="4.26368">
        <ele>555</ele>
        <time>2022-11-18T10:08:41Z</time>
      </trkpt>
      <trkpt lat="45.88014" lon="4.26386">
        <ele>559</ele>
        <time>2022-11-18T10:08:45Z</time>
      </trkpt>
      <trkpt lat="45.87978" lon="4.26397">
        <ele>566</ele>
        <time>2022-11-18T10:08:52Z</time>
      </trkpt>
      <trkpt lat="45.8795" lon="4.26416">
        <ele>569</ele>
        <time>2022-11-18T10:08:58Z</time>
      </trkpt>
      <trkpt lat="45.8793" lon="4.26447">
        <ele>571</ele>
        <time>2022-11-18T10:09:03Z</time>
      </trkpt>
      <trkpt lat="45.87921" lon="4.26478">
        <ele>570</ele>
        <time>2022-11-18T10:09:07Z</time>
      </trkpt>
      <trkpt lat="45.8792" lon="4.26507">
        <ele>568</ele>
        <time>2022-11-18T10:09:11Z</time>
      </trkpt>
      <trkpt lat="45.87925" lon="4.2654">
        <ele>571</ele>
        <time>2022-11-18T10:09:15Z</time>
      </trkpt>
      <trkpt lat="45.87974" lon="4.26611">
        <ele>571</ele>
        <time>2022-11-18T10:09:27Z</time>
      </trkpt>
      <trkpt lat="45.87989" lon="4.26623">
        <ele>569</ele>
        <time>2022-11-18T10:09:30Z</time>
      </trkpt>
      <trkpt lat="45.88047" lon="4.26646">
        <ele>563</ele>
        <time>2022-11-18T10:09:41Z</time>
      </trkpt>
      <trkpt lat="45.88066" lon="4.26662">
        <ele>562</ele>
        <time>2022-11-18T10:09:45Z</time>
      </trkpt>
      <trkpt lat="45.88079" lon="4.26685">
        <ele>563</ele>
        <time>2022-11-18T10:09:48Z</time>
      </trkpt>
      <trkpt lat="45.88092" lon="4.26727">
        <ele>564</ele>
        <time>2022-11-18T10:09:54Z</time>
      </trkpt>
      <trkpt lat="45.88096" lon="4.26754">
        <ele>564</ele>
        <time>2022-11-18T10:09:58Z</time>
      </trkpt>
      <trkpt lat="45.88092" lon="4.26783">
        <ele>564</ele>
        <time>2022-11-18T10:10:01Z</time>
      </trkpt>
      <trkpt lat="45.88075" lon="4.26822">
        <ele>569</ele>
        <time>2022-11-18T10:10:07Z</time>
      </trkpt>
      <trkpt lat="45.88009" lon="4.26944">
        <ele>575</ele>
        <time>2022-11-18T10:10:26Z</time>
      </trkpt>
      <trkpt lat="45.87983" lon="4.26984">
        <ele>574</ele>
        <time>2022-11-18T10:10:33Z</time>
      </trkpt>
      <trkpt lat="45.87962" lon="4.27004">
        <ele>575</ele>
        <time>2022-11-18T10:10:37Z</time>
      </trkpt>
      <trkpt lat="45.87916" lon="4.27025">
        <ele>581</ele>
        <time>2022-11-18T10:10:46Z</time>
      </trkpt>
      <trkpt lat="45.8786" lon="4.27084">
        <ele>578</ele>
        <time>2022-11-18T10:10:58Z</time>
      </trkpt>
      <trkpt lat="45.87843" lon="4.27107">
        <ele>581</ele>
        <time>2022-11-18T10:11:02Z</time>
      </trkpt>
      <trkpt lat="45.87838" lon="4.27131">
        <ele>582</ele>
        <time>2022-11-18T10:11:06Z</time>
      </trkpt>
      <trkpt lat="45.87861" lon="4.27215">
        <ele>576</ele>
        <time>2022-11-18T10:11:17Z</time>
      </trkpt>
      <trkpt lat="45.87861" lon="4.27253">
        <ele>578</ele>
        <time>2022-11-18T10:11:21Z</time>
      </trkpt>
      <trkpt lat="45.87855" lon="4.27292">
        <ele>578</ele>
        <time>2022-11-18T10:11:26Z</time>
      </trkpt>
      <trkpt lat="45.87836" lon="4.27332">
        <ele>582</ele>
        <time>2022-11-18T10:11:32Z</time>
      </trkpt>
      <trkpt lat="45.87783" lon="4.27412">
        <ele>583</ele>
        <time>2022-11-18T10:11:46Z</time>
      </trkpt>
      <trkpt lat="45.87743" lon="4.27479">
        <ele>588</ele>
        <time>2022-11-18T10:11:57Z</time>
      </trkpt>
      <trkpt lat="45.87733" lon="4.27501">
        <ele>589</ele>
        <time>2022-11-18T10:12:00Z</time>
      </trkpt>
      <trkpt lat="45.87733" lon="4.27531">
        <ele>590</ele>
        <time>2022-11-18T10:12:04Z</time>
      </trkpt>
      <trkpt lat="45.8775" lon="4.27557">
        <ele>588</ele>
        <time>2022-11-18T10:12:08Z</time>
      </trkpt>
      <trkpt lat="45.87762" lon="4.27566">
        <ele>588</ele>
        <time>2022-11-18T10:12:11Z</time>
      </trkpt>
      <trkpt lat="45.87793" lon="4.27563">
        <ele>587</ele>
        <time>2022-11-18T10:12:16Z</time>
      </trkpt>
      <trkpt lat="45.87854" lon="4.27529">
        <ele>579</ele>
        <time>2022-11-18T10:12:28Z</time>
      </trkpt>
      <trkpt lat="45.87879" lon="4.27538">
        <ele>579</ele>
        <time>2022-11-18T10:12:33Z</time>
      </trkpt>
      <trkpt lat="45.8792" lon="4.27565">
        <ele>578</ele>
        <time>2022-11-18T10:12:41Z</time>
      </trkpt>
      <trkpt lat="45.87948" lon="4.27634">
        <ele>581</ele>
        <time>2022-11-18T10:12:50Z</time>
      </trkpt>
      <trkpt lat="45.8798" lon="4.27698">
        <ele>578</ele>
        <time>2022-11-18T10:13:00Z</time>
      </trkpt>
      <trkpt lat="45.87989" lon="4.27697">
        <ele>576</ele>
        <time>2022-11-18T10:13:02Z</time>
      </trkpt>
      <trkpt lat="45.87995" lon="4.27707">
        <ele>574</ele>
        <time>2022-11-18T10:13:03Z</time>
      </trkpt>
      <trkpt lat="45.87992" lon="4.27731">
        <ele>576</ele>
        <time>2022-11-18T10:13:06Z</time>
      </trkpt>
      <trkpt lat="45.87977" lon="4.27765">
        <ele>578</ele>
        <time>2022-11-18T10:13:11Z</time>
      </trkpt>
      <trkpt lat="45.87953" lon="4.27805">
        <ele>578</ele>
        <time>2022-11-18T10:13:18Z</time>
      </trkpt>
      <trkpt lat="45.87923" lon="4.27828">
        <ele>581</ele>
        <time>2022-11-18T10:13:24Z</time>
      </trkpt>
      <trkpt lat="45.87914" lon="4.27865">
        <ele>581</ele>
        <time>2022-11-18T10:13:29Z</time>
      </trkpt>
      <trkpt lat="45.87915" lon="4.27893">
        <ele>579</ele>
        <time>2022-11-18T10:13:32Z</time>
      </trkpt>
      <trkpt lat="45.87923" lon="4.27925">
        <ele>576</ele>
        <time>2022-11-18T10:13:37Z</time>
      </trkpt>
      <trkpt lat="45.87934" lon="4.27949">
        <ele>576</ele>
        <time>2022-11-18T10:13:40Z</time>
      </trkpt>
      <trkpt lat="45.87949" lon="4.27972">
        <ele>576</ele>
        <time>2022-11-18T10:13:44Z</time>
      </trkpt>
      <trkpt lat="45.87963" lon="4.27985">
        <ele>576</ele>
        <time>2022-11-18T10:13:47Z</time>
      </trkpt>
      <trkpt lat="45.87992" lon="4.27989">
        <ele>572</ele>
        <time>2022-11-18T10:13:52Z</time>
      </trkpt>
      <trkpt lat="45.88014" lon="4.27981">
        <ele>570</ele>
        <time>2022-11-18T10:13:56Z</time>
      </trkpt>
      <trkpt lat="45.88062" lon="4.27948">
        <ele>564</ele>
        <time>2022-11-18T10:14:06Z</time>
      </trkpt>
      <trkpt lat="45.88089" lon="4.2792">
        <ele>558</ele>
        <time>2022-11-18T10:14:12Z</time>
      </trkpt>
      <trkpt lat="45.8811" lon="4.27912">
        <ele>555</ele>
        <time>2022-11-18T10:14:15Z</time>
      </trkpt>
      <trkpt lat="45.88138" lon="4.27918">
        <ele>554</ele>
        <time>2022-11-18T10:14:21Z</time>
      </trkpt>
      <trkpt lat="45.88179" lon="4.27961">
        <ele>555</ele>
        <time>2022-11-18T10:14:30Z</time>
      </trkpt>
      <trkpt lat="45.88203" lon="4.28011">
        <ele>554</ele>
        <time>2022-11-18T10:14:37Z</time>
      </trkpt>
      <trkpt lat="45.88212" lon="4.28061">
        <ele>552</ele>
        <time>2022-11-18T10:14:43Z</time>
      </trkpt>
      <trkpt lat="45.88198" lon="4.28141">
        <ele>553</ele>
        <time>2022-11-18T10:14:54Z</time>
      </trkpt>
      <trkpt lat="45.88168" lon="4.28262">
        <ele>550</ele>
        <time>2022-11-18T10:15:10Z</time>
      </trkpt>
      <trkpt lat="45.88103" lon="4.28387">
        <ele>537</ele>
        <time>2022-11-18T10:15:29Z</time>
      </trkpt>
      <trkpt lat="45.88087" lon="4.28501">
        <ele>533</ele>
        <time>2022-11-18T10:15:43Z</time>
      </trkpt>
      <trkpt lat="45.88084" lon="4.28554">
        <ele>532</ele>
        <time>2022-11-18T10:15:50Z</time>
      </trkpt>
      <trkpt lat="45.88084" lon="4.28606">
        <ele>530</ele>
        <time>2022-11-18T10:15:56Z</time>
      </trkpt>
      <trkpt lat="45.88107" lon="4.28639">
        <ele>527</ele>
        <time>2022-11-18T10:16:02Z</time>
      </trkpt>
      <trkpt lat="45.8813" lon="4.28663">
        <ele>525</ele>
        <time>2022-11-18T10:16:07Z</time>
      </trkpt>
      <trkpt lat="45.88143" lon="4.28683">
        <ele>524</ele>
        <time>2022-11-18T10:16:11Z</time>
      </trkpt>
      <trkpt lat="45.88151" lon="4.28709">
        <ele>524</ele>
        <time>2022-11-18T10:16:14Z</time>
      </trkpt>
      <trkpt lat="45.88153" lon="4.28743">
        <ele>525</ele>
        <time>2022-11-18T10:16:18Z</time>
      </trkpt>
      <trkpt lat="45.88151" lon="4.28773">
        <ele>527</ele>
        <time>2022-11-18T10:16:22Z</time>
      </trkpt>
      <trkpt lat="45.88125" lon="4.28902">
        <ele>532</ele>
        <time>2022-11-18T10:16:39Z</time>
      </trkpt>
      <trkpt lat="45.88098" lon="4.28965">
        <ele>531</ele>
        <time>2022-11-18T10:16:48Z</time>
      </trkpt>
      <trkpt lat="45.88094" lon="4.28992">
        <ele>531</ele>
        <time>2022-11-18T10:16:51Z</time>
      </trkpt>
      <trkpt lat="45.88093" lon="4.29127">
        <ele>536</ele>
        <time>2022-11-18T10:17:08Z</time>
      </trkpt>
      <trkpt lat="45.88096" lon="4.29156">
        <ele>537</ele>
        <time>2022-11-18T10:17:12Z</time>
      </trkpt>
      <trkpt lat="45.88104" lon="4.29183">
        <ele>539</ele>
        <time>2022-11-18T10:17:15Z</time>
      </trkpt>
      <trkpt lat="45.88123" lon="4.29225">
        <ele>541</ele>
        <time>2022-11-18T10:17:21Z</time>
      </trkpt>
      <trkpt lat="45.88138" lon="4.29358">
        <ele>547</ele>
        <time>2022-11-18T10:17:38Z</time>
      </trkpt>
      <trkpt lat="45.88137" lon="4.2952">
        <ele>552</ele>
        <time>2022-11-18T10:17:58Z</time>
      </trkpt>
      <trkpt lat="45.88121" lon="4.29657">
        <ele>551</ele>
        <time>2022-11-18T10:18:15Z</time>
      </trkpt>
      <trkpt lat="45.88135" lon="4.29691">
        <ele>552</ele>
        <time>2022-11-18T10:18:20Z</time>
      </trkpt>
      <trkpt lat="45.88204" lon="4.29772">
        <ele>557</ele>
        <time>2022-11-18T10:18:36Z</time>
      </trkpt>
      <trkpt lat="45.88281" lon="4.29879">
        <ele>558</ele>
        <time>2022-11-18T10:18:55Z</time>
      </trkpt>
      <trkpt lat="45.88332" lon="4.29961">
        <ele>563</ele>
        <time>2022-11-18T10:19:09Z</time>
      </trkpt>
      <trkpt lat="45.88344" lon="4.29994">
        <ele>563</ele>
        <time>2022-11-18T10:19:13Z</time>
      </trkpt>
      <trkpt lat="45.88352" lon="4.30031">
        <ele>564</ele>
        <time>2022-11-18T10:19:18Z</time>
      </trkpt>
      <trkpt lat="45.88363" lon="4.30066">
        <ele>565</ele>
        <time>2022-11-18T10:19:23Z</time>
      </trkpt>
      <trkpt lat="45.88378" lon="4.30091">
        <ele>566</ele>
        <time>2022-11-18T10:19:27Z</time>
      </trkpt>
      <trkpt lat="45.88396" lon="4.30111">
        <ele>567</ele>
        <time>2022-11-18T10:19:31Z</time>
      </trkpt>
      <trkpt lat="45.88416" lon="4.30119">
        <ele>567</ele>
        <time>2022-11-18T10:19:35Z</time>
      </trkpt>
      <trkpt lat="45.88451" lon="4.30123">
        <ele>570</ele>
        <time>2022-11-18T10:19:41Z</time>
      </trkpt>
      <trkpt lat="45.88541" lon="4.30123">
        <ele>577</ele>
        <time>2022-11-18T10:19:57Z</time>
      </trkpt>
      <trkpt lat="45.88564" lon="4.30129">
        <ele>578</ele>
        <time>2022-11-18T10:20:01Z</time>
      </trkpt>
      <trkpt lat="45.88785" lon="4.30292">
        <ele>592</ele>
        <time>2022-11-18T10:20:45Z</time>
      </trkpt>
      <trkpt lat="45.88801" lon="4.30301">
        <ele>591</ele>
        <time>2022-11-18T10:20:49Z</time>
      </trkpt>
      <trkpt lat="45.88817" lon="4.30305">
        <ele>590</ele>
        <time>2022-11-18T10:20:51Z</time>
      </trkpt>
      <trkpt lat="45.88833" lon="4.30303">
        <ele>589</ele>
        <time>2022-11-18T10:20:54Z</time>
      </trkpt>
      <trkpt lat="45.88848" lon="4.30292">
        <ele>590</ele>
        <time>2022-11-18T10:20:57Z</time>
      </trkpt>
      <trkpt lat="45.88879" lon="4.30256">
        <ele>591</ele>
        <time>2022-11-18T10:21:04Z</time>
      </trkpt>
      <trkpt lat="45.88907" lon="4.3023">
        <ele>592</ele>
        <time>2022-11-18T10:21:10Z</time>
      </trkpt>
      <trkpt lat="45.88924" lon="4.30221">
        <ele>593</ele>
        <time>2022-11-18T10:21:14Z</time>
      </trkpt>
      <trkpt lat="45.88945" lon="4.30215">
        <ele>595</ele>
        <time>2022-11-18T10:21:17Z</time>
      </trkpt>
      <trkpt lat="45.88976" lon="4.30218">
        <ele>597</ele>
        <time>2022-11-18T10:21:23Z</time>
      </trkpt>
      <trkpt lat="45.89017" lon="4.30228">
        <ele>600</ele>
        <time>2022-11-18T10:21:30Z</time>
      </trkpt>
      <trkpt lat="45.89051" lon="4.30241">
        <ele>602</ele>
        <time>2022-11-18T10:21:37Z</time>
      </trkpt>
      <trkpt lat="45.89162" lon="4.30309">
        <ele>611</ele>
        <time>2022-11-18T10:21:58Z</time>
      </trkpt>
      <trkpt lat="45.89226" lon="4.30296">
        <ele>617</ele>
        <time>2022-11-18T10:22:09Z</time>
      </trkpt>
      <trkpt lat="45.89243" lon="4.30295">
        <ele>618</ele>
        <time>2022-11-18T10:22:13Z</time>
      </trkpt>
      <trkpt lat="45.89246" lon="4.30346">
        <ele>616</ele>
        <time>2022-11-18T10:22:19Z</time>
      </trkpt>
      <trkpt lat="45.89231" lon="4.30398">
        <ele>619</ele>
        <time>2022-11-18T10:22:26Z</time>
      </trkpt>
      <trkpt lat="45.89216" lon="4.3042">
        <ele>620</ele>
        <time>2022-11-18T10:22:30Z</time>
      </trkpt>
      <trkpt lat="45.89189" lon="4.30437">
        <ele>621</ele>
        <time>2022-11-18T10:22:35Z</time>
      </trkpt>
      <trkpt lat="45.8915" lon="4.30444">
        <ele>621</ele>
        <time>2022-11-18T10:22:42Z</time>
      </trkpt>
      <trkpt lat="45.89105" lon="4.30439">
        <ele>621</ele>
        <time>2022-11-18T10:22:50Z</time>
      </trkpt>
      <trkpt lat="45.89069" lon="4.30428">
        <ele>620</ele>
        <time>2022-11-18T10:22:56Z</time>
      </trkpt>
      <trkpt lat="45.89058" lon="4.30431">
        <ele>619</ele>
        <time>2022-11-18T10:22:58Z</time>
      </trkpt>
      <trkpt lat="45.89039" lon="4.30445">
        <ele>620</ele>
        <time>2022-11-18T10:23:02Z</time>
      </trkpt>
      <trkpt lat="45.89026" lon="4.30461">
        <ele>620</ele>
        <time>2022-11-18T10:23:05Z</time>
      </trkpt>
      <trkpt lat="45.89008" lon="4.30499">
        <ele>623</ele>
        <time>2022-11-18T10:23:11Z</time>
      </trkpt>
      <trkpt lat="45.89007" lon="4.30517">
        <ele>623</ele>
        <time>2022-11-18T10:23:13Z</time>
      </trkpt>
      <trkpt lat="45.89014" lon="4.30544">
        <ele>625</ele>
        <time>2022-11-18T10:23:17Z</time>
      </trkpt>
      <trkpt lat="45.89022" lon="4.30563">
        <ele>626</ele>
        <time>2022-11-18T10:23:20Z</time>
      </trkpt>
      <trkpt lat="45.89052" lon="4.30601">
        <ele>631</ele>
        <time>2022-11-18T10:23:27Z</time>
      </trkpt>
      <trkpt lat="45.89077" lon="4.30607">
        <ele>634</ele>
        <time>2022-11-18T10:23:31Z</time>
      </trkpt>
      <trkpt lat="45.89085" lon="4.30605">
        <ele>636</ele>
        <time>2022-11-18T10:23:33Z</time>
      </trkpt>
      <trkpt lat="45.89122" lon="4.30686">
        <ele>637</ele>
        <time>2022-11-18T10:23:45Z</time>
      </trkpt>
      <trkpt lat="45.89151" lon="4.30711">
        <ele>638</ele>
        <time>2022-11-18T10:23:51Z</time>
      </trkpt>
      <trkpt lat="45.89172" lon="4.30721">
        <ele>640</ele>
        <time>2022-11-18T10:23:55Z</time>
      </trkpt>
      <trkpt lat="45.89268" lon="4.30786">
        <ele>644</ele>
        <time>2022-11-18T10:24:13Z</time>
      </trkpt>
      <trkpt lat="45.89581" lon="4.30975">
        <ele>671</ele>
        <time>2022-11-18T10:25:14Z</time>
      </trkpt>
      <trkpt lat="45.8961" lon="4.30995">
        <ele>673</ele>
        <time>2022-11-18T10:25:20Z</time>
      </trkpt>
      <trkpt lat="45.89704" lon="4.31083">
        <ele>685</ele>
        <time>2022-11-18T10:25:40Z</time>
      </trkpt>
      <trkpt lat="45.8972" lon="4.31091">
        <ele>687</ele>
        <time>2022-11-18T10:25:43Z</time>
      </trkpt>
      <trkpt lat="45.89727" lon="4.31094">
        <ele>687</ele>
        <time>2022-11-18T10:25:44Z</time>
      </trkpt>
      <trkpt lat="45.89751" lon="4.31097">
        <ele>689</ele>
        <time>2022-11-18T10:25:48Z</time>
      </trkpt>
      <trkpt lat="45.89837" lon="4.31081">
        <ele>695</ele>
        <time>2022-11-18T10:26:04Z</time>
      </trkpt>
      <trkpt lat="45.89895" lon="4.31079">
        <ele>699</ele>
        <time>2022-11-18T10:26:14Z</time>
      </trkpt>
      <trkpt lat="45.89938" lon="4.31082">
        <ele>701</ele>
        <time>2022-11-18T10:26:22Z</time>
      </trkpt>
      <trkpt lat="45.8999" lon="4.31101">
        <ele>704</ele>
        <time>2022-11-18T10:26:31Z</time>
      </trkpt>
      <trkpt lat="45.90048" lon="4.31144">
        <ele>710</ele>
        <time>2022-11-18T10:26:43Z</time>
      </trkpt>
      <trkpt lat="45.90177" lon="4.31162">
        <ele>717</ele>
        <time>2022-11-18T10:27:06Z</time>
      </trkpt>
      <trkpt lat="45.90178" lon="4.31181">
        <ele>719</ele>
        <time>2022-11-18T10:27:08Z</time>
      </trkpt>
      <trkpt lat="45.9017" lon="4.31199">
        <ele>720</ele>
        <time>2022-11-18T10:27:11Z</time>
      </trkpt>
      <trkpt lat="45.90155" lon="4.31216">
        <ele>721</ele>
        <time>2022-11-18T10:27:14Z</time>
      </trkpt>
      <trkpt lat="45.9014" lon="4.31225">
        <ele>721</ele>
        <time>2022-11-18T10:27:17Z</time>
      </trkpt>
      <trkpt lat="45.90069" lon="4.31291">
        <ele>724</ele>
        <time>2022-11-18T10:27:32Z</time>
      </trkpt>
      <trkpt lat="45.90037" lon="4.31339">
        <ele>725</ele>
        <time>2022-11-18T10:27:40Z</time>
      </trkpt>
      <trkpt lat="45.89994" lon="4.31414">
        <ele>728</ele>
        <time>2022-11-18T10:27:52Z</time>
      </trkpt>
      <trkpt lat="45.8987" lon="4.31545">
        <ele>736</ele>
        <time>2022-11-18T10:28:20Z</time>
      </trkpt>
      <trkpt lat="45.89818" lon="4.31581">
        <ele>737</ele>
        <time>2022-11-18T10:28:30Z</time>
      </trkpt>
      <trkpt lat="45.89752" lon="4.31622">
        <ele>737</ele>
        <time>2022-11-18T10:28:43Z</time>
      </trkpt>
      <trkpt lat="45.89696" lon="4.31668">
        <ele>740</ele>
        <time>2022-11-18T10:28:54Z</time>
      </trkpt>
      <trkpt lat="45.89477" lon="4.31772">
        <ele>742</ele>
        <time>2022-11-18T10:29:35Z</time>
      </trkpt>
      <trkpt lat="45.89359" lon="4.31831">
        <ele>745</ele>
        <time>2022-11-18T10:29:58Z</time>
      </trkpt>
      <trkpt lat="45.89337" lon="4.31852">
        <ele>745</ele>
        <time>2022-11-18T10:30:02Z</time>
      </trkpt>
      <trkpt lat="45.8932" lon="4.31883">
        <ele>746</ele>
        <time>2022-11-18T10:30:07Z</time>
      </trkpt>
      <trkpt lat="45.89308" lon="4.31917">
        <ele>747</ele>
        <time>2022-11-18T10:30:12Z</time>
      </trkpt>
      <trkpt lat="45.89291" lon="4.31982">
        <ele>751</ele>
        <time>2022-11-18T10:30:20Z</time>
      </trkpt>
      <trkpt lat="45.89275" lon="4.32121">
        <ele>762</ele>
        <time>2022-11-18T10:30:38Z</time>
      </trkpt>
      <trkpt lat="45.89266" lon="4.32162">
        <ele>763</ele>
        <time>2022-11-18T10:30:43Z</time>
      </trkpt>
      <trkpt lat="45.89214" lon="4.32352">
        <ele>759</ele>
        <time>2022-11-18T10:31:09Z</time>
      </trkpt>
      <trkpt lat="45.89215" lon="4.32391">
        <ele>760</ele>
        <time>2022-11-18T10:31:13Z</time>
      </trkpt>
      <trkpt lat="45.89221" lon="4.3242">
        <ele>760</ele>
        <time>2022-11-18T10:31:17Z</time>
      </trkpt>
      <trkpt lat="45.89231" lon="4.32445">
        <ele>760</ele>
        <time>2022-11-18T10:31:21Z</time>
      </trkpt>
      <trkpt lat="45.89243" lon="4.32463">
        <ele>759</ele>
        <time>2022-11-18T10:31:24Z</time>
      </trkpt>
      <trkpt lat="45.89261" lon="4.32474">
        <ele>759</ele>
        <time>2022-11-18T10:31:27Z</time>
      </trkpt>
      <trkpt lat="45.89335" lon="4.32488">
        <ele>764</ele>
        <time>2022-11-18T10:31:41Z</time>
      </trkpt>
      <trkpt lat="45.89386" lon="4.32489">
        <ele>764</ele>
        <time>2022-11-18T10:31:50Z</time>
      </trkpt>
      <trkpt lat="45.89418" lon="4.32483">
        <ele>765</ele>
        <time>2022-11-18T10:31:55Z</time>
      </trkpt>
      <trkpt lat="45.8947" lon="4.32485">
        <ele>764</ele>
        <time>2022-11-18T10:32:05Z</time>
      </trkpt>
      <trkpt lat="45.89523" lon="4.32479">
        <ele>765</ele>
        <time>2022-11-18T10:32:14Z</time>
      </trkpt>
      <trkpt lat="45.89609" lon="4.32464">
        <ele>764</ele>
        <time>2022-11-18T10:32:29Z</time>
      </trkpt>
      <trkpt lat="45.89625" lon="4.32469">
        <ele>764</ele>
        <time>2022-11-18T10:32:32Z</time>
      </trkpt>
      <trkpt lat="45.89648" lon="4.32482">
        <ele>764</ele>
        <time>2022-11-18T10:32:37Z</time>
      </trkpt>
      <trkpt lat="45.89662" lon="4.32505">
        <ele>764</ele>
        <time>2022-11-18T10:32:41Z</time>
      </trkpt>
      <trkpt lat="45.89666" lon="4.32538">
        <ele>764</ele>
        <time>2022-11-18T10:32:45Z</time>
      </trkpt>
      <trkpt lat="45.89664" lon="4.32555">
        <ele>764</ele>
        <time>2022-11-18T10:32:47Z</time>
      </trkpt>
      <trkpt lat="45.89605" lon="4.32674">
        <ele>765</ele>
        <time>2022-11-18T10:33:05Z</time>
      </trkpt>
      <trkpt lat="45.89566" lon="4.32734">
        <ele>767</ele>
        <time>2022-11-18T10:33:15Z</time>
      </trkpt>
      <trkpt lat="45.89547" lon="4.32752">
        <ele>767</ele>
        <time>2022-11-18T10:33:19Z</time>
      </trkpt>
      <trkpt lat="45.89431" lon="4.3279">
        <ele>764</ele>
        <time>2022-11-18T10:33:40Z</time>
      </trkpt>
      <trkpt lat="45.89308" lon="4.32838">
        <ele>766</ele>
        <time>2022-11-18T10:34:03Z</time>
      </trkpt>
      <trkpt lat="45.89232" lon="4.32844">
        <ele>765</ele>
        <time>2022-11-18T10:34:17Z</time>
      </trkpt>
      <trkpt lat="45.892" lon="4.32851">
        <ele>764</ele>
        <time>2022-11-18T10:34:22Z</time>
      </trkpt>
      <trkpt lat="45.89167" lon="4.32866">
        <ele>765</ele>
        <time>2022-11-18T10:34:28Z</time>
      </trkpt>
      <trkpt lat="45.8906" lon="4.32942">
        <ele>766</ele>
        <time>2022-11-18T10:34:50Z</time>
      </trkpt>
      <trkpt lat="45.89017" lon="4.32983">
        <ele>767</ele>
        <time>2022-11-18T10:34:59Z</time>
      </trkpt>
      <trkpt lat="45.88964" lon="4.33029">
        <ele>769</ele>
        <time>2022-11-18T10:35:10Z</time>
      </trkpt>
      <trkpt lat="45.88851" lon="4.331">
        <ele>770</ele>
        <time>2022-11-18T10:35:32Z</time>
      </trkpt>
      <trkpt lat="45.88773" lon="4.33177">
        <ele>773</ele>
        <time>2022-11-18T10:35:49Z</time>
      </trkpt>
      <trkpt lat="45.88729" lon="4.33238">
        <ele>776</ele>
        <time>2022-11-18T10:36:00Z</time>
      </trkpt>
      <trkpt lat="45.88717" lon="4.33242">
        <ele>776</ele>
        <time>2022-11-18T10:36:02Z</time>
      </trkpt>
      <trkpt lat="45.88681" lon="4.3323">
        <ele>773</ele>
        <time>2022-11-18T10:36:08Z</time>
      </trkpt>
      <trkpt lat="45.88635" lon="4.3322">
        <ele>772</ele>
        <time>2022-11-18T10:36:17Z</time>
      </trkpt>
      <trkpt lat="45.886" lon="4.33218">
        <ele>772</ele>
        <time>2022-11-18T10:36:23Z</time>
      </trkpt>
      <trkpt lat="45.8848" lon="4.33248">
        <ele>786</ele>
        <time>2022-11-18T10:36:45Z</time>
      </trkpt>
      <trkpt lat="45.88386" lon="4.33259">
        <ele>784</ele>
        <time>2022-11-18T10:37:01Z</time>
      </trkpt>
      <trkpt lat="45.88326" lon="4.333">
        <ele>786</ele>
        <time>2022-11-18T10:37:13Z</time>
      </trkpt>
      <trkpt lat="45.88256" lon="4.33359">
        <ele>786</ele>
        <time>2022-11-18T10:37:28Z</time>
      </trkpt>
      <trkpt lat="45.88132" lon="4.33483">
        <ele>782</ele>
        <time>2022-11-18T10:37:54Z</time>
      </trkpt>
      <trkpt lat="45.88057" lon="4.33538">
        <ele>781</ele>
        <time>2022-11-18T10:38:09Z</time>
      </trkpt>
      <trkpt lat="45.88016" lon="4.33553">
        <ele>781</ele>
        <time>2022-11-18T10:38:17Z</time>
      </trkpt>
      <trkpt lat="45.87939" lon="4.33564">
        <ele>782</ele>
        <time>2022-11-18T10:38:31Z</time>
      </trkpt>
      <trkpt lat="45.8791" lon="4.33574">
        <ele>783</ele>
        <time>2022-11-18T10:38:36Z</time>
      </trkpt>
      <trkpt lat="45.87893" lon="4.33584">
        <ele>782</ele>
        <time>2022-11-18T10:38:39Z</time>
      </trkpt>
      <trkpt lat="45.87858" lon="4.33613">
        <ele>783</ele>
        <time>2022-11-18T10:38:47Z</time>
      </trkpt>
      <trkpt lat="45.87823" lon="4.33651">
        <ele>784</ele>
        <time>2022-11-18T10:38:54Z</time>
      </trkpt>
      <trkpt lat="45.87788" lon="4.33696">
        <ele>787</ele>
        <time>2022-11-18T10:39:03Z</time>
      </trkpt>
      <trkpt lat="45.87765" lon="4.3371">
        <ele>788</ele>
        <time>2022-11-18T10:39:07Z</time>
      </trkpt>
      <trkpt lat="45.87729" lon="4.33718">
        <ele>788</ele>
        <time>2022-11-18T10:39:14Z</time>
      </trkpt>
      <trkpt lat="45.87698" lon="4.3371">
        <ele>788</ele>
        <time>2022-11-18T10:39:19Z</time>
      </trkpt>
      <trkpt lat="45.87643" lon="4.33686">
        <ele>785</ele>
        <time>2022-11-18T10:39:29Z</time>
      </trkpt>
      <trkpt lat="45.87611" lon="4.33679">
        <ele>786</ele>
        <time>2022-11-18T10:39:35Z</time>
      </trkpt>
      <trkpt lat="45.87585" lon="4.33678">
        <ele>788</ele>
        <time>2022-11-18T10:39:40Z</time>
      </trkpt>
      <trkpt lat="45.8755" lon="4.33688">
        <ele>787</ele>
        <time>2022-11-18T10:39:46Z</time>
      </trkpt>
      <trkpt lat="45.87509" lon="4.33707">
        <ele>787</ele>
        <time>2022-11-18T10:39:54Z</time>
      </trkpt>
      <trkpt lat="45.87471" lon="4.3373">
        <ele>786</ele>
        <time>2022-11-18T10:40:01Z</time>
      </trkpt>
      <trkpt lat="45.87433" lon="4.33759">
        <ele>786</ele>
        <time>2022-11-18T10:40:09Z</time>
      </trkpt>
      <trkpt lat="45.87395" lon="4.33798">
        <ele>786</ele>
        <time>2022-11-18T10:40:17Z</time>
      </trkpt>
      <trkpt lat="45.87375" lon="4.33828">
        <ele>787</ele>
        <time>2022-11-18T10:40:22Z</time>
      </trkpt>
      <trkpt lat="45.87349" lon="4.33882">
        <ele>788</ele>
        <time>2022-11-18T10:40:30Z</time>
      </trkpt>
      <trkpt lat="45.87301" lon="4.34098">
        <ele>793</ele>
        <time>2022-11-18T10:40:58Z</time>
      </trkpt>
      <trkpt lat="45.87292" lon="4.34126">
        <ele>793</ele>
        <time>2022-11-18T10:41:02Z</time>
      </trkpt>
      <trkpt lat="45.87275" lon="4.3416">
        <ele>792</ele>
        <time>2022-11-18T10:41:08Z</time>
      </trkpt>
      <trkpt lat="45.87262" lon="4.34177">
        <ele>791</ele>
        <time>2022-11-18T10:41:11Z</time>
      </trkpt>
      <trkpt lat="45.8724" lon="4.34192">
        <ele>790</ele>
        <time>2022-11-18T10:41:15Z</time>
      </trkpt>
      <trkpt lat="45.87215" lon="4.34203">
        <ele>790</ele>
        <time>2022-11-18T10:41:20Z</time>
      </trkpt>
      <trkpt lat="45.87177" lon="4.34213">
        <ele>789</ele>
        <time>2022-11-18T10:41:26Z</time>
      </trkpt>
      <trkpt lat="45.87159" lon="4.34222">
        <ele>788</ele>
        <time>2022-11-18T10:41:30Z</time>
      </trkpt>
      <trkpt lat="45.87148" lon="4.34231">
        <ele>787</ele>
        <time>2022-11-18T10:41:32Z</time>
      </trkpt>
      <trkpt lat="45.87139" lon="4.34248">
        <ele>788</ele>
        <time>2022-11-18T10:41:35Z</time>
      </trkpt>
      <trkpt lat="45.87133" lon="4.34274">
        <ele>786</ele>
        <time>2022-11-18T10:41:38Z</time>
      </trkpt>
      <trkpt lat="45.87134" lon="4.34306">
        <ele>786</ele>
        <time>2022-11-18T10:41:42Z</time>
      </trkpt>
      <trkpt lat="45.87146" lon="4.34364">
        <ele>790</ele>
        <time>2022-11-18T10:41:50Z</time>
      </trkpt>
      <trkpt lat="45.87153" lon="4.34444">
        <ele>793</ele>
        <time>2022-11-18T10:42:00Z</time>
      </trkpt>
      <trkpt lat="45.87152" lon="4.345">
        <ele>791</ele>
        <time>2022-11-18T10:42:07Z</time>
      </trkpt>
      <trkpt lat="45.87146" lon="4.34544">
        <ele>792</ele>
        <time>2022-11-18T10:42:12Z</time>
      </trkpt>
      <trkpt lat="45.87136" lon="4.34577">
        <ele>792</ele>
        <time>2022-11-18T10:42:17Z</time>
      </trkpt>
      <trkpt lat="45.87122" lon="4.34606">
        <ele>793</ele>
        <time>2022-11-18T10:42:21Z</time>
      </trkpt>
      <trkpt lat="45.87105" lon="4.34615">
        <ele>793</ele>
        <time>2022-11-18T10:42:24Z</time>
      </trkpt>
      <trkpt lat="45.87077" lon="4.34613">
        <ele>792</ele>
        <time>2022-11-18T10:42:29Z</time>
      </trkpt>
      <trkpt lat="45.86991" lon="4.34578">
        <ele>792</ele>
        <time>2022-11-18T10:42:45Z</time>
      </trkpt>
      <trkpt lat="45.86919" lon="4.34569">
        <ele>793</ele>
        <time>2022-11-18T10:42:58Z</time>
      </trkpt>
      <trkpt lat="45.86867" lon="4.34548">
        <ele>792</ele>
        <time>2022-11-18T10:43:08Z</time>
      </trkpt>
      <trkpt lat="45.86821" lon="4.34514">
        <ele>791</ele>
        <time>2022-11-18T10:43:17Z</time>
      </trkpt>
      <trkpt lat="45.86779" lon="4.34487">
        <ele>789</ele>
        <time>2022-11-18T10:43:25Z</time>
      </trkpt>
      <trkpt lat="45.86761" lon="4.34485">
        <ele>789</ele>
        <time>2022-11-18T10:43:28Z</time>
      </trkpt>
      <trkpt lat="45.86745" lon="4.34492">
        <ele>788</ele>
        <time>2022-11-18T10:43:31Z</time>
      </trkpt>
      <trkpt lat="45.86697" lon="4.34543">
        <ele>787</ele>
        <time>2022-11-18T10:43:42Z</time>
      </trkpt>
      <trkpt lat="45.86604" lon="4.34701">
        <ele>790</ele>
        <time>2022-11-18T10:44:07Z</time>
      </trkpt>
      <trkpt lat="45.86584" lon="4.34782">
        <ele>789</ele>
        <time>2022-11-18T10:44:18Z</time>
      </trkpt>
      <trkpt lat="45.86563" lon="4.34915">
        <ele>781</ele>
        <time>2022-11-18T10:44:35Z</time>
      </trkpt>
      <trkpt lat="45.86564" lon="4.34946">
        <ele>780</ele>
        <time>2022-11-18T10:44:39Z</time>
      </trkpt>
      <trkpt lat="45.86568" lon="4.34976">
        <ele>781</ele>
        <time>2022-11-18T10:44:43Z</time>
      </trkpt>
      <trkpt lat="45.86587" lon="4.35026">
        <ele>785</ele>
        <time>2022-11-18T10:44:50Z</time>
      </trkpt>
      <trkpt lat="45.8659" lon="4.35043">
        <ele>786</ele>
        <time>2022-11-18T10:44:52Z</time>
      </trkpt>
      <trkpt lat="45.8659" lon="4.3506">
        <ele>786</ele>
        <time>2022-11-18T10:44:54Z</time>
      </trkpt>
      <trkpt lat="45.86584" lon="4.35077">
        <ele>786</ele>
        <time>2022-11-18T10:44:56Z</time>
      </trkpt>
      <trkpt lat="45.86551" lon="4.35119">
        <ele>783</ele>
        <time>2022-11-18T10:45:04Z</time>
      </trkpt>
      <trkpt lat="45.86526" lon="4.35165">
        <ele>783</ele>
        <time>2022-11-18T10:45:11Z</time>
      </trkpt>
      <trkpt lat="45.86497" lon="4.35246">
        <ele>782</ele>
        <time>2022-11-18T10:45:23Z</time>
      </trkpt>
      <trkpt lat="45.86463" lon="4.35319">
        <ele>785</ele>
        <time>2022-11-18T10:45:33Z</time>
      </trkpt>
      <trkpt lat="45.86427" lon="4.35414">
        <ele>789</ele>
        <time>2022-11-18T10:45:47Z</time>
      </trkpt>
      <trkpt lat="45.86412" lon="4.35447">
        <ele>792</ele>
        <time>2022-11-18T10:45:52Z</time>
      </trkpt>
      <trkpt lat="45.86391" lon="4.35484">
        <ele>795</ele>
        <time>2022-11-18T10:45:58Z</time>
      </trkpt>
      <trkpt lat="45.86369" lon="4.35519">
        <ele>797</ele>
        <time>2022-11-18T10:46:04Z</time>
      </trkpt>
      <trkpt lat="45.86185" lon="4.35778">
        <ele>805</ele>
        <time>2022-11-18T10:46:49Z</time>
      </trkpt>
      <trkpt lat="45.86169" lon="4.35787">
        <ele>806</ele>
        <time>2022-11-18T10:46:52Z</time>
      </trkpt>
      <trkpt lat="45.8615" lon="4.35791">
        <ele>807</ele>
        <time>2022-11-18T10:46:56Z</time>
      </trkpt>
      <trkpt lat="45.86121" lon="4.35784">
        <ele>808</ele>
        <time>2022-11-18T10:47:01Z</time>
      </trkpt>
      <trkpt lat="45.85985" lon="4.35645">
        <ele>813</ele>
        <time>2022-11-18T10:47:31Z</time>
      </trkpt>
      <trkpt lat="45.85968" lon="4.35632">
        <ele>813</ele>
        <time>2022-11-18T10:47:34Z</time>
      </trkpt>
      <trkpt lat="45.85941" lon="4.35624">
        <ele>814</ele>
        <time>2022-11-18T10:47:39Z</time>
      </trkpt>
      <trkpt lat="45.85921" lon="4.3563">
        <ele>816</ele>
        <time>2022-11-18T10:47:43Z</time>
      </trkpt>
      <trkpt lat="45.85817" lon="4.35702">
        <ele>822</ele>
        <time>2022-11-18T10:48:03Z</time>
      </trkpt>
      <trkpt lat="45.85798" lon="4.35709">
        <ele>822</ele>
        <time>2022-11-18T10:48:07Z</time>
      </trkpt>
      <trkpt lat="45.85744" lon="4.35707">
        <ele>820</ele>
        <time>2022-11-18T10:48:16Z</time>
      </trkpt>
      <trkpt lat="45.8571" lon="4.35716">
        <ele>819</ele>
        <time>2022-11-18T10:48:23Z</time>
      </trkpt>
      <trkpt lat="45.85672" lon="4.35721">
        <ele>818</ele>
        <time>2022-11-18T10:48:29Z</time>
      </trkpt>
      <trkpt lat="45.85613" lon="4.35724">
        <ele>822</ele>
        <time>2022-11-18T10:48:40Z</time>
      </trkpt>
      <trkpt lat="45.85587" lon="4.3572">
        <ele>823</ele>
        <time>2022-11-18T10:48:44Z</time>
      </trkpt>
      <trkpt lat="45.85509" lon="4.35688">
        <ele>824</ele>
        <time>2022-11-18T10:48:59Z</time>
      </trkpt>
      <trkpt lat="45.85447" lon="4.35643">
        <ele>824</ele>
        <time>2022-11-18T10:49:11Z</time>
      </trkpt>
      <trkpt lat="45.85426" lon="4.35636">
        <ele>824</ele>
        <time>2022-11-18T10:49:15Z</time>
      </trkpt>
      <trkpt lat="45.85374" lon="4.35631">
        <ele>825</ele>
        <time>2022-11-18T10:49:24Z</time>
      </trkpt>
      <trkpt lat="45.85327" lon="4.35639">
        <ele>825</ele>
        <time>2022-11-18T10:49:33Z</time>
      </trkpt>
      <trkpt lat="45.853" lon="4.35667">
        <ele>826</ele>
        <time>2022-11-18T10:49:39Z</time>
      </trkpt>
      <trkpt lat="45.85283" lon="4.35702">
        <ele>826</ele>
        <time>2022-11-18T10:49:44Z</time>
      </trkpt>
      <trkpt lat="45.85232" lon="4.35622">
        <ele>819</ele>
        <time>2022-11-18T10:49:57Z</time>
      </trkpt>
      <trkpt lat="45.85097" lon="4.35398">
        <ele>807</ele>
        <time>2022-11-18T10:50:34Z</time>
      </trkpt>
      <trkpt lat="45.85095" lon="4.35388">
        <ele>807</ele>
        <time>2022-11-18T10:50:35Z</time>
      </trkpt>
      <trkpt lat="45.851" lon="4.3538">
        <ele>807</ele>
        <time>2022-11-18T10:50:37Z</time>
      </trkpt>
      <trkpt lat="45.851" lon="4.35369">
        <ele>807</ele>
        <time>2022-11-18T10:50:38Z</time>
      </trkpt>
      <trkpt lat="45.85096" lon="4.35361">
        <ele>807</ele>
        <time>2022-11-18T10:50:39Z</time>
      </trkpt>
      <trkpt lat="45.85089" lon="4.35357">
        <ele>807</ele>
        <time>2022-11-18T10:50:41Z</time>
      </trkpt>
      <trkpt lat="45.85088" lon="4.3535">
        <ele>807</ele>
        <time>2022-11-18T10:50:42Z</time>
      </trkpt>
      <trkpt lat="45.85112" lon="4.35213">
        <ele>809</ele>
        <time>2022-11-18T10:50:59Z</time>
      </trkpt>
      <trkpt lat="45.85154" lon="4.35019">
        <ele>809</ele>
        <time>2022-11-18T10:51:24Z</time>
      </trkpt>
      <trkpt lat="45.85254" lon="4.34586">
        <ele>803</ele>
        <time>2022-11-18T10:52:21Z</time>
      </trkpt>
      <trkpt lat="45.85258" lon="4.34538">
        <ele>800</ele>
        <time>2022-11-18T10:52:27Z</time>
      </trkpt>
      <trkpt lat="45.85256" lon="4.34508">
        <ele>798</ele>
        <time>2022-11-18T10:52:31Z</time>
      </trkpt>
      <trkpt lat="45.85248" lon="4.34474">
        <ele>795</ele>
        <time>2022-11-18T10:52:35Z</time>
      </trkpt>
      <trkpt lat="45.8523" lon="4.34439">
        <ele>791</ele>
        <time>2022-11-18T10:52:40Z</time>
      </trkpt>
      <trkpt lat="45.85213" lon="4.34423">
        <ele>790</ele>
        <time>2022-11-18T10:52:44Z</time>
      </trkpt>
      <trkpt lat="45.85181" lon="4.34408">
        <ele>790</ele>
        <time>2022-11-18T10:52:50Z</time>
      </trkpt>
      <trkpt lat="45.85118" lon="4.34391">
        <ele>790</ele>
        <time>2022-11-18T10:53:01Z</time>
      </trkpt>
      <trkpt lat="45.85088" lon="4.34368">
        <ele>788</ele>
        <time>2022-11-18T10:53:07Z</time>
      </trkpt>
      <trkpt lat="45.85073" lon="4.34353">
        <ele>787</ele>
        <time>2022-11-18T10:53:11Z</time>
      </trkpt>
      <trkpt lat="45.85055" lon="4.34325">
        <ele>786</ele>
        <time>2022-11-18T10:53:15Z</time>
      </trkpt>
      <trkpt lat="45.85036" lon="4.34269">
        <ele>785</ele>
        <time>2022-11-18T10:53:23Z</time>
      </trkpt>
      <trkpt lat="45.8503" lon="4.34214">
        <ele>785</ele>
        <time>2022-11-18T10:53:30Z</time>
      </trkpt>
      <trkpt lat="45.85033" lon="4.34169">
        <ele>785</ele>
        <time>2022-11-18T10:53:36Z</time>
      </trkpt>
      <trkpt lat="45.85041" lon="4.34135">
        <ele>784</ele>
        <time>2022-11-18T10:53:40Z</time>
      </trkpt>
      <trkpt lat="45.85052" lon="4.34104">
        <ele>782</ele>
        <time>2022-11-18T10:53:44Z</time>
      </trkpt>
      <trkpt lat="45.85126" lon="4.33949">
        <ele>783</ele>
        <time>2022-11-18T10:54:08Z</time>
      </trkpt>
      <trkpt lat="45.85144" lon="4.33898">
        <ele>783</ele>
        <time>2022-11-18T10:54:15Z</time>
      </trkpt>
      <trkpt lat="45.85155" lon="4.33837">
        <ele>785</ele>
        <time>2022-11-18T10:54:23Z</time>
      </trkpt>
      <trkpt lat="45.85166" lon="4.33696">
        <ele>784</ele>
        <time>2022-11-18T10:54:40Z</time>
      </trkpt>
      <trkpt lat="45.85178" lon="4.33618">
        <ele>782</ele>
        <time>2022-11-18T10:54:50Z</time>
      </trkpt>
      <trkpt lat="45.85208" lon="4.3348">
        <ele>778</ele>
        <time>2022-11-18T10:55:08Z</time>
      </trkpt>
      <trkpt lat="45.85217" lon="4.33402">
        <ele>774</ele>
        <time>2022-11-18T10:55:18Z</time>
      </trkpt>
      <trkpt lat="45.8521" lon="4.33335">
        <ele>772</ele>
        <time>2022-11-18T10:55:26Z</time>
      </trkpt>
      <trkpt lat="45.85188" lon="4.33278">
        <ele>771</ele>
        <time>2022-11-18T10:55:34Z</time>
      </trkpt>
      <trkpt lat="45.85169" lon="4.33248">
        <ele>770</ele>
        <time>2022-11-18T10:55:39Z</time>
      </trkpt>
      <trkpt lat="45.85143" lon="4.33223">
        <ele>771</ele>
        <time>2022-11-18T10:55:45Z</time>
      </trkpt>
      <trkpt lat="45.85095" lon="4.33192">
        <ele>771</ele>
        <time>2022-11-18T10:55:54Z</time>
      </trkpt>
      <trkpt lat="45.85046" lon="4.33168">
        <ele>769</ele>
        <time>2022-11-18T10:56:03Z</time>
      </trkpt>
      <trkpt lat="45.84995" lon="4.33152">
        <ele>769</ele>
        <time>2022-11-18T10:56:13Z</time>
      </trkpt>
      <trkpt lat="45.8494" lon="4.33143">
        <ele>765</ele>
        <time>2022-11-18T10:56:23Z</time>
      </trkpt>
      <trkpt lat="45.84883" lon="4.33129">
        <ele>761</ele>
        <time>2022-11-18T10:56:33Z</time>
      </trkpt>
      <trkpt lat="45.8485" lon="4.331">
        <ele>758</ele>
        <time>2022-11-18T10:56:40Z</time>
      </trkpt>
      <trkpt lat="45.84826" lon="4.33052">
        <ele>756</ele>
        <time>2022-11-18T10:56:47Z</time>
      </trkpt>
      <trkpt lat="45.84817" lon="4.33011">
        <ele>758</ele>
        <time>2022-11-18T10:56:52Z</time>
      </trkpt>
      <trkpt lat="45.84816" lon="4.32963">
        <ele>760</ele>
        <time>2022-11-18T10:56:58Z</time>
      </trkpt>
      <trkpt lat="45.8483" lon="4.329">
        <ele>761</ele>
        <time>2022-11-18T10:57:07Z</time>
      </trkpt>
      <trkpt lat="45.84889" lon="4.32789">
        <ele>757</ele>
        <time>2022-11-18T10:57:24Z</time>
      </trkpt>
      <trkpt lat="45.84922" lon="4.32734">
        <ele>753</ele>
        <time>2022-11-18T10:57:33Z</time>
      </trkpt>
      <trkpt lat="45.84911" lon="4.32706">
        <ele>756</ele>
        <time>2022-11-18T10:57:37Z</time>
      </trkpt>
      <trkpt lat="45.84909" lon="4.32684">
        <ele>757</ele>
        <time>2022-11-18T10:57:40Z</time>
      </trkpt>
      <trkpt lat="45.84901" lon="4.32658">
        <ele>758</ele>
        <time>2022-11-18T10:57:43Z</time>
      </trkpt>
      <trkpt lat="45.84881" lon="4.32642">
        <ele>758</ele>
        <time>2022-11-18T10:57:47Z</time>
      </trkpt>
      <trkpt lat="45.84799" lon="4.32644">
        <ele>761</ele>
        <time>2022-11-18T10:58:02Z</time>
      </trkpt>
      <trkpt lat="45.84735" lon="4.32639">
        <ele>760</ele>
        <time>2022-11-18T10:58:13Z</time>
      </trkpt>
      <trkpt lat="45.84541" lon="4.32549">
        <ele>753</ele>
        <time>2022-11-18T10:58:49Z</time>
      </trkpt>
      <trkpt lat="45.84511" lon="4.32544">
        <ele>753</ele>
        <time>2022-11-18T10:58:55Z</time>
      </trkpt>
      <trkpt lat="45.8447" lon="4.32551">
        <ele>754</ele>
        <time>2022-11-18T10:59:02Z</time>
      </trkpt>
      <trkpt lat="45.84411" lon="4.32571">
        <ele>755</ele>
        <time>2022-11-18T10:59:13Z</time>
      </trkpt>
      <trkpt lat="45.84366" lon="4.32558">
        <ele>753</ele>
        <time>2022-11-18T10:59:21Z</time>
      </trkpt>
      <trkpt lat="45.84234" lon="4.32436">
        <ele>755</ele>
        <time>2022-11-18T10:59:49Z</time>
      </trkpt>
      <trkpt lat="45.84135" lon="4.32393">
        <ele>751</ele>
        <time>2022-11-18T11:00:07Z</time>
      </trkpt>
      <trkpt lat="45.84035" lon="4.32376">
        <ele>743</ele>
        <time>2022-11-18T11:00:25Z</time>
      </trkpt>
      <trkpt lat="45.83962" lon="4.32376">
        <ele>737</ele>
        <time>2022-11-18T11:00:38Z</time>
      </trkpt>
      <trkpt lat="45.83911" lon="4.32352">
        <ele>737</ele>
        <time>2022-11-18T11:00:48Z</time>
      </trkpt>
      <trkpt lat="45.83764" lon="4.32242">
        <ele>732</ele>
        <time>2022-11-18T11:01:17Z</time>
      </trkpt>
      <trkpt lat="45.83745" lon="4.32234">
        <ele>731</ele>
        <time>2022-11-18T11:01:21Z</time>
      </trkpt>
      <trkpt lat="45.83724" lon="4.32236">
        <ele>732</ele>
        <time>2022-11-18T11:01:25Z</time>
      </trkpt>
      <trkpt lat="45.83708" lon="4.32241">
        <ele>732</ele>
        <time>2022-11-18T11:01:28Z</time>
      </trkpt>
      <trkpt lat="45.83681" lon="4.32276">
        <ele>732</ele>
        <time>2022-11-18T11:01:34Z</time>
      </trkpt>
      <trkpt lat="45.83651" lon="4.32345">
        <ele>733</ele>
        <time>2022-11-18T11:01:44Z</time>
      </trkpt>
      <trkpt lat="45.83639" lon="4.32505">
        <ele>739</ele>
        <time>2022-11-18T11:02:04Z</time>
      </trkpt>
      <trkpt lat="45.83625" lon="4.32571">
        <ele>732</ele>
        <time>2022-11-18T11:02:13Z</time>
      </trkpt>
      <trkpt lat="45.83593" lon="4.32626">
        <ele>730</ele>
        <time>2022-11-18T11:02:22Z</time>
      </trkpt>
      <trkpt lat="45.83556" lon="4.32649">
        <ele>731</ele>
        <time>2022-11-18T11:02:29Z</time>
      </trkpt>
      <trkpt lat="45.83434" lon="4.3269">
        <ele>730</ele>
        <time>2022-11-18T11:02:51Z</time>
      </trkpt>
      <trkpt lat="45.8326" lon="4.32863">
        <ele>722</ele>
        <time>2022-11-18T11:03:29Z</time>
      </trkpt>
      <trkpt lat="45.83155" lon="4.32941">
        <ele>711</ele>
        <time>2022-11-18T11:03:50Z</time>
      </trkpt>
      <trkpt lat="45.83116" lon="4.32957">
        <ele>706</ele>
        <time>2022-11-18T11:03:57Z</time>
      </trkpt>
      <trkpt lat="45.83071" lon="4.32953">
        <ele>704</ele>
        <time>2022-11-18T11:04:05Z</time>
      </trkpt>
      <trkpt lat="45.83043" lon="4.32947">
        <ele>700</ele>
        <time>2022-11-18T11:04:10Z</time>
      </trkpt>
      <trkpt lat="45.8302" lon="4.32936">
        <ele>698</ele>
        <time>2022-11-18T11:04:14Z</time>
      </trkpt>
      <trkpt lat="45.83001" lon="4.32915">
        <ele>696</ele>
        <time>2022-11-18T11:04:19Z</time>
      </trkpt>
      <trkpt lat="45.8299" lon="4.32892">
        <ele>695</ele>
        <time>2022-11-18T11:04:22Z</time>
      </trkpt>
      <trkpt lat="45.82984" lon="4.32864">
        <ele>694</ele>
        <time>2022-11-18T11:04:26Z</time>
      </trkpt>
      <trkpt lat="45.82983" lon="4.32837">
        <ele>695</ele>
        <time>2022-11-18T11:04:29Z</time>
      </trkpt>
      <trkpt lat="45.82989" lon="4.32774">
        <ele>694</ele>
        <time>2022-11-18T11:04:37Z</time>
      </trkpt>
      <trkpt lat="45.83003" lon="4.32685">
        <ele>692</ele>
        <time>2022-11-18T11:04:48Z</time>
      </trkpt>
      <trkpt lat="45.83004" lon="4.32638">
        <ele>691</ele>
        <time>2022-11-18T11:04:54Z</time>
      </trkpt>
      <trkpt lat="45.82999" lon="4.3262">
        <ele>691</ele>
        <time>2022-11-18T11:04:56Z</time>
      </trkpt>
      <trkpt lat="45.82993" lon="4.32613">
        <ele>690</ele>
        <time>2022-11-18T11:04:58Z</time>
      </trkpt>
      <trkpt lat="45.82972" lon="4.32602">
        <ele>688</ele>
        <time>2022-11-18T11:05:02Z</time>
      </trkpt>
      <trkpt lat="45.82955" lon="4.32598">
        <ele>686</ele>
        <time>2022-11-18T11:05:05Z</time>
      </trkpt>
      <trkpt lat="45.82941" lon="4.3259">
        <ele>685</ele>
        <time>2022-11-18T11:05:08Z</time>
      </trkpt>
      <trkpt lat="45.82879" lon="4.32532">
        <ele>682</ele>
        <time>2022-11-18T11:05:21Z</time>
      </trkpt>
      <trkpt lat="45.82842" lon="4.32507">
        <ele>679</ele>
        <time>2022-11-18T11:05:28Z</time>
      </trkpt>
      <trkpt lat="45.82805" lon="4.32492">
        <ele>677</ele>
        <time>2022-11-18T11:05:35Z</time>
      </trkpt>
      <trkpt lat="45.82783" lon="4.32489">
        <ele>675</ele>
        <time>2022-11-18T11:05:39Z</time>
      </trkpt>
      <trkpt lat="45.8276" lon="4.32491">
        <ele>674</ele>
        <time>2022-11-18T11:05:43Z</time>
      </trkpt>
      <trkpt lat="45.8269" lon="4.32523">
        <ele>669</ele>
        <time>2022-11-18T11:05:56Z</time>
      </trkpt>
      <trkpt lat="45.82677" lon="4.32527">
        <ele>669</ele>
        <time>2022-11-18T11:05:58Z</time>
      </trkpt>
      <trkpt lat="45.82666" lon="4.32525">
        <ele>669</ele>
        <time>2022-11-18T11:06:00Z</time>
      </trkpt>
      <trkpt lat="45.82655" lon="4.32514">
        <ele>670</ele>
        <time>2022-11-18T11:06:03Z</time>
      </trkpt>
      <trkpt lat="45.82649" lon="4.32499">
        <ele>670</ele>
        <time>2022-11-18T11:06:05Z</time>
      </trkpt>
      <trkpt lat="45.82648" lon="4.32484">
        <ele>669</ele>
        <time>2022-11-18T11:06:07Z</time>
      </trkpt>
      <trkpt lat="45.8265" lon="4.32468">
        <ele>669</ele>
        <time>2022-11-18T11:06:09Z</time>
      </trkpt>
      <trkpt lat="45.82661" lon="4.32431">
        <ele>667</ele>
        <time>2022-11-18T11:06:14Z</time>
      </trkpt>
      <trkpt lat="45.82677" lon="4.32404">
        <ele>667</ele>
        <time>2022-11-18T11:06:18Z</time>
      </trkpt>
      <trkpt lat="45.82694" lon="4.32382">
        <ele>666</ele>
        <time>2022-11-18T11:06:22Z</time>
      </trkpt>
      <trkpt lat="45.82756" lon="4.32325">
        <ele>664</ele>
        <time>2022-11-18T11:06:35Z</time>
      </trkpt>
      <trkpt lat="45.8277" lon="4.32308">
        <ele>664</ele>
        <time>2022-11-18T11:06:38Z</time>
      </trkpt>
      <trkpt lat="45.82856" lon="4.32053">
        <ele>653</ele>
        <time>2022-11-18T11:07:14Z</time>
      </trkpt>
      <trkpt lat="45.82885" lon="4.32009">
        <ele>653</ele>
        <time>2022-11-18T11:07:21Z</time>
      </trkpt>
      <trkpt lat="45.82915" lon="4.31976">
        <ele>653</ele>
        <time>2022-11-18T11:07:28Z</time>
      </trkpt>
      <trkpt lat="45.82936" lon="4.31956">
        <ele>651</ele>
        <time>2022-11-18T11:07:32Z</time>
      </trkpt>
      <trkpt lat="45.82965" lon="4.31937">
        <ele>651</ele>
        <time>2022-11-18T11:07:38Z</time>
      </trkpt>
      <trkpt lat="45.8298" lon="4.31923">
        <ele>651</ele>
        <time>2022-11-18T11:07:41Z</time>
      </trkpt>
      <trkpt lat="45.82995" lon="4.31901">
        <ele>651</ele>
        <time>2022-11-18T11:07:45Z</time>
      </trkpt>
      <trkpt lat="45.83004" lon="4.31882">
        <ele>651</ele>
        <time>2022-11-18T11:07:48Z</time>
      </trkpt>
      <trkpt lat="45.83011" lon="4.3186">
        <ele>650</ele>
        <time>2022-11-18T11:07:51Z</time>
      </trkpt>
      <trkpt lat="45.83014" lon="4.3184">
        <ele>649</ele>
        <time>2022-11-18T11:07:53Z</time>
      </trkpt>
      <trkpt lat="45.83012" lon="4.31821">
        <ele>649</ele>
        <time>2022-11-18T11:07:56Z</time>
      </trkpt>
      <trkpt lat="45.83007" lon="4.318">
        <ele>648</ele>
        <time>2022-11-18T11:07:59Z</time>
      </trkpt>
      <trkpt lat="45.82983" lon="4.31733">
        <ele>646</ele>
        <time>2022-11-18T11:08:08Z</time>
      </trkpt>
      <trkpt lat="45.82965" lon="4.317">
        <ele>645</ele>
        <time>2022-11-18T11:08:13Z</time>
      </trkpt>
      <trkpt lat="45.82955" lon="4.31692">
        <ele>644</ele>
        <time>2022-11-18T11:08:15Z</time>
      </trkpt>
      <trkpt lat="45.82935" lon="4.31684">
        <ele>643</ele>
        <time>2022-11-18T11:08:19Z</time>
      </trkpt>
      <trkpt lat="45.82909" lon="4.31679">
        <ele>642</ele>
        <time>2022-11-18T11:08:23Z</time>
      </trkpt>
      <trkpt lat="45.82826" lon="4.31682">
        <ele>642</ele>
        <time>2022-11-18T11:08:38Z</time>
      </trkpt>
      <trkpt lat="45.82813" lon="4.31685">
        <ele>642</ele>
        <time>2022-11-18T11:08:41Z</time>
      </trkpt>
      <trkpt lat="45.82725" lon="4.31724">
        <ele>639</ele>
        <time>2022-11-18T11:08:57Z</time>
      </trkpt>
      <trkpt lat="45.82703" lon="4.3173">
        <ele>638</ele>
        <time>2022-11-18T11:09:01Z</time>
      </trkpt>
      <trkpt lat="45.82688" lon="4.31731">
        <ele>638</ele>
        <time>2022-11-18T11:09:04Z</time>
      </trkpt>
      <trkpt lat="45.8265" lon="4.31725">
        <ele>636</ele>
        <time>2022-11-18T11:09:10Z</time>
      </trkpt>
      <trkpt lat="45.82621" lon="4.31708">
        <ele>635</ele>
        <time>2022-11-18T11:09:16Z</time>
      </trkpt>
      <trkpt lat="45.82595" lon="4.3168">
        <ele>635</ele>
        <time>2022-11-18T11:09:22Z</time>
      </trkpt>
      <trkpt lat="45.82576" lon="4.31635">
        <ele>634</ele>
        <time>2022-11-18T11:09:28Z</time>
      </trkpt>
      <trkpt lat="45.82545" lon="4.31422">
        <ele>628</ele>
        <time>2022-11-18T11:09:55Z</time>
      </trkpt>
      <trkpt lat="45.82541" lon="4.31406">
        <ele>628</ele>
        <time>2022-11-18T11:09:57Z</time>
      </trkpt>
      <trkpt lat="45.82529" lon="4.3139">
        <ele>628</ele>
        <time>2022-11-18T11:10:00Z</time>
      </trkpt>
      <trkpt lat="45.82417" lon="4.31335">
        <ele>624</ele>
        <time>2022-11-18T11:10:21Z</time>
      </trkpt>
      <trkpt lat="45.82387" lon="4.313">
        <ele>620</ele>
        <time>2022-11-18T11:10:28Z</time>
      </trkpt>
      <trkpt lat="45.82376" lon="4.31276">
        <ele>619</ele>
        <time>2022-11-18T11:10:32Z</time>
      </trkpt>
      <trkpt lat="45.82371" lon="4.31252">
        <ele>619</ele>
        <time>2022-11-18T11:10:35Z</time>
      </trkpt>
      <trkpt lat="45.82369" lon="4.31218">
        <ele>617</ele>
        <time>2022-11-18T11:10:39Z</time>
      </trkpt>
      <trkpt lat="45.8238" lon="4.31169">
        <ele>616</ele>
        <time>2022-11-18T11:10:46Z</time>
      </trkpt>
      <trkpt lat="45.8239" lon="4.31146">
        <ele>614</ele>
        <time>2022-11-18T11:10:49Z</time>
      </trkpt>
      <trkpt lat="45.82409" lon="4.31115">
        <ele>613</ele>
        <time>2022-11-18T11:10:54Z</time>
      </trkpt>
      <trkpt lat="45.82427" lon="4.31098">
        <ele>612</ele>
        <time>2022-11-18T11:10:58Z</time>
      </trkpt>
      <trkpt lat="45.82443" lon="4.31087">
        <ele>611</ele>
        <time>2022-11-18T11:11:01Z</time>
      </trkpt>
      <trkpt lat="45.82467" lon="4.31077">
        <ele>610</ele>
        <time>2022-11-18T11:11:05Z</time>
      </trkpt>
      <trkpt lat="45.82483" lon="4.31075">
        <ele>610</ele>
        <time>2022-11-18T11:11:08Z</time>
      </trkpt>
      <trkpt lat="45.82515" lon="4.31082">
        <ele>609</ele>
        <time>2022-11-18T11:11:14Z</time>
      </trkpt>
      <trkpt lat="45.82653" lon="4.31137">
        <ele>605</ele>
        <time>2022-11-18T11:11:40Z</time>
      </trkpt>
      <trkpt lat="45.82673" lon="4.3115">
        <ele>605</ele>
        <time>2022-11-18T11:11:43Z</time>
      </trkpt>
      <trkpt lat="45.82717" lon="4.31211">
        <ele>607</ele>
        <time>2022-11-18T11:11:54Z</time>
      </trkpt>
      <trkpt lat="45.82739" lon="4.31227">
        <ele>607</ele>
        <time>2022-11-18T11:11:59Z</time>
      </trkpt>
      <trkpt lat="45.82797" lon="4.31239">
        <ele>603</ele>
        <time>2022-11-18T11:12:09Z</time>
      </trkpt>
      <trkpt lat="45.82891" lon="4.31245">
        <ele>595</ele>
        <time>2022-11-18T11:12:26Z</time>
      </trkpt>
      <trkpt lat="45.82904" lon="4.31239">
        <ele>594</ele>
        <time>2022-11-18T11:12:28Z</time>
      </trkpt>
      <trkpt lat="45.82914" lon="4.31229">
        <ele>594</ele>
        <time>2022-11-18T11:12:30Z</time>
      </trkpt>
      <trkpt lat="45.82921" lon="4.31215">
        <ele>593</ele>
        <time>2022-11-18T11:12:33Z</time>
      </trkpt>
      <trkpt lat="45.82924" lon="4.31197">
        <ele>593</ele>
        <time>2022-11-18T11:12:35Z</time>
      </trkpt>
      <trkpt lat="45.8292" lon="4.31178">
        <ele>592</ele>
        <time>2022-11-18T11:12:37Z</time>
      </trkpt>
      <trkpt lat="45.82912" lon="4.31162">
        <ele>592</ele>
        <time>2022-11-18T11:12:40Z</time>
      </trkpt>
      <trkpt lat="45.82903" lon="4.31153">
        <ele>593</ele>
        <time>2022-11-18T11:12:42Z</time>
      </trkpt>
      <trkpt lat="45.8289" lon="4.31148">
        <ele>594</ele>
        <time>2022-11-18T11:12:44Z</time>
      </trkpt>
      <trkpt lat="45.82874" lon="4.31146">
        <ele>594</ele>
        <time>2022-11-18T11:12:47Z</time>
      </trkpt>
      <trkpt lat="45.82815" lon="4.31148">
        <ele>594</ele>
        <time>2022-11-18T11:12:58Z</time>
      </trkpt>
      <trkpt lat="45.82798" lon="4.31144">
        <ele>593</ele>
        <time>2022-11-18T11:13:01Z</time>
      </trkpt>
      <trkpt lat="45.82779" lon="4.31133">
        <ele>592</ele>
        <time>2022-11-18T11:13:04Z</time>
      </trkpt>
      <trkpt lat="45.82767" lon="4.31117">
        <ele>591</ele>
        <time>2022-11-18T11:13:07Z</time>
      </trkpt>
      <trkpt lat="45.82727" lon="4.31031">
        <ele>589</ele>
        <time>2022-11-18T11:13:20Z</time>
      </trkpt>
      <trkpt lat="45.82676" lon="4.30935">
        <ele>583</ele>
        <time>2022-11-18T11:13:35Z</time>
      </trkpt>
      <trkpt lat="45.82592" lon="4.30801">
        <ele>581</ele>
        <time>2022-11-18T11:13:57Z</time>
      </trkpt>
      <trkpt lat="45.82579" lon="4.30775">
        <ele>580</ele>
        <time>2022-11-18T11:14:01Z</time>
      </trkpt>
      <trkpt lat="45.82571" lon="4.3075">
        <ele>580</ele>
        <time>2022-11-18T11:14:05Z</time>
      </trkpt>
      <trkpt lat="45.82566" lon="4.30724">
        <ele>579</ele>
        <time>2022-11-18T11:14:08Z</time>
      </trkpt>
      <trkpt lat="45.82571" lon="4.30641">
        <ele>577</ele>
        <time>2022-11-18T11:14:18Z</time>
      </trkpt>
      <trkpt lat="45.82569" lon="4.30609">
        <ele>575</ele>
        <time>2022-11-18T11:14:22Z</time>
      </trkpt>
      <trkpt lat="45.82564" lon="4.30589">
        <ele>574</ele>
        <time>2022-11-18T11:14:25Z</time>
      </trkpt>
      <trkpt lat="45.82548" lon="4.30558">
        <ele>575</ele>
        <time>2022-11-18T11:14:30Z</time>
      </trkpt>
      <trkpt lat="45.82538" lon="4.30549">
        <ele>575</ele>
        <time>2022-11-18T11:14:32Z</time>
      </trkpt>
      <trkpt lat="45.82527" lon="4.30542">
        <ele>575</ele>
        <time>2022-11-18T11:14:34Z</time>
      </trkpt>
      <trkpt lat="45.82499" lon="4.30538">
        <ele>575</ele>
        <time>2022-11-18T11:14:39Z</time>
      </trkpt>
      <trkpt lat="45.82392" lon="4.30574">
        <ele>577</ele>
        <time>2022-11-18T11:14:59Z</time>
      </trkpt>
      <trkpt lat="45.82337" lon="4.30585">
        <ele>580</ele>
        <time>2022-11-18T11:15:08Z</time>
      </trkpt>
      <trkpt lat="45.82188" lon="4.30591">
        <ele>588</ele>
        <time>2022-11-18T11:15:35Z</time>
      </trkpt>
      <trkpt lat="45.82154" lon="4.30598">
        <ele>588</ele>
        <time>2022-11-18T11:15:41Z</time>
      </trkpt>
      <trkpt lat="45.81901" lon="4.30691">
        <ele>596</ele>
        <time>2022-11-18T11:16:28Z</time>
      </trkpt>
      <trkpt lat="45.81847" lon="4.30737">
        <ele>591</ele>
        <time>2022-11-18T11:16:39Z</time>
      </trkpt>
      <trkpt lat="45.81811" lon="4.30734">
        <ele>590</ele>
        <time>2022-11-18T11:16:45Z</time>
      </trkpt>
      <trkpt lat="45.81779" lon="4.30738">
        <ele>590</ele>
        <time>2022-11-18T11:16:51Z</time>
      </trkpt>
      <trkpt lat="45.81754" lon="4.30769">
        <ele>587</ele>
        <time>2022-11-18T11:16:57Z</time>
      </trkpt>
      <trkpt lat="45.81719" lon="4.30889">
        <ele>585</ele>
        <time>2022-11-18T11:17:13Z</time>
      </trkpt>
      <trkpt lat="45.81707" lon="4.30944">
        <ele>585</ele>
        <time>2022-11-18T11:17:20Z</time>
      </trkpt>
      <trkpt lat="45.81713" lon="4.30981">
        <ele>583</ele>
        <time>2022-11-18T11:17:25Z</time>
      </trkpt>
      <trkpt lat="45.81708" lon="4.31044">
        <ele>580</ele>
        <time>2022-11-18T11:17:33Z</time>
      </trkpt>
      <trkpt lat="45.81583" lon="4.31226">
        <ele>576</ele>
        <time>2022-11-18T11:18:04Z</time>
      </trkpt>
      <trkpt lat="45.81534" lon="4.31312">
        <ele>567</ele>
        <time>2022-11-18T11:18:18Z</time>
      </trkpt>
      <trkpt lat="45.81504" lon="4.31351">
        <ele>563</ele>
        <time>2022-11-18T11:18:25Z</time>
      </trkpt>
      <trkpt lat="45.81468" lon="4.31392">
        <ele>562</ele>
        <time>2022-11-18T11:18:33Z</time>
      </trkpt>
      <trkpt lat="45.8144" lon="4.31433">
        <ele>559</ele>
        <time>2022-11-18T11:18:41Z</time>
      </trkpt>
      <trkpt lat="45.81389" lon="4.31516">
        <ele>555</ele>
        <time>2022-11-18T11:18:54Z</time>
      </trkpt>
      <trkpt lat="45.81203" lon="4.31722">
        <ele>544</ele>
        <time>2022-11-18T11:19:36Z</time>
      </trkpt>
      <trkpt lat="45.81177" lon="4.3174">
        <ele>544</ele>
        <time>2022-11-18T11:19:41Z</time>
      </trkpt>
      <trkpt lat="45.81128" lon="4.31752">
        <ele>546</ele>
        <time>2022-11-18T11:19:50Z</time>
      </trkpt>
      <trkpt lat="45.8109" lon="4.31767">
        <ele>546</ele>
        <time>2022-11-18T11:19:57Z</time>
      </trkpt>
      <trkpt lat="45.81075" lon="4.31778">
        <ele>545</ele>
        <time>2022-11-18T11:20:00Z</time>
      </trkpt>
      <trkpt lat="45.80989" lon="4.3186">
        <ele>535</ele>
        <time>2022-11-18T11:20:18Z</time>
      </trkpt>
      <trkpt lat="45.80821" lon="4.31939">
        <ele>528</ele>
        <time>2022-11-18T11:20:50Z</time>
      </trkpt>
      <trkpt lat="45.80806" lon="4.31939">
        <ele>527</ele>
        <time>2022-11-18T11:20:53Z</time>
      </trkpt>
      <trkpt lat="45.80793" lon="4.31935">
        <ele>526</ele>
        <time>2022-11-18T11:20:55Z</time>
      </trkpt>
      <trkpt lat="45.80781" lon="4.31925">
        <ele>525</ele>
        <time>2022-11-18T11:20:57Z</time>
      </trkpt>
      <trkpt lat="45.80692" lon="4.31808">
        <ele>523</ele>
        <time>2022-11-18T11:21:19Z</time>
      </trkpt>
      <trkpt lat="45.80677" lon="4.31802">
        <ele>522</ele>
        <time>2022-11-18T11:21:22Z</time>
      </trkpt>
      <trkpt lat="45.80658" lon="4.31807">
        <ele>523</ele>
        <time>2022-11-18T11:21:25Z</time>
      </trkpt>
      <trkpt lat="45.80647" lon="4.31815">
        <ele>524</ele>
        <time>2022-11-18T11:21:27Z</time>
      </trkpt>
      <trkpt lat="45.80635" lon="4.31831">
        <ele>527</ele>
        <time>2022-11-18T11:21:30Z</time>
      </trkpt>
      <trkpt lat="45.80634" lon="4.31838">
        <ele>528</ele>
        <time>2022-11-18T11:21:31Z</time>
      </trkpt>
      <trkpt lat="45.80659" lon="4.31957">
        <ele>530</ele>
        <time>2022-11-18T11:21:46Z</time>
      </trkpt>
      <trkpt lat="45.80661" lon="4.32013">
        <ele>532</ele>
        <time>2022-11-18T11:21:53Z</time>
      </trkpt>
      <trkpt lat="45.80657" lon="4.32051">
        <ele>533</ele>
        <time>2022-11-18T11:21:58Z</time>
      </trkpt>
      <trkpt lat="45.80624" lon="4.32122">
        <ele>541</ele>
        <time>2022-11-18T11:22:09Z</time>
      </trkpt>
      <trkpt lat="45.806" lon="4.32236">
        <ele>543</ele>
        <time>2022-11-18T11:22:24Z</time>
      </trkpt>
      <trkpt lat="45.80578" lon="4.32327">
        <ele>544</ele>
        <time>2022-11-18T11:22:36Z</time>
      </trkpt>
      <trkpt lat="45.80581" lon="4.32361">
        <ele>546</ele>
        <time>2022-11-18T11:22:40Z</time>
      </trkpt>
      <trkpt lat="45.80612" lon="4.32422">
        <ele>544</ele>
        <time>2022-11-18T11:22:49Z</time>
      </trkpt>
      <trkpt lat="45.80646" lon="4.32564">
        <ele>551</ele>
        <time>2022-11-18T11:23:08Z</time>
      </trkpt>
      <trkpt lat="45.80647" lon="4.32621">
        <ele>557</ele>
        <time>2022-11-18T11:23:15Z</time>
      </trkpt>
      <trkpt lat="45.80655" lon="4.32641">
        <ele>558</ele>
        <time>2022-11-18T11:23:18Z</time>
      </trkpt>
      <trkpt lat="45.80667" lon="4.32658">
        <ele>558</ele>
        <time>2022-11-18T11:23:21Z</time>
      </trkpt>
      <trkpt lat="45.80681" lon="4.32659">
        <ele>555</ele>
        <time>2022-11-18T11:23:23Z</time>
      </trkpt>
      <trkpt lat="45.80723" lon="4.3269">
        <ele>553</ele>
        <time>2022-11-18T11:23:32Z</time>
      </trkpt>
      <trkpt lat="45.80752" lon="4.32758">
        <ele>560</ele>
        <time>2022-11-18T11:23:41Z</time>
      </trkpt>
      <trkpt lat="45.80762" lon="4.32815">
        <ele>565</ele>
        <time>2022-11-18T11:23:49Z</time>
      </trkpt>
      <trkpt lat="45.80765" lon="4.32887">
        <ele>573</ele>
        <time>2022-11-18T11:23:58Z</time>
      </trkpt>
      <trkpt lat="45.80814" lon="4.32939">
        <ele>568</ele>
        <time>2022-11-18T11:24:09Z</time>
      </trkpt>
      <trkpt lat="45.80828" lon="4.32972">
        <ele>570</ele>
        <time>2022-11-18T11:24:13Z</time>
      </trkpt>
      <trkpt lat="45.80839" lon="4.33026">
        <ele>572</ele>
        <time>2022-11-18T11:24:20Z</time>
      </trkpt>
      <trkpt lat="45.80834" lon="4.33071">
        <ele>576</ele>
        <time>2022-11-18T11:24:26Z</time>
      </trkpt>
      <trkpt lat="45.80793" lon="4.33176">
        <ele>585</ele>
        <time>2022-11-18T11:24:41Z</time>
      </trkpt>
      <trkpt lat="45.80784" lon="4.33209">
        <ele>587</ele>
        <time>2022-11-18T11:24:45Z</time>
      </trkpt>
      <trkpt lat="45.80777" lon="4.33254">
        <ele>589</ele>
        <time>2022-11-18T11:24:51Z</time>
      </trkpt>
      <trkpt lat="45.80775" lon="4.33362">
        <ele>589</ele>
        <time>2022-11-18T11:25:04Z</time>
      </trkpt>
      <trkpt lat="45.80771" lon="4.33389">
        <ele>588</ele>
        <time>2022-11-18T11:25:08Z</time>
      </trkpt>
      <trkpt lat="45.80709" lon="4.33487">
        <ele>593</ele>
        <time>2022-11-18T11:25:24Z</time>
      </trkpt>
      <trkpt lat="45.80641" lon="4.33588">
        <ele>596</ele>
        <time>2022-11-18T11:25:42Z</time>
      </trkpt>
      <trkpt lat="45.80631" lon="4.33617">
        <ele>595</ele>
        <time>2022-11-18T11:25:46Z</time>
      </trkpt>
      <trkpt lat="45.80611" lon="4.33727">
        <ele>595</ele>
        <time>2022-11-18T11:26:00Z</time>
      </trkpt>
      <trkpt lat="45.80594" lon="4.33859">
        <ele>599</ele>
        <time>2022-11-18T11:26:16Z</time>
      </trkpt>
      <trkpt lat="45.80583" lon="4.33872">
        <ele>599</ele>
        <time>2022-11-18T11:26:19Z</time>
      </trkpt>
      <trkpt lat="45.80553" lon="4.33882">
        <ele>598</ele>
        <time>2022-11-18T11:26:24Z</time>
      </trkpt>
      <trkpt lat="45.80218" lon="4.33905">
        <ele>592</ele>
        <time>2022-11-18T11:27:24Z</time>
      </trkpt>
      <trkpt lat="45.80167" lon="4.33914">
        <ele>597</ele>
        <time>2022-11-18T11:27:33Z</time>
      </trkpt>
      <trkpt lat="45.80141" lon="4.33928">
        <ele>598</ele>
        <time>2022-11-18T11:27:38Z</time>
      </trkpt>
      <trkpt lat="45.80052" lon="4.33992">
        <ele>601</ele>
        <time>2022-11-18T11:27:56Z</time>
      </trkpt>
      <trkpt lat="45.80025" lon="4.34003">
        <ele>600</ele>
        <time>2022-11-18T11:28:01Z</time>
      </trkpt>
      <trkpt lat="45.79943" lon="4.34003">
        <ele>594</ele>
        <time>2022-11-18T11:28:15Z</time>
      </trkpt>
      <trkpt lat="45.79709" lon="4.34113">
        <ele>582</ele>
        <time>2022-11-18T11:28:59Z</time>
      </trkpt>
      <trkpt lat="45.79664" lon="4.34158">
        <ele>582</ele>
        <time>2022-11-18T11:29:09Z</time>
      </trkpt>
      <trkpt lat="45.79628" lon="4.34219">
        <ele>586</ele>
        <time>2022-11-18T11:29:19Z</time>
      </trkpt>
      <trkpt lat="45.79617" lon="4.34248">
        <ele>587</ele>
        <time>2022-11-18T11:29:23Z</time>
      </trkpt>
      <trkpt lat="45.79581" lon="4.34393">
        <ele>587</ele>
        <time>2022-11-18T11:29:42Z</time>
      </trkpt>
      <trkpt lat="45.79564" lon="4.34438">
        <ele>587</ele>
        <time>2022-11-18T11:29:49Z</time>
      </trkpt>
      <trkpt lat="45.79555" lon="4.34452">
        <ele>587</ele>
        <time>2022-11-18T11:29:51Z</time>
      </trkpt>
      <trkpt lat="45.7954" lon="4.34448">
        <ele>587</ele>
        <time>2022-11-18T11:29:54Z</time>
      </trkpt>
      <trkpt lat="45.79521" lon="4.34429">
        <ele>586</ele>
        <time>2022-11-18T11:29:58Z</time>
      </trkpt>
      <trkpt lat="45.79513" lon="4.34407">
        <ele>587</ele>
        <time>2022-11-18T11:30:01Z</time>
      </trkpt>
      <trkpt lat="45.79511" lon="4.34378">
        <ele>589</ele>
        <time>2022-11-18T11:30:04Z</time>
      </trkpt>
      <trkpt lat="45.79514" lon="4.34264">
        <ele>592</ele>
        <time>2022-11-18T11:30:19Z</time>
      </trkpt>
      <trkpt lat="45.79509" lon="4.34083">
        <ele>597</ele>
        <time>2022-11-18T11:30:41Z</time>
      </trkpt>
      <trkpt lat="45.79515" lon="4.33964">
        <ele>598</ele>
        <time>2022-11-18T11:30:56Z</time>
      </trkpt>
      <trkpt lat="45.7951" lon="4.33888">
        <ele>599</ele>
        <time>2022-11-18T11:31:05Z</time>
      </trkpt>
      <trkpt lat="45.79501" lon="4.33851">
        <ele>600</ele>
        <time>2022-11-18T11:31:10Z</time>
      </trkpt>
      <trkpt lat="45.79486" lon="4.33825">
        <ele>600</ele>
        <time>2022-11-18T11:31:14Z</time>
      </trkpt>
      <trkpt lat="45.79474" lon="4.33812">
        <ele>601</ele>
        <time>2022-11-18T11:31:17Z</time>
      </trkpt>
      <trkpt lat="45.79448" lon="4.33794">
        <ele>602</ele>
        <time>2022-11-18T11:31:22Z</time>
      </trkpt>
      <trkpt lat="45.79373" lon="4.33765">
        <ele>603</ele>
        <time>2022-11-18T11:31:36Z</time>
      </trkpt>
      <trkpt lat="45.79312" lon="4.3377">
        <ele>603</ele>
        <time>2022-11-18T11:31:47Z</time>
      </trkpt>
      <trkpt lat="45.79249" lon="4.33796">
        <ele>603</ele>
        <time>2022-11-18T11:31:59Z</time>
      </trkpt>
      <trkpt lat="45.79179" lon="4.33819">
        <ele>602</ele>
        <time>2022-11-18T11:32:11Z</time>
      </trkpt>
      <trkpt lat="45.79171" lon="4.33826">
        <ele>602</ele>
        <time>2022-11-18T11:32:13Z</time>
      </trkpt>
      <trkpt lat="45.79163" lon="4.3385">
        <ele>604</ele>
        <time>2022-11-18T11:32:16Z</time>
      </trkpt>
      <trkpt lat="45.79137" lon="4.33865">
        <ele>602</ele>
        <time>2022-11-18T11:32:21Z</time>
      </trkpt>
      <trkpt lat="45.79084" lon="4.33927">
        <ele>601</ele>
        <time>2022-11-18T11:32:33Z</time>
      </trkpt>
      <trkpt lat="45.79054" lon="4.33982">
        <ele>600</ele>
        <time>2022-11-18T11:32:42Z</time>
      </trkpt>
      <trkpt lat="45.79018" lon="4.34105">
        <ele>595</ele>
        <time>2022-11-18T11:32:59Z</time>
      </trkpt>
      <trkpt lat="45.78997" lon="4.34162">
        <ele>593</ele>
        <time>2022-11-18T11:33:07Z</time>
      </trkpt>
      <trkpt lat="45.78974" lon="4.3419">
        <ele>594</ele>
        <time>2022-11-18T11:33:12Z</time>
      </trkpt>
      <trkpt lat="45.78955" lon="4.34202">
        <ele>594</ele>
        <time>2022-11-18T11:33:16Z</time>
      </trkpt>
      <trkpt lat="45.78929" lon="4.3421">
        <ele>593</ele>
        <time>2022-11-18T11:33:20Z</time>
      </trkpt>
      <trkpt lat="45.78903" lon="4.34208">
        <ele>593</ele>
        <time>2022-11-18T11:33:25Z</time>
      </trkpt>
      <trkpt lat="45.78765" lon="4.34173">
        <ele>587</ele>
        <time>2022-11-18T11:33:50Z</time>
      </trkpt>
      <trkpt lat="45.78747" lon="4.34161">
        <ele>586</ele>
        <time>2022-11-18T11:33:54Z</time>
      </trkpt>
      <trkpt lat="45.78712" lon="4.34124">
        <ele>584</ele>
        <time>2022-11-18T11:34:01Z</time>
      </trkpt>
      <trkpt lat="45.78708" lon="4.34117">
        <ele>584</ele>
        <time>2022-11-18T11:34:02Z</time>
      </trkpt>
      <trkpt lat="45.78701" lon="4.34122">
        <ele>585</ele>
        <time>2022-11-18T11:34:04Z</time>
      </trkpt>
      <trkpt lat="45.78694" lon="4.34123">
        <ele>585</ele>
        <time>2022-11-18T11:34:05Z</time>
      </trkpt>
      <trkpt lat="45.78689" lon="4.3412">
        <ele>585</ele>
        <time>2022-11-18T11:34:06Z</time>
      </trkpt>
      <trkpt lat="45.78684" lon="4.34155">
        <ele>586</ele>
        <time>2022-11-18T11:34:10Z</time>
      </trkpt>
      <trkpt lat="45.78687" lon="4.34182">
        <ele>587</ele>
        <time>2022-11-18T11:34:14Z</time>
      </trkpt>
      <trkpt lat="45.78693" lon="4.34201">
        <ele>588</ele>
        <time>2022-11-18T11:34:16Z</time>
      </trkpt>
      <trkpt lat="45.78674" lon="4.34202">
        <ele>588</ele>
        <time>2022-11-18T11:34:20Z</time>
      </trkpt>
      <trkpt lat="45.78642" lon="4.34192">
        <ele>590</ele>
        <time>2022-11-18T11:34:26Z</time>
      </trkpt>
      <trkpt lat="45.78575" lon="4.34156">
        <ele>594</ele>
        <time>2022-11-18T11:34:38Z</time>
      </trkpt>
      <trkpt lat="45.78525" lon="4.34139">
        <ele>597</ele>
        <time>2022-11-18T11:34:47Z</time>
      </trkpt>
      <trkpt lat="45.78452" lon="4.34143">
        <ele>603</ele>
        <time>2022-11-18T11:35:00Z</time>
      </trkpt>
      <trkpt lat="45.78353" lon="4.34181">
        <ele>611</ele>
        <time>2022-11-18T11:35:19Z</time>
      </trkpt>
      <trkpt lat="45.78274" lon="4.34259">
        <ele>616</ele>
        <time>2022-11-18T11:35:36Z</time>
      </trkpt>
      <trkpt lat="45.78211" lon="4.3433">
        <ele>619</ele>
        <time>2022-11-18T11:35:50Z</time>
      </trkpt>
      <trkpt lat="45.78197" lon="4.34354">
        <ele>619</ele>
        <time>2022-11-18T11:35:54Z</time>
      </trkpt>
      <trkpt lat="45.78155" lon="4.34404">
        <ele>616</ele>
        <time>2022-11-18T11:36:04Z</time>
      </trkpt>
      <trkpt lat="45.78062" lon="4.34565">
        <ele>610</ele>
        <time>2022-11-18T11:36:30Z</time>
      </trkpt>
      <trkpt lat="45.78027" lon="4.34604">
        <ele>607</ele>
        <time>2022-11-18T11:36:37Z</time>
      </trkpt>
      <trkpt lat="45.77962" lon="4.34629">
        <ele>602</ele>
        <time>2022-11-18T11:36:49Z</time>
      </trkpt>
      <trkpt lat="45.77932" lon="4.34623">
        <ele>600</ele>
        <time>2022-11-18T11:36:55Z</time>
      </trkpt>
      <trkpt lat="45.77674" lon="4.346">
        <ele>589</ele>
        <time>2022-11-18T11:37:41Z</time>
      </trkpt>
      <trkpt lat="45.77345" lon="4.34566">
        <ele>569</ele>
        <time>2022-11-18T11:38:40Z</time>
      </trkpt>
      <trkpt lat="45.77141" lon="4.34521">
        <ele>556</ele>
        <time>2022-11-18T11:39:16Z</time>
      </trkpt>
      <trkpt lat="45.77106" lon="4.34523">
        <ele>554</ele>
        <time>2022-11-18T11:39:22Z</time>
      </trkpt>
      <trkpt lat="45.77076" lon="4.34536">
        <ele>551</ele>
        <time>2022-11-18T11:39:28Z</time>
      </trkpt>
      <trkpt lat="45.76952" lon="4.34618">
        <ele>541</ele>
        <time>2022-11-18T11:39:52Z</time>
      </trkpt>
      <trkpt lat="45.76937" lon="4.34625">
        <ele>541</ele>
        <time>2022-11-18T11:39:55Z</time>
      </trkpt>
      <trkpt lat="45.76916" lon="4.34629">
        <ele>541</ele>
        <time>2022-11-18T11:39:59Z</time>
      </trkpt>
      <trkpt lat="45.7689" lon="4.34626">
        <ele>538</ele>
        <time>2022-11-18T11:40:04Z</time>
      </trkpt>
      <trkpt lat="45.76865" lon="4.34614">
        <ele>536</ele>
        <time>2022-11-18T11:40:08Z</time>
      </trkpt>
      <trkpt lat="45.76774" lon="4.3455">
        <ele>528</ele>
        <time>2022-11-18T11:40:26Z</time>
      </trkpt>
      <trkpt lat="45.76759" lon="4.34535">
        <ele>527</ele>
        <time>2022-11-18T11:40:30Z</time>
      </trkpt>
      <trkpt lat="45.76745" lon="4.34499">
        <ele>528</ele>
        <time>2022-11-18T11:40:35Z</time>
      </trkpt>
      <trkpt lat="45.76746" lon="4.34454">
        <ele>526</ele>
        <time>2022-11-18T11:40:40Z</time>
      </trkpt>
      <trkpt lat="45.76756" lon="4.34427">
        <ele>525</ele>
        <time>2022-11-18T11:40:44Z</time>
      </trkpt>
      <trkpt lat="45.76774" lon="4.34409">
        <ele>526</ele>
        <time>2022-11-18T11:40:48Z</time>
      </trkpt>
      <trkpt lat="45.76805" lon="4.3439">
        <ele>530</ele>
        <time>2022-11-18T11:40:54Z</time>
      </trkpt>
      <trkpt lat="45.76815" lon="4.34378">
        <ele>531</ele>
        <time>2022-11-18T11:40:56Z</time>
      </trkpt>
      <trkpt lat="45.76821" lon="4.34363">
        <ele>531</ele>
        <time>2022-11-18T11:40:58Z</time>
      </trkpt>
      <trkpt lat="45.76823" lon="4.34343">
        <ele>532</ele>
        <time>2022-11-18T11:41:01Z</time>
      </trkpt>
      <trkpt lat="45.76815" lon="4.34316">
        <ele>531</ele>
        <time>2022-11-18T11:41:05Z</time>
      </trkpt>
      <trkpt lat="45.76798" lon="4.34304">
        <ele>529</ele>
        <time>2022-11-18T11:41:08Z</time>
      </trkpt>
      <trkpt lat="45.76737" lon="4.34293">
        <ele>521</ele>
        <time>2022-11-18T11:41:19Z</time>
      </trkpt>
      <trkpt lat="45.76705" lon="4.34283">
        <ele>517</ele>
        <time>2022-11-18T11:41:25Z</time>
      </trkpt>
      <trkpt lat="45.76691" lon="4.34274">
        <ele>516</ele>
        <time>2022-11-18T11:41:27Z</time>
      </trkpt>
      <trkpt lat="45.76677" lon="4.34254">
        <ele>515</ele>
        <time>2022-11-18T11:41:31Z</time>
      </trkpt>
      <trkpt lat="45.76665" lon="4.34201">
        <ele>516</ele>
        <time>2022-11-18T11:41:38Z</time>
      </trkpt>
      <trkpt lat="45.76658" lon="4.34186">
        <ele>517</ele>
        <time>2022-11-18T11:41:40Z</time>
      </trkpt>
      <trkpt lat="45.76647" lon="4.34174">
        <ele>518</ele>
        <time>2022-11-18T11:41:43Z</time>
      </trkpt>
      <trkpt lat="45.76629" lon="4.34165">
        <ele>520</ele>
        <time>2022-11-18T11:41:46Z</time>
      </trkpt>
      <trkpt lat="45.76611" lon="4.34166">
        <ele>520</ele>
        <time>2022-11-18T11:41:49Z</time>
      </trkpt>
      <trkpt lat="45.76517" lon="4.3421">
        <ele>511</ele>
        <time>2022-11-18T11:42:07Z</time>
      </trkpt>
      <trkpt lat="45.76497" lon="4.34224">
        <ele>508</ele>
        <time>2022-11-18T11:42:11Z</time>
      </trkpt>
      <trkpt lat="45.76425" lon="4.34302">
        <ele>496</ele>
        <time>2022-11-18T11:42:27Z</time>
      </trkpt>
      <trkpt lat="45.76409" lon="4.34315">
        <ele>494</ele>
        <time>2022-11-18T11:42:30Z</time>
      </trkpt>
      <trkpt lat="45.76393" lon="4.34322">
        <ele>492</ele>
        <time>2022-11-18T11:42:33Z</time>
      </trkpt>
      <trkpt lat="45.76375" lon="4.34326">
        <ele>491</ele>
        <time>2022-11-18T11:42:36Z</time>
      </trkpt>
      <trkpt lat="45.7631" lon="4.34329">
        <ele>487</ele>
        <time>2022-11-18T11:42:48Z</time>
      </trkpt>
      <trkpt lat="45.76215" lon="4.34338">
        <ele>479</ele>
        <time>2022-11-18T11:43:05Z</time>
      </trkpt>
      <trkpt lat="45.76195" lon="4.34335">
        <ele>477</ele>
        <time>2022-11-18T11:43:08Z</time>
      </trkpt>
      <trkpt lat="45.76179" lon="4.34327">
        <ele>476</ele>
        <time>2022-11-18T11:43:11Z</time>
      </trkpt>
      <trkpt lat="45.76084" lon="4.3421">
        <ele>476</ele>
        <time>2022-11-18T11:43:34Z</time>
      </trkpt>
      <trkpt lat="45.76074" lon="4.34204">
        <ele>476</ele>
        <time>2022-11-18T11:43:36Z</time>
      </trkpt>
      <trkpt lat="45.76064" lon="4.34207">
        <ele>475</ele>
        <time>2022-11-18T11:43:37Z</time>
      </trkpt>
      <trkpt lat="45.76033" lon="4.34259">
        <ele>470</ele>
        <time>2022-11-18T11:43:46Z</time>
      </trkpt>
      <trkpt lat="45.76017" lon="4.3427">
        <ele>470</ele>
        <time>2022-11-18T11:43:49Z</time>
      </trkpt>
      <trkpt lat="45.75985" lon="4.34284">
        <ele>469</ele>
        <time>2022-11-18T11:43:55Z</time>
      </trkpt>
      <trkpt lat="45.75889" lon="4.34344">
        <ele>470</ele>
        <time>2022-11-18T11:44:14Z</time>
      </trkpt>
      <trkpt lat="45.7586" lon="4.34353">
        <ele>471</ele>
        <time>2022-11-18T11:44:19Z</time>
      </trkpt>
      <trkpt lat="45.75837" lon="4.34353">
        <ele>471</ele>
        <time>2022-11-18T11:44:23Z</time>
      </trkpt>
      <trkpt lat="45.75772" lon="4.34351">
        <ele>471</ele>
        <time>2022-11-18T11:44:35Z</time>
      </trkpt>
      <trkpt lat="45.75744" lon="4.34342">
        <ele>472</ele>
        <time>2022-11-18T11:44:40Z</time>
      </trkpt>
      <trkpt lat="45.75721" lon="4.3434">
        <ele>473</ele>
        <time>2022-11-18T11:44:44Z</time>
      </trkpt>
      <trkpt lat="45.75697" lon="4.34347">
        <ele>475</ele>
        <time>2022-11-18T11:44:48Z</time>
      </trkpt>
      <trkpt lat="45.75665" lon="4.34368">
        <ele>478</ele>
        <time>2022-11-18T11:44:54Z</time>
      </trkpt>
      <trkpt lat="45.75621" lon="4.34408">
        <ele>485</ele>
        <time>2022-11-18T11:45:04Z</time>
      </trkpt>
      <trkpt lat="45.75602" lon="4.3442">
        <ele>489</ele>
        <time>2022-11-18T11:45:07Z</time>
      </trkpt>
      <trkpt lat="45.75575" lon="4.34422">
        <ele>493</ele>
        <time>2022-11-18T11:45:12Z</time>
      </trkpt>
      <trkpt lat="45.75507" lon="4.34404">
        <ele>502</ele>
        <time>2022-11-18T11:45:24Z</time>
      </trkpt>
      <trkpt lat="45.75495" lon="4.34404">
        <ele>503</ele>
        <time>2022-11-18T11:45:27Z</time>
      </trkpt>
      <trkpt lat="45.75484" lon="4.34407">
        <ele>504</ele>
        <time>2022-11-18T11:45:29Z</time>
      </trkpt>
      <trkpt lat="45.75478" lon="4.34412">
        <ele>505</ele>
        <time>2022-11-18T11:45:30Z</time>
      </trkpt>
      <trkpt lat="45.75461" lon="4.34407">
        <ele>506</ele>
        <time>2022-11-18T11:45:33Z</time>
      </trkpt>
      <trkpt lat="45.75448" lon="4.3441">
        <ele>508</ele>
        <time>2022-11-18T11:45:35Z</time>
      </trkpt>
      <trkpt lat="45.75429" lon="4.3442">
        <ele>510</ele>
        <time>2022-11-18T11:45:39Z</time>
      </trkpt>
      <trkpt lat="45.75417" lon="4.34431">
        <ele>511</ele>
        <time>2022-11-18T11:45:41Z</time>
      </trkpt>
      <trkpt lat="45.7541" lon="4.34442">
        <ele>511</ele>
        <time>2022-11-18T11:45:43Z</time>
      </trkpt>
      <trkpt lat="45.75397" lon="4.34484">
        <ele>512</ele>
        <time>2022-11-18T11:45:49Z</time>
      </trkpt>
      <trkpt lat="45.7536" lon="4.34529">
        <ele>514</ele>
        <time>2022-11-18T11:45:58Z</time>
      </trkpt>
      <trkpt lat="45.75329" lon="4.34579">
        <ele>516</ele>
        <time>2022-11-18T11:46:06Z</time>
      </trkpt>
      <trkpt lat="45.75265" lon="4.34751">
        <ele>520</ele>
        <time>2022-11-18T11:46:30Z</time>
      </trkpt>
      <trkpt lat="45.75245" lon="4.34789">
        <ele>522</ele>
        <time>2022-11-18T11:46:36Z</time>
      </trkpt>
      <trkpt lat="45.75215" lon="4.34803">
        <ele>521</ele>
        <time>2022-11-18T11:46:42Z</time>
      </trkpt>
      <trkpt lat="45.75185" lon="4.34822">
        <ele>521</ele>
        <time>2022-11-18T11:46:47Z</time>
      </trkpt>
      <trkpt lat="45.75157" lon="4.34852">
        <ele>521</ele>
        <time>2022-11-18T11:46:54Z</time>
      </trkpt>
      <trkpt lat="45.75147" lon="4.34875">
        <ele>522</ele>
        <time>2022-11-18T11:46:57Z</time>
      </trkpt>
      <trkpt lat="45.75141" lon="4.34901">
        <ele>523</ele>
        <time>2022-11-18T11:47:00Z</time>
      </trkpt>
      <trkpt lat="45.7513" lon="4.35011">
        <ele>527</ele>
        <time>2022-11-18T11:47:14Z</time>
      </trkpt>
      <trkpt lat="45.75125" lon="4.35035">
        <ele>527</ele>
        <time>2022-11-18T11:47:17Z</time>
      </trkpt>
      <trkpt lat="45.75116" lon="4.35054">
        <ele>527</ele>
        <time>2022-11-18T11:47:20Z</time>
      </trkpt>
      <trkpt lat="45.75103" lon="4.35067">
        <ele>526</ele>
        <time>2022-11-18T11:47:23Z</time>
      </trkpt>
      <trkpt lat="45.75088" lon="4.35074">
        <ele>525</ele>
        <time>2022-11-18T11:47:26Z</time>
      </trkpt>
      <trkpt lat="45.75069" lon="4.35069">
        <ele>527</ele>
        <time>2022-11-18T11:47:29Z</time>
      </trkpt>
      <trkpt lat="45.75057" lon="4.35061">
        <ele>529</ele>
        <time>2022-11-18T11:47:32Z</time>
      </trkpt>
      <trkpt lat="45.75048" lon="4.35047">
        <ele>530</ele>
        <time>2022-11-18T11:47:34Z</time>
      </trkpt>
      <trkpt lat="45.75029" lon="4.34993">
        <ele>529</ele>
        <time>2022-11-18T11:47:41Z</time>
      </trkpt>
      <trkpt lat="45.75019" lon="4.34983">
        <ele>529</ele>
        <time>2022-11-18T11:47:44Z</time>
      </trkpt>
      <trkpt lat="45.74997" lon="4.34973">
        <ele>530</ele>
        <time>2022-11-18T11:47:48Z</time>
      </trkpt>
      <trkpt lat="45.74795" lon="4.34931">
        <ele>540</ele>
        <time>2022-11-18T11:48:24Z</time>
      </trkpt>
      <trkpt lat="45.74762" lon="4.34932">
        <ele>541</ele>
        <time>2022-11-18T11:48:30Z</time>
      </trkpt>
      <trkpt lat="45.74688" lon="4.34953">
        <ele>538</ele>
        <time>2022-11-18T11:48:43Z</time>
      </trkpt>
      <trkpt lat="45.74673" lon="4.3495">
        <ele>537</ele>
        <time>2022-11-18T11:48:46Z</time>
      </trkpt>
      <trkpt lat="45.74659" lon="4.34941">
        <ele>537</ele>
        <time>2022-11-18T11:48:49Z</time>
      </trkpt>
      <trkpt lat="45.74619" lon="4.34907">
        <ele>537</ele>
        <time>2022-11-18T11:48:57Z</time>
      </trkpt>
      <trkpt lat="45.74601" lon="4.34898">
        <ele>536</ele>
        <time>2022-11-18T11:49:00Z</time>
      </trkpt>
      <trkpt lat="45.74582" lon="4.34899">
        <ele>535</ele>
        <time>2022-11-18T11:49:04Z</time>
      </trkpt>
      <trkpt lat="45.74566" lon="4.34908">
        <ele>534</ele>
        <time>2022-11-18T11:49:07Z</time>
      </trkpt>
      <trkpt lat="45.74539" lon="4.34929">
        <ele>531</ele>
        <time>2022-11-18T11:49:12Z</time>
      </trkpt>
      <trkpt lat="45.74513" lon="4.34939">
        <ele>529</ele>
        <time>2022-11-18T11:49:17Z</time>
      </trkpt>
      <trkpt lat="45.74475" lon="4.34945">
        <ele>528</ele>
        <time>2022-11-18T11:49:24Z</time>
      </trkpt>
      <trkpt lat="45.744" lon="4.34943">
        <ele>527</ele>
        <time>2022-11-18T11:49:37Z</time>
      </trkpt>
      <trkpt lat="45.74385" lon="4.34945">
        <ele>526</ele>
        <time>2022-11-18T11:49:40Z</time>
      </trkpt>
      <trkpt lat="45.74357" lon="4.34959">
        <ele>525</ele>
        <time>2022-11-18T11:49:45Z</time>
      </trkpt>
      <trkpt lat="45.74302" lon="4.34997">
        <ele>518</ele>
        <time>2022-11-18T11:49:56Z</time>
      </trkpt>
      <trkpt lat="45.74245" lon="4.35045">
        <ele>511</ele>
        <time>2022-11-18T11:50:08Z</time>
      </trkpt>
      <trkpt lat="45.74206" lon="4.35073">
        <ele>507</ele>
        <time>2022-11-18T11:50:16Z</time>
      </trkpt>
      <trkpt lat="45.74196" lon="4.35075">
        <ele>507</ele>
        <time>2022-11-18T11:50:17Z</time>
      </trkpt>
      <trkpt lat="45.74173" lon="4.35067">
        <ele>506</ele>
        <time>2022-11-18T11:50:22Z</time>
      </trkpt>
      <trkpt lat="45.74164" lon="4.35058">
        <ele>506</ele>
        <time>2022-11-18T11:50:24Z</time>
      </trkpt>
      <trkpt lat="45.74152" lon="4.3503">
        <ele>506</ele>
        <time>2022-11-18T11:50:28Z</time>
      </trkpt>
      <trkpt lat="45.74144" lon="4.35004">
        <ele>506</ele>
        <time>2022-11-18T11:50:31Z</time>
      </trkpt>
      <trkpt lat="45.74137" lon="4.34993">
        <ele>506</ele>
        <time>2022-11-18T11:50:33Z</time>
      </trkpt>
      <trkpt lat="45.74129" lon="4.34985">
        <ele>507</ele>
        <time>2022-11-18T11:50:35Z</time>
      </trkpt>
      <trkpt lat="45.74106" lon="4.34979">
        <ele>506</ele>
        <time>2022-11-18T11:50:39Z</time>
      </trkpt>
      <trkpt lat="45.74082" lon="4.3499">
        <ele>504</ele>
        <time>2022-11-18T11:50:43Z</time>
      </trkpt>
      <trkpt lat="45.74013" lon="4.35061">
        <ele>499</ele>
        <time>2022-11-18T11:50:59Z</time>
      </trkpt>
      <trkpt lat="45.73999" lon="4.35072">
        <ele>499</ele>
        <time>2022-11-18T11:51:01Z</time>
      </trkpt>
      <trkpt lat="45.73976" lon="4.35077">
        <ele>498</ele>
        <time>2022-11-18T11:51:06Z</time>
      </trkpt>
      <trkpt lat="45.73894" lon="4.35079">
        <ele>495</ele>
        <time>2022-11-18T11:51:20Z</time>
      </trkpt>
      <trkpt lat="45.73793" lon="4.3507">
        <ele>487</ele>
        <time>2022-11-18T11:51:38Z</time>
      </trkpt>
      <trkpt lat="45.73631" lon="4.34999">
        <ele>483</ele>
        <time>2022-11-18T11:52:08Z</time>
      </trkpt>
      <trkpt lat="45.73605" lon="4.34999">
        <ele>483</ele>
        <time>2022-11-18T11:52:13Z</time>
      </trkpt>
      <trkpt lat="45.73586" lon="4.35005">
        <ele>482</ele>
        <time>2022-11-18T11:52:16Z</time>
      </trkpt>
      <trkpt lat="45.73533" lon="4.35032">
        <ele>479</ele>
        <time>2022-11-18T11:52:26Z</time>
      </trkpt>
      <trkpt lat="45.73502" lon="4.35039">
        <ele>477</ele>
        <time>2022-11-18T11:52:32Z</time>
      </trkpt>
      <trkpt lat="45.73429" lon="4.35035">
        <ele>471</ele>
        <time>2022-11-18T11:52:45Z</time>
      </trkpt>
      <trkpt lat="45.73376" lon="4.35027">
        <ele>467</ele>
        <time>2022-11-18T11:52:54Z</time>
      </trkpt>
      <trkpt lat="45.73331" lon="4.3506">
        <ele>465</ele>
        <time>2022-11-18T11:53:03Z</time>
      </trkpt>
      <trkpt lat="45.73304" lon="4.3507">
        <ele>466</ele>
        <time>2022-11-18T11:53:08Z</time>
      </trkpt>
      <trkpt lat="45.73288" lon="4.35072">
        <ele>467</ele>
        <time>2022-11-18T11:53:11Z</time>
      </trkpt>
      <trkpt lat="45.73271" lon="4.35066">
        <ele>468</ele>
        <time>2022-11-18T11:53:14Z</time>
      </trkpt>
      <trkpt lat="45.73251" lon="4.35053">
        <ele>468</ele>
        <time>2022-11-18T11:53:18Z</time>
      </trkpt>
      <trkpt lat="45.73177" lon="4.34992">
        <ele>476</ele>
        <time>2022-11-18T11:53:33Z</time>
      </trkpt>
      <trkpt lat="45.73148" lon="4.34955">
        <ele>480</ele>
        <time>2022-11-18T11:53:40Z</time>
      </trkpt>
      <trkpt lat="45.73131" lon="4.34911">
        <ele>482</ele>
        <time>2022-11-18T11:53:47Z</time>
      </trkpt>
      <trkpt lat="45.73125" lon="4.34884">
        <ele>485</ele>
        <time>2022-11-18T11:53:50Z</time>
      </trkpt>
      <trkpt lat="45.73123" lon="4.34855">
        <ele>485</ele>
        <time>2022-11-18T11:53:54Z</time>
      </trkpt>
      <trkpt lat="45.73129" lon="4.34799">
        <ele>483</ele>
        <time>2022-11-18T11:54:01Z</time>
      </trkpt>
      <trkpt lat="45.7313" lon="4.34763">
        <ele>481</ele>
        <time>2022-11-18T11:54:05Z</time>
      </trkpt>
      <trkpt lat="45.73128" lon="4.34746">
        <ele>481</ele>
        <time>2022-11-18T11:54:07Z</time>
      </trkpt>
      <trkpt lat="45.73117" lon="4.34709">
        <ele>482</ele>
        <time>2022-11-18T11:54:12Z</time>
      </trkpt>
      <trkpt lat="45.73115" lon="4.34685">
        <ele>481</ele>
        <time>2022-11-18T11:54:15Z</time>
      </trkpt>
      <trkpt lat="45.73115" lon="4.34611">
        <ele>479</ele>
        <time>2022-11-18T11:54:25Z</time>
      </trkpt>
      <trkpt lat="45.73106" lon="4.34584">
        <ele>480</ele>
        <time>2022-11-18T11:54:28Z</time>
      </trkpt>
      <trkpt lat="45.73088" lon="4.34565">
        <ele>482</ele>
        <time>2022-11-18T11:54:32Z</time>
      </trkpt>
      <trkpt lat="45.73077" lon="4.34559">
        <ele>482</ele>
        <time>2022-11-18T11:54:34Z</time>
      </trkpt>
      <trkpt lat="45.73053" lon="4.34555">
        <ele>482</ele>
        <time>2022-11-18T11:54:39Z</time>
      </trkpt>
      <trkpt lat="45.73041" lon="4.34558">
        <ele>483</ele>
        <time>2022-11-18T11:54:41Z</time>
      </trkpt>
      <trkpt lat="45.7303" lon="4.34567">
        <ele>485</ele>
        <time>2022-11-18T11:54:43Z</time>
      </trkpt>
      <trkpt lat="45.7286" lon="4.34747">
        <ele>496</ele>
        <time>2022-11-18T11:55:21Z</time>
      </trkpt>
      <trkpt lat="45.7285" lon="4.34765">
        <ele>497</ele>
        <time>2022-11-18T11:55:24Z</time>
      </trkpt>
      <trkpt lat="45.72841" lon="4.3483">
        <ele>503</ele>
        <time>2022-11-18T11:55:32Z</time>
      </trkpt>
      <trkpt lat="45.72828" lon="4.34851">
        <ele>504</ele>
        <time>2022-11-18T11:55:35Z</time>
      </trkpt>
      <trkpt lat="45.72817" lon="4.34859">
        <ele>504</ele>
        <time>2022-11-18T11:55:38Z</time>
      </trkpt>
      <trkpt lat="45.72761" lon="4.3487">
        <ele>506</ele>
        <time>2022-11-18T11:55:48Z</time>
      </trkpt>
      <trkpt lat="45.72688" lon="4.34914">
        <ele>510</ele>
        <time>2022-11-18T11:56:02Z</time>
      </trkpt>
      <trkpt lat="45.72648" lon="4.34952">
        <ele>512</ele>
        <time>2022-11-18T11:56:10Z</time>
      </trkpt>
      <trkpt lat="45.72635" lon="4.34973">
        <ele>513</ele>
        <time>2022-11-18T11:56:14Z</time>
      </trkpt>
      <trkpt lat="45.72623" lon="4.35001">
        <ele>515</ele>
        <time>2022-11-18T11:56:18Z</time>
      </trkpt>
      <trkpt lat="45.72617" lon="4.35029">
        <ele>516</ele>
        <time>2022-11-18T11:56:21Z</time>
      </trkpt>
      <trkpt lat="45.72614" lon="4.35057">
        <ele>518</ele>
        <time>2022-11-18T11:56:25Z</time>
      </trkpt>
      <trkpt lat="45.7261" lon="4.352">
        <ele>527</ele>
        <time>2022-11-18T11:56:43Z</time>
      </trkpt>
      <trkpt lat="45.72604" lon="4.35248">
        <ele>530</ele>
        <time>2022-11-18T11:56:49Z</time>
      </trkpt>
      <trkpt lat="45.7259" lon="4.353">
        <ele>531</ele>
        <time>2022-11-18T11:56:56Z</time>
      </trkpt>
      <trkpt lat="45.72573" lon="4.35334">
        <ele>531</ele>
        <time>2022-11-18T11:57:01Z</time>
      </trkpt>
      <trkpt lat="45.72516" lon="4.35426">
        <ele>536</ele>
        <time>2022-11-18T11:57:16Z</time>
      </trkpt>
      <trkpt lat="45.72529" lon="4.35418">
        <ele>535</ele>
        <time>2022-11-18T11:57:19Z</time>
      </trkpt>
      <trkpt lat="45.72516" lon="4.35426">
        <ele>536</ele>
        <time>2022-11-18T11:57:21Z</time>
      </trkpt>
      <trkpt lat="45.72309" lon="4.35736">
        <ele>550</ele>
        <time>2022-11-18T11:58:14Z</time>
      </trkpt>
      <trkpt lat="45.72285" lon="4.35763">
        <ele>552</ele>
        <time>2022-11-18T11:58:20Z</time>
      </trkpt>
      <trkpt lat="45.72272" lon="4.35769">
        <ele>553</ele>
        <time>2022-11-18T11:58:22Z</time>
      </trkpt>
      <trkpt lat="45.72258" lon="4.3577">
        <ele>553</ele>
        <time>2022-11-18T11:58:25Z</time>
      </trkpt>
      <trkpt lat="45.72247" lon="4.35764">
        <ele>554</ele>
        <time>2022-11-18T11:58:27Z</time>
      </trkpt>
      <trkpt lat="45.72237" lon="4.35755">
        <ele>554</ele>
        <time>2022-11-18T11:58:29Z</time>
      </trkpt>
      <trkpt lat="45.72222" lon="4.35727">
        <ele>556</ele>
        <time>2022-11-18T11:58:33Z</time>
      </trkpt>
      <trkpt lat="45.72218" lon="4.35709">
        <ele>557</ele>
        <time>2022-11-18T11:58:36Z</time>
      </trkpt>
      <trkpt lat="45.72218" lon="4.35686">
        <ele>557</ele>
        <time>2022-11-18T11:58:39Z</time>
      </trkpt>
      <trkpt lat="45.72248" lon="4.35571">
        <ele>559</ele>
        <time>2022-11-18T11:58:54Z</time>
      </trkpt>
      <trkpt lat="45.72253" lon="4.35537">
        <ele>561</ele>
        <time>2022-11-18T11:58:58Z</time>
      </trkpt>
      <trkpt lat="45.72253" lon="4.35506">
        <ele>564</ele>
        <time>2022-11-18T11:59:02Z</time>
      </trkpt>
      <trkpt lat="45.7225" lon="4.35477">
        <ele>565</ele>
        <time>2022-11-18T11:59:06Z</time>
      </trkpt>
      <trkpt lat="45.72232" lon="4.35419">
        <ele>567</ele>
        <time>2022-11-18T11:59:14Z</time>
      </trkpt>
      <trkpt lat="45.72226" lon="4.35406">
        <ele>567</ele>
        <time>2022-11-18T11:59:15Z</time>
      </trkpt>
      <trkpt lat="45.72212" lon="4.35388">
        <ele>568</ele>
        <time>2022-11-18T11:59:19Z</time>
      </trkpt>
      <trkpt lat="45.72193" lon="4.35375">
        <ele>569</ele>
        <time>2022-11-18T11:59:23Z</time>
      </trkpt>
      <trkpt lat="45.72174" lon="4.35369">
        <ele>570</ele>
        <time>2022-11-18T11:59:26Z</time>
      </trkpt>
      <trkpt lat="45.72124" lon="4.35362">
        <ele>573</ele>
        <time>2022-11-18T11:59:35Z</time>
      </trkpt>
      <trkpt lat="45.72103" lon="4.35351">
        <ele>574</ele>
        <time>2022-11-18T11:59:39Z</time>
      </trkpt>
      <trkpt lat="45.7208" lon="4.3535">
        <ele>575</ele>
        <time>2022-11-18T11:59:43Z</time>
      </trkpt>
      <trkpt lat="45.72076" lon="4.35383">
        <ele>576</ele>
        <time>2022-11-18T11:59:47Z</time>
      </trkpt>
      <trkpt lat="45.72083" lon="4.35459">
        <ele>575</ele>
        <time>2022-11-18T11:59:57Z</time>
      </trkpt>
      <trkpt lat="45.7208" lon="4.35506">
        <ele>574</ele>
        <time>2022-11-18T12:00:03Z</time>
      </trkpt>
      <trkpt lat="45.72074" lon="4.35551">
        <ele>573</ele>
        <time>2022-11-18T12:00:08Z</time>
      </trkpt>
      <trkpt lat="45.72035" lon="4.35649">
        <ele>572</ele>
        <time>2022-11-18T12:00:22Z</time>
      </trkpt>
      <trkpt lat="45.71927" lon="4.35891">
        <ele>580</ele>
        <time>2022-11-18T12:00:58Z</time>
      </trkpt>
      <trkpt lat="45.71843" lon="4.36087">
        <ele>578</ele>
        <time>2022-11-18T12:01:27Z</time>
      </trkpt>
      <trkpt lat="45.71517" lon="4.36203">
        <ele>577</ele>
        <time>2022-11-18T12:02:26Z</time>
      </trkpt>
      <trkpt lat="45.71471" lon="4.36228">
        <ele>577</ele>
        <time>2022-11-18T12:02:35Z</time>
      </trkpt>
      <trkpt lat="45.71444" lon="4.36267">
        <ele>579</ele>
        <time>2022-11-18T12:02:42Z</time>
      </trkpt>
      <trkpt lat="45.71396" lon="4.36347">
        <ele>580</ele>
        <time>2022-11-18T12:02:55Z</time>
      </trkpt>
      <trkpt lat="45.71308" lon="4.36482">
        <ele>573</ele>
        <time>2022-11-18T12:03:18Z</time>
      </trkpt>
      <trkpt lat="45.71271" lon="4.36525">
        <ele>571</ele>
        <time>2022-11-18T12:03:26Z</time>
      </trkpt>
      <trkpt lat="45.7123" lon="4.36549">
        <ele>569</ele>
        <time>2022-11-18T12:03:34Z</time>
      </trkpt>
      <trkpt lat="45.71152" lon="4.36557">
        <ele>566</ele>
        <time>2022-11-18T12:03:48Z</time>
      </trkpt>
      <trkpt lat="45.71064" lon="4.36561">
        <ele>566</ele>
        <time>2022-11-18T12:04:04Z</time>
      </trkpt>
      <trkpt lat="45.70991" lon="4.36561">
        <ele>566</ele>
        <time>2022-11-18T12:04:17Z</time>
      </trkpt>
      <trkpt lat="45.70913" lon="4.36554">
        <ele>564</ele>
        <time>2022-11-18T12:04:31Z</time>
      </trkpt>
      <trkpt lat="45.70767" lon="4.36531">
        <ele>561</ele>
        <time>2022-11-18T12:04:57Z</time>
      </trkpt>
      <trkpt lat="45.70751" lon="4.36533">
        <ele>560</ele>
        <time>2022-11-18T12:05:00Z</time>
      </trkpt>
      <trkpt lat="45.7074" lon="4.36541">
        <ele>561</ele>
        <time>2022-11-18T12:05:02Z</time>
      </trkpt>
      <trkpt lat="45.70691" lon="4.36596">
        <ele>563</ele>
        <time>2022-11-18T12:05:13Z</time>
      </trkpt>
      <trkpt lat="45.70676" lon="4.36608">
        <ele>562</ele>
        <time>2022-11-18T12:05:16Z</time>
      </trkpt>
      <trkpt lat="45.70661" lon="4.36613">
        <ele>562</ele>
        <time>2022-11-18T12:05:19Z</time>
      </trkpt>
      <trkpt lat="45.7063" lon="4.36614">
        <ele>564</ele>
        <time>2022-11-18T12:05:24Z</time>
      </trkpt>
      <trkpt lat="45.70613" lon="4.36619">
        <ele>565</ele>
        <time>2022-11-18T12:05:27Z</time>
      </trkpt>
      <trkpt lat="45.70601" lon="4.3663">
        <ele>565</ele>
        <time>2022-11-18T12:05:30Z</time>
      </trkpt>
      <trkpt lat="45.70593" lon="4.36644">
        <ele>563</ele>
        <time>2022-11-18T12:05:32Z</time>
      </trkpt>
      <trkpt lat="45.70584" lon="4.36668">
        <ele>561</ele>
        <time>2022-11-18T12:05:36Z</time>
      </trkpt>
      <trkpt lat="45.70563" lon="4.36774">
        <ele>557</ele>
        <time>2022-11-18T12:05:49Z</time>
      </trkpt>
      <trkpt lat="45.70543" lon="4.36857">
        <ele>552</ele>
        <time>2022-11-18T12:06:00Z</time>
      </trkpt>
      <trkpt lat="45.70527" lon="4.36897">
        <ele>550</ele>
        <time>2022-11-18T12:06:06Z</time>
      </trkpt>
      <trkpt lat="45.70512" lon="4.36923">
        <ele>548</ele>
        <time>2022-11-18T12:06:10Z</time>
      </trkpt>
      <trkpt lat="45.70494" lon="4.36948">
        <ele>547</ele>
        <time>2022-11-18T12:06:15Z</time>
      </trkpt>
      <trkpt lat="45.70377" lon="4.3707">
        <ele>542</ele>
        <time>2022-11-18T12:06:40Z</time>
      </trkpt>
      <trkpt lat="45.70344" lon="4.37092">
        <ele>540</ele>
        <time>2022-11-18T12:06:47Z</time>
      </trkpt>
      <trkpt lat="45.70327" lon="4.37098">
        <ele>539</ele>
        <time>2022-11-18T12:06:50Z</time>
      </trkpt>
      <trkpt lat="45.70301" lon="4.37099">
        <ele>537</ele>
        <time>2022-11-18T12:06:55Z</time>
      </trkpt>
      <trkpt lat="45.70288" lon="4.37096">
        <ele>536</ele>
        <time>2022-11-18T12:06:57Z</time>
      </trkpt>
      <trkpt lat="45.70116" lon="4.37011">
        <ele>529</ele>
        <time>2022-11-18T12:07:29Z</time>
      </trkpt>
      <trkpt lat="45.70098" lon="4.36995">
        <ele>527</ele>
        <time>2022-11-18T12:07:33Z</time>
      </trkpt>
      <trkpt lat="45.70085" lon="4.3697">
        <ele>526</ele>
        <time>2022-11-18T12:07:37Z</time>
      </trkpt>
      <trkpt lat="45.7008" lon="4.36923">
        <ele>528</ele>
        <time>2022-11-18T12:07:43Z</time>
      </trkpt>
      <trkpt lat="45.70072" lon="4.36892">
        <ele>529</ele>
        <time>2022-11-18T12:07:47Z</time>
      </trkpt>
      <trkpt lat="45.70029" lon="4.36803">
        <ele>528</ele>
        <time>2022-11-18T12:08:00Z</time>
      </trkpt>
      <trkpt lat="45.70013" lon="4.36775">
        <ele>526</ele>
        <time>2022-11-18T12:08:05Z</time>
      </trkpt>
      <trkpt lat="45.69956" lon="4.36692">
        <ele>524</ele>
        <time>2022-11-18T12:08:19Z</time>
      </trkpt>
      <trkpt lat="45.69941" lon="4.36656">
        <ele>523</ele>
        <time>2022-11-18T12:08:25Z</time>
      </trkpt>
      <trkpt lat="45.69926" lon="4.36606">
        <ele>525</ele>
        <time>2022-11-18T12:08:31Z</time>
      </trkpt>
      <trkpt lat="45.69912" lon="4.36578">
        <ele>525</ele>
        <time>2022-11-18T12:08:36Z</time>
      </trkpt>
      <trkpt lat="45.69894" lon="4.3656">
        <ele>524</ele>
        <time>2022-11-18T12:08:40Z</time>
      </trkpt>
      <trkpt lat="45.69765" lon="4.36467">
        <ele>521</ele>
        <time>2022-11-18T12:09:05Z</time>
      </trkpt>
      <trkpt lat="45.69719" lon="4.36416">
        <ele>518</ele>
        <time>2022-11-18T12:09:16Z</time>
      </trkpt>
      <trkpt lat="45.69677" lon="4.36357">
        <ele>517</ele>
        <time>2022-11-18T12:09:26Z</time>
      </trkpt>
      <trkpt lat="45.69638" lon="4.36323">
        <ele>517</ele>
        <time>2022-11-18T12:09:34Z</time>
      </trkpt>
      <trkpt lat="45.69443" lon="4.36215">
        <ele>526</ele>
        <time>2022-11-18T12:10:11Z</time>
      </trkpt>
      <trkpt lat="45.69417" lon="4.36196">
        <ele>527</ele>
        <time>2022-11-18T12:10:17Z</time>
      </trkpt>
      <trkpt lat="45.69383" lon="4.36153">
        <ele>529</ele>
        <time>2022-11-18T12:10:25Z</time>
      </trkpt>
      <trkpt lat="45.69261" lon="4.35979">
        <ele>529</ele>
        <time>2022-11-18T12:10:55Z</time>
      </trkpt>
      <trkpt lat="45.69242" lon="4.35956">
        <ele>528</ele>
        <time>2022-11-18T12:11:00Z</time>
      </trkpt>
      <trkpt lat="45.69219" lon="4.35936">
        <ele>527</ele>
        <time>2022-11-18T12:11:04Z</time>
      </trkpt>
      <trkpt lat="45.69175" lon="4.35912">
        <ele>527</ele>
        <time>2022-11-18T12:11:13Z</time>
      </trkpt>
      <trkpt lat="45.69148" lon="4.35907">
        <ele>527</ele>
        <time>2022-11-18T12:11:18Z</time>
      </trkpt>
      <trkpt lat="45.6912" lon="4.35909">
        <ele>528</ele>
        <time>2022-11-18T12:11:23Z</time>
      </trkpt>
      <trkpt lat="45.69101" lon="4.35913">
        <ele>529</ele>
        <time>2022-11-18T12:11:26Z</time>
      </trkpt>
      <trkpt lat="45.69048" lon="4.3593">
        <ele>534</ele>
        <time>2022-11-18T12:11:36Z</time>
      </trkpt>
      <trkpt lat="45.69035" lon="4.35929">
        <ele>535</ele>
        <time>2022-11-18T12:11:38Z</time>
      </trkpt>
      <trkpt lat="45.69018" lon="4.35917">
        <ele>536</ele>
        <time>2022-11-18T12:11:41Z</time>
      </trkpt>
      <trkpt lat="45.69009" lon="4.35906">
        <ele>537</ele>
        <time>2022-11-18T12:11:44Z</time>
      </trkpt>
      <trkpt lat="45.69003" lon="4.35893">
        <ele>538</ele>
        <time>2022-11-18T12:11:46Z</time>
      </trkpt>
      <trkpt lat="45.68998" lon="4.35866">
        <ele>539</ele>
        <time>2022-11-18T12:11:49Z</time>
      </trkpt>
      <trkpt lat="45.69" lon="4.35851">
        <ele>540</ele>
        <time>2022-11-18T12:11:51Z</time>
      </trkpt>
      <trkpt lat="45.69018" lon="4.35797">
        <ele>536</ele>
        <time>2022-11-18T12:11:58Z</time>
      </trkpt>
      <trkpt lat="45.69021" lon="4.35781">
        <ele>535</ele>
        <time>2022-11-18T12:12:00Z</time>
      </trkpt>
      <trkpt lat="45.6902" lon="4.3576">
        <ele>535</ele>
        <time>2022-11-18T12:12:03Z</time>
      </trkpt>
      <trkpt lat="45.69016" lon="4.35742">
        <ele>535</ele>
        <time>2022-11-18T12:12:05Z</time>
      </trkpt>
      <trkpt lat="45.68998" lon="4.35716">
        <ele>535</ele>
        <time>2022-11-18T12:12:10Z</time>
      </trkpt>
      <trkpt lat="45.68976" lon="4.357">
        <ele>536</ele>
        <time>2022-11-18T12:12:14Z</time>
      </trkpt>
      <trkpt lat="45.68941" lon="4.35684">
        <ele>538</ele>
        <time>2022-11-18T12:12:21Z</time>
      </trkpt>
      <trkpt lat="45.68912" lon="4.35656">
        <ele>539</ele>
        <time>2022-11-18T12:12:27Z</time>
      </trkpt>
      <trkpt lat="45.68902" lon="4.35633">
        <ele>540</ele>
        <time>2022-11-18T12:12:30Z</time>
      </trkpt>
      <trkpt lat="45.68898" lon="4.35617">
        <ele>540</ele>
        <time>2022-11-18T12:12:33Z</time>
      </trkpt>
      <trkpt lat="45.68884" lon="4.3553">
        <ele>539</ele>
        <time>2022-11-18T12:12:44Z</time>
      </trkpt>
      <trkpt lat="45.68878" lon="4.35519">
        <ele>539</ele>
        <time>2022-11-18T12:12:45Z</time>
      </trkpt>
      <trkpt lat="45.68865" lon="4.35508">
        <ele>540</ele>
        <time>2022-11-18T12:12:48Z</time>
      </trkpt>
      <trkpt lat="45.68867" lon="4.355">
        <ele>539</ele>
        <time>2022-11-18T12:12:49Z</time>
      </trkpt>
      <trkpt lat="45.68864" lon="4.35479">
        <ele>539</ele>
        <time>2022-11-18T12:12:52Z</time>
      </trkpt>
      <trkpt lat="45.68859" lon="4.35472">
        <ele>540</ele>
        <time>2022-11-18T12:12:53Z</time>
      </trkpt>
      <trkpt lat="45.68855" lon="4.35472">
        <ele>540</ele>
        <time>2022-11-18T12:12:54Z</time>
      </trkpt>
      <trkpt lat="45.68852" lon="4.35475">
        <ele>540</ele>
        <time>2022-11-18T12:12:54Z</time>
      </trkpt>
      <trkpt lat="45.6885" lon="4.35495">
        <ele>541</ele>
        <time>2022-11-18T12:12:57Z</time>
      </trkpt>
      <trkpt lat="45.68814" lon="4.3549">
        <ele>541</ele>
        <time>2022-11-18T12:13:03Z</time>
      </trkpt>
      <trkpt lat="45.68599" lon="4.35479">
        <ele>526</ele>
        <time>2022-11-18T12:13:42Z</time>
      </trkpt>
      <trkpt lat="45.68579" lon="4.35482">
        <ele>525</ele>
        <time>2022-11-18T12:13:45Z</time>
      </trkpt>
      <trkpt lat="45.68558" lon="4.3549">
        <ele>522</ele>
        <time>2022-11-18T12:13:49Z</time>
      </trkpt>
      <trkpt lat="45.68542" lon="4.35503">
        <ele>521</ele>
        <time>2022-11-18T12:13:52Z</time>
      </trkpt>
      <trkpt lat="45.68519" lon="4.35538">
        <ele>520</ele>
        <time>2022-11-18T12:13:58Z</time>
      </trkpt>
      <trkpt lat="45.68511" lon="4.35557">
        <ele>521</ele>
        <time>2022-11-18T12:14:01Z</time>
      </trkpt>
      <trkpt lat="45.68509" lon="4.35605">
        <ele>523</ele>
        <time>2022-11-18T12:14:07Z</time>
      </trkpt>
      <trkpt lat="45.68515" lon="4.35665">
        <ele>524</ele>
        <time>2022-11-18T12:14:15Z</time>
      </trkpt>
      <trkpt lat="45.68511" lon="4.35682">
        <ele>523</ele>
        <time>2022-11-18T12:14:17Z</time>
      </trkpt>
      <trkpt lat="45.68502" lon="4.35695">
        <ele>522</ele>
        <time>2022-11-18T12:14:19Z</time>
      </trkpt>
      <trkpt lat="45.68487" lon="4.35709">
        <ele>519</ele>
        <time>2022-11-18T12:14:22Z</time>
      </trkpt>
      <trkpt lat="45.68471" lon="4.35731">
        <ele>516</ele>
        <time>2022-11-18T12:14:26Z</time>
      </trkpt>
      <trkpt lat="45.68464" lon="4.35751">
        <ele>515</ele>
        <time>2022-11-18T12:14:29Z</time>
      </trkpt>
      <trkpt lat="45.68461" lon="4.35824">
        <ele>516</ele>
        <time>2022-11-18T12:14:38Z</time>
      </trkpt>
      <trkpt lat="45.68454" lon="4.35839">
        <ele>515</ele>
        <time>2022-11-18T12:14:40Z</time>
      </trkpt>
      <trkpt lat="45.68446" lon="4.35851">
        <ele>515</ele>
        <time>2022-11-18T12:14:42Z</time>
      </trkpt>
      <trkpt lat="45.68433" lon="4.35856">
        <ele>513</ele>
        <time>2022-11-18T12:14:45Z</time>
      </trkpt>
      <trkpt lat="45.68397" lon="4.35857">
        <ele>507</ele>
        <time>2022-11-18T12:14:51Z</time>
      </trkpt>
      <trkpt lat="45.68385" lon="4.35862">
        <ele>506</ele>
        <time>2022-11-18T12:14:53Z</time>
      </trkpt>
      <trkpt lat="45.68373" lon="4.35873">
        <ele>505</ele>
        <time>2022-11-18T12:14:56Z</time>
      </trkpt>
      <trkpt lat="45.68355" lon="4.35899">
        <ele>504</ele>
        <time>2022-11-18T12:15:00Z</time>
      </trkpt>
      <trkpt lat="45.6831" lon="4.35985">
        <ele>504</ele>
        <time>2022-11-18T12:15:14Z</time>
      </trkpt>
      <trkpt lat="45.68298" lon="4.36017">
        <ele>503</ele>
        <time>2022-11-18T12:15:18Z</time>
      </trkpt>
      <trkpt lat="45.68292" lon="4.36049">
        <ele>501</ele>
        <time>2022-11-18T12:15:22Z</time>
      </trkpt>
      <trkpt lat="45.68292" lon="4.36097">
        <ele>501</ele>
        <time>2022-11-18T12:15:28Z</time>
      </trkpt>
      <trkpt lat="45.68308" lon="4.36209">
        <ele>499</ele>
        <time>2022-11-18T12:15:43Z</time>
      </trkpt>
      <trkpt lat="45.68304" lon="4.36248">
        <ele>496</ele>
        <time>2022-11-18T12:15:48Z</time>
      </trkpt>
      <trkpt lat="45.68293" lon="4.36285">
        <ele>493</ele>
        <time>2022-11-18T12:15:53Z</time>
      </trkpt>
      <trkpt lat="45.68281" lon="4.363">
        <ele>492</ele>
        <time>2022-11-18T12:15:55Z</time>
      </trkpt>
      <trkpt lat="45.68268" lon="4.36311">
        <ele>491</ele>
        <time>2022-11-18T12:15:58Z</time>
      </trkpt>
      <trkpt lat="45.68255" lon="4.36318">
        <ele>490</ele>
        <time>2022-11-18T12:16:01Z</time>
      </trkpt>
      <trkpt lat="45.68239" lon="4.36323">
        <ele>491</ele>
        <time>2022-11-18T12:16:03Z</time>
      </trkpt>
      <trkpt lat="45.68222" lon="4.36323">
        <ele>492</ele>
        <time>2022-11-18T12:16:06Z</time>
      </trkpt>
      <trkpt lat="45.68201" lon="4.36314">
        <ele>493</ele>
        <time>2022-11-18T12:16:10Z</time>
      </trkpt>
      <trkpt lat="45.68179" lon="4.36301">
        <ele>494</ele>
        <time>2022-11-18T12:16:15Z</time>
      </trkpt>
      <trkpt lat="45.68166" lon="4.36289">
        <ele>494</ele>
        <time>2022-11-18T12:16:17Z</time>
      </trkpt>
      <trkpt lat="45.68156" lon="4.36273">
        <ele>494</ele>
        <time>2022-11-18T12:16:20Z</time>
      </trkpt>
      <trkpt lat="45.6815" lon="4.36251">
        <ele>493</ele>
        <time>2022-11-18T12:16:23Z</time>
      </trkpt>
      <trkpt lat="45.68149" lon="4.36229">
        <ele>494</ele>
        <time>2022-11-18T12:16:26Z</time>
      </trkpt>
      <trkpt lat="45.68152" lon="4.362">
        <ele>495</ele>
        <time>2022-11-18T12:16:29Z</time>
      </trkpt>
      <trkpt lat="45.68165" lon="4.36147">
        <ele>496</ele>
        <time>2022-11-18T12:16:36Z</time>
      </trkpt>
      <trkpt lat="45.68167" lon="4.36092">
        <ele>497</ele>
        <time>2022-11-18T12:16:43Z</time>
      </trkpt>
      <trkpt lat="45.68163" lon="4.36066">
        <ele>499</ele>
        <time>2022-11-18T12:16:46Z</time>
      </trkpt>
      <trkpt lat="45.68138" lon="4.35996">
        <ele>509</ele>
        <time>2022-11-18T12:16:56Z</time>
      </trkpt>
      <trkpt lat="45.68137" lon="4.3598">
        <ele>512</ele>
        <time>2022-11-18T12:16:58Z</time>
      </trkpt>
      <trkpt lat="45.68175" lon="4.35797">
        <ele>516</ele>
        <time>2022-11-18T12:17:22Z</time>
      </trkpt>
      <trkpt lat="45.68178" lon="4.35776">
        <ele>514</ele>
        <time>2022-11-18T12:17:25Z</time>
      </trkpt>
      <trkpt lat="45.68177" lon="4.35765">
        <ele>513</ele>
        <time>2022-11-18T12:17:26Z</time>
      </trkpt>
      <trkpt lat="45.68171" lon="4.35744">
        <ele>513</ele>
        <time>2022-11-18T12:17:29Z</time>
      </trkpt>
      <trkpt lat="45.68165" lon="4.35734">
        <ele>514</ele>
        <time>2022-11-18T12:17:30Z</time>
      </trkpt>
      <trkpt lat="45.68153" lon="4.3572">
        <ele>516</ele>
        <time>2022-11-18T12:17:33Z</time>
      </trkpt>
      <trkpt lat="45.68135" lon="4.35707">
        <ele>519</ele>
        <time>2022-11-18T12:17:37Z</time>
      </trkpt>
      <trkpt lat="45.68083" lon="4.35655">
        <ele>524</ele>
        <time>2022-11-18T12:17:48Z</time>
      </trkpt>
      <trkpt lat="45.68075" lon="4.35643">
        <ele>525</ele>
        <time>2022-11-18T12:17:50Z</time>
      </trkpt>
      <trkpt lat="45.68072" lon="4.35605">
        <ele>525</ele>
        <time>2022-11-18T12:17:55Z</time>
      </trkpt>
      <trkpt lat="45.68085" lon="4.35567">
        <ele>526</ele>
        <time>2022-11-18T12:18:00Z</time>
      </trkpt>
      <trkpt lat="45.68104" lon="4.35554">
        <ele>528</ele>
        <time>2022-11-18T12:18:04Z</time>
      </trkpt>
      <trkpt lat="45.6817" lon="4.35544">
        <ele>526</ele>
        <time>2022-11-18T12:18:16Z</time>
      </trkpt>
      <trkpt lat="45.68184" lon="4.35535">
        <ele>525</ele>
        <time>2022-11-18T12:18:18Z</time>
      </trkpt>
      <trkpt lat="45.68194" lon="4.35519">
        <ele>526</ele>
        <time>2022-11-18T12:18:21Z</time>
      </trkpt>
      <trkpt lat="45.68215" lon="4.35458">
        <ele>529</ele>
        <time>2022-11-18T12:18:30Z</time>
      </trkpt>
      <trkpt lat="45.68223" lon="4.35413">
        <ele>531</ele>
        <time>2022-11-18T12:18:35Z</time>
      </trkpt>
      <trkpt lat="45.68223" lon="4.35396">
        <ele>531</ele>
        <time>2022-11-18T12:18:37Z</time>
      </trkpt>
      <trkpt lat="45.68213" lon="4.35315">
        <ele>534</ele>
        <time>2022-11-18T12:18:48Z</time>
      </trkpt>
      <trkpt lat="45.68217" lon="4.35287">
        <ele>532</ele>
        <time>2022-11-18T12:18:51Z</time>
      </trkpt>
      <trkpt lat="45.68215" lon="4.3527">
        <ele>532</ele>
        <time>2022-11-18T12:18:53Z</time>
      </trkpt>
      <trkpt lat="45.6821" lon="4.35255">
        <ele>532</ele>
        <time>2022-11-18T12:18:55Z</time>
      </trkpt>
      <trkpt lat="45.68202" lon="4.35244">
        <ele>533</ele>
        <time>2022-11-18T12:18:57Z</time>
      </trkpt>
      <trkpt lat="45.68189" lon="4.35234">
        <ele>533</ele>
        <time>2022-11-18T12:19:00Z</time>
      </trkpt>
      <trkpt lat="45.68171" lon="4.3523">
        <ele>536</ele>
        <time>2022-11-18T12:19:03Z</time>
      </trkpt>
      <trkpt lat="45.68153" lon="4.35234">
        <ele>539</ele>
        <time>2022-11-18T12:19:07Z</time>
      </trkpt>
      <trkpt lat="45.68024" lon="4.35281">
        <ele>548</ele>
        <time>2022-11-18T12:19:30Z</time>
      </trkpt>
      <trkpt lat="45.67925" lon="4.35321">
        <ele>550</ele>
        <time>2022-11-18T12:19:49Z</time>
      </trkpt>
      <trkpt lat="45.67908" lon="4.35332">
        <ele>551</ele>
        <time>2022-11-18T12:19:52Z</time>
      </trkpt>
      <trkpt lat="45.67891" lon="4.35346">
        <ele>550</ele>
        <time>2022-11-18T12:19:55Z</time>
      </trkpt>
      <trkpt lat="45.67874" lon="4.35372">
        <ele>551</ele>
        <time>2022-11-18T12:20:00Z</time>
      </trkpt>
      <trkpt lat="45.6782" lon="4.35491">
        <ele>559</ele>
        <time>2022-11-18T12:20:17Z</time>
      </trkpt>
      <trkpt lat="45.67788" lon="4.35548">
        <ele>563</ele>
        <time>2022-11-18T12:20:27Z</time>
      </trkpt>
      <trkpt lat="45.67772" lon="4.35565">
        <ele>564</ele>
        <time>2022-11-18T12:20:30Z</time>
      </trkpt>
      <trkpt lat="45.67753" lon="4.35574">
        <ele>565</ele>
        <time>2022-11-18T12:20:34Z</time>
      </trkpt>
      <trkpt lat="45.67727" lon="4.35579">
        <ele>567</ele>
        <time>2022-11-18T12:20:38Z</time>
      </trkpt>
      <trkpt lat="45.67689" lon="4.3557">
        <ele>567</ele>
        <time>2022-11-18T12:20:45Z</time>
      </trkpt>
      <trkpt lat="45.67669" lon="4.35561">
        <ele>567</ele>
        <time>2022-11-18T12:20:49Z</time>
      </trkpt>
      <trkpt lat="45.67597" lon="4.35515">
        <ele>570</ele>
        <time>2022-11-18T12:21:03Z</time>
      </trkpt>
      <trkpt lat="45.67581" lon="4.3551">
        <ele>571</ele>
        <time>2022-11-18T12:21:06Z</time>
      </trkpt>
      <trkpt lat="45.67557" lon="4.35509">
        <ele>571</ele>
        <time>2022-11-18T12:21:10Z</time>
      </trkpt>
      <trkpt lat="45.67529" lon="4.35515">
        <ele>573</ele>
        <time>2022-11-18T12:21:15Z</time>
      </trkpt>
      <trkpt lat="45.67471" lon="4.35534">
        <ele>576</ele>
        <time>2022-11-18T12:21:26Z</time>
      </trkpt>
      <trkpt lat="45.67412" lon="4.3558">
        <ele>584</ele>
        <time>2022-11-18T12:21:38Z</time>
      </trkpt>
      <trkpt lat="45.67402" lon="4.35585">
        <ele>585</ele>
        <time>2022-11-18T12:21:40Z</time>
      </trkpt>
      <trkpt lat="45.6739" lon="4.35584">
        <ele>586</ele>
        <time>2022-11-18T12:21:42Z</time>
      </trkpt>
      <trkpt lat="45.67376" lon="4.35573">
        <ele>586</ele>
        <time>2022-11-18T12:21:45Z</time>
      </trkpt>
      <trkpt lat="45.67361" lon="4.35554">
        <ele>584</ele>
        <time>2022-11-18T12:21:48Z</time>
      </trkpt>
      <trkpt lat="45.67353" lon="4.35548">
        <ele>584</ele>
        <time>2022-11-18T12:21:50Z</time>
      </trkpt>
      <trkpt lat="45.67342" lon="4.35547">
        <ele>585</ele>
        <time>2022-11-18T12:21:52Z</time>
      </trkpt>
      <trkpt lat="45.67134" lon="4.35567">
        <ele>603</ele>
        <time>2022-11-18T12:22:29Z</time>
      </trkpt>
      <trkpt lat="45.67114" lon="4.35562">
        <ele>606</ele>
        <time>2022-11-18T12:22:32Z</time>
      </trkpt>
      <trkpt lat="45.67104" lon="4.35555">
        <ele>607</ele>
        <time>2022-11-18T12:22:34Z</time>
      </trkpt>
      <trkpt lat="45.67096" lon="4.35546">
        <ele>608</ele>
        <time>2022-11-18T12:22:36Z</time>
      </trkpt>
      <trkpt lat="45.67088" lon="4.35516">
        <ele>608</ele>
        <time>2022-11-18T12:22:40Z</time>
      </trkpt>
      <trkpt lat="45.67087" lon="4.35496">
        <ele>609</ele>
        <time>2022-11-18T12:22:43Z</time>
      </trkpt>
      <trkpt lat="45.6709" lon="4.35479">
        <ele>609</ele>
        <time>2022-11-18T12:22:45Z</time>
      </trkpt>
      <trkpt lat="45.67122" lon="4.35436">
        <ele>607</ele>
        <time>2022-11-18T12:22:53Z</time>
      </trkpt>
      <trkpt lat="45.67131" lon="4.35417">
        <ele>607</ele>
        <time>2022-11-18T12:22:55Z</time>
      </trkpt>
      <trkpt lat="45.67136" lon="4.35396">
        <ele>606</ele>
        <time>2022-11-18T12:22:58Z</time>
      </trkpt>
      <trkpt lat="45.67137" lon="4.35376">
        <ele>605</ele>
        <time>2022-11-18T12:23:01Z</time>
      </trkpt>
      <trkpt lat="45.67132" lon="4.35357">
        <ele>605</ele>
        <time>2022-11-18T12:23:03Z</time>
      </trkpt>
      <trkpt lat="45.67124" lon="4.35342">
        <ele>606</ele>
        <time>2022-11-18T12:23:06Z</time>
      </trkpt>
      <trkpt lat="45.67109" lon="4.35329">
        <ele>607</ele>
        <time>2022-11-18T12:23:09Z</time>
      </trkpt>
      <trkpt lat="45.67098" lon="4.35323">
        <ele>608</ele>
        <time>2022-11-18T12:23:11Z</time>
      </trkpt>
      <trkpt lat="45.67078" lon="4.35319">
        <ele>610</ele>
        <time>2022-11-18T12:23:14Z</time>
      </trkpt>
      <trkpt lat="45.67059" lon="4.35318">
        <ele>612</ele>
        <time>2022-11-18T12:23:18Z</time>
      </trkpt>
      <trkpt lat="45.67014" lon="4.35325">
        <ele>618</ele>
        <time>2022-11-18T12:23:26Z</time>
      </trkpt>
      <trkpt lat="45.66978" lon="4.3532">
        <ele>621</ele>
        <time>2022-11-18T12:23:32Z</time>
      </trkpt>
      <trkpt lat="45.66958" lon="4.35309">
        <ele>623</ele>
        <time>2022-11-18T12:23:36Z</time>
      </trkpt>
      <trkpt lat="45.66938" lon="4.35293">
        <ele>624</ele>
        <time>2022-11-18T12:23:40Z</time>
      </trkpt>
      <trkpt lat="45.66919" lon="4.35266">
        <ele>623</ele>
        <time>2022-11-18T12:23:45Z</time>
      </trkpt>
      <trkpt lat="45.66892" lon="4.35209">
        <ele>624</ele>
        <time>2022-11-18T12:23:54Z</time>
      </trkpt>
      <trkpt lat="45.66883" lon="4.35181">
        <ele>625</ele>
        <time>2022-11-18T12:23:57Z</time>
      </trkpt>
      <trkpt lat="45.66867" lon="4.35107">
        <ele>627</ele>
        <time>2022-11-18T12:24:07Z</time>
      </trkpt>
      <trkpt lat="45.66859" lon="4.35092">
        <ele>627</ele>
        <time>2022-11-18T12:24:09Z</time>
      </trkpt>
      <trkpt lat="45.66848" lon="4.35078">
        <ele>628</ele>
        <time>2022-11-18T12:24:12Z</time>
      </trkpt>
      <trkpt lat="45.66834" lon="4.35066">
        <ele>628</ele>
        <time>2022-11-18T12:24:15Z</time>
      </trkpt>
      <trkpt lat="45.66818" lon="4.35059">
        <ele>628</ele>
        <time>2022-11-18T12:24:18Z</time>
      </trkpt>
      <trkpt lat="45.668" lon="4.35058">
        <ele>628</ele>
        <time>2022-11-18T12:24:21Z</time>
      </trkpt>
      <trkpt lat="45.66572" lon="4.35067">
        <ele>627</ele>
        <time>2022-11-18T12:25:02Z</time>
      </trkpt>
      <trkpt lat="45.66537" lon="4.35082">
        <ele>627</ele>
        <time>2022-11-18T12:25:08Z</time>
      </trkpt>
      <trkpt lat="45.66508" lon="4.35101">
        <ele>628</ele>
        <time>2022-11-18T12:25:14Z</time>
      </trkpt>
      <trkpt lat="45.6649" lon="4.35116">
        <ele>628</ele>
        <time>2022-11-18T12:25:17Z</time>
      </trkpt>
      <trkpt lat="45.66468" lon="4.3514">
        <ele>629</ele>
        <time>2022-11-18T12:25:22Z</time>
      </trkpt>
      <trkpt lat="45.66417" lon="4.35164">
        <ele>628</ele>
        <time>2022-11-18T12:25:32Z</time>
      </trkpt>
      <trkpt lat="45.66405" lon="4.35164">
        <ele>627</ele>
        <time>2022-11-18T12:25:34Z</time>
      </trkpt>
      <trkpt lat="45.66336" lon="4.35153">
        <ele>624</ele>
        <time>2022-11-18T12:25:46Z</time>
      </trkpt>
      <trkpt lat="45.66311" lon="4.35152">
        <ele>625</ele>
        <time>2022-11-18T12:25:51Z</time>
      </trkpt>
      <trkpt lat="45.66233" lon="4.35161">
        <ele>626</ele>
        <time>2022-11-18T12:26:05Z</time>
      </trkpt>
      <trkpt lat="45.6609" lon="4.35164">
        <ele>621</ele>
        <time>2022-11-18T12:26:30Z</time>
      </trkpt>
      <trkpt lat="45.66074" lon="4.35167">
        <ele>620</ele>
        <time>2022-11-18T12:26:33Z</time>
      </trkpt>
      <trkpt lat="45.66063" lon="4.35174">
        <ele>618</ele>
        <time>2022-11-18T12:26:35Z</time>
      </trkpt>
      <trkpt lat="45.66055" lon="4.35187">
        <ele>617</ele>
        <time>2022-11-18T12:26:37Z</time>
      </trkpt>
      <trkpt lat="45.66049" lon="4.35204">
        <ele>616</ele>
        <time>2022-11-18T12:26:40Z</time>
      </trkpt>
      <trkpt lat="45.66047" lon="4.35236">
        <ele>615</ele>
        <time>2022-11-18T12:26:44Z</time>
      </trkpt>
      <trkpt lat="45.66056" lon="4.35276">
        <ele>613</ele>
        <time>2022-11-18T12:26:49Z</time>
      </trkpt>
      <trkpt lat="45.66071" lon="4.35312">
        <ele>611</ele>
        <time>2022-11-18T12:26:54Z</time>
      </trkpt>
      <trkpt lat="45.66112" lon="4.35384">
        <ele>605</ele>
        <time>2022-11-18T12:27:06Z</time>
      </trkpt>
      <trkpt lat="45.66142" lon="4.3543">
        <ele>601</ele>
        <time>2022-11-18T12:27:14Z</time>
      </trkpt>
      <trkpt lat="45.66157" lon="4.35446">
        <ele>600</ele>
        <time>2022-11-18T12:27:17Z</time>
      </trkpt>
      <trkpt lat="45.66169" lon="4.35454">
        <ele>600</ele>
        <time>2022-11-18T12:27:19Z</time>
      </trkpt>
      <trkpt lat="45.66225" lon="4.35471">
        <ele>597</ele>
        <time>2022-11-18T12:27:29Z</time>
      </trkpt>
      <trkpt lat="45.66242" lon="4.35481">
        <ele>596</ele>
        <time>2022-11-18T12:27:33Z</time>
      </trkpt>
      <trkpt lat="45.66257" lon="4.35494">
        <ele>595</ele>
        <time>2022-11-18T12:27:36Z</time>
      </trkpt>
      <trkpt lat="45.66269" lon="4.35512">
        <ele>595</ele>
        <time>2022-11-18T12:27:39Z</time>
      </trkpt>
      <trkpt lat="45.66277" lon="4.35528">
        <ele>594</ele>
        <time>2022-11-18T12:27:41Z</time>
      </trkpt>
      <trkpt lat="45.66323" lon="4.35672">
        <ele>591</ele>
        <time>2022-11-18T12:28:01Z</time>
      </trkpt>
      <trkpt lat="45.66326" lon="4.3569">
        <ele>591</ele>
        <time>2022-11-18T12:28:03Z</time>
      </trkpt>
      <trkpt lat="45.66324" lon="4.35726">
        <ele>593</ele>
        <time>2022-11-18T12:28:08Z</time>
      </trkpt>
      <trkpt lat="45.66318" lon="4.3574">
        <ele>593</ele>
        <time>2022-11-18T12:28:10Z</time>
      </trkpt>
      <trkpt lat="45.66308" lon="4.35754">
        <ele>594</ele>
        <time>2022-11-18T12:28:12Z</time>
      </trkpt>
      <trkpt lat="45.66291" lon="4.35766">
        <ele>596</ele>
        <time>2022-11-18T12:28:16Z</time>
      </trkpt>
      <trkpt lat="45.66252" lon="4.35779">
        <ele>598</ele>
        <time>2022-11-18T12:28:23Z</time>
      </trkpt>
      <trkpt lat="45.66236" lon="4.35788">
        <ele>598</ele>
        <time>2022-11-18T12:28:26Z</time>
      </trkpt>
      <trkpt lat="45.66227" lon="4.35796">
        <ele>599</ele>
        <time>2022-11-18T12:28:28Z</time>
      </trkpt>
      <trkpt lat="45.66201" lon="4.35851">
        <ele>605</ele>
        <time>2022-11-18T12:28:36Z</time>
      </trkpt>
      <trkpt lat="45.6619" lon="4.35861">
        <ele>605</ele>
        <time>2022-11-18T12:28:38Z</time>
      </trkpt>
      <trkpt lat="45.66178" lon="4.35867">
        <ele>606</ele>
        <time>2022-11-18T12:28:41Z</time>
      </trkpt>
      <trkpt lat="45.66161" lon="4.35868">
        <ele>605</ele>
        <time>2022-11-18T12:28:44Z</time>
      </trkpt>
      <trkpt lat="45.66125" lon="4.35861">
        <ele>607</ele>
        <time>2022-11-18T12:28:50Z</time>
      </trkpt>
      <trkpt lat="45.66085" lon="4.35859">
        <ele>609</ele>
        <time>2022-11-18T12:28:57Z</time>
      </trkpt>
      <trkpt lat="45.66061" lon="4.35867">
        <ele>611</ele>
        <time>2022-11-18T12:29:02Z</time>
      </trkpt>
      <trkpt lat="45.66032" lon="4.3589">
        <ele>614</ele>
        <time>2022-11-18T12:29:08Z</time>
      </trkpt>
      <trkpt lat="45.65973" lon="4.35957">
        <ele>612</ele>
        <time>2022-11-18T12:29:21Z</time>
      </trkpt>
      <trkpt lat="45.65954" lon="4.35989">
        <ele>607</ele>
        <time>2022-11-18T12:29:26Z</time>
      </trkpt>
      <trkpt lat="45.6594" lon="4.36033">
        <ele>604</ele>
        <time>2022-11-18T12:29:32Z</time>
      </trkpt>
      <trkpt lat="45.65927" lon="4.36102">
        <ele>602</ele>
        <time>2022-11-18T12:29:41Z</time>
      </trkpt>
      <trkpt lat="45.65919" lon="4.36128">
        <ele>602</ele>
        <time>2022-11-18T12:29:45Z</time>
      </trkpt>
      <trkpt lat="45.6591" lon="4.36147">
        <ele>601</ele>
        <time>2022-11-18T12:29:48Z</time>
      </trkpt>
      <trkpt lat="45.65898" lon="4.36161">
        <ele>600</ele>
        <time>2022-11-18T12:29:50Z</time>
      </trkpt>
      <trkpt lat="45.65756" lon="4.36274">
        <ele>589</ele>
        <time>2022-11-18T12:30:19Z</time>
      </trkpt>
      <trkpt lat="45.65722" lon="4.36311">
        <ele>587</ele>
        <time>2022-11-18T12:30:27Z</time>
      </trkpt>
      <trkpt lat="45.65702" lon="4.36359">
        <ele>586</ele>
        <time>2022-11-18T12:30:34Z</time>
      </trkpt>
      <trkpt lat="45.65679" lon="4.36441">
        <ele>581</ele>
        <time>2022-11-18T12:30:45Z</time>
      </trkpt>
      <trkpt lat="45.65672" lon="4.36457">
        <ele>580</ele>
        <time>2022-11-18T12:30:47Z</time>
      </trkpt>
      <trkpt lat="45.6566" lon="4.36474">
        <ele>579</ele>
        <time>2022-11-18T12:30:50Z</time>
      </trkpt>
      <trkpt lat="45.65647" lon="4.36487">
        <ele>577</ele>
        <time>2022-11-18T12:30:53Z</time>
      </trkpt>
      <trkpt lat="45.65635" lon="4.36494">
        <ele>576</ele>
        <time>2022-11-18T12:30:55Z</time>
      </trkpt>
      <trkpt lat="45.65538" lon="4.36519">
        <ele>567</ele>
        <time>2022-11-18T12:31:13Z</time>
      </trkpt>
      <trkpt lat="45.65395" lon="4.366">
        <ele>558</ele>
        <time>2022-11-18T12:31:40Z</time>
      </trkpt>
      <trkpt lat="45.65376" lon="4.36619">
        <ele>557</ele>
        <time>2022-11-18T12:31:44Z</time>
      </trkpt>
      <trkpt lat="45.6537" lon="4.36631">
        <ele>556</ele>
        <time>2022-11-18T12:31:46Z</time>
      </trkpt>
      <trkpt lat="45.65366" lon="4.36645">
        <ele>556</ele>
        <time>2022-11-18T12:31:48Z</time>
      </trkpt>
      <trkpt lat="45.65358" lon="4.36702">
        <ele>552</ele>
        <time>2022-11-18T12:31:55Z</time>
      </trkpt>
      <trkpt lat="45.6534" lon="4.36769">
        <ele>547</ele>
        <time>2022-11-18T12:32:04Z</time>
      </trkpt>
      <trkpt lat="45.65334" lon="4.36817">
        <ele>546</ele>
        <time>2022-11-18T12:32:10Z</time>
      </trkpt>
      <trkpt lat="45.65338" lon="4.36857">
        <ele>547</ele>
        <time>2022-11-18T12:32:15Z</time>
      </trkpt>
      <trkpt lat="45.65349" lon="4.3686">
        <ele>546</ele>
        <time>2022-11-18T12:32:17Z</time>
      </trkpt>
      <trkpt lat="45.65352" lon="4.3688">
        <ele>547</ele>
        <time>2022-11-18T12:32:20Z</time>
      </trkpt>
      <trkpt lat="45.65367" lon="4.36909">
        <ele>547</ele>
        <time>2022-11-18T12:32:24Z</time>
      </trkpt>
      <trkpt lat="45.65374" lon="4.3698">
        <ele>550</ele>
        <time>2022-11-18T12:32:33Z</time>
      </trkpt>
      <trkpt lat="45.65379" lon="4.37159">
        <ele>552</ele>
        <time>2022-11-18T12:32:55Z</time>
      </trkpt>
      <trkpt lat="45.65372" lon="4.37285">
        <ele>556</ele>
        <time>2022-11-18T12:33:11Z</time>
      </trkpt>
      <trkpt lat="45.65364" lon="4.37339">
        <ele>557</ele>
        <time>2022-11-18T12:33:18Z</time>
      </trkpt>
      <trkpt lat="45.65346" lon="4.37404">
        <ele>561</ele>
        <time>2022-11-18T12:33:27Z</time>
      </trkpt>
      <trkpt lat="45.65323" lon="4.37455">
        <ele>563</ele>
        <time>2022-11-18T12:33:34Z</time>
      </trkpt>
      <trkpt lat="45.65293" lon="4.37504">
        <ele>565</ele>
        <time>2022-11-18T12:33:42Z</time>
      </trkpt>
      <trkpt lat="45.65242" lon="4.37575">
        <ele>565</ele>
        <time>2022-11-18T12:33:55Z</time>
      </trkpt>
      <trkpt lat="45.65232" lon="4.37597">
        <ele>564</ele>
        <time>2022-11-18T12:33:58Z</time>
      </trkpt>
      <trkpt lat="45.65222" lon="4.37639">
        <ele>563</ele>
        <time>2022-11-18T12:34:04Z</time>
      </trkpt>
      <trkpt lat="45.65208" lon="4.3779">
        <ele>559</ele>
        <time>2022-11-18T12:34:23Z</time>
      </trkpt>
      <trkpt lat="45.65205" lon="4.37807">
        <ele>559</ele>
        <time>2022-11-18T12:34:25Z</time>
      </trkpt>
      <trkpt lat="45.65195" lon="4.37831">
        <ele>558</ele>
        <time>2022-11-18T12:34:28Z</time>
      </trkpt>
      <trkpt lat="45.65173" lon="4.37852">
        <ele>556</ele>
        <time>2022-11-18T12:34:33Z</time>
      </trkpt>
      <trkpt lat="45.6512" lon="4.37867">
        <ele>552</ele>
        <time>2022-11-18T12:34:43Z</time>
      </trkpt>
      <trkpt lat="45.65109" lon="4.37873">
        <ele>551</ele>
        <time>2022-11-18T12:34:45Z</time>
      </trkpt>
      <trkpt lat="45.65098" lon="4.37886">
        <ele>551</ele>
        <time>2022-11-18T12:34:47Z</time>
      </trkpt>
      <trkpt lat="45.65091" lon="4.37909">
        <ele>550</ele>
        <time>2022-11-18T12:34:50Z</time>
      </trkpt>
      <trkpt lat="45.65108" lon="4.38142">
        <ele>549</ele>
        <time>2022-11-18T12:35:20Z</time>
      </trkpt>
      <trkpt lat="45.65107" lon="4.38172">
        <ele>550</ele>
        <time>2022-11-18T12:35:23Z</time>
      </trkpt>
      <trkpt lat="45.65097" lon="4.38202">
        <ele>550</ele>
        <time>2022-11-18T12:35:27Z</time>
      </trkpt>
      <trkpt lat="45.65091" lon="4.3821">
        <ele>550</ele>
        <time>2022-11-18T12:35:29Z</time>
      </trkpt>
      <trkpt lat="45.65069" lon="4.38223">
        <ele>550</ele>
        <time>2022-11-18T12:35:33Z</time>
      </trkpt>
      <trkpt lat="45.65043" lon="4.38233">
        <ele>551</ele>
        <time>2022-11-18T12:35:38Z</time>
      </trkpt>
      <trkpt lat="45.65033" lon="4.38233">
        <ele>551</ele>
        <time>2022-11-18T12:35:40Z</time>
      </trkpt>
      <trkpt lat="45.65016" lon="4.38224">
        <ele>551</ele>
        <time>2022-11-18T12:35:43Z</time>
      </trkpt>
      <trkpt lat="45.65007" lon="4.38209">
        <ele>551</ele>
        <time>2022-11-18T12:35:45Z</time>
      </trkpt>
      <trkpt lat="45.65005" lon="4.38201">
        <ele>551</ele>
        <time>2022-11-18T12:35:46Z</time>
      </trkpt>
      <trkpt lat="45.65007" lon="4.38124">
        <ele>549</ele>
        <time>2022-11-18T12:35:56Z</time>
      </trkpt>
      <trkpt lat="45.65005" lon="4.38105">
        <ele>549</ele>
        <time>2022-11-18T12:35:58Z</time>
      </trkpt>
      <trkpt lat="45.64998" lon="4.38077">
        <ele>549</ele>
        <time>2022-11-18T12:36:02Z</time>
      </trkpt>
      <trkpt lat="45.64987" lon="4.38049">
        <ele>549</ele>
        <time>2022-11-18T12:36:06Z</time>
      </trkpt>
      <trkpt lat="45.6496" lon="4.37994">
        <ele>551</ele>
        <time>2022-11-18T12:36:14Z</time>
      </trkpt>
      <trkpt lat="45.64926" lon="4.37941">
        <ele>552</ele>
        <time>2022-11-18T12:36:23Z</time>
      </trkpt>
      <trkpt lat="45.64889" lon="4.37919">
        <ele>552</ele>
        <time>2022-11-18T12:36:31Z</time>
      </trkpt>
      <trkpt lat="45.64865" lon="4.37912">
        <ele>552</ele>
        <time>2022-11-18T12:36:35Z</time>
      </trkpt>
      <trkpt lat="45.64837" lon="4.37912">
        <ele>553</ele>
        <time>2022-11-18T12:36:40Z</time>
      </trkpt>
      <trkpt lat="45.64767" lon="4.37942">
        <ele>555</ele>
        <time>2022-11-18T12:36:53Z</time>
      </trkpt>
      <trkpt lat="45.64751" lon="4.37955">
        <ele>556</ele>
        <time>2022-11-18T12:36:56Z</time>
      </trkpt>
      <trkpt lat="45.64739" lon="4.3797">
        <ele>557</ele>
        <time>2022-11-18T12:36:59Z</time>
      </trkpt>
      <trkpt lat="45.64728" lon="4.37993">
        <ele>558</ele>
        <time>2022-11-18T12:37:02Z</time>
      </trkpt>
      <trkpt lat="45.64714" lon="4.3805">
        <ele>563</ele>
        <time>2022-11-18T12:37:10Z</time>
      </trkpt>
      <trkpt lat="45.64703" lon="4.38075">
        <ele>565</ele>
        <time>2022-11-18T12:37:14Z</time>
      </trkpt>
      <trkpt lat="45.64689" lon="4.38095">
        <ele>565</ele>
        <time>2022-11-18T12:37:17Z</time>
      </trkpt>
      <trkpt lat="45.64595" lon="4.38191">
        <ele>567</ele>
        <time>2022-11-18T12:37:38Z</time>
      </trkpt>
      <trkpt lat="45.64583" lon="4.3821">
        <ele>568</ele>
        <time>2022-11-18T12:37:41Z</time>
      </trkpt>
      <trkpt lat="45.64572" lon="4.38236">
        <ele>570</ele>
        <time>2022-11-18T12:37:45Z</time>
      </trkpt>
      <trkpt lat="45.64565" lon="4.38264">
        <ele>571</ele>
        <time>2022-11-18T12:37:48Z</time>
      </trkpt>
      <trkpt lat="45.64562" lon="4.38295">
        <ele>573</ele>
        <time>2022-11-18T12:37:52Z</time>
      </trkpt>
      <trkpt lat="45.64557" lon="4.38316">
        <ele>573</ele>
        <time>2022-11-18T12:37:55Z</time>
      </trkpt>
      <trkpt lat="45.64547" lon="4.38336">
        <ele>573</ele>
        <time>2022-11-18T12:37:58Z</time>
      </trkpt>
      <trkpt lat="45.64506" lon="4.38394">
        <ele>576</ele>
        <time>2022-11-18T12:38:08Z</time>
      </trkpt>
      <trkpt lat="45.64496" lon="4.38414">
        <ele>577</ele>
        <time>2022-11-18T12:38:11Z</time>
      </trkpt>
      <trkpt lat="45.6446" lon="4.38514">
        <ele>582</ele>
        <time>2022-11-18T12:38:25Z</time>
      </trkpt>
      <trkpt lat="45.64449" lon="4.38538">
        <ele>583</ele>
        <time>2022-11-18T12:38:29Z</time>
      </trkpt>
      <trkpt lat="45.64425" lon="4.3858">
        <ele>583</ele>
        <time>2022-11-18T12:38:36Z</time>
      </trkpt>
      <trkpt lat="45.64358" lon="4.38725">
        <ele>590</ele>
        <time>2022-11-18T12:38:57Z</time>
      </trkpt>
      <trkpt lat="45.6429" lon="4.38848">
        <ele>595</ele>
        <time>2022-11-18T12:39:17Z</time>
      </trkpt>
      <trkpt lat="45.64231" lon="4.39021">
        <ele>601</ele>
        <time>2022-11-18T12:39:41Z</time>
      </trkpt>
      <trkpt lat="45.64173" lon="4.39041">
        <ele>601</ele>
        <time>2022-11-18T12:39:51Z</time>
      </trkpt>
      <trkpt lat="45.6415" lon="4.39057">
        <ele>602</ele>
        <time>2022-11-18T12:39:56Z</time>
      </trkpt>
      <trkpt lat="45.64114" lon="4.39071">
        <ele>604</ele>
        <time>2022-11-18T12:40:03Z</time>
      </trkpt>
      <trkpt lat="45.64072" lon="4.39076">
        <ele>606</ele>
        <time>2022-11-18T12:40:10Z</time>
      </trkpt>
      <trkpt lat="45.64027" lon="4.3906">
        <ele>607</ele>
        <time>2022-11-18T12:40:18Z</time>
      </trkpt>
      <trkpt lat="45.63967" lon="4.39073">
        <ele>610</ele>
        <time>2022-11-18T12:40:29Z</time>
      </trkpt>
      <trkpt lat="45.63958" lon="4.39077">
        <ele>611</ele>
        <time>2022-11-18T12:40:31Z</time>
      </trkpt>
      <trkpt lat="45.63938" lon="4.3906">
        <ele>611</ele>
        <time>2022-11-18T12:40:35Z</time>
      </trkpt>
      <trkpt lat="45.63928" lon="4.39035">
        <ele>610</ele>
        <time>2022-11-18T12:40:39Z</time>
      </trkpt>
      <trkpt lat="45.63904" lon="4.38954">
        <ele>609</ele>
        <time>2022-11-18T12:40:50Z</time>
      </trkpt>
      <trkpt lat="45.63895" lon="4.38935">
        <ele>609</ele>
        <time>2022-11-18T12:40:52Z</time>
      </trkpt>
      <trkpt lat="45.63875" lon="4.38928">
        <ele>611</ele>
        <time>2022-11-18T12:40:56Z</time>
      </trkpt>
      <trkpt lat="45.63832" lon="4.3892">
        <ele>614</ele>
        <time>2022-11-18T12:41:04Z</time>
      </trkpt>
      <trkpt lat="45.63805" lon="4.38911">
        <ele>615</ele>
        <time>2022-11-18T12:41:09Z</time>
      </trkpt>
      <trkpt lat="45.63774" lon="4.38843">
        <ele>615</ele>
        <time>2022-11-18T12:41:19Z</time>
      </trkpt>
      <trkpt lat="45.63734" lon="4.38821">
        <ele>614</ele>
        <time>2022-11-18T12:41:26Z</time>
      </trkpt>
      <trkpt lat="45.63722" lon="4.38819">
        <ele>613</ele>
        <time>2022-11-18T12:41:29Z</time>
      </trkpt>
      <trkpt lat="45.63687" lon="4.38826">
        <ele>612</ele>
        <time>2022-11-18T12:41:35Z</time>
      </trkpt>
      <trkpt lat="45.63682" lon="4.38825">
        <ele>612</ele>
        <time>2022-11-18T12:41:36Z</time>
      </trkpt>
      <trkpt lat="45.63673" lon="4.38811">
        <ele>611</ele>
        <time>2022-11-18T12:41:38Z</time>
      </trkpt>
      <trkpt lat="45.63666" lon="4.38817">
        <ele>611</ele>
        <time>2022-11-18T12:41:40Z</time>
      </trkpt>
      <trkpt lat="45.63662" lon="4.38816">
        <ele>611</ele>
        <time>2022-11-18T12:41:40Z</time>
      </trkpt>
      <trkpt lat="45.63656" lon="4.38808">
        <ele>611</ele>
        <time>2022-11-18T12:41:42Z</time>
      </trkpt>
      <trkpt lat="45.63651" lon="4.38811">
        <ele>611</ele>
        <time>2022-11-18T12:41:43Z</time>
      </trkpt>
      <trkpt lat="45.63645" lon="4.38809">
        <ele>611</ele>
        <time>2022-11-18T12:41:44Z</time>
      </trkpt>
      <trkpt lat="45.63544" lon="4.38702">
        <ele>608</ele>
        <time>2022-11-18T12:42:06Z</time>
      </trkpt>
      <trkpt lat="45.63512" lon="4.38671">
        <ele>607</ele>
        <time>2022-11-18T12:42:13Z</time>
      </trkpt>
      <trkpt lat="45.63458" lon="4.38639">
        <ele>606</ele>
        <time>2022-11-18T12:42:23Z</time>
      </trkpt>
      <trkpt lat="45.63351" lon="4.38591">
        <ele>602</ele>
        <time>2022-11-18T12:42:43Z</time>
      </trkpt>
      <trkpt lat="45.6326" lon="4.3852">
        <ele>593</ele>
        <time>2022-11-18T12:43:02Z</time>
      </trkpt>
      <trkpt lat="45.63236" lon="4.38491">
        <ele>590</ele>
        <time>2022-11-18T12:43:07Z</time>
      </trkpt>
      <trkpt lat="45.63183" lon="4.38413">
        <ele>580</ele>
        <time>2022-11-18T12:43:21Z</time>
      </trkpt>
      <trkpt lat="45.63158" lon="4.38383">
        <ele>578</ele>
        <time>2022-11-18T12:43:27Z</time>
      </trkpt>
      <trkpt lat="45.63125" lon="4.38361">
        <ele>576</ele>
        <time>2022-11-18T12:43:33Z</time>
      </trkpt>
      <trkpt lat="45.63105" lon="4.38352">
        <ele>574</ele>
        <time>2022-11-18T12:43:37Z</time>
      </trkpt>
      <trkpt lat="45.63086" lon="4.38348">
        <ele>573</ele>
        <time>2022-11-18T12:43:40Z</time>
      </trkpt>
      <trkpt lat="45.63047" lon="4.38344">
        <ele>571</ele>
        <time>2022-11-18T12:43:47Z</time>
      </trkpt>
      <trkpt lat="45.62932" lon="4.38341">
        <ele>565</ele>
        <time>2022-11-18T12:44:08Z</time>
      </trkpt>
      <trkpt lat="45.62894" lon="4.38337">
        <ele>562</ele>
        <time>2022-11-18T12:44:15Z</time>
      </trkpt>
      <trkpt lat="45.62866" lon="4.38327">
        <ele>560</ele>
        <time>2022-11-18T12:44:20Z</time>
      </trkpt>
      <trkpt lat="45.62843" lon="4.38312">
        <ele>558</ele>
        <time>2022-11-18T12:44:24Z</time>
      </trkpt>
      <trkpt lat="45.62756" lon="4.38219">
        <ele>553</ele>
        <time>2022-11-18T12:44:44Z</time>
      </trkpt>
      <trkpt lat="45.62725" lon="4.38194">
        <ele>551</ele>
        <time>2022-11-18T12:44:50Z</time>
      </trkpt>
      <trkpt lat="45.62676" lon="4.38176">
        <ele>548</ele>
        <time>2022-11-18T12:44:59Z</time>
      </trkpt>
      <trkpt lat="45.62509" lon="4.38143">
        <ele>538</ele>
        <time>2022-11-18T12:45:29Z</time>
      </trkpt>
      <trkpt lat="45.62347" lon="4.38085">
        <ele>533</ele>
        <time>2022-11-18T12:45:59Z</time>
      </trkpt>
      <trkpt lat="45.62319" lon="4.38079">
        <ele>532</ele>
        <time>2022-11-18T12:46:04Z</time>
      </trkpt>
      <trkpt lat="45.62247" lon="4.3808">
        <ele>529</ele>
        <time>2022-11-18T12:46:16Z</time>
      </trkpt>
      <trkpt lat="45.62218" lon="4.38074">
        <ele>527</ele>
        <time>2022-11-18T12:46:22Z</time>
      </trkpt>
      <trkpt lat="45.62182" lon="4.38057">
        <ele>525</ele>
        <time>2022-11-18T12:46:28Z</time>
      </trkpt>
      <trkpt lat="45.62159" lon="4.38034">
        <ele>524</ele>
        <time>2022-11-18T12:46:33Z</time>
      </trkpt>
      <trkpt lat="45.62131" lon="4.38">
        <ele>522</ele>
        <time>2022-11-18T12:46:40Z</time>
      </trkpt>
      <trkpt lat="45.62109" lon="4.37981">
        <ele>521</ele>
        <time>2022-11-18T12:46:45Z</time>
      </trkpt>
      <trkpt lat="45.62025" lon="4.37918">
        <ele>516</ele>
        <time>2022-11-18T12:47:01Z</time>
      </trkpt>
      <trkpt lat="45.61983" lon="4.37898">
        <ele>513</ele>
        <time>2022-11-18T12:47:09Z</time>
      </trkpt>
      <trkpt lat="45.61918" lon="4.37874">
        <ele>510</ele>
        <time>2022-11-18T12:47:21Z</time>
      </trkpt>
      <trkpt lat="45.6188" lon="4.37852">
        <ele>508</ele>
        <time>2022-11-18T12:47:29Z</time>
      </trkpt>
      <trkpt lat="45.61862" lon="4.37832">
        <ele>507</ele>
        <time>2022-11-18T12:47:33Z</time>
      </trkpt>
      <trkpt lat="45.61844" lon="4.37792">
        <ele>506</ele>
        <time>2022-11-18T12:47:38Z</time>
      </trkpt>
      <trkpt lat="45.61806" lon="4.37664">
        <ele>502</ele>
        <time>2022-11-18T12:47:56Z</time>
      </trkpt>
      <trkpt lat="45.61785" lon="4.37516">
        <ele>496</ele>
        <time>2022-11-18T12:48:15Z</time>
      </trkpt>
      <trkpt lat="45.61769" lon="4.3747">
        <ele>492</ele>
        <time>2022-11-18T12:48:21Z</time>
      </trkpt>
      <trkpt lat="45.61749" lon="4.37431">
        <ele>489</ele>
        <time>2022-11-18T12:48:27Z</time>
      </trkpt>
      <trkpt lat="45.61728" lon="4.37406">
        <ele>487</ele>
        <time>2022-11-18T12:48:32Z</time>
      </trkpt>
      <trkpt lat="45.6171" lon="4.3739">
        <ele>485</ele>
        <time>2022-11-18T12:48:36Z</time>
      </trkpt>
      <trkpt lat="45.61686" lon="4.37374">
        <ele>483</ele>
        <time>2022-11-18T12:48:40Z</time>
      </trkpt>
      <trkpt lat="45.61515" lon="4.37313">
        <ele>475</ele>
        <time>2022-11-18T12:49:12Z</time>
      </trkpt>
      <trkpt lat="45.61473" lon="4.37303">
        <ele>472</ele>
        <time>2022-11-18T12:49:19Z</time>
      </trkpt>
      <trkpt lat="45.61443" lon="4.37306">
        <ele>470</ele>
        <time>2022-11-18T12:49:25Z</time>
      </trkpt>
      <trkpt lat="45.61412" lon="4.37316">
        <ele>469</ele>
        <time>2022-11-18T12:49:30Z</time>
      </trkpt>
      <trkpt lat="45.61322" lon="4.37366">
        <ele>465</ele>
        <time>2022-11-18T12:49:47Z</time>
      </trkpt>
      <trkpt lat="45.61175" lon="4.37392">
        <ele>454</ele>
        <time>2022-11-18T12:50:14Z</time>
      </trkpt>
      <trkpt lat="45.61108" lon="4.37426">
        <ele>450</ele>
        <time>2022-11-18T12:50:26Z</time>
      </trkpt>
      <trkpt lat="45.60921" lon="4.37558">
        <ele>435</ele>
        <time>2022-11-18T12:51:04Z</time>
      </trkpt>
      <trkpt lat="45.60894" lon="4.37566">
        <ele>434</ele>
        <time>2022-11-18T12:51:08Z</time>
      </trkpt>
      <trkpt lat="45.60762" lon="4.37538">
        <ele>435</ele>
        <time>2022-11-18T12:51:32Z</time>
      </trkpt>
      <trkpt lat="45.60739" lon="4.37535">
        <ele>437</ele>
        <time>2022-11-18T12:51:36Z</time>
      </trkpt>
      <trkpt lat="45.60715" lon="4.37543">
        <ele>440</ele>
        <time>2022-11-18T12:51:41Z</time>
      </trkpt>
      <trkpt lat="45.60692" lon="4.37562">
        <ele>442</ele>
        <time>2022-11-18T12:51:45Z</time>
      </trkpt>
      <trkpt lat="45.60625" lon="4.3764">
        <ele>448</ele>
        <time>2022-11-18T12:52:01Z</time>
      </trkpt>
      <trkpt lat="45.60592" lon="4.37669">
        <ele>449</ele>
        <time>2022-11-18T12:52:08Z</time>
      </trkpt>
      <trkpt lat="45.60531" lon="4.3771">
        <ele>450</ele>
        <time>2022-11-18T12:52:20Z</time>
      </trkpt>
      <trkpt lat="45.60468" lon="4.37738">
        <ele>452</ele>
        <time>2022-11-18T12:52:31Z</time>
      </trkpt>
      <trkpt lat="45.60413" lon="4.37751">
        <ele>456</ele>
        <time>2022-11-18T12:52:41Z</time>
      </trkpt>
      <trkpt lat="45.60394" lon="4.37751">
        <ele>458</ele>
        <time>2022-11-18T12:52:45Z</time>
      </trkpt>
      <trkpt lat="45.60315" lon="4.37731">
        <ele>467</ele>
        <time>2022-11-18T12:52:59Z</time>
      </trkpt>
      <trkpt lat="45.60295" lon="4.37734">
        <ele>471</ele>
        <time>2022-11-18T12:53:03Z</time>
      </trkpt>
      <trkpt lat="45.60279" lon="4.37745">
        <ele>473</ele>
        <time>2022-11-18T12:53:06Z</time>
      </trkpt>
      <trkpt lat="45.60268" lon="4.37759">
        <ele>474</ele>
        <time>2022-11-18T12:53:08Z</time>
      </trkpt>
      <trkpt lat="45.60259" lon="4.37779">
        <ele>475</ele>
        <time>2022-11-18T12:53:11Z</time>
      </trkpt>
      <trkpt lat="45.6023" lon="4.37911">
        <ele>476</ele>
        <time>2022-11-18T12:53:29Z</time>
      </trkpt>
      <trkpt lat="45.60206" lon="4.37967">
        <ele>482</ele>
        <time>2022-11-18T12:53:37Z</time>
      </trkpt>
      <trkpt lat="45.60151" lon="4.38058">
        <ele>489</ele>
        <time>2022-11-18T12:53:52Z</time>
      </trkpt>
      <trkpt lat="45.60089" lon="4.38128">
        <ele>495</ele>
        <time>2022-11-18T12:54:06Z</time>
      </trkpt>
      <trkpt lat="45.6008" lon="4.38144">
        <ele>495</ele>
        <time>2022-11-18T12:54:08Z</time>
      </trkpt>
      <trkpt lat="45.60074" lon="4.38162">
        <ele>495</ele>
        <time>2022-11-18T12:54:11Z</time>
      </trkpt>
      <trkpt lat="45.60072" lon="4.38185">
        <ele>496</ele>
        <time>2022-11-18T12:54:14Z</time>
      </trkpt>
      <trkpt lat="45.60075" lon="4.38206">
        <ele>496</ele>
        <time>2022-11-18T12:54:16Z</time>
      </trkpt>
      <trkpt lat="45.60082" lon="4.38224">
        <ele>496</ele>
        <time>2022-11-18T12:54:19Z</time>
      </trkpt>
      <trkpt lat="45.60105" lon="4.38244">
        <ele>498</ele>
        <time>2022-11-18T12:54:24Z</time>
      </trkpt>
      <trkpt lat="45.60119" lon="4.38246">
        <ele>498</ele>
        <time>2022-11-18T12:54:26Z</time>
      </trkpt>
      <trkpt lat="45.60199" lon="4.38222">
        <ele>498</ele>
        <time>2022-11-18T12:54:41Z</time>
      </trkpt>
      <trkpt lat="45.60214" lon="4.38221">
        <ele>499</ele>
        <time>2022-11-18T12:54:43Z</time>
      </trkpt>
      <trkpt lat="45.60231" lon="4.38224">
        <ele>500</ele>
        <time>2022-11-18T12:54:46Z</time>
      </trkpt>
      <trkpt lat="45.60244" lon="4.38232">
        <ele>501</ele>
        <time>2022-11-18T12:54:49Z</time>
      </trkpt>
      <trkpt lat="45.60257" lon="4.38244">
        <ele>503</ele>
        <time>2022-11-18T12:54:52Z</time>
      </trkpt>
      <trkpt lat="45.6027" lon="4.3827">
        <ele>505</ele>
        <time>2022-11-18T12:54:56Z</time>
      </trkpt>
      <trkpt lat="45.60277" lon="4.38291">
        <ele>507</ele>
        <time>2022-11-18T12:54:59Z</time>
      </trkpt>
      <trkpt lat="45.6029" lon="4.38374">
        <ele>513</ele>
        <time>2022-11-18T12:55:09Z</time>
      </trkpt>
      <trkpt lat="45.60293" lon="4.38412">
        <ele>515</ele>
        <time>2022-11-18T12:55:14Z</time>
      </trkpt>
      <trkpt lat="45.60292" lon="4.3844">
        <ele>515</ele>
        <time>2022-11-18T12:55:17Z</time>
      </trkpt>
      <trkpt lat="45.60288" lon="4.38465">
        <ele>515</ele>
        <time>2022-11-18T12:55:21Z</time>
      </trkpt>
      <trkpt lat="45.60273" lon="4.38504">
        <ele>516</ele>
        <time>2022-11-18T12:55:26Z</time>
      </trkpt>
      <trkpt lat="45.6026" lon="4.38524">
        <ele>515</ele>
        <time>2022-11-18T12:55:30Z</time>
      </trkpt>
      <trkpt lat="45.60235" lon="4.38548">
        <ele>515</ele>
        <time>2022-11-18T12:55:35Z</time>
      </trkpt>
      <trkpt lat="45.59941" lon="4.38749">
        <ele>529</ele>
        <time>2022-11-18T12:56:33Z</time>
      </trkpt>
      <trkpt lat="45.59913" lon="4.38762">
        <ele>529</ele>
        <time>2022-11-18T12:56:38Z</time>
      </trkpt>
      <trkpt lat="45.59888" lon="4.3877">
        <ele>530</ele>
        <time>2022-11-18T12:56:43Z</time>
      </trkpt>
      <trkpt lat="45.59858" lon="4.38775">
        <ele>532</ele>
        <time>2022-11-18T12:56:48Z</time>
      </trkpt>
      <trkpt lat="45.59828" lon="4.38772">
        <ele>534</ele>
        <time>2022-11-18T12:56:53Z</time>
      </trkpt>
      <trkpt lat="45.59802" lon="4.38764">
        <ele>536</ele>
        <time>2022-11-18T12:56:58Z</time>
      </trkpt>
      <trkpt lat="45.59778" lon="4.38749">
        <ele>537</ele>
        <time>2022-11-18T12:57:03Z</time>
      </trkpt>
      <trkpt lat="45.59747" lon="4.38717">
        <ele>539</ele>
        <time>2022-11-18T12:57:10Z</time>
      </trkpt>
      <trkpt lat="45.59727" lon="4.38685">
        <ele>542</ele>
        <time>2022-11-18T12:57:15Z</time>
      </trkpt>
      <trkpt lat="45.5971" lon="4.38638">
        <ele>544</ele>
        <time>2022-11-18T12:57:22Z</time>
      </trkpt>
      <trkpt lat="45.59701" lon="4.386">
        <ele>545</ele>
        <time>2022-11-18T12:57:27Z</time>
      </trkpt>
      <trkpt lat="45.59699" lon="4.38555">
        <ele>545</ele>
        <time>2022-11-18T12:57:32Z</time>
      </trkpt>
      <trkpt lat="45.59702" lon="4.3849">
        <ele>545</ele>
        <time>2022-11-18T12:57:40Z</time>
      </trkpt>
      <trkpt lat="45.59715" lon="4.38407">
        <ele>547</ele>
        <time>2022-11-18T12:57:51Z</time>
      </trkpt>
      <trkpt lat="45.59715" lon="4.38361">
        <ele>549</ele>
        <time>2022-11-18T12:57:57Z</time>
      </trkpt>
      <trkpt lat="45.59709" lon="4.3832">
        <ele>551</ele>
        <time>2022-11-18T12:58:02Z</time>
      </trkpt>
      <trkpt lat="45.59696" lon="4.38281">
        <ele>552</ele>
        <time>2022-11-18T12:58:07Z</time>
      </trkpt>
      <trkpt lat="45.59678" lon="4.38254">
        <ele>553</ele>
        <time>2022-11-18T12:58:12Z</time>
      </trkpt>
      <trkpt lat="45.5965" lon="4.38228">
        <ele>554</ele>
        <time>2022-11-18T12:58:18Z</time>
      </trkpt>
      <trkpt lat="45.5943" lon="4.3809">
        <ele>553</ele>
        <time>2022-11-18T12:59:01Z</time>
      </trkpt>
      <trkpt lat="45.59303" lon="4.37971">
        <ele>544</ele>
        <time>2022-11-18T12:59:28Z</time>
      </trkpt>
      <trkpt lat="45.59278" lon="4.37959">
        <ele>543</ele>
        <time>2022-11-18T12:59:32Z</time>
      </trkpt>
      <trkpt lat="45.59254" lon="4.37957">
        <ele>543</ele>
        <time>2022-11-18T12:59:37Z</time>
      </trkpt>
      <trkpt lat="45.59197" lon="4.37958">
        <ele>543</ele>
        <time>2022-11-18T12:59:47Z</time>
      </trkpt>
      <trkpt lat="45.59166" lon="4.3795">
        <ele>542</ele>
        <time>2022-11-18T12:59:52Z</time>
      </trkpt>
      <trkpt lat="45.59114" lon="4.37916">
        <ele>540</ele>
        <time>2022-11-18T13:00:02Z</time>
      </trkpt>
      <trkpt lat="45.59089" lon="4.37906">
        <ele>539</ele>
        <time>2022-11-18T13:00:07Z</time>
      </trkpt>
      <trkpt lat="45.58897" lon="4.37886">
        <ele>530</ele>
        <time>2022-11-18T13:00:41Z</time>
      </trkpt>
      <trkpt lat="45.58863" lon="4.37875">
        <ele>527</ele>
        <time>2022-11-18T13:00:48Z</time>
      </trkpt>
      <trkpt lat="45.58835" lon="4.3786">
        <ele>524</ele>
        <time>2022-11-18T13:00:53Z</time>
      </trkpt>
      <trkpt lat="45.58809" lon="4.37836">
        <ele>526</ele>
        <time>2022-11-18T13:00:58Z</time>
      </trkpt>
      <trkpt lat="45.58794" lon="4.37814">
        <ele>529</ele>
        <time>2022-11-18T13:01:02Z</time>
      </trkpt>
      <trkpt lat="45.5878" lon="4.37784">
        <ele>531</ele>
        <time>2022-11-18T13:01:07Z</time>
      </trkpt>
      <trkpt lat="45.58769" lon="4.37747">
        <ele>533</ele>
        <time>2022-11-18T13:01:12Z</time>
      </trkpt>
      <trkpt lat="45.58762" lon="4.3771">
        <ele>536</ele>
        <time>2022-11-18T13:01:16Z</time>
      </trkpt>
      <trkpt lat="45.58758" lon="4.37617">
        <ele>544</ele>
        <time>2022-11-18T13:01:28Z</time>
      </trkpt>
      <trkpt lat="45.58758" lon="4.37554">
        <ele>547</ele>
        <time>2022-11-18T13:01:36Z</time>
      </trkpt>
      <trkpt lat="45.58762" lon="4.37491">
        <ele>548</ele>
        <time>2022-11-18T13:01:44Z</time>
      </trkpt>
      <trkpt lat="45.5876" lon="4.37469">
        <ele>548</ele>
        <time>2022-11-18T13:01:47Z</time>
      </trkpt>
      <trkpt lat="45.58751" lon="4.3745">
        <ele>549</ele>
        <time>2022-11-18T13:01:49Z</time>
      </trkpt>
      <trkpt lat="45.58739" lon="4.37435">
        <ele>549</ele>
        <time>2022-11-18T13:01:52Z</time>
      </trkpt>
      <trkpt lat="45.5869" lon="4.3741">
        <ele>552</ele>
        <time>2022-11-18T13:02:01Z</time>
      </trkpt>
      <trkpt lat="45.58682" lon="4.37392">
        <ele>553</ele>
        <time>2022-11-18T13:02:04Z</time>
      </trkpt>
      <trkpt lat="45.58681" lon="4.37375">
        <ele>554</ele>
        <time>2022-11-18T13:02:06Z</time>
      </trkpt>
      <trkpt lat="45.58687" lon="4.3736">
        <ele>555</ele>
        <time>2022-11-18T13:02:08Z</time>
      </trkpt>
      <trkpt lat="45.587" lon="4.37351">
        <ele>555</ele>
        <time>2022-11-18T13:02:11Z</time>
      </trkpt>
      <trkpt lat="45.58796" lon="4.37359">
        <ele>556</ele>
        <time>2022-11-18T13:02:28Z</time>
      </trkpt>
      <trkpt lat="45.58811" lon="4.37353">
        <ele>557</ele>
        <time>2022-11-18T13:02:31Z</time>
      </trkpt>
      <trkpt lat="45.58819" lon="4.37344">
        <ele>558</ele>
        <time>2022-11-18T13:02:33Z</time>
      </trkpt>
      <trkpt lat="45.58834" lon="4.37308">
        <ele>559</ele>
        <time>2022-11-18T13:02:38Z</time>
      </trkpt>
      <trkpt lat="45.58833" lon="4.37166">
        <ele>559</ele>
        <time>2022-11-18T13:02:56Z</time>
      </trkpt>
      <trkpt lat="45.5881" lon="4.37175">
        <ele>560</ele>
        <time>2022-11-18T13:03:00Z</time>
      </trkpt>
      <trkpt lat="45.58772" lon="4.37181">
        <ele>561</ele>
        <time>2022-11-18T13:03:07Z</time>
      </trkpt>
      <trkpt lat="45.58729" lon="4.37182">
        <ele>563</ele>
        <time>2022-11-18T13:03:14Z</time>
      </trkpt>
      <trkpt lat="45.58717" lon="4.37181">
        <ele>563</ele>
        <time>2022-11-18T13:03:16Z</time>
      </trkpt>
      <trkpt lat="45.58706" lon="4.37177">
        <ele>564</ele>
        <time>2022-11-18T13:03:18Z</time>
      </trkpt>
      <trkpt lat="45.58692" lon="4.37168">
        <ele>565</ele>
        <time>2022-11-18T13:03:21Z</time>
      </trkpt>
      <trkpt lat="45.58676" lon="4.3715">
        <ele>566</ele>
        <time>2022-11-18T13:03:25Z</time>
      </trkpt>
      <trkpt lat="45.58652" lon="4.3711">
        <ele>568</ele>
        <time>2022-11-18T13:03:31Z</time>
      </trkpt>
      <trkpt lat="45.58644" lon="4.37084">
        <ele>569</ele>
        <time>2022-11-18T13:03:35Z</time>
      </trkpt>
      <trkpt lat="45.58639" lon="4.37056">
        <ele>569</ele>
        <time>2022-11-18T13:03:38Z</time>
      </trkpt>
      <trkpt lat="45.58631" lon="4.36932">
        <ele>572</ele>
        <time>2022-11-18T13:03:54Z</time>
      </trkpt>
      <trkpt lat="45.58624" lon="4.36905">
        <ele>572</ele>
        <time>2022-11-18T13:03:58Z</time>
      </trkpt>
      <trkpt lat="45.58609" lon="4.36886">
        <ele>573</ele>
        <time>2022-11-18T13:04:01Z</time>
      </trkpt>
      <trkpt lat="45.58587" lon="4.36875">
        <ele>575</ele>
        <time>2022-11-18T13:04:05Z</time>
      </trkpt>
      <trkpt lat="45.58459" lon="4.36861">
        <ele>582</ele>
        <time>2022-11-18T13:04:28Z</time>
      </trkpt>
      <trkpt lat="45.58383" lon="4.36885">
        <ele>586</ele>
        <time>2022-11-18T13:04:42Z</time>
      </trkpt>
      <trkpt lat="45.58308" lon="4.36912">
        <ele>588</ele>
        <time>2022-11-18T13:04:56Z</time>
      </trkpt>
      <trkpt lat="45.57883" lon="4.37166">
        <ele>603</ele>
        <time>2022-11-18T13:06:18Z</time>
      </trkpt>
      <trkpt lat="45.57831" lon="4.37193">
        <ele>603</ele>
        <time>2022-11-18T13:06:28Z</time>
      </trkpt>
      <trkpt lat="45.57771" lon="4.37269">
        <ele>606</ele>
        <time>2022-11-18T13:06:42Z</time>
      </trkpt>
      <trkpt lat="45.57748" lon="4.37304">
        <ele>608</ele>
        <time>2022-11-18T13:06:48Z</time>
      </trkpt>
      <trkpt lat="45.57728" lon="4.37325">
        <ele>609</ele>
        <time>2022-11-18T13:06:52Z</time>
      </trkpt>
      <trkpt lat="45.57714" lon="4.37328">
        <ele>609</ele>
        <time>2022-11-18T13:06:55Z</time>
      </trkpt>
      <trkpt lat="45.57694" lon="4.37323">
        <ele>609</ele>
        <time>2022-11-18T13:06:58Z</time>
      </trkpt>
      <trkpt lat="45.57638" lon="4.37298">
        <ele>610</ele>
        <time>2022-11-18T13:07:09Z</time>
      </trkpt>
      <trkpt lat="45.57535" lon="4.37198">
        <ele>613</ele>
        <time>2022-11-18T13:07:31Z</time>
      </trkpt>
      <trkpt lat="45.57466" lon="4.37118">
        <ele>614</ele>
        <time>2022-11-18T13:07:47Z</time>
      </trkpt>
      <trkpt lat="45.57432" lon="4.37111">
        <ele>614</ele>
        <time>2022-11-18T13:07:53Z</time>
      </trkpt>
      <trkpt lat="45.57364" lon="4.37113">
        <ele>612</ele>
        <time>2022-11-18T13:08:05Z</time>
      </trkpt>
      <trkpt lat="45.57298" lon="4.37119">
        <ele>610</ele>
        <time>2022-11-18T13:08:17Z</time>
      </trkpt>
      <trkpt lat="45.57235" lon="4.3713">
        <ele>606</ele>
        <time>2022-11-18T13:08:28Z</time>
      </trkpt>
      <trkpt lat="45.57202" lon="4.37146">
        <ele>604</ele>
        <time>2022-11-18T13:08:34Z</time>
      </trkpt>
      <trkpt lat="45.57168" lon="4.37178">
        <ele>603</ele>
        <time>2022-11-18T13:08:41Z</time>
      </trkpt>
      <trkpt lat="45.5708" lon="4.3728">
        <ele>596</ele>
        <time>2022-11-18T13:09:02Z</time>
      </trkpt>
      <trkpt lat="45.57063" lon="4.3731">
        <ele>595</ele>
        <time>2022-11-18T13:09:06Z</time>
      </trkpt>
      <trkpt lat="45.5706" lon="4.37352">
        <ele>596</ele>
        <time>2022-11-18T13:09:12Z</time>
      </trkpt>
      <trkpt lat="45.57068" lon="4.37383">
        <ele>598</ele>
        <time>2022-11-18T13:09:16Z</time>
      </trkpt>
      <trkpt lat="45.57065" lon="4.37405">
        <ele>598</ele>
        <time>2022-11-18T13:09:19Z</time>
      </trkpt>
      <trkpt lat="45.5705" lon="4.37413">
        <ele>599</ele>
        <time>2022-11-18T13:09:21Z</time>
      </trkpt>
      <trkpt lat="45.57019" lon="4.37389">
        <ele>597</ele>
        <time>2022-11-18T13:09:28Z</time>
      </trkpt>
      <trkpt lat="45.56941" lon="4.37309">
        <ele>587</ele>
        <time>2022-11-18T13:09:45Z</time>
      </trkpt>
      <trkpt lat="45.56912" lon="4.37301">
        <ele>585</ele>
        <time>2022-11-18T13:09:50Z</time>
      </trkpt>
      <trkpt lat="45.56862" lon="4.373">
        <ele>579</ele>
        <time>2022-11-18T13:09:59Z</time>
      </trkpt>
      <trkpt lat="45.5683" lon="4.37324">
        <ele>577</ele>
        <time>2022-11-18T13:10:05Z</time>
      </trkpt>
      <trkpt lat="45.5679" lon="4.37375">
        <ele>575</ele>
        <time>2022-11-18T13:10:15Z</time>
      </trkpt>
      <trkpt lat="45.5673" lon="4.37511">
        <ele>570</ele>
        <time>2022-11-18T13:10:35Z</time>
      </trkpt>
      <trkpt lat="45.56665" lon="4.37596">
        <ele>568</ele>
        <time>2022-11-18T13:10:51Z</time>
      </trkpt>
      <trkpt lat="45.56617" lon="4.37585">
        <ele>570</ele>
        <time>2022-11-18T13:10:59Z</time>
      </trkpt>
      <trkpt lat="45.56591" lon="4.37539">
        <ele>570</ele>
        <time>2022-11-18T13:11:07Z</time>
      </trkpt>
      <trkpt lat="45.56575" lon="4.37493">
        <ele>571</ele>
        <time>2022-11-18T13:11:13Z</time>
      </trkpt>
      <trkpt lat="45.56574" lon="4.37416">
        <ele>572</ele>
        <time>2022-11-18T13:11:23Z</time>
      </trkpt>
      <trkpt lat="45.56566" lon="4.37357">
        <ele>575</ele>
        <time>2022-11-18T13:11:30Z</time>
      </trkpt>
      <trkpt lat="45.56568" lon="4.37304">
        <ele>576</ele>
        <time>2022-11-18T13:11:37Z</time>
      </trkpt>
      <trkpt lat="45.56581" lon="4.37248">
        <ele>579</ele>
        <time>2022-11-18T13:11:44Z</time>
      </trkpt>
      <trkpt lat="45.56583" lon="4.37204">
        <ele>579</ele>
        <time>2022-11-18T13:11:50Z</time>
      </trkpt>
      <trkpt lat="45.56576" lon="4.37179">
        <ele>579</ele>
        <time>2022-11-18T13:11:53Z</time>
      </trkpt>
      <trkpt lat="45.56559" lon="4.3716">
        <ele>580</ele>
        <time>2022-11-18T13:11:57Z</time>
      </trkpt>
      <trkpt lat="45.56538" lon="4.37156">
        <ele>580</ele>
        <time>2022-11-18T13:12:01Z</time>
      </trkpt>
      <trkpt lat="45.56425" lon="4.37358">
        <ele>584</ele>
        <time>2022-11-18T13:12:33Z</time>
      </trkpt>
      <trkpt lat="45.5642" lon="4.37372">
        <ele>584</ele>
        <time>2022-11-18T13:12:35Z</time>
      </trkpt>
      <trkpt lat="45.5642" lon="4.374">
        <ele>585</ele>
        <time>2022-11-18T13:12:38Z</time>
      </trkpt>
      <trkpt lat="45.56427" lon="4.37498">
        <ele>586</ele>
        <time>2022-11-18T13:12:50Z</time>
      </trkpt>
      <trkpt lat="45.56412" lon="4.37597">
        <ele>592</ele>
        <time>2022-11-18T13:13:03Z</time>
      </trkpt>
      <trkpt lat="45.56372" lon="4.37643">
        <ele>594</ele>
        <time>2022-11-18T13:13:12Z</time>
      </trkpt>
      <trkpt lat="45.56353" lon="4.37675">
        <ele>595</ele>
        <time>2022-11-18T13:13:17Z</time>
      </trkpt>
      <trkpt lat="45.56295" lon="4.37812">
        <ele>602</ele>
        <time>2022-11-18T13:13:37Z</time>
      </trkpt>
      <trkpt lat="45.5622" lon="4.37958">
        <ele>608</ele>
        <time>2022-11-18T13:14:00Z</time>
      </trkpt>
      <trkpt lat="45.56133" lon="4.38118">
        <ele>612</ele>
        <time>2022-11-18T13:14:25Z</time>
      </trkpt>
      <trkpt lat="45.56121" lon="4.38155">
        <ele>614</ele>
        <time>2022-11-18T13:14:30Z</time>
      </trkpt>
      <trkpt lat="45.56114" lon="4.38216">
        <ele>618</ele>
        <time>2022-11-18T13:14:38Z</time>
      </trkpt>
      <trkpt lat="45.5605" lon="4.38386">
        <ele>626</ele>
        <time>2022-11-18T13:15:02Z</time>
      </trkpt>
      <trkpt lat="45.56019" lon="4.38437">
        <ele>626</ele>
        <time>2022-11-18T13:15:10Z</time>
      </trkpt>
      <trkpt lat="45.55978" lon="4.38486">
        <ele>628</ele>
        <time>2022-11-18T13:15:20Z</time>
      </trkpt>
      <trkpt lat="45.5596" lon="4.38535">
        <ele>631</ele>
        <time>2022-11-18T13:15:27Z</time>
      </trkpt>
      <trkpt lat="45.55946" lon="4.38604">
        <ele>634</ele>
        <time>2022-11-18T13:15:36Z</time>
      </trkpt>
      <trkpt lat="45.55957" lon="4.38703">
        <ele>641</ele>
        <time>2022-11-18T13:15:48Z</time>
      </trkpt>
      <trkpt lat="45.55945" lon="4.38791">
        <ele>645</ele>
        <time>2022-11-18T13:15:59Z</time>
      </trkpt>
      <trkpt lat="45.55898" lon="4.38859">
        <ele>650</ele>
        <time>2022-11-18T13:16:11Z</time>
      </trkpt>
      <trkpt lat="45.55851" lon="4.38876">
        <ele>652</ele>
        <time>2022-11-18T13:16:20Z</time>
      </trkpt>
      <trkpt lat="45.55811" lon="4.38862">
        <ele>652</ele>
        <time>2022-11-18T13:16:27Z</time>
      </trkpt>
      <trkpt lat="45.5574" lon="4.38789">
        <ele>654</ele>
        <time>2022-11-18T13:16:43Z</time>
      </trkpt>
      <trkpt lat="45.557" lon="4.3876">
        <ele>653</ele>
        <time>2022-11-18T13:16:51Z</time>
      </trkpt>
      <trkpt lat="45.55617" lon="4.38775">
        <ele>662</ele>
        <time>2022-11-18T13:17:06Z</time>
      </trkpt>
      <trkpt lat="45.55591" lon="4.38772">
        <ele>664</ele>
        <time>2022-11-18T13:17:10Z</time>
      </trkpt>
      <trkpt lat="45.55562" lon="4.38755">
        <ele>667</ele>
        <time>2022-11-18T13:17:16Z</time>
      </trkpt>
      <trkpt lat="45.55512" lon="4.38668">
        <ele>667</ele>
        <time>2022-11-18T13:17:30Z</time>
      </trkpt>
      <trkpt lat="45.55483" lon="4.38626">
        <ele>669</ele>
        <time>2022-11-18T13:17:37Z</time>
      </trkpt>
      <trkpt lat="45.55445" lon="4.38607">
        <ele>670</ele>
        <time>2022-11-18T13:17:45Z</time>
      </trkpt>
      <trkpt lat="45.55411" lon="4.38608">
        <ele>671</ele>
        <time>2022-11-18T13:17:51Z</time>
      </trkpt>
      <trkpt lat="45.55385" lon="4.38622">
        <ele>670</ele>
        <time>2022-11-18T13:17:56Z</time>
      </trkpt>
      <trkpt lat="45.55348" lon="4.38668">
        <ele>672</ele>
        <time>2022-11-18T13:18:04Z</time>
      </trkpt>
      <trkpt lat="45.55234" lon="4.38902">
        <ele>675</ele>
        <time>2022-11-18T13:18:40Z</time>
      </trkpt>
      <trkpt lat="45.55159" lon="4.39046">
        <ele>678</ele>
        <time>2022-11-18T13:19:02Z</time>
      </trkpt>
      <trkpt lat="45.55122" lon="4.3911">
        <ele>682</ele>
        <time>2022-11-18T13:19:12Z</time>
      </trkpt>
      <trkpt lat="45.55123" lon="4.39161">
        <ele>687</ele>
        <time>2022-11-18T13:19:19Z</time>
      </trkpt>
      <trkpt lat="45.55149" lon="4.39247">
        <ele>690</ele>
        <time>2022-11-18T13:19:30Z</time>
      </trkpt>
      <trkpt lat="45.55167" lon="4.39284">
        <ele>692</ele>
        <time>2022-11-18T13:19:36Z</time>
      </trkpt>
      <trkpt lat="45.55168" lon="4.39344">
        <ele>692</ele>
        <time>2022-11-18T13:19:44Z</time>
      </trkpt>
      <trkpt lat="45.55139" lon="4.39405">
        <ele>695</ele>
        <time>2022-11-18T13:19:53Z</time>
      </trkpt>
      <trkpt lat="45.55085" lon="4.39436">
        <ele>698</ele>
        <time>2022-11-18T13:20:03Z</time>
      </trkpt>
      <trkpt lat="45.54931" lon="4.39458">
        <ele>704</ele>
        <time>2022-11-18T13:20:31Z</time>
      </trkpt>
      <trkpt lat="45.54904" lon="4.39473">
        <ele>706</ele>
        <time>2022-11-18T13:20:36Z</time>
      </trkpt>
      <trkpt lat="45.54886" lon="4.39496">
        <ele>707</ele>
        <time>2022-11-18T13:20:40Z</time>
      </trkpt>
      <trkpt lat="45.54866" lon="4.39542">
        <ele>709</ele>
        <time>2022-11-18T13:20:47Z</time>
      </trkpt>
      <trkpt lat="45.5485" lon="4.39567">
        <ele>710</ele>
        <time>2022-11-18T13:20:51Z</time>
      </trkpt>
      <trkpt lat="45.54832" lon="4.39582">
        <ele>711</ele>
        <time>2022-11-18T13:20:55Z</time>
      </trkpt>
      <trkpt lat="45.54793" lon="4.39599">
        <ele>710</ele>
        <time>2022-11-18T13:21:02Z</time>
      </trkpt>
      <trkpt lat="45.54754" lon="4.39608">
        <ele>710</ele>
        <time>2022-11-18T13:21:09Z</time>
      </trkpt>
      <trkpt lat="45.547" lon="4.39609">
        <ele>709</ele>
        <time>2022-11-18T13:21:19Z</time>
      </trkpt>
      <trkpt lat="45.54609" lon="4.39603">
        <ele>706</ele>
        <time>2022-11-18T13:21:35Z</time>
      </trkpt>
      <trkpt lat="45.54574" lon="4.39587">
        <ele>705</ele>
        <time>2022-11-18T13:21:41Z</time>
      </trkpt>
      <trkpt lat="45.54535" lon="4.39565">
        <ele>704</ele>
        <time>2022-11-18T13:21:49Z</time>
      </trkpt>
      <trkpt lat="45.54513" lon="4.39546">
        <ele>704</ele>
        <time>2022-11-18T13:21:53Z</time>
      </trkpt>
      <trkpt lat="45.54495" lon="4.39517">
        <ele>703</ele>
        <time>2022-11-18T13:21:58Z</time>
      </trkpt>
      <trkpt lat="45.5448" lon="4.39482">
        <ele>703</ele>
        <time>2022-11-18T13:22:03Z</time>
      </trkpt>
      <trkpt lat="45.54469" lon="4.39443">
        <ele>702</ele>
        <time>2022-11-18T13:22:09Z</time>
      </trkpt>
      <trkpt lat="45.54453" lon="4.39363">
        <ele>701</ele>
        <time>2022-11-18T13:22:19Z</time>
      </trkpt>
      <trkpt lat="45.54432" lon="4.39307">
        <ele>700</ele>
        <time>2022-11-18T13:22:27Z</time>
      </trkpt>
      <trkpt lat="45.54371" lon="4.39211">
        <ele>696</ele>
        <time>2022-11-18T13:22:43Z</time>
      </trkpt>
      <trkpt lat="45.54307" lon="4.39071">
        <ele>693</ele>
        <time>2022-11-18T13:23:04Z</time>
      </trkpt>
      <trkpt lat="45.54285" lon="4.39014">
        <ele>692</ele>
        <time>2022-11-18T13:23:12Z</time>
      </trkpt>
      <trkpt lat="45.54253" lon="4.38811">
        <ele>683</ele>
        <time>2022-11-18T13:23:38Z</time>
      </trkpt>
      <trkpt lat="45.54222" lon="4.38731">
        <ele>680</ele>
        <time>2022-11-18T13:23:49Z</time>
      </trkpt>
      <trkpt lat="45.54086" lon="4.38513">
        <ele>670</ele>
        <time>2022-11-18T13:24:26Z</time>
      </trkpt>
      <trkpt lat="45.54052" lon="4.38468">
        <ele>670</ele>
        <time>2022-11-18T13:24:34Z</time>
      </trkpt>
      <trkpt lat="45.53923" lon="4.38321">
        <ele>664</ele>
        <time>2022-11-18T13:25:03Z</time>
      </trkpt>
      <trkpt lat="45.5391" lon="4.383">
        <ele>664</ele>
        <time>2022-11-18T13:25:07Z</time>
      </trkpt>
      <trkpt lat="45.53838" lon="4.38134">
        <ele>659</ele>
        <time>2022-11-18T13:25:31Z</time>
      </trkpt>
      <trkpt lat="45.53828" lon="4.38098">
        <ele>658</ele>
        <time>2022-11-18T13:25:36Z</time>
      </trkpt>
      <trkpt lat="45.5382" lon="4.38039">
        <ele>659</ele>
        <time>2022-11-18T13:25:43Z</time>
      </trkpt>
      <trkpt lat="45.53809" lon="4.38002">
        <ele>660</ele>
        <time>2022-11-18T13:25:48Z</time>
      </trkpt>
      <trkpt lat="45.5379" lon="4.3797">
        <ele>659</ele>
        <time>2022-11-18T13:25:54Z</time>
      </trkpt>
      <trkpt lat="45.53695" lon="4.37875">
        <ele>659</ele>
        <time>2022-11-18T13:26:14Z</time>
      </trkpt>
      <trkpt lat="45.53685" lon="4.37868">
        <ele>659</ele>
        <time>2022-11-18T13:26:16Z</time>
      </trkpt>
      <trkpt lat="45.53633" lon="4.37846">
        <ele>660</ele>
        <time>2022-11-18T13:26:26Z</time>
      </trkpt>
      <trkpt lat="45.53561" lon="4.37811">
        <ele>660</ele>
        <time>2022-11-18T13:26:40Z</time>
      </trkpt>
      <trkpt lat="45.53534" lon="4.378">
        <ele>660</ele>
        <time>2022-11-18T13:26:45Z</time>
      </trkpt>
      <trkpt lat="45.53523" lon="4.37799">
        <ele>660</ele>
        <time>2022-11-18T13:26:46Z</time>
      </trkpt>
      <trkpt lat="45.53513" lon="4.37799">
        <ele>660</ele>
        <time>2022-11-18T13:26:48Z</time>
      </trkpt>
      <trkpt lat="45.53464" lon="4.3782">
        <ele>660</ele>
        <time>2022-11-18T13:26:57Z</time>
      </trkpt>
      <trkpt lat="45.53444" lon="4.3782">
        <ele>659</ele>
        <time>2022-11-18T13:27:01Z</time>
      </trkpt>
      <trkpt lat="45.53426" lon="4.37811">
        <ele>658</ele>
        <time>2022-11-18T13:27:04Z</time>
      </trkpt>
      <trkpt lat="45.5341" lon="4.37792">
        <ele>657</ele>
        <time>2022-11-18T13:27:08Z</time>
      </trkpt>
      <trkpt lat="45.53401" lon="4.37773">
        <ele>657</ele>
        <time>2022-11-18T13:27:11Z</time>
      </trkpt>
      <trkpt lat="45.53392" lon="4.37748">
        <ele>656</ele>
        <time>2022-11-18T13:27:14Z</time>
      </trkpt>
      <trkpt lat="45.53385" lon="4.37716">
        <ele>655</ele>
        <time>2022-11-18T13:27:19Z</time>
      </trkpt>
      <trkpt lat="45.53389" lon="4.37702">
        <ele>654</ele>
        <time>2022-11-18T13:27:20Z</time>
      </trkpt>
      <trkpt lat="45.53387" lon="4.37688">
        <ele>653</ele>
        <time>2022-11-18T13:27:22Z</time>
      </trkpt>
      <trkpt lat="45.53379" lon="4.37676">
        <ele>653</ele>
        <time>2022-11-18T13:27:24Z</time>
      </trkpt>
      <trkpt lat="45.53374" lon="4.37674">
        <ele>654</ele>
        <time>2022-11-18T13:27:25Z</time>
      </trkpt>
      <trkpt lat="45.53362" lon="4.37676">
        <ele>655</ele>
        <time>2022-11-18T13:27:27Z</time>
      </trkpt>
      <trkpt lat="45.53357" lon="4.37681">
        <ele>656</ele>
        <time>2022-11-18T13:27:28Z</time>
      </trkpt>
      <trkpt lat="45.53353" lon="4.37694">
        <ele>658</ele>
        <time>2022-11-18T13:27:30Z</time>
      </trkpt>
      <trkpt lat="45.53353" lon="4.37708">
        <ele>659</ele>
        <time>2022-11-18T13:27:32Z</time>
      </trkpt>
      <trkpt lat="45.53329" lon="4.37724">
        <ele>664</ele>
        <time>2022-11-18T13:27:37Z</time>
      </trkpt>
      <trkpt lat="45.53323" lon="4.37738">
        <ele>666</ele>
        <time>2022-11-18T13:27:39Z</time>
      </trkpt>
      <trkpt lat="45.53324" lon="4.37758">
        <ele>668</ele>
        <time>2022-11-18T13:27:41Z</time>
      </trkpt>
      <trkpt lat="45.53353" lon="4.37825">
        <ele>668</ele>
        <time>2022-11-18T13:27:51Z</time>
      </trkpt>
      <trkpt lat="45.53354" lon="4.37841">
        <ele>669</ele>
        <time>2022-11-18T13:27:53Z</time>
      </trkpt>
      <trkpt lat="45.5335" lon="4.37852">
        <ele>669</ele>
        <time>2022-11-18T13:27:55Z</time>
      </trkpt>
      <trkpt lat="45.53343" lon="4.37862">
        <ele>669</ele>
        <time>2022-11-18T13:27:56Z</time>
      </trkpt>
      <trkpt lat="45.53336" lon="4.37862">
        <ele>670</ele>
        <time>2022-11-18T13:27:58Z</time>
      </trkpt>
      <trkpt lat="45.53325" lon="4.37856">
        <ele>672</ele>
        <time>2022-11-18T13:28:00Z</time>
      </trkpt>
      <trkpt lat="45.53262" lon="4.37691">
        <ele>675</ele>
        <time>2022-11-18T13:28:23Z</time>
      </trkpt>
      <trkpt lat="45.53245" lon="4.37669">
        <ele>676</ele>
        <time>2022-11-18T13:28:27Z</time>
      </trkpt>
      <trkpt lat="45.53214" lon="4.37643">
        <ele>678</ele>
        <time>2022-11-18T13:28:34Z</time>
      </trkpt>
      <trkpt lat="45.53197" lon="4.37638">
        <ele>679</ele>
        <time>2022-11-18T13:28:37Z</time>
      </trkpt>
      <trkpt lat="45.53177" lon="4.3764">
        <ele>682</ele>
        <time>2022-11-18T13:28:40Z</time>
      </trkpt>
      <trkpt lat="45.53143" lon="4.3765">
        <ele>688</ele>
        <time>2022-11-18T13:28:46Z</time>
      </trkpt>
      <trkpt lat="45.53113" lon="4.37641">
        <ele>690</ele>
        <time>2022-11-18T13:28:52Z</time>
      </trkpt>
      <trkpt lat="45.53104" lon="4.37642">
        <ele>691</ele>
        <time>2022-11-18T13:28:53Z</time>
      </trkpt>
      <trkpt lat="45.531" lon="4.37647">
        <ele>691</ele>
        <time>2022-11-18T13:28:54Z</time>
      </trkpt>
      <trkpt lat="45.53099" lon="4.3766">
        <ele>692</ele>
        <time>2022-11-18T13:28:56Z</time>
      </trkpt>
      <trkpt lat="45.53102" lon="4.37667">
        <ele>693</ele>
        <time>2022-11-18T13:28:57Z</time>
      </trkpt>
      <trkpt lat="45.53112" lon="4.37672">
        <ele>692</ele>
        <time>2022-11-18T13:28:59Z</time>
      </trkpt>
      <trkpt lat="45.53149" lon="4.37669">
        <ele>690</ele>
        <time>2022-11-18T13:29:06Z</time>
      </trkpt>
      <trkpt lat="45.53165" lon="4.37676">
        <ele>689</ele>
        <time>2022-11-18T13:29:09Z</time>
      </trkpt>
      <trkpt lat="45.53185" lon="4.37694">
        <ele>689</ele>
        <time>2022-11-18T13:29:13Z</time>
      </trkpt>
      <trkpt lat="45.53196" lon="4.37716">
        <ele>690</ele>
        <time>2022-11-18T13:29:16Z</time>
      </trkpt>
      <trkpt lat="45.53202" lon="4.37734">
        <ele>691</ele>
        <time>2022-11-18T13:29:19Z</time>
      </trkpt>
      <trkpt lat="45.53202" lon="4.37762">
        <ele>693</ele>
        <time>2022-11-18T13:29:22Z</time>
      </trkpt>
      <trkpt lat="45.53199" lon="4.37782">
        <ele>693</ele>
        <time>2022-11-18T13:29:25Z</time>
      </trkpt>
      <trkpt lat="45.53184" lon="4.37811">
        <ele>695</ele>
        <time>2022-11-18T13:29:29Z</time>
      </trkpt>
      <trkpt lat="45.53143" lon="4.37862">
        <ele>700</ele>
        <time>2022-11-18T13:29:39Z</time>
      </trkpt>
      <trkpt lat="45.53124" lon="4.37895">
        <ele>703</ele>
        <time>2022-11-18T13:29:44Z</time>
      </trkpt>
      <trkpt lat="45.53115" lon="4.3792">
        <ele>704</ele>
        <time>2022-11-18T13:29:48Z</time>
      </trkpt>
      <trkpt lat="45.53094" lon="4.38041">
        <ele>708</ele>
        <time>2022-11-18T13:30:03Z</time>
      </trkpt>
      <trkpt lat="45.53086" lon="4.38058">
        <ele>709</ele>
        <time>2022-11-18T13:30:06Z</time>
      </trkpt>
      <trkpt lat="45.53071" lon="4.38078">
        <ele>711</ele>
        <time>2022-11-18T13:30:09Z</time>
      </trkpt>
      <trkpt lat="45.52937" lon="4.38225">
        <ele>721</ele>
        <time>2022-11-18T13:30:39Z</time>
      </trkpt>
      <trkpt lat="45.5289" lon="4.38297">
        <ele>722</ele>
        <time>2022-11-18T13:30:52Z</time>
      </trkpt>
      <trkpt lat="45.52873" lon="4.38319">
        <ele>722</ele>
        <time>2022-11-18T13:30:56Z</time>
      </trkpt>
      <trkpt lat="45.52854" lon="4.38339">
        <ele>724</ele>
        <time>2022-11-18T13:31:00Z</time>
      </trkpt>
      <trkpt lat="45.52799" lon="4.38376">
        <ele>726</ele>
        <time>2022-11-18T13:31:11Z</time>
      </trkpt>
      <trkpt lat="45.52788" lon="4.38393">
        <ele>725</ele>
        <time>2022-11-18T13:31:14Z</time>
      </trkpt>
      <trkpt lat="45.52782" lon="4.38409">
        <ele>725</ele>
        <time>2022-11-18T13:31:16Z</time>
      </trkpt>
      <trkpt lat="45.52782" lon="4.38441">
        <ele>726</ele>
        <time>2022-11-18T13:31:20Z</time>
      </trkpt>
      <trkpt lat="45.52789" lon="4.38457">
        <ele>727</ele>
        <time>2022-11-18T13:31:22Z</time>
      </trkpt>
      <trkpt lat="45.52799" lon="4.3847">
        <ele>728</ele>
        <time>2022-11-18T13:31:25Z</time>
      </trkpt>
      <trkpt lat="45.5281" lon="4.38478">
        <ele>729</ele>
        <time>2022-11-18T13:31:27Z</time>
      </trkpt>
      <trkpt lat="45.52823" lon="4.38482">
        <ele>729</ele>
        <time>2022-11-18T13:31:29Z</time>
      </trkpt>
      <trkpt lat="45.52847" lon="4.38483">
        <ele>728</ele>
        <time>2022-11-18T13:31:34Z</time>
      </trkpt>
      <trkpt lat="45.52867" lon="4.38487">
        <ele>728</ele>
        <time>2022-11-18T13:31:37Z</time>
      </trkpt>
      <trkpt lat="45.52886" lon="4.38498">
        <ele>728</ele>
        <time>2022-11-18T13:31:41Z</time>
      </trkpt>
      <trkpt lat="45.52901" lon="4.38511">
        <ele>729</ele>
        <time>2022-11-18T13:31:44Z</time>
      </trkpt>
      <trkpt lat="45.5294" lon="4.38561">
        <ele>735</ele>
        <time>2022-11-18T13:31:53Z</time>
      </trkpt>
      <trkpt lat="45.52969" lon="4.38606">
        <ele>737</ele>
        <time>2022-11-18T13:32:01Z</time>
      </trkpt>
      <trkpt lat="45.52978" lon="4.3864">
        <ele>738</ele>
        <time>2022-11-18T13:32:05Z</time>
      </trkpt>
      <trkpt lat="45.52977" lon="4.38662">
        <ele>740</ele>
        <time>2022-11-18T13:32:08Z</time>
      </trkpt>
      <trkpt lat="45.5294" lon="4.38801">
        <ele>744</ele>
        <time>2022-11-18T13:32:27Z</time>
      </trkpt>
      <trkpt lat="45.52931" lon="4.38823">
        <ele>746</ele>
        <time>2022-11-18T13:32:30Z</time>
      </trkpt>
      <trkpt lat="45.52921" lon="4.38838">
        <ele>748</ele>
        <time>2022-11-18T13:32:32Z</time>
      </trkpt>
      <trkpt lat="45.52911" lon="4.38848">
        <ele>748</ele>
        <time>2022-11-18T13:32:35Z</time>
      </trkpt>
      <trkpt lat="45.529" lon="4.38853">
        <ele>749</ele>
        <time>2022-11-18T13:32:37Z</time>
      </trkpt>
      <trkpt lat="45.52858" lon="4.38863">
        <ele>752</ele>
        <time>2022-11-18T13:32:44Z</time>
      </trkpt>
      <trkpt lat="45.52837" lon="4.38872">
        <ele>754</ele>
        <time>2022-11-18T13:32:48Z</time>
      </trkpt>
      <trkpt lat="45.52819" lon="4.38887">
        <ele>754</ele>
        <time>2022-11-18T13:32:52Z</time>
      </trkpt>
      <trkpt lat="45.5277" lon="4.38941">
        <ele>756</ele>
        <time>2022-11-18T13:33:03Z</time>
      </trkpt>
      <trkpt lat="45.52743" lon="4.38966">
        <ele>758</ele>
        <time>2022-11-18T13:33:09Z</time>
      </trkpt>
      <trkpt lat="45.52614" lon="4.39057">
        <ele>767</ele>
        <time>2022-11-18T13:33:34Z</time>
      </trkpt>
      <trkpt lat="45.52581" lon="4.39067">
        <ele>769</ele>
        <time>2022-11-18T13:33:40Z</time>
      </trkpt>
      <trkpt lat="45.52474" lon="4.39088">
        <ele>771</ele>
        <time>2022-11-18T13:33:59Z</time>
      </trkpt>
      <trkpt lat="45.52459" lon="4.39095">
        <ele>771</ele>
        <time>2022-11-18T13:34:02Z</time>
      </trkpt>
      <trkpt lat="45.52437" lon="4.39114">
        <ele>772</ele>
        <time>2022-11-18T13:34:07Z</time>
      </trkpt>
      <trkpt lat="45.52425" lon="4.39129">
        <ele>773</ele>
        <time>2022-11-18T13:34:10Z</time>
      </trkpt>
      <trkpt lat="45.52414" lon="4.39149">
        <ele>774</ele>
        <time>2022-11-18T13:34:13Z</time>
      </trkpt>
      <trkpt lat="45.52388" lon="4.3921">
        <ele>774</ele>
        <time>2022-11-18T13:34:22Z</time>
      </trkpt>
      <trkpt lat="45.52381" lon="4.39237">
        <ele>775</ele>
        <time>2022-11-18T13:34:25Z</time>
      </trkpt>
      <trkpt lat="45.52378" lon="4.39261">
        <ele>776</ele>
        <time>2022-11-18T13:34:28Z</time>
      </trkpt>
      <trkpt lat="45.52378" lon="4.39297">
        <ele>777</ele>
        <time>2022-11-18T13:34:33Z</time>
      </trkpt>
      <trkpt lat="45.52397" lon="4.39436">
        <ele>784</ele>
        <time>2022-11-18T13:34:50Z</time>
      </trkpt>
      <trkpt lat="45.52391" lon="4.39472">
        <ele>785</ele>
        <time>2022-11-18T13:34:55Z</time>
      </trkpt>
      <trkpt lat="45.52382" lon="4.39492">
        <ele>786</ele>
        <time>2022-11-18T13:34:58Z</time>
      </trkpt>
      <trkpt lat="45.52343" lon="4.39542">
        <ele>787</ele>
        <time>2022-11-18T13:35:07Z</time>
      </trkpt>
      <trkpt lat="45.52332" lon="4.39562">
        <ele>787</ele>
        <time>2022-11-18T13:35:11Z</time>
      </trkpt>
      <trkpt lat="45.52322" lon="4.39588">
        <ele>787</ele>
        <time>2022-11-18T13:35:14Z</time>
      </trkpt>
      <trkpt lat="45.52311" lon="4.39651">
        <ele>787</ele>
        <time>2022-11-18T13:35:22Z</time>
      </trkpt>
      <trkpt lat="45.52315" lon="4.39692">
        <ele>787</ele>
        <time>2022-11-18T13:35:27Z</time>
      </trkpt>
      <trkpt lat="45.52322" lon="4.3971">
        <ele>787</ele>
        <time>2022-11-18T13:35:30Z</time>
      </trkpt>
      <trkpt lat="45.52354" lon="4.39759">
        <ele>790</ele>
        <time>2022-11-18T13:35:38Z</time>
      </trkpt>
      <trkpt lat="45.52363" lon="4.39782">
        <ele>790</ele>
        <time>2022-11-18T13:35:42Z</time>
      </trkpt>
      <trkpt lat="45.52375" lon="4.39852">
        <ele>789</ele>
        <time>2022-11-18T13:35:51Z</time>
      </trkpt>
      <trkpt lat="45.52388" lon="4.39907">
        <ele>792</ele>
        <time>2022-11-18T13:35:58Z</time>
      </trkpt>
      <trkpt lat="45.52441" lon="4.40079">
        <ele>798</ele>
        <time>2022-11-18T13:36:21Z</time>
      </trkpt>
      <trkpt lat="45.52455" lon="4.4011">
        <ele>797</ele>
        <time>2022-11-18T13:36:26Z</time>
      </trkpt>
      <trkpt lat="45.5247" lon="4.40127">
        <ele>798</ele>
        <time>2022-11-18T13:36:29Z</time>
      </trkpt>
      <trkpt lat="45.52487" lon="4.4014">
        <ele>798</ele>
        <time>2022-11-18T13:36:33Z</time>
      </trkpt>
      <trkpt lat="45.5254" lon="4.40159">
        <ele>804</ele>
        <time>2022-11-18T13:36:42Z</time>
      </trkpt>
      <trkpt lat="45.52551" lon="4.40165">
        <ele>805</ele>
        <time>2022-11-18T13:36:45Z</time>
      </trkpt>
      <trkpt lat="45.52564" lon="4.40183">
        <ele>806</ele>
        <time>2022-11-18T13:36:48Z</time>
      </trkpt>
      <trkpt lat="45.5257" lon="4.40204">
        <ele>806</ele>
        <time>2022-11-18T13:36:51Z</time>
      </trkpt>
      <trkpt lat="45.52581" lon="4.40267">
        <ele>804</ele>
        <time>2022-11-18T13:36:59Z</time>
      </trkpt>
      <trkpt lat="45.52642" lon="4.40461">
        <ele>810</ele>
        <time>2022-11-18T13:37:25Z</time>
      </trkpt>
      <trkpt lat="45.52651" lon="4.40482">
        <ele>810</ele>
        <time>2022-11-18T13:37:28Z</time>
      </trkpt>
      <trkpt lat="45.52778" lon="4.40726">
        <ele>815</ele>
        <time>2022-11-18T13:38:06Z</time>
      </trkpt>
      <trkpt lat="45.52789" lon="4.40756">
        <ele>815</ele>
        <time>2022-11-18T13:38:10Z</time>
      </trkpt>
      <trkpt lat="45.52843" lon="4.4096">
        <ele>820</ele>
        <time>2022-11-18T13:38:38Z</time>
      </trkpt>
      <trkpt lat="45.52841" lon="4.40998">
        <ele>820</ele>
        <time>2022-11-18T13:38:42Z</time>
      </trkpt>
      <trkpt lat="45.52836" lon="4.41015">
        <ele>821</ele>
        <time>2022-11-18T13:38:45Z</time>
      </trkpt>
      <trkpt lat="45.52826" lon="4.41037">
        <ele>821</ele>
        <time>2022-11-18T13:38:48Z</time>
      </trkpt>
      <trkpt lat="45.52752" lon="4.41149">
        <ele>820</ele>
        <time>2022-11-18T13:39:07Z</time>
      </trkpt>
      <trkpt lat="45.52734" lon="4.41196">
        <ele>820</ele>
        <time>2022-11-18T13:39:14Z</time>
      </trkpt>
      <trkpt lat="45.5273" lon="4.4122">
        <ele>819</ele>
        <time>2022-11-18T13:39:17Z</time>
      </trkpt>
      <trkpt lat="45.52731" lon="4.41266">
        <ele>820</ele>
        <time>2022-11-18T13:39:23Z</time>
      </trkpt>
      <trkpt lat="45.52739" lon="4.4131">
        <ele>822</ele>
        <time>2022-11-18T13:39:28Z</time>
      </trkpt>
      <trkpt lat="45.5274" lon="4.41329">
        <ele>822</ele>
        <time>2022-11-18T13:39:31Z</time>
      </trkpt>
      <trkpt lat="45.52739" lon="4.41349">
        <ele>823</ele>
        <time>2022-11-18T13:39:33Z</time>
      </trkpt>
      <trkpt lat="45.52728" lon="4.41407">
        <ele>821</ele>
        <time>2022-11-18T13:39:41Z</time>
      </trkpt>
      <trkpt lat="45.52728" lon="4.41429">
        <ele>821</ele>
        <time>2022-11-18T13:39:43Z</time>
      </trkpt>
      <trkpt lat="45.52732" lon="4.41447">
        <ele>822</ele>
        <time>2022-11-18T13:39:46Z</time>
      </trkpt>
      <trkpt lat="45.5276" lon="4.41523">
        <ele>826</ele>
        <time>2022-11-18T13:39:56Z</time>
      </trkpt>
      <trkpt lat="45.52772" lon="4.41566">
        <ele>827</ele>
        <time>2022-11-18T13:40:02Z</time>
      </trkpt>
      <trkpt lat="45.52799" lon="4.41713">
        <ele>828</ele>
        <time>2022-11-18T13:40:21Z</time>
      </trkpt>
      <trkpt lat="45.52819" lon="4.41867">
        <ele>835</ele>
        <time>2022-11-18T13:40:41Z</time>
      </trkpt>
      <trkpt lat="45.52819" lon="4.41894">
        <ele>835</ele>
        <time>2022-11-18T13:40:44Z</time>
      </trkpt>
      <trkpt lat="45.52815" lon="4.41919">
        <ele>835</ele>
        <time>2022-11-18T13:40:47Z</time>
      </trkpt>
      <trkpt lat="45.52808" lon="4.41938">
        <ele>835</ele>
        <time>2022-11-18T13:40:50Z</time>
      </trkpt>
      <trkpt lat="45.52795" lon="4.41959">
        <ele>834</ele>
        <time>2022-11-18T13:40:53Z</time>
      </trkpt>
      <trkpt lat="45.52765" lon="4.41982">
        <ele>833</ele>
        <time>2022-11-18T13:40:59Z</time>
      </trkpt>
      <trkpt lat="45.52742" lon="4.42008">
        <ele>833</ele>
        <time>2022-11-18T13:41:05Z</time>
      </trkpt>
      <trkpt lat="45.5273" lon="4.42032">
        <ele>834</ele>
        <time>2022-11-18T13:41:08Z</time>
      </trkpt>
      <trkpt lat="45.52697" lon="4.4215">
        <ele>835</ele>
        <time>2022-11-18T13:41:24Z</time>
      </trkpt>
      <trkpt lat="45.52694" lon="4.4217">
        <ele>835</ele>
        <time>2022-11-18T13:41:27Z</time>
      </trkpt>
      <trkpt lat="45.52698" lon="4.42199">
        <ele>834</ele>
        <time>2022-11-18T13:41:30Z</time>
      </trkpt>
      <trkpt lat="45.52717" lon="4.42239">
        <ele>833</ele>
        <time>2022-11-18T13:41:36Z</time>
      </trkpt>
      <trkpt lat="45.52727" lon="4.42275">
        <ele>831</ele>
        <time>2022-11-18T13:41:41Z</time>
      </trkpt>
      <trkpt lat="45.52726" lon="4.4231">
        <ele>830</ele>
        <time>2022-11-18T13:41:46Z</time>
      </trkpt>
      <trkpt lat="45.52723" lon="4.42328">
        <ele>830</ele>
        <time>2022-11-18T13:41:48Z</time>
      </trkpt>
      <trkpt lat="45.52671" lon="4.4249">
        <ele>827</ele>
        <time>2022-11-18T13:42:10Z</time>
      </trkpt>
      <trkpt lat="45.52668" lon="4.42506">
        <ele>827</ele>
        <time>2022-11-18T13:42:12Z</time>
      </trkpt>
      <trkpt lat="45.52668" lon="4.42526">
        <ele>825</ele>
        <time>2022-11-18T13:42:15Z</time>
      </trkpt>
      <trkpt lat="45.52672" lon="4.42546">
        <ele>824</ele>
        <time>2022-11-18T13:42:17Z</time>
      </trkpt>
      <trkpt lat="45.52725" lon="4.42684">
        <ele>818</ele>
        <time>2022-11-18T13:42:37Z</time>
      </trkpt>
      <trkpt lat="45.5273" lon="4.42705">
        <ele>818</ele>
        <time>2022-11-18T13:42:40Z</time>
      </trkpt>
      <trkpt lat="45.52729" lon="4.42725">
        <ele>817</ele>
        <time>2022-11-18T13:42:42Z</time>
      </trkpt>
      <trkpt lat="45.527" lon="4.42841">
        <ele>810</ele>
        <time>2022-11-18T13:42:58Z</time>
      </trkpt>
      <trkpt lat="45.52698" lon="4.4287">
        <ele>808</ele>
        <time>2022-11-18T13:43:01Z</time>
      </trkpt>
      <trkpt lat="45.52699" lon="4.429">
        <ele>807</ele>
        <time>2022-11-18T13:43:05Z</time>
      </trkpt>
      <trkpt lat="45.52709" lon="4.42944">
        <ele>806</ele>
        <time>2022-11-18T13:43:11Z</time>
      </trkpt>
      <trkpt lat="45.52717" lon="4.42966">
        <ele>805</ele>
        <time>2022-11-18T13:43:14Z</time>
      </trkpt>
      <trkpt lat="45.52733" lon="4.42996">
        <ele>806</ele>
        <time>2022-11-18T13:43:18Z</time>
      </trkpt>
      <trkpt lat="45.52764" lon="4.43047">
        <ele>805</ele>
        <time>2022-11-18T13:43:27Z</time>
      </trkpt>
      <trkpt lat="45.52792" lon="4.43099">
        <ele>803</ele>
        <time>2022-11-18T13:43:35Z</time>
      </trkpt>
      <trkpt lat="45.5284" lon="4.4323">
        <ele>799</ele>
        <time>2022-11-18T13:43:53Z</time>
      </trkpt>
      <trkpt lat="45.52863" lon="4.43259">
        <ele>798</ele>
        <time>2022-11-18T13:43:59Z</time>
      </trkpt>
      <trkpt lat="45.52888" lon="4.43281">
        <ele>799</ele>
        <time>2022-11-18T13:44:04Z</time>
      </trkpt>
      <trkpt lat="45.52889" lon="4.4329">
        <ele>798</ele>
        <time>2022-11-18T13:44:05Z</time>
      </trkpt>
      <trkpt lat="45.52882" lon="4.43316">
        <ele>795</ele>
        <time>2022-11-18T13:44:09Z</time>
      </trkpt>
      <trkpt lat="45.52933" lon="4.43359">
        <ele>798</ele>
        <time>2022-11-18T13:44:19Z</time>
      </trkpt>
      <trkpt lat="45.52965" lon="4.43378">
        <ele>798</ele>
        <time>2022-11-18T13:44:25Z</time>
      </trkpt>
      <trkpt lat="45.53026" lon="4.434">
        <ele>799</ele>
        <time>2022-11-18T13:44:37Z</time>
      </trkpt>
      <trkpt lat="45.53046" lon="4.43411">
        <ele>799</ele>
        <time>2022-11-18T13:44:40Z</time>
      </trkpt>
      <trkpt lat="45.53088" lon="4.43453">
        <ele>799</ele>
        <time>2022-11-18T13:44:50Z</time>
      </trkpt>
      <trkpt lat="45.53109" lon="4.43484">
        <ele>798</ele>
        <time>2022-11-18T13:44:55Z</time>
      </trkpt>
      <trkpt lat="45.53235" lon="4.43709">
        <ele>804</ele>
        <time>2022-11-18T13:45:31Z</time>
      </trkpt>
      <trkpt lat="45.53335" lon="4.43904">
        <ele>809</ele>
        <time>2022-11-18T13:46:01Z</time>
      </trkpt>
      <trkpt lat="45.53365" lon="4.43946">
        <ele>809</ele>
        <time>2022-11-18T13:46:08Z</time>
      </trkpt>
      <trkpt lat="45.53416" lon="4.44005">
        <ele>812</ele>
        <time>2022-11-18T13:46:20Z</time>
      </trkpt>
      <trkpt lat="45.5358" lon="4.44148">
        <ele>813</ele>
        <time>2022-11-18T13:46:54Z</time>
      </trkpt>
      <trkpt lat="45.53608" lon="4.44167">
        <ele>815</ele>
        <time>2022-11-18T13:47:00Z</time>
      </trkpt>
      <trkpt lat="45.53632" lon="4.44172">
        <ele>815</ele>
        <time>2022-11-18T13:47:04Z</time>
      </trkpt>
      <trkpt lat="45.53644" lon="4.44167">
        <ele>814</ele>
        <time>2022-11-18T13:47:06Z</time>
      </trkpt>
      <trkpt lat="45.53658" lon="4.44155">
        <ele>813</ele>
        <time>2022-11-18T13:47:09Z</time>
      </trkpt>
      <trkpt lat="45.53672" lon="4.44133">
        <ele>811</ele>
        <time>2022-11-18T13:47:13Z</time>
      </trkpt>
      <trkpt lat="45.53692" lon="4.44111">
        <ele>810</ele>
        <time>2022-11-18T13:47:18Z</time>
      </trkpt>
      <trkpt lat="45.53714" lon="4.44101">
        <ele>809</ele>
        <time>2022-11-18T13:47:22Z</time>
      </trkpt>
      <trkpt lat="45.53739" lon="4.441">
        <ele>810</ele>
        <time>2022-11-18T13:47:26Z</time>
      </trkpt>
      <trkpt lat="45.53762" lon="4.44109">
        <ele>811</ele>
        <time>2022-11-18T13:47:30Z</time>
      </trkpt>
      <trkpt lat="45.53794" lon="4.44129">
        <ele>812</ele>
        <time>2022-11-18T13:47:37Z</time>
      </trkpt>
      <trkpt lat="45.53822" lon="4.4415">
        <ele>812</ele>
        <time>2022-11-18T13:47:42Z</time>
      </trkpt>
      <trkpt lat="45.53858" lon="4.44183">
        <ele>812</ele>
        <time>2022-11-18T13:47:50Z</time>
      </trkpt>
      <trkpt lat="45.53879" lon="4.44213">
        <ele>812</ele>
        <time>2022-11-18T13:47:55Z</time>
      </trkpt>
      <trkpt lat="45.53894" lon="4.44243">
        <ele>813</ele>
        <time>2022-11-18T13:48:00Z</time>
      </trkpt>
      <trkpt lat="45.53911" lon="4.44297">
        <ele>813</ele>
        <time>2022-11-18T13:48:07Z</time>
      </trkpt>
      <trkpt lat="45.53924" lon="4.4435">
        <ele>813</ele>
        <time>2022-11-18T13:48:14Z</time>
      </trkpt>
      <trkpt lat="45.53936" lon="4.44385">
        <ele>813</ele>
        <time>2022-11-18T13:48:19Z</time>
      </trkpt>
      <trkpt lat="45.53962" lon="4.44443">
        <ele>815</ele>
        <time>2022-11-18T13:48:27Z</time>
      </trkpt>
      <trkpt lat="45.53973" lon="4.44461">
        <ele>815</ele>
        <time>2022-11-18T13:48:30Z</time>
      </trkpt>
      <trkpt lat="45.53987" lon="4.44474">
        <ele>815</ele>
        <time>2022-11-18T13:48:33Z</time>
      </trkpt>
      <trkpt lat="45.54005" lon="4.44477">
        <ele>814</ele>
        <time>2022-11-18T13:48:37Z</time>
      </trkpt>
      <trkpt lat="45.5402" lon="4.44475">
        <ele>815</ele>
        <time>2022-11-18T13:48:39Z</time>
      </trkpt>
      <trkpt lat="45.5404" lon="4.44464">
        <ele>814</ele>
        <time>2022-11-18T13:48:43Z</time>
      </trkpt>
      <trkpt lat="45.54122" lon="4.44396">
        <ele>808</ele>
        <time>2022-11-18T13:49:00Z</time>
      </trkpt>
      <trkpt lat="45.54147" lon="4.4439">
        <ele>809</ele>
        <time>2022-11-18T13:49:05Z</time>
      </trkpt>
      <trkpt lat="45.54161" lon="4.44392">
        <ele>809</ele>
        <time>2022-11-18T13:49:07Z</time>
      </trkpt>
      <trkpt lat="45.54186" lon="4.44407">
        <ele>810</ele>
        <time>2022-11-18T13:49:12Z</time>
      </trkpt>
      <trkpt lat="45.54199" lon="4.44418">
        <ele>810</ele>
        <time>2022-11-18T13:49:15Z</time>
      </trkpt>
      <trkpt lat="45.5421" lon="4.44432">
        <ele>810</ele>
        <time>2022-11-18T13:49:17Z</time>
      </trkpt>
      <trkpt lat="45.54246" lon="4.445">
        <ele>812</ele>
        <time>2022-11-18T13:49:28Z</time>
      </trkpt>
      <trkpt lat="45.54264" lon="4.44554">
        <ele>818</ele>
        <time>2022-11-18T13:49:35Z</time>
      </trkpt>
      <trkpt lat="45.54271" lon="4.44568">
        <ele>819</ele>
        <time>2022-11-18T13:49:37Z</time>
      </trkpt>
      <trkpt lat="45.54285" lon="4.4458">
        <ele>820</ele>
        <time>2022-11-18T13:49:40Z</time>
      </trkpt>
      <trkpt lat="45.54298" lon="4.44584">
        <ele>820</ele>
        <time>2022-11-18T13:49:43Z</time>
      </trkpt>
      <trkpt lat="45.54314" lon="4.44581">
        <ele>820</ele>
        <time>2022-11-18T13:49:46Z</time>
      </trkpt>
      <trkpt lat="45.5433" lon="4.44563">
        <ele>819</ele>
        <time>2022-11-18T13:49:49Z</time>
      </trkpt>
      <trkpt lat="45.54336" lon="4.44541">
        <ele>819</ele>
        <time>2022-11-18T13:49:52Z</time>
      </trkpt>
      <trkpt lat="45.54339" lon="4.44517">
        <ele>818</ele>
        <time>2022-11-18T13:49:55Z</time>
      </trkpt>
      <trkpt lat="45.54341" lon="4.44456">
        <ele>818</ele>
        <time>2022-11-18T13:50:03Z</time>
      </trkpt>
      <trkpt lat="45.54347" lon="4.44398">
        <ele>820</ele>
        <time>2022-11-18T13:50:10Z</time>
      </trkpt>
      <trkpt lat="45.54344" lon="4.44364">
        <ele>821</ele>
        <time>2022-11-18T13:50:14Z</time>
      </trkpt>
      <trkpt lat="45.54333" lon="4.44314">
        <ele>821</ele>
        <time>2022-11-18T13:50:21Z</time>
      </trkpt>
      <trkpt lat="45.54326" lon="4.44296">
        <ele>820</ele>
        <time>2022-11-18T13:50:23Z</time>
      </trkpt>
      <trkpt lat="45.54322" lon="4.44277">
        <ele>820</ele>
        <time>2022-11-18T13:50:26Z</time>
      </trkpt>
      <trkpt lat="45.54321" lon="4.4424">
        <ele>821</ele>
        <time>2022-11-18T13:50:31Z</time>
      </trkpt>
      <trkpt lat="45.54327" lon="4.44203">
        <ele>822</ele>
        <time>2022-11-18T13:50:35Z</time>
      </trkpt>
      <trkpt lat="45.54335" lon="4.44168">
        <ele>824</ele>
        <time>2022-11-18T13:50:40Z</time>
      </trkpt>
      <trkpt lat="45.54354" lon="4.44112">
        <ele>824</ele>
        <time>2022-11-18T13:50:48Z</time>
      </trkpt>
      <trkpt lat="45.54363" lon="4.44096">
        <ele>824</ele>
        <time>2022-11-18T13:50:50Z</time>
      </trkpt>
      <trkpt lat="45.54387" lon="4.44072">
        <ele>824</ele>
        <time>2022-11-18T13:50:55Z</time>
      </trkpt>
      <trkpt lat="45.54399" lon="4.44066">
        <ele>824</ele>
        <time>2022-11-18T13:50:58Z</time>
      </trkpt>
      <trkpt lat="45.54423" lon="4.44061">
        <ele>826</ele>
        <time>2022-11-18T13:51:02Z</time>
      </trkpt>
      <trkpt lat="45.54421" lon="4.44087">
        <ele>830</ele>
        <time>2022-11-18T13:51:05Z</time>
      </trkpt>
      <trkpt lat="45.54411" lon="4.44105">
        <ele>831</ele>
        <time>2022-11-18T13:51:08Z</time>
      </trkpt>
      <trkpt lat="45.54396" lon="4.44119">
        <ele>830</ele>
        <time>2022-11-18T13:51:11Z</time>
      </trkpt>
      <trkpt lat="45.54383" lon="4.44137">
        <ele>830</ele>
        <time>2022-11-18T13:51:14Z</time>
      </trkpt>
      <trkpt lat="45.54376" lon="4.44177">
        <ele>831</ele>
        <time>2022-11-18T13:51:20Z</time>
      </trkpt>
      <trkpt lat="45.54375" lon="4.44272">
        <ele>830</ele>
        <time>2022-11-18T13:51:31Z</time>
      </trkpt>
      <trkpt lat="45.54381" lon="4.44378">
        <ele>829</ele>
        <time>2022-11-18T13:51:45Z</time>
      </trkpt>
      <trkpt lat="45.54394" lon="4.44501">
        <ele>832</ele>
        <time>2022-11-18T13:52:00Z</time>
      </trkpt>
      <trkpt lat="45.54409" lon="4.44598">
        <ele>836</ele>
        <time>2022-11-18T13:52:13Z</time>
      </trkpt>
      <trkpt lat="45.54423" lon="4.44636">
        <ele>837</ele>
        <time>2022-11-18T13:52:18Z</time>
      </trkpt>
      <trkpt lat="45.54453" lon="4.44683">
        <ele>840</ele>
        <time>2022-11-18T13:52:26Z</time>
      </trkpt>
      <trkpt lat="45.54503" lon="4.44736">
        <ele>846</ele>
        <time>2022-11-18T13:52:37Z</time>
      </trkpt>
      <trkpt lat="45.54515" lon="4.44752">
        <ele>845</ele>
        <time>2022-11-18T13:52:40Z</time>
      </trkpt>
      <trkpt lat="45.54521" lon="4.44764">
        <ele>845</ele>
        <time>2022-11-18T13:52:42Z</time>
      </trkpt>
      <trkpt lat="45.54525" lon="4.44784">
        <ele>845</ele>
        <time>2022-11-18T13:52:44Z</time>
      </trkpt>
      <trkpt lat="45.54525" lon="4.44801">
        <ele>844</ele>
        <time>2022-11-18T13:52:46Z</time>
      </trkpt>
      <trkpt lat="45.54518" lon="4.44835">
        <ele>843</ele>
        <time>2022-11-18T13:52:51Z</time>
      </trkpt>
      <trkpt lat="45.54495" lon="4.4492">
        <ele>844</ele>
        <time>2022-11-18T13:53:02Z</time>
      </trkpt>
      <trkpt lat="45.54457" lon="4.45086">
        <ele>850</ele>
        <time>2022-11-18T13:53:24Z</time>
      </trkpt>
      <trkpt lat="45.54446" lon="4.45179">
        <ele>853</ele>
        <time>2022-11-18T13:53:36Z</time>
      </trkpt>
      <trkpt lat="45.54445" lon="4.45232">
        <ele>852</ele>
        <time>2022-11-18T13:53:42Z</time>
      </trkpt>
      <trkpt lat="45.5445" lon="4.45337">
        <ele>851</ele>
        <time>2022-11-18T13:53:55Z</time>
      </trkpt>
      <trkpt lat="45.54451" lon="4.45437">
        <ele>849</ele>
        <time>2022-11-18T13:54:08Z</time>
      </trkpt>
      <trkpt lat="45.54448" lon="4.45476">
        <ele>848</ele>
        <time>2022-11-18T13:54:13Z</time>
      </trkpt>
      <trkpt lat="45.54444" lon="4.45503">
        <ele>848</ele>
        <time>2022-11-18T13:54:16Z</time>
      </trkpt>
      <trkpt lat="45.54411" lon="4.45598">
        <ele>846</ele>
        <time>2022-11-18T13:54:29Z</time>
      </trkpt>
      <trkpt lat="45.5441" lon="4.45619">
        <ele>846</ele>
        <time>2022-11-18T13:54:32Z</time>
      </trkpt>
      <trkpt lat="45.54413" lon="4.4567">
        <ele>845</ele>
        <time>2022-11-18T13:54:38Z</time>
      </trkpt>
      <trkpt lat="45.54418" lon="4.45693">
        <ele>844</ele>
        <time>2022-11-18T13:54:41Z</time>
      </trkpt>
      <trkpt lat="45.54427" lon="4.45718">
        <ele>843</ele>
        <time>2022-11-18T13:54:45Z</time>
      </trkpt>
      <trkpt lat="45.54449" lon="4.45761">
        <ele>842</ele>
        <time>2022-11-18T13:54:52Z</time>
      </trkpt>
      <trkpt lat="45.54455" lon="4.45783">
        <ele>841</ele>
        <time>2022-11-18T13:54:54Z</time>
      </trkpt>
      <trkpt lat="45.54459" lon="4.4583">
        <ele>839</ele>
        <time>2022-11-18T13:55:00Z</time>
      </trkpt>
      <trkpt lat="45.54422" lon="4.46055">
        <ele>837</ele>
        <time>2022-11-18T13:55:29Z</time>
      </trkpt>
      <trkpt lat="45.54425" lon="4.46097">
        <ele>838</ele>
        <time>2022-11-18T13:55:34Z</time>
      </trkpt>
      <trkpt lat="45.54442" lon="4.46165">
        <ele>839</ele>
        <time>2022-11-18T13:55:43Z</time>
      </trkpt>
      <trkpt lat="45.54453" lon="4.46238">
        <ele>840</ele>
        <time>2022-11-18T13:55:53Z</time>
      </trkpt>
      <trkpt lat="45.5446" lon="4.46372">
        <ele>844</ele>
        <time>2022-11-18T13:56:09Z</time>
      </trkpt>
      <trkpt lat="45.54479" lon="4.46556">
        <ele>847</ele>
        <time>2022-11-18T13:56:33Z</time>
      </trkpt>
      <trkpt lat="45.54493" lon="4.46625">
        <ele>847</ele>
        <time>2022-11-18T13:56:42Z</time>
      </trkpt>
      <trkpt lat="45.54545" lon="4.46829">
        <ele>846</ele>
        <time>2022-11-18T13:57:09Z</time>
      </trkpt>
      <trkpt lat="45.54562" lon="4.46869">
        <ele>847</ele>
        <time>2022-11-18T13:57:15Z</time>
      </trkpt>
      <trkpt lat="45.54582" lon="4.46907">
        <ele>849</ele>
        <time>2022-11-18T13:57:20Z</time>
      </trkpt>
      <trkpt lat="45.54614" lon="4.46958">
        <ele>849</ele>
        <time>2022-11-18T13:57:29Z</time>
      </trkpt>
      <trkpt lat="45.54638" lon="4.47007">
        <ele>850</ele>
        <time>2022-11-18T13:57:36Z</time>
      </trkpt>
      <trkpt lat="45.5465" lon="4.47058">
        <ele>854</ele>
        <time>2022-11-18T13:57:43Z</time>
      </trkpt>
      <trkpt lat="45.54659" lon="4.47126">
        <ele>856</ele>
        <time>2022-11-18T13:57:52Z</time>
      </trkpt>
      <trkpt lat="45.54671" lon="4.47189">
        <ele>857</ele>
        <time>2022-11-18T13:58:00Z</time>
      </trkpt>
      <trkpt lat="45.54684" lon="4.47232">
        <ele>858</ele>
        <time>2022-11-18T13:58:06Z</time>
      </trkpt>
      <trkpt lat="45.54697" lon="4.47261">
        <ele>857</ele>
        <time>2022-11-18T13:58:10Z</time>
      </trkpt>
      <trkpt lat="45.54792" lon="4.47422">
        <ele>859</ele>
        <time>2022-11-18T13:58:36Z</time>
      </trkpt>
      <trkpt lat="45.548" lon="4.4745">
        <ele>859</ele>
        <time>2022-11-18T13:58:40Z</time>
      </trkpt>
      <trkpt lat="45.5481" lon="4.47506">
        <ele>861</ele>
        <time>2022-11-18T13:58:47Z</time>
      </trkpt>
      <trkpt lat="45.54813" lon="4.47637">
        <ele>860</ele>
        <time>2022-11-18T13:59:04Z</time>
      </trkpt>
      <trkpt lat="45.54818" lon="4.47678">
        <ele>859</ele>
        <time>2022-11-18T13:59:09Z</time>
      </trkpt>
      <trkpt lat="45.54833" lon="4.47739">
        <ele>858</ele>
        <time>2022-11-18T13:59:17Z</time>
      </trkpt>
      <trkpt lat="45.54853" lon="4.47798">
        <ele>855</ele>
        <time>2022-11-18T13:59:25Z</time>
      </trkpt>
      <trkpt lat="45.54888" lon="4.4786">
        <ele>853</ele>
        <time>2022-11-18T13:59:35Z</time>
      </trkpt>
      <trkpt lat="45.549" lon="4.4789">
        <ele>853</ele>
        <time>2022-11-18T13:59:39Z</time>
      </trkpt>
      <trkpt lat="45.54907" lon="4.47934">
        <ele>852</ele>
        <time>2022-11-18T13:59:45Z</time>
      </trkpt>
      <trkpt lat="45.54915" lon="4.48038">
        <ele>851</ele>
        <time>2022-11-18T13:59:58Z</time>
      </trkpt>
      <trkpt lat="45.5491" lon="4.48067">
        <ele>850</ele>
        <time>2022-11-18T14:00:02Z</time>
      </trkpt>
      <trkpt lat="45.54892" lon="4.48096">
        <ele>848</ele>
        <time>2022-11-18T14:00:06Z</time>
      </trkpt>
      <trkpt lat="45.54862" lon="4.48117">
        <ele>845</ele>
        <time>2022-11-18T14:00:12Z</time>
      </trkpt>
      <trkpt lat="45.54787" lon="4.48141">
        <ele>838</ele>
        <time>2022-11-18T14:00:26Z</time>
      </trkpt>
      <trkpt lat="45.54758" lon="4.48148">
        <ele>836</ele>
        <time>2022-11-18T14:00:31Z</time>
      </trkpt>
      <trkpt lat="45.54737" lon="4.48161">
        <ele>835</ele>
        <time>2022-11-18T14:00:35Z</time>
      </trkpt>
      <trkpt lat="45.54711" lon="4.48194">
        <ele>832</ele>
        <time>2022-11-18T14:00:41Z</time>
      </trkpt>
      <trkpt lat="45.54703" lon="4.4822">
        <ele>831</ele>
        <time>2022-11-18T14:00:45Z</time>
      </trkpt>
      <trkpt lat="45.54701" lon="4.48246">
        <ele>831</ele>
        <time>2022-11-18T14:00:48Z</time>
      </trkpt>
      <trkpt lat="45.54705" lon="4.48273">
        <ele>831</ele>
        <time>2022-11-18T14:00:52Z</time>
      </trkpt>
      <trkpt lat="45.54717" lon="4.48312">
        <ele>831</ele>
        <time>2022-11-18T14:00:57Z</time>
      </trkpt>
      <trkpt lat="45.54727" lon="4.48357">
        <ele>830</ele>
        <time>2022-11-18T14:01:03Z</time>
      </trkpt>
      <trkpt lat="45.54726" lon="4.4838">
        <ele>830</ele>
        <time>2022-11-18T14:01:06Z</time>
      </trkpt>
      <trkpt lat="45.54719" lon="4.48404">
        <ele>828</ele>
        <time>2022-11-18T14:01:09Z</time>
      </trkpt>
      <trkpt lat="45.54629" lon="4.48556">
        <ele>822</ele>
        <time>2022-11-18T14:01:34Z</time>
      </trkpt>
      <trkpt lat="45.54606" lon="4.48574">
        <ele>821</ele>
        <time>2022-11-18T14:01:39Z</time>
      </trkpt>
      <trkpt lat="45.54556" lon="4.48591">
        <ele>818</ele>
        <time>2022-11-18T14:01:48Z</time>
      </trkpt>
      <trkpt lat="45.54536" lon="4.48609">
        <ele>816</ele>
        <time>2022-11-18T14:01:52Z</time>
      </trkpt>
      <trkpt lat="45.54548" lon="4.48726">
        <ele>815</ele>
        <time>2022-11-18T14:02:07Z</time>
      </trkpt>
      <trkpt lat="45.54555" lon="4.4875">
        <ele>815</ele>
        <time>2022-11-18T14:02:10Z</time>
      </trkpt>
      <trkpt lat="45.54564" lon="4.48765">
        <ele>815</ele>
        <time>2022-11-18T14:02:12Z</time>
      </trkpt>
      <trkpt lat="45.54791" lon="4.48786">
        <ele>826</ele>
        <time>2022-11-18T14:02:53Z</time>
      </trkpt>
      <trkpt lat="45.54814" lon="4.48798">
        <ele>828</ele>
        <time>2022-11-18T14:02:57Z</time>
      </trkpt>
      <trkpt lat="45.54832" lon="4.48818">
        <ele>829</ele>
        <time>2022-11-18T14:03:01Z</time>
      </trkpt>
      <trkpt lat="45.54859" lon="4.48873">
        <ele>831</ele>
        <time>2022-11-18T14:03:10Z</time>
      </trkpt>
      <trkpt lat="45.5489" lon="4.4895">
        <ele>832</ele>
        <time>2022-11-18T14:03:21Z</time>
      </trkpt>
      <trkpt lat="45.54904" lon="4.48976">
        <ele>833</ele>
        <time>2022-11-18T14:03:25Z</time>
      </trkpt>
      <trkpt lat="45.54917" lon="4.48995">
        <ele>833</ele>
        <time>2022-11-18T14:03:28Z</time>
      </trkpt>
      <trkpt lat="45.5501" lon="4.4909">
        <ele>832</ele>
        <time>2022-11-18T14:03:48Z</time>
      </trkpt>
      <trkpt lat="45.55049" lon="4.49117">
        <ele>833</ele>
        <time>2022-11-18T14:03:56Z</time>
      </trkpt>
      <trkpt lat="45.55061" lon="4.49119">
        <ele>833</ele>
        <time>2022-11-18T14:03:58Z</time>
      </trkpt>
      <trkpt lat="45.55088" lon="4.49114">
        <ele>834</ele>
        <time>2022-11-18T14:04:03Z</time>
      </trkpt>
      <trkpt lat="45.55103" lon="4.49114">
        <ele>834</ele>
        <time>2022-11-18T14:04:06Z</time>
      </trkpt>
      <trkpt lat="45.55121" lon="4.49118">
        <ele>834</ele>
        <time>2022-11-18T14:04:09Z</time>
      </trkpt>
      <trkpt lat="45.55141" lon="4.49127">
        <ele>835</ele>
        <time>2022-11-18T14:04:13Z</time>
      </trkpt>
      <trkpt lat="45.5519" lon="4.49163">
        <ele>837</ele>
        <time>2022-11-18T14:04:23Z</time>
      </trkpt>
      <trkpt lat="45.55225" lon="4.49182">
        <ele>838</ele>
        <time>2022-11-18T14:04:29Z</time>
      </trkpt>
      <trkpt lat="45.55248" lon="4.49188">
        <ele>839</ele>
        <time>2022-11-18T14:04:33Z</time>
      </trkpt>
      <trkpt lat="45.5526" lon="4.49185">
        <ele>840</ele>
        <time>2022-11-18T14:04:36Z</time>
      </trkpt>
      <trkpt lat="45.5527" lon="4.49177">
        <ele>841</ele>
        <time>2022-11-18T14:04:38Z</time>
      </trkpt>
      <trkpt lat="45.55278" lon="4.49164">
        <ele>841</ele>
        <time>2022-11-18T14:04:40Z</time>
      </trkpt>
      <trkpt lat="45.55306" lon="4.491">
        <ele>840</ele>
        <time>2022-11-18T14:04:49Z</time>
      </trkpt>
      <trkpt lat="45.55322" lon="4.49073">
        <ele>839</ele>
        <time>2022-11-18T14:04:54Z</time>
      </trkpt>
      <trkpt lat="45.55353" lon="4.4904">
        <ele>839</ele>
        <time>2022-11-18T14:05:00Z</time>
      </trkpt>
      <trkpt lat="45.5538" lon="4.49015">
        <ele>839</ele>
        <time>2022-11-18T14:05:06Z</time>
      </trkpt>
      <trkpt lat="45.55407" lon="4.48994">
        <ele>838</ele>
        <time>2022-11-18T14:05:12Z</time>
      </trkpt>
      <trkpt lat="45.55421" lon="4.48987">
        <ele>838</ele>
        <time>2022-11-18T14:05:14Z</time>
      </trkpt>
      <trkpt lat="45.55437" lon="4.48984">
        <ele>838</ele>
        <time>2022-11-18T14:05:17Z</time>
      </trkpt>
      <trkpt lat="45.55475" lon="4.48992">
        <ele>840</ele>
        <time>2022-11-18T14:05:24Z</time>
      </trkpt>
      <trkpt lat="45.55511" lon="4.49016">
        <ele>843</ele>
        <time>2022-11-18T14:05:31Z</time>
      </trkpt>
      <trkpt lat="45.55535" lon="4.49038">
        <ele>843</ele>
        <time>2022-11-18T14:05:36Z</time>
      </trkpt>
      <trkpt lat="45.55575" lon="4.49085">
        <ele>844</ele>
        <time>2022-11-18T14:05:45Z</time>
      </trkpt>
      <trkpt lat="45.55599" lon="4.49128">
        <ele>844</ele>
        <time>2022-11-18T14:05:52Z</time>
      </trkpt>
      <trkpt lat="45.55614" lon="4.49163">
        <ele>844</ele>
        <time>2022-11-18T14:05:57Z</time>
      </trkpt>
      <trkpt lat="45.55659" lon="4.49249">
        <ele>845</ele>
        <time>2022-11-18T14:06:11Z</time>
      </trkpt>
      <trkpt lat="45.5571" lon="4.49329">
        <ele>844</ele>
        <time>2022-11-18T14:06:24Z</time>
      </trkpt>
      <trkpt lat="45.55779" lon="4.49448">
        <ele>844</ele>
        <time>2022-11-18T14:06:43Z</time>
      </trkpt>
      <trkpt lat="45.55796" lon="4.49466">
        <ele>843</ele>
        <time>2022-11-18T14:06:47Z</time>
      </trkpt>
      <trkpt lat="45.55812" lon="4.49474">
        <ele>842</ele>
        <time>2022-11-18T14:06:50Z</time>
      </trkpt>
      <trkpt lat="45.55855" lon="4.49478">
        <ele>841</ele>
        <time>2022-11-18T14:06:58Z</time>
      </trkpt>
      <trkpt lat="45.55918" lon="4.4947">
        <ele>841</ele>
        <time>2022-11-18T14:07:09Z</time>
      </trkpt>
      <trkpt lat="45.55957" lon="4.49468">
        <ele>841</ele>
        <time>2022-11-18T14:07:16Z</time>
      </trkpt>
      <trkpt lat="45.56024" lon="4.49472">
        <ele>840</ele>
        <time>2022-11-18T14:07:28Z</time>
      </trkpt>
      <trkpt lat="45.5609" lon="4.49493">
        <ele>836</ele>
        <time>2022-11-18T14:07:40Z</time>
      </trkpt>
      <trkpt lat="45.56134" lon="4.49524">
        <ele>835</ele>
        <time>2022-11-18T14:07:49Z</time>
      </trkpt>
      <trkpt lat="45.56222" lon="4.49597">
        <ele>834</ele>
        <time>2022-11-18T14:08:07Z</time>
      </trkpt>
      <trkpt lat="45.56113" lon="4.49748">
        <ele>836</ele>
        <time>2022-11-18T14:08:34Z</time>
      </trkpt>
      <trkpt lat="45.56034" lon="4.49835">
        <ele>846</ele>
        <time>2022-11-18T14:08:52Z</time>
      </trkpt>
      <trkpt lat="45.55904" lon="4.50079">
        <ele>815</ele>
        <time>2022-11-18T14:09:30Z</time>
      </trkpt>
      <trkpt lat="45.55887" lon="4.5009">
        <ele>810</ele>
        <time>2022-11-18T14:09:33Z</time>
      </trkpt>
      <trkpt lat="45.55864" lon="4.50083">
        <ele>809</ele>
        <time>2022-11-18T14:09:37Z</time>
      </trkpt>
      <trkpt lat="45.55818" lon="4.50043">
        <ele>817</ele>
        <time>2022-11-18T14:09:47Z</time>
      </trkpt>
      <trkpt lat="45.55745" lon="4.50044">
        <ele>812</ele>
        <time>2022-11-18T14:10:00Z</time>
      </trkpt>
      <trkpt lat="45.55675" lon="4.50054">
        <ele>801</ele>
        <time>2022-11-18T14:10:12Z</time>
      </trkpt>
      <trkpt lat="45.55607" lon="4.50025">
        <ele>799</ele>
        <time>2022-11-18T14:10:25Z</time>
      </trkpt>
      <trkpt lat="45.55557" lon="4.50025">
        <ele>796</ele>
        <time>2022-11-18T14:10:34Z</time>
      </trkpt>
      <trkpt lat="45.55438" lon="4.50052">
        <ele>796</ele>
        <time>2022-11-18T14:10:55Z</time>
      </trkpt>
      <trkpt lat="45.55406" lon="4.50092">
        <ele>791</ele>
        <time>2022-11-18T14:11:03Z</time>
      </trkpt>
      <trkpt lat="45.55362" lon="4.50188">
        <ele>783</ele>
        <time>2022-11-18T14:11:17Z</time>
      </trkpt>
      <trkpt lat="45.55306" lon="4.50374">
        <ele>772</ele>
        <time>2022-11-18T14:11:42Z</time>
      </trkpt>
      <trkpt lat="45.55269" lon="4.50418">
        <ele>779</ele>
        <time>2022-11-18T14:11:51Z</time>
      </trkpt>
      <trkpt lat="45.55241" lon="4.50666">
        <ele>760</ele>
        <time>2022-11-18T14:12:22Z</time>
      </trkpt>
      <trkpt lat="45.55241" lon="4.50685">
        <ele>759</ele>
        <time>2022-11-18T14:12:25Z</time>
      </trkpt>
      <trkpt lat="45.55244" lon="4.50696">
        <ele>758</ele>
        <time>2022-11-18T14:12:26Z</time>
      </trkpt>
      <trkpt lat="45.55256" lon="4.50716">
        <ele>755</ele>
        <time>2022-11-18T14:12:29Z</time>
      </trkpt>
      <trkpt lat="45.55266" lon="4.50723">
        <ele>752</ele>
        <time>2022-11-18T14:12:31Z</time>
      </trkpt>
      <trkpt lat="45.55279" lon="4.50718">
        <ele>749</ele>
        <time>2022-11-18T14:12:34Z</time>
      </trkpt>
      <trkpt lat="45.55291" lon="4.50706">
        <ele>746</ele>
        <time>2022-11-18T14:12:36Z</time>
      </trkpt>
      <trkpt lat="45.55295" lon="4.50691">
        <ele>746</ele>
        <time>2022-11-18T14:12:38Z</time>
      </trkpt>
      <trkpt lat="45.55294" lon="4.50675">
        <ele>747</ele>
        <time>2022-11-18T14:12:40Z</time>
      </trkpt>
      <trkpt lat="45.5528" lon="4.50617">
        <ele>753</ele>
        <time>2022-11-18T14:12:48Z</time>
      </trkpt>
      <trkpt lat="45.55302" lon="4.50489">
        <ele>753</ele>
        <time>2022-11-18T14:13:04Z</time>
      </trkpt>
      <trkpt lat="45.55319" lon="4.50447">
        <ele>752</ele>
        <time>2022-11-18T14:13:10Z</time>
      </trkpt>
      <trkpt lat="45.55345" lon="4.50424">
        <ele>745</ele>
        <time>2022-11-18T14:13:16Z</time>
      </trkpt>
      <trkpt lat="45.55404" lon="4.50312">
        <ele>742</ele>
        <time>2022-11-18T14:13:33Z</time>
      </trkpt>
      <trkpt lat="45.55471" lon="4.50212">
        <ele>738</ele>
        <time>2022-11-18T14:13:51Z</time>
      </trkpt>
      <trkpt lat="45.55489" lon="4.50204">
        <ele>736</ele>
        <time>2022-11-18T14:13:54Z</time>
      </trkpt>
      <trkpt lat="45.55504" lon="4.5021">
        <ele>732</ele>
        <time>2022-11-18T14:13:57Z</time>
      </trkpt>
      <trkpt lat="45.55537" lon="4.50249">
        <ele>726</ele>
        <time>2022-11-18T14:14:04Z</time>
      </trkpt>
      <trkpt lat="45.5559" lon="4.50338">
        <ele>711</ele>
        <time>2022-11-18T14:14:19Z</time>
      </trkpt>
      <trkpt lat="45.55605" lon="4.50355">
        <ele>709</ele>
        <time>2022-11-18T14:14:22Z</time>
      </trkpt>
      <trkpt lat="45.55646" lon="4.50362">
        <ele>713</ele>
        <time>2022-11-18T14:14:30Z</time>
      </trkpt>
      <trkpt lat="45.55667" lon="4.50377">
        <ele>711</ele>
        <time>2022-11-18T14:14:34Z</time>
      </trkpt>
      <trkpt lat="45.55691" lon="4.50401">
        <ele>706</ele>
        <time>2022-11-18T14:14:39Z</time>
      </trkpt>
      <trkpt lat="45.55745" lon="4.50417">
        <ele>705</ele>
        <time>2022-11-18T14:14:49Z</time>
      </trkpt>
      <trkpt lat="45.55765" lon="4.50431">
        <ele>703</ele>
        <time>2022-11-18T14:14:53Z</time>
      </trkpt>
      <trkpt lat="45.55829" lon="4.50485">
        <ele>699</ele>
        <time>2022-11-18T14:15:06Z</time>
      </trkpt>
      <trkpt lat="45.55844" lon="4.50517">
        <ele>694</ele>
        <time>2022-11-18T14:15:11Z</time>
      </trkpt>
      <trkpt lat="45.55853" lon="4.50551">
        <ele>689</ele>
        <time>2022-11-18T14:15:15Z</time>
      </trkpt>
      <trkpt lat="45.55865" lon="4.50568">
        <ele>686</ele>
        <time>2022-11-18T14:15:18Z</time>
      </trkpt>
      <trkpt lat="45.55889" lon="4.50579">
        <ele>685</ele>
        <time>2022-11-18T14:15:23Z</time>
      </trkpt>
      <trkpt lat="45.55913" lon="4.50573">
        <ele>686</ele>
        <time>2022-11-18T14:15:27Z</time>
      </trkpt>
      <trkpt lat="45.55923" lon="4.50561">
        <ele>686</ele>
        <time>2022-11-18T14:15:30Z</time>
      </trkpt>
      <trkpt lat="45.55943" lon="4.50525">
        <ele>687</ele>
        <time>2022-11-18T14:15:35Z</time>
      </trkpt>
      <trkpt lat="45.56101" lon="4.50418">
        <ele>676</ele>
        <time>2022-11-18T14:16:06Z</time>
      </trkpt>
      <trkpt lat="45.56209" lon="4.50375">
        <ele>674</ele>
        <time>2022-11-18T14:16:26Z</time>
      </trkpt>
      <trkpt lat="45.56236" lon="4.50396">
        <ele>670</ele>
        <time>2022-11-18T14:16:32Z</time>
      </trkpt>
      <trkpt lat="45.56247" lon="4.50441">
        <ele>663</ele>
        <time>2022-11-18T14:16:38Z</time>
      </trkpt>
      <trkpt lat="45.56281" lon="4.50486">
        <ele>663</ele>
        <time>2022-11-18T14:16:46Z</time>
      </trkpt>
      <trkpt lat="45.56273" lon="4.50559">
        <ele>655</ele>
        <time>2022-11-18T14:16:55Z</time>
      </trkpt>
      <trkpt lat="45.56277" lon="4.506">
        <ele>653</ele>
        <time>2022-11-18T14:17:00Z</time>
      </trkpt>
      <trkpt lat="45.56316" lon="4.50683">
        <ele>661</ele>
        <time>2022-11-18T14:17:13Z</time>
      </trkpt>
      <trkpt lat="45.56303" lon="4.50711">
        <ele>658</ele>
        <time>2022-11-18T14:17:17Z</time>
      </trkpt>
      <trkpt lat="45.56265" lon="4.50734">
        <ele>647</ele>
        <time>2022-11-18T14:17:24Z</time>
      </trkpt>
      <trkpt lat="45.56233" lon="4.50762">
        <ele>642</ele>
        <time>2022-11-18T14:17:31Z</time>
      </trkpt>
      <trkpt lat="45.56203" lon="4.50813">
        <ele>640</ele>
        <time>2022-11-18T14:17:39Z</time>
      </trkpt>
      <trkpt lat="45.56185" lon="4.5088">
        <ele>641</ele>
        <time>2022-11-18T14:17:48Z</time>
      </trkpt>
      <trkpt lat="45.56135" lon="4.51144">
        <ele>639</ele>
        <time>2022-11-18T14:18:22Z</time>
      </trkpt>
      <trkpt lat="45.56111" lon="4.51245">
        <ele>639</ele>
        <time>2022-11-18T14:18:36Z</time>
      </trkpt>
      <trkpt lat="45.56087" lon="4.51295">
        <ele>637</ele>
        <time>2022-11-18T14:18:43Z</time>
      </trkpt>
      <trkpt lat="45.5605" lon="4.51352">
        <ele>632</ele>
        <time>2022-11-18T14:18:53Z</time>
      </trkpt>
      <trkpt lat="45.56033" lon="4.51419">
        <ele>631</ele>
        <time>2022-11-18T14:19:02Z</time>
      </trkpt>
      <trkpt lat="45.56031" lon="4.51487">
        <ele>628</ele>
        <time>2022-11-18T14:19:10Z</time>
      </trkpt>
      <trkpt lat="45.56045" lon="4.51578">
        <ele>626</ele>
        <time>2022-11-18T14:19:22Z</time>
      </trkpt>
      <trkpt lat="45.5605" lon="4.51595">
        <ele>626</ele>
        <time>2022-11-18T14:19:24Z</time>
      </trkpt>
      <trkpt lat="45.56053" lon="4.51774">
        <ele>613</ele>
        <time>2022-11-18T14:19:46Z</time>
      </trkpt>
      <trkpt lat="45.56058" lon="4.51808">
        <ele>610</ele>
        <time>2022-11-18T14:19:51Z</time>
      </trkpt>
      <trkpt lat="45.56089" lon="4.51832">
        <ele>611</ele>
        <time>2022-11-18T14:19:57Z</time>
      </trkpt>
      <trkpt lat="45.56157" lon="4.51853">
        <ele>610</ele>
        <time>2022-11-18T14:20:09Z</time>
      </trkpt>
      <trkpt lat="45.56245" lon="4.51864">
        <ele>613</ele>
        <time>2022-11-18T14:20:25Z</time>
      </trkpt>
      <trkpt lat="45.56254" lon="4.51882">
        <ele>613</ele>
        <time>2022-11-18T14:20:28Z</time>
      </trkpt>
      <trkpt lat="45.56239" lon="4.5196">
        <ele>607</ele>
        <time>2022-11-18T14:20:38Z</time>
      </trkpt>
      <trkpt lat="45.56221" lon="4.51998">
        <ele>603</ele>
        <time>2022-11-18T14:20:44Z</time>
      </trkpt>
      <trkpt lat="45.56195" lon="4.52029">
        <ele>600</ele>
        <time>2022-11-18T14:20:50Z</time>
      </trkpt>
      <trkpt lat="45.56167" lon="4.52068">
        <ele>598</ele>
        <time>2022-11-18T14:20:57Z</time>
      </trkpt>
      <trkpt lat="45.56165" lon="4.52156">
        <ele>599</ele>
        <time>2022-11-18T14:21:08Z</time>
      </trkpt>
      <trkpt lat="45.56154" lon="4.5221">
        <ele>601</ele>
        <time>2022-11-18T14:21:15Z</time>
      </trkpt>
      <trkpt lat="45.56145" lon="4.52225">
        <ele>601</ele>
        <time>2022-11-18T14:21:17Z</time>
      </trkpt>
      <trkpt lat="45.56028" lon="4.52283">
        <ele>590</ele>
        <time>2022-11-18T14:21:39Z</time>
      </trkpt>
      <trkpt lat="45.55995" lon="4.52297">
        <ele>587</ele>
        <time>2022-11-18T14:21:45Z</time>
      </trkpt>
      <trkpt lat="45.55956" lon="4.52331">
        <ele>583</ele>
        <time>2022-11-18T14:21:53Z</time>
      </trkpt>
      <trkpt lat="45.55928" lon="4.52385">
        <ele>580</ele>
        <time>2022-11-18T14:22:02Z</time>
      </trkpt>
      <trkpt lat="45.55927" lon="4.52428">
        <ele>582</ele>
        <time>2022-11-18T14:22:07Z</time>
      </trkpt>
      <trkpt lat="45.55942" lon="4.52477">
        <ele>585</ele>
        <time>2022-11-18T14:22:14Z</time>
      </trkpt>
      <trkpt lat="45.55949" lon="4.52511">
        <ele>587</ele>
        <time>2022-11-18T14:22:18Z</time>
      </trkpt>
      <trkpt lat="45.55942" lon="4.52541">
        <ele>588</ele>
        <time>2022-11-18T14:22:22Z</time>
      </trkpt>
      <trkpt lat="45.55914" lon="4.52563">
        <ele>584</ele>
        <time>2022-11-18T14:22:28Z</time>
      </trkpt>
      <trkpt lat="45.55753" lon="4.52595">
        <ele>572</ele>
        <time>2022-11-18T14:22:57Z</time>
      </trkpt>
      <trkpt lat="45.55725" lon="4.52629">
        <ele>570</ele>
        <time>2022-11-18T14:23:03Z</time>
      </trkpt>
      <trkpt lat="45.55711" lon="4.52669">
        <ele>569</ele>
        <time>2022-11-18T14:23:09Z</time>
      </trkpt>
      <trkpt lat="45.557" lon="4.52745">
        <ele>568</ele>
        <time>2022-11-18T14:23:19Z</time>
      </trkpt>
      <trkpt lat="45.557" lon="4.52808">
        <ele>571</ele>
        <time>2022-11-18T14:23:26Z</time>
      </trkpt>
      <trkpt lat="45.55694" lon="4.52838">
        <ele>571</ele>
        <time>2022-11-18T14:23:30Z</time>
      </trkpt>
      <trkpt lat="45.55667" lon="4.52854">
        <ele>565</ele>
        <time>2022-11-18T14:23:35Z</time>
      </trkpt>
      <trkpt lat="45.55616" lon="4.52853">
        <ele>558</ele>
        <time>2022-11-18T14:23:45Z</time>
      </trkpt>
      <trkpt lat="45.5559" lon="4.52861">
        <ele>555</ele>
        <time>2022-11-18T14:23:49Z</time>
      </trkpt>
      <trkpt lat="45.55575" lon="4.52898">
        <ele>554</ele>
        <time>2022-11-18T14:23:55Z</time>
      </trkpt>
      <trkpt lat="45.55581" lon="4.52925">
        <ele>555</ele>
        <time>2022-11-18T14:23:58Z</time>
      </trkpt>
      <trkpt lat="45.55621" lon="4.5299">
        <ele>553</ele>
        <time>2022-11-18T14:24:09Z</time>
      </trkpt>
      <trkpt lat="45.55667" lon="4.5305">
        <ele>555</ele>
        <time>2022-11-18T14:24:20Z</time>
      </trkpt>
      <trkpt lat="45.55674" lon="4.53117">
        <ele>553</ele>
        <time>2022-11-18T14:24:28Z</time>
      </trkpt>
      <trkpt lat="45.5565" lon="4.53158">
        <ele>548</ele>
        <time>2022-11-18T14:24:35Z</time>
      </trkpt>
      <trkpt lat="45.55617" lon="4.5324">
        <ele>547</ele>
        <time>2022-11-18T14:24:47Z</time>
      </trkpt>
      <trkpt lat="45.55602" lon="4.53263">
        <ele>544</ele>
        <time>2022-11-18T14:24:51Z</time>
      </trkpt>
      <trkpt lat="45.55587" lon="4.53299">
        <ele>541</ele>
        <time>2022-11-18T14:24:56Z</time>
      </trkpt>
      <trkpt lat="45.55582" lon="4.53326">
        <ele>541</ele>
        <time>2022-11-18T14:24:59Z</time>
      </trkpt>
      <trkpt lat="45.55509" lon="4.53394">
        <ele>531</ele>
        <time>2022-11-18T14:25:15Z</time>
      </trkpt>
      <trkpt lat="45.55493" lon="4.53437">
        <ele>527</ele>
        <time>2022-11-18T14:25:21Z</time>
      </trkpt>
      <trkpt lat="45.5549" lon="4.53463">
        <ele>525</ele>
        <time>2022-11-18T14:25:24Z</time>
      </trkpt>
      <trkpt lat="45.55493" lon="4.53481">
        <ele>525</ele>
        <time>2022-11-18T14:25:27Z</time>
      </trkpt>
      <trkpt lat="45.55525" lon="4.53534">
        <ele>524</ele>
        <time>2022-11-18T14:25:35Z</time>
      </trkpt>
      <trkpt lat="45.5552" lon="4.53536">
        <ele>523</ele>
        <time>2022-11-18T14:25:36Z</time>
      </trkpt>
      <trkpt lat="45.55476" lon="4.53477">
        <ele>521</ele>
        <time>2022-11-18T14:25:47Z</time>
      </trkpt>
      <trkpt lat="45.5546" lon="4.53434">
        <ele>520</ele>
        <time>2022-11-18T14:25:53Z</time>
      </trkpt>
      <trkpt lat="45.55442" lon="4.53372">
        <ele>517</ele>
        <time>2022-11-18T14:26:01Z</time>
      </trkpt>
      <trkpt lat="45.55437" lon="4.53261">
        <ele>511</ele>
        <time>2022-11-18T14:26:15Z</time>
      </trkpt>
      <trkpt lat="45.55442" lon="4.53229">
        <ele>510</ele>
        <time>2022-11-18T14:26:19Z</time>
      </trkpt>
      <trkpt lat="45.55447" lon="4.53207">
        <ele>508</ele>
        <time>2022-11-18T14:26:22Z</time>
      </trkpt>
      <trkpt lat="45.55491" lon="4.53146">
        <ele>511</ele>
        <time>2022-11-18T14:26:33Z</time>
      </trkpt>
      <trkpt lat="45.55494" lon="4.53129">
        <ele>511</ele>
        <time>2022-11-18T14:26:35Z</time>
      </trkpt>
      <trkpt lat="45.55492" lon="4.53112">
        <ele>511</ele>
        <time>2022-11-18T14:26:38Z</time>
      </trkpt>
      <trkpt lat="45.55486" lon="4.53096">
        <ele>509</ele>
        <time>2022-11-18T14:26:40Z</time>
      </trkpt>
      <trkpt lat="45.55448" lon="4.53034">
        <ele>507</ele>
        <time>2022-11-18T14:26:50Z</time>
      </trkpt>
      <trkpt lat="45.55431" lon="4.53013">
        <ele>505</ele>
        <time>2022-11-18T14:26:54Z</time>
      </trkpt>
      <trkpt lat="45.55403" lon="4.52999">
        <ele>500</ele>
        <time>2022-11-18T14:26:59Z</time>
      </trkpt>
      <trkpt lat="45.55355" lon="4.52981">
        <ele>492</ele>
        <time>2022-11-18T14:27:08Z</time>
      </trkpt>
      <trkpt lat="45.55337" lon="4.52957">
        <ele>490</ele>
        <time>2022-11-18T14:27:13Z</time>
      </trkpt>
      <trkpt lat="45.55326" lon="4.52922">
        <ele>491</ele>
        <time>2022-11-18T14:27:17Z</time>
      </trkpt>
      <trkpt lat="45.5532" lon="4.52885">
        <ele>490</ele>
        <time>2022-11-18T14:27:22Z</time>
      </trkpt>
      <trkpt lat="45.55321" lon="4.52859">
        <ele>490</ele>
        <time>2022-11-18T14:27:25Z</time>
      </trkpt>
      <trkpt lat="45.55319" lon="4.52849">
        <ele>489</ele>
        <time>2022-11-18T14:27:27Z</time>
      </trkpt>
      <trkpt lat="45.55314" lon="4.52843">
        <ele>488</ele>
        <time>2022-11-18T14:27:28Z</time>
      </trkpt>
      <trkpt lat="45.55305" lon="4.52839">
        <ele>485</ele>
        <time>2022-11-18T14:27:29Z</time>
      </trkpt>
      <trkpt lat="45.5531" lon="4.52795">
        <ele>485</ele>
        <time>2022-11-18T14:27:35Z</time>
      </trkpt>
      <trkpt lat="45.55319" lon="4.5275">
        <ele>486</ele>
        <time>2022-11-18T14:27:41Z</time>
      </trkpt>
      <trkpt lat="45.55347" lon="4.52691">
        <ele>484</ele>
        <time>2022-11-18T14:27:50Z</time>
      </trkpt>
      <trkpt lat="45.5543" lon="4.52594">
        <ele>492</ele>
        <time>2022-11-18T14:28:09Z</time>
      </trkpt>
      <trkpt lat="45.55436" lon="4.52582">
        <ele>492</ele>
        <time>2022-11-18T14:28:11Z</time>
      </trkpt>
      <trkpt lat="45.55438" lon="4.5257">
        <ele>493</ele>
        <time>2022-11-18T14:28:12Z</time>
      </trkpt>
      <trkpt lat="45.55436" lon="4.52557">
        <ele>493</ele>
        <time>2022-11-18T14:28:14Z</time>
      </trkpt>
      <trkpt lat="45.55411" lon="4.5252">
        <ele>488</ele>
        <time>2022-11-18T14:28:20Z</time>
      </trkpt>
      <trkpt lat="45.55408" lon="4.52504">
        <ele>488</ele>
        <time>2022-11-18T14:28:22Z</time>
      </trkpt>
      <trkpt lat="45.5541" lon="4.52487">
        <ele>488</ele>
        <time>2022-11-18T14:28:24Z</time>
      </trkpt>
      <trkpt lat="45.55424" lon="4.52439">
        <ele>488</ele>
        <time>2022-11-18T14:28:31Z</time>
      </trkpt>
      <trkpt lat="45.55443" lon="4.52392">
        <ele>490</ele>
        <time>2022-11-18T14:28:38Z</time>
      </trkpt>
      <trkpt lat="45.55472" lon="4.52355">
        <ele>490</ele>
        <time>2022-11-18T14:28:45Z</time>
      </trkpt>
      <trkpt lat="45.5549" lon="4.5234">
        <ele>489</ele>
        <time>2022-11-18T14:28:48Z</time>
      </trkpt>
      <trkpt lat="45.55532" lon="4.52324">
        <ele>492</ele>
        <time>2022-11-18T14:28:56Z</time>
      </trkpt>
      <trkpt lat="45.55562" lon="4.52297">
        <ele>495</ele>
        <time>2022-11-18T14:29:02Z</time>
      </trkpt>
      <trkpt lat="45.55575" lon="4.52259">
        <ele>493</ele>
        <time>2022-11-18T14:29:08Z</time>
      </trkpt>
      <trkpt lat="45.55571" lon="4.52245">
        <ele>493</ele>
        <time>2022-11-18T14:29:09Z</time>
      </trkpt>
      <trkpt lat="45.55566" lon="4.52238">
        <ele>495</ele>
        <time>2022-11-18T14:29:11Z</time>
      </trkpt>
      <trkpt lat="45.5556" lon="4.52235">
        <ele>495</ele>
        <time>2022-11-18T14:29:12Z</time>
      </trkpt>
      <trkpt lat="45.55504" lon="4.52256">
        <ele>494</ele>
        <time>2022-11-18T14:29:22Z</time>
      </trkpt>
      <trkpt lat="45.55471" lon="4.52264">
        <ele>498</ele>
        <time>2022-11-18T14:29:28Z</time>
      </trkpt>
      <trkpt lat="45.55451" lon="4.52264">
        <ele>501</ele>
        <time>2022-11-18T14:29:32Z</time>
      </trkpt>
      <trkpt lat="45.55416" lon="4.52258">
        <ele>507</ele>
        <time>2022-11-18T14:29:38Z</time>
      </trkpt>
      <trkpt lat="45.5529" lon="4.52394">
        <ele>500</ele>
        <time>2022-11-18T14:30:06Z</time>
      </trkpt>
      <trkpt lat="45.55274" lon="4.524">
        <ele>501</ele>
        <time>2022-11-18T14:30:09Z</time>
      </trkpt>
      <trkpt lat="45.55257" lon="4.52398">
        <ele>503</ele>
        <time>2022-11-18T14:30:12Z</time>
      </trkpt>
      <trkpt lat="45.55245" lon="4.52385">
        <ele>505</ele>
        <time>2022-11-18T14:30:15Z</time>
      </trkpt>
      <trkpt lat="45.55234" lon="4.52369">
        <ele>506</ele>
        <time>2022-11-18T14:30:18Z</time>
      </trkpt>
      <trkpt lat="45.55227" lon="4.52347">
        <ele>508</ele>
        <time>2022-11-18T14:30:21Z</time>
      </trkpt>
      <trkpt lat="45.55219" lon="4.52292">
        <ele>512</ele>
        <time>2022-11-18T14:30:28Z</time>
      </trkpt>
      <trkpt lat="45.5522" lon="4.5224">
        <ele>516</ele>
        <time>2022-11-18T14:30:34Z</time>
      </trkpt>
      <trkpt lat="45.55228" lon="4.52194">
        <ele>521</ele>
        <time>2022-11-18T14:30:40Z</time>
      </trkpt>
      <trkpt lat="45.55227" lon="4.52174">
        <ele>522</ele>
        <time>2022-11-18T14:30:42Z</time>
      </trkpt>
      <trkpt lat="45.55217" lon="4.52152">
        <ele>522</ele>
        <time>2022-11-18T14:30:46Z</time>
      </trkpt>
      <trkpt lat="45.55196" lon="4.52119">
        <ele>522</ele>
        <time>2022-11-18T14:30:51Z</time>
      </trkpt>
      <trkpt lat="45.55183" lon="4.52081">
        <ele>523</ele>
        <time>2022-11-18T14:30:56Z</time>
      </trkpt>
      <trkpt lat="45.55172" lon="4.52038">
        <ele>525</ele>
        <time>2022-11-18T14:31:02Z</time>
      </trkpt>
      <trkpt lat="45.55164" lon="4.51971">
        <ele>529</ele>
        <time>2022-11-18T14:31:11Z</time>
      </trkpt>
      <trkpt lat="45.55156" lon="4.51799">
        <ele>542</ele>
        <time>2022-11-18T14:31:32Z</time>
      </trkpt>
      <trkpt lat="45.55153" lon="4.51789">
        <ele>543</ele>
        <time>2022-11-18T14:31:34Z</time>
      </trkpt>
      <trkpt lat="45.55147" lon="4.51782">
        <ele>544</ele>
        <time>2022-11-18T14:31:35Z</time>
      </trkpt>
      <trkpt lat="45.55139" lon="4.51781">
        <ele>545</ele>
        <time>2022-11-18T14:31:36Z</time>
      </trkpt>
      <trkpt lat="45.55133" lon="4.51786">
        <ele>545</ele>
        <time>2022-11-18T14:31:38Z</time>
      </trkpt>
      <trkpt lat="45.55128" lon="4.51795">
        <ele>545</ele>
        <time>2022-11-18T14:31:39Z</time>
      </trkpt>
      <trkpt lat="45.55116" lon="4.51838">
        <ele>543</ele>
        <time>2022-11-18T14:31:45Z</time>
      </trkpt>
      <trkpt lat="45.55098" lon="4.51873">
        <ele>543</ele>
        <time>2022-11-18T14:31:50Z</time>
      </trkpt>
      <trkpt lat="45.55087" lon="4.51926">
        <ele>542</ele>
        <time>2022-11-18T14:31:57Z</time>
      </trkpt>
      <trkpt lat="45.5507" lon="4.51966">
        <ele>541</ele>
        <time>2022-11-18T14:32:03Z</time>
      </trkpt>
      <trkpt lat="45.5503" lon="4.52019">
        <ele>544</ele>
        <time>2022-11-18T14:32:13Z</time>
      </trkpt>
      <trkpt lat="45.54987" lon="4.52062">
        <ele>548</ele>
        <time>2022-11-18T14:32:22Z</time>
      </trkpt>
      <trkpt lat="45.54965" lon="4.52097">
        <ele>548</ele>
        <time>2022-11-18T14:32:28Z</time>
      </trkpt>
      <trkpt lat="45.54951" lon="4.52111">
        <ele>548</ele>
        <time>2022-11-18T14:32:31Z</time>
      </trkpt>
      <trkpt lat="45.54935" lon="4.52121">
        <ele>549</ele>
        <time>2022-11-18T14:32:34Z</time>
      </trkpt>
      <trkpt lat="45.54906" lon="4.52129">
        <ele>550</ele>
        <time>2022-11-18T14:32:39Z</time>
      </trkpt>
      <trkpt lat="45.54872" lon="4.52132">
        <ele>550</ele>
        <time>2022-11-18T14:32:45Z</time>
      </trkpt>
      <trkpt lat="45.54837" lon="4.52128">
        <ele>551</ele>
        <time>2022-11-18T14:32:51Z</time>
      </trkpt>
      <trkpt lat="45.54817" lon="4.5212">
        <ele>552</ele>
        <time>2022-11-18T14:32:55Z</time>
      </trkpt>
      <trkpt lat="45.54799" lon="4.52108">
        <ele>552</ele>
        <time>2022-11-18T14:32:59Z</time>
      </trkpt>
      <trkpt lat="45.54778" lon="4.52086">
        <ele>555</ele>
        <time>2022-11-18T14:33:03Z</time>
      </trkpt>
      <trkpt lat="45.54727" lon="4.52012">
        <ele>564</ele>
        <time>2022-11-18T14:33:16Z</time>
      </trkpt>
      <trkpt lat="45.547" lon="4.51987">
        <ele>569</ele>
        <time>2022-11-18T14:33:22Z</time>
      </trkpt>
      <trkpt lat="45.54672" lon="4.51971">
        <ele>573</ele>
        <time>2022-11-18T14:33:27Z</time>
      </trkpt>
      <trkpt lat="45.54532" lon="4.51927">
        <ele>572</ele>
        <time>2022-11-18T14:33:53Z</time>
      </trkpt>
      <trkpt lat="45.54488" lon="4.51896">
        <ele>571</ele>
        <time>2022-11-18T14:34:02Z</time>
      </trkpt>
      <trkpt lat="45.54446" lon="4.5184">
        <ele>570</ele>
        <time>2022-11-18T14:34:12Z</time>
      </trkpt>
      <trkpt lat="45.54438" lon="4.51814">
        <ele>569</ele>
        <time>2022-11-18T14:34:15Z</time>
      </trkpt>
      <trkpt lat="45.5444" lon="4.51786">
        <ele>570</ele>
        <time>2022-11-18T14:34:19Z</time>
      </trkpt>
      <trkpt lat="45.54447" lon="4.51761">
        <ele>572</ele>
        <time>2022-11-18T14:34:22Z</time>
      </trkpt>
      <trkpt lat="45.54463" lon="4.51731">
        <ele>574</ele>
        <time>2022-11-18T14:34:27Z</time>
      </trkpt>
      <trkpt lat="45.54503" lon="4.51675">
        <ele>579</ele>
        <time>2022-11-18T14:34:37Z</time>
      </trkpt>
      <trkpt lat="45.54528" lon="4.51627">
        <ele>583</ele>
        <time>2022-11-18T14:34:44Z</time>
      </trkpt>
      <trkpt lat="45.54549" lon="4.51599">
        <ele>587</ele>
        <time>2022-11-18T14:34:49Z</time>
      </trkpt>
      <trkpt lat="45.54557" lon="4.51578">
        <ele>589</ele>
        <time>2022-11-18T14:34:52Z</time>
      </trkpt>
      <trkpt lat="45.54554" lon="4.51556">
        <ele>589</ele>
        <time>2022-11-18T14:34:55Z</time>
      </trkpt>
      <trkpt lat="45.54541" lon="4.51518">
        <ele>587</ele>
        <time>2022-11-18T14:35:01Z</time>
      </trkpt>
      <trkpt lat="45.54531" lon="4.51437">
        <ele>587</ele>
        <time>2022-11-18T14:35:11Z</time>
      </trkpt>
      <trkpt lat="45.54548" lon="4.51357">
        <ele>591</ele>
        <time>2022-11-18T14:35:21Z</time>
      </trkpt>
      <trkpt lat="45.54574" lon="4.5126">
        <ele>595</ele>
        <time>2022-11-18T14:35:34Z</time>
      </trkpt>
      <trkpt lat="45.54623" lon="4.51136">
        <ele>604</ele>
        <time>2022-11-18T14:35:52Z</time>
      </trkpt>
      <trkpt lat="45.54631" lon="4.51096">
        <ele>607</ele>
        <time>2022-11-18T14:35:57Z</time>
      </trkpt>
      <trkpt lat="45.54632" lon="4.51071">
        <ele>609</ele>
        <time>2022-11-18T14:36:00Z</time>
      </trkpt>
      <trkpt lat="45.54629" lon="4.51046">
        <ele>611</ele>
        <time>2022-11-18T14:36:03Z</time>
      </trkpt>
      <trkpt lat="45.5462" lon="4.51034">
        <ele>612</ele>
        <time>2022-11-18T14:36:06Z</time>
      </trkpt>
      <trkpt lat="45.54605" lon="4.51033">
        <ele>611</ele>
        <time>2022-11-18T14:36:08Z</time>
      </trkpt>
      <trkpt lat="45.5456" lon="4.51048">
        <ele>607</ele>
        <time>2022-11-18T14:36:16Z</time>
      </trkpt>
      <trkpt lat="45.54536" lon="4.51053">
        <ele>606</ele>
        <time>2022-11-18T14:36:21Z</time>
      </trkpt>
      <trkpt lat="45.54512" lon="4.51054">
        <ele>606</ele>
        <time>2022-11-18T14:36:25Z</time>
      </trkpt>
      <trkpt lat="45.5449" lon="4.51049">
        <ele>606</ele>
        <time>2022-11-18T14:36:29Z</time>
      </trkpt>
      <trkpt lat="45.5447" lon="4.51041">
        <ele>605</ele>
        <time>2022-11-18T14:36:33Z</time>
      </trkpt>
      <trkpt lat="45.54444" lon="4.51022">
        <ele>605</ele>
        <time>2022-11-18T14:36:38Z</time>
      </trkpt>
      <trkpt lat="45.54436" lon="4.51012">
        <ele>606</ele>
        <time>2022-11-18T14:36:40Z</time>
      </trkpt>
      <trkpt lat="45.54427" lon="4.50994">
        <ele>608</ele>
        <time>2022-11-18T14:36:43Z</time>
      </trkpt>
      <trkpt lat="45.54397" lon="4.50899">
        <ele>625</ele>
        <time>2022-11-18T14:36:56Z</time>
      </trkpt>
      <trkpt lat="45.54378" lon="4.50871">
        <ele>628</ele>
        <time>2022-11-18T14:37:00Z</time>
      </trkpt>
      <trkpt lat="45.54367" lon="4.50863">
        <ele>629</ele>
        <time>2022-11-18T14:37:03Z</time>
      </trkpt>
      <trkpt lat="45.54352" lon="4.50859">
        <ele>627</ele>
        <time>2022-11-18T14:37:05Z</time>
      </trkpt>
      <trkpt lat="45.5432" lon="4.5086">
        <ele>623</ele>
        <time>2022-11-18T14:37:11Z</time>
      </trkpt>
      <trkpt lat="45.54303" lon="4.50854">
        <ele>624</ele>
        <time>2022-11-18T14:37:14Z</time>
      </trkpt>
      <trkpt lat="45.54285" lon="4.50842">
        <ele>625</ele>
        <time>2022-11-18T14:37:18Z</time>
      </trkpt>
      <trkpt lat="45.5427" lon="4.50824">
        <ele>626</ele>
        <time>2022-11-18T14:37:21Z</time>
      </trkpt>
      <trkpt lat="45.5426" lon="4.50798">
        <ele>626</ele>
        <time>2022-11-18T14:37:25Z</time>
      </trkpt>
      <trkpt lat="45.54257" lon="4.50779">
        <ele>626</ele>
        <time>2022-11-18T14:37:27Z</time>
      </trkpt>
      <trkpt lat="45.54266" lon="4.50713">
        <ele>631</ele>
        <time>2022-11-18T14:37:36Z</time>
      </trkpt>
      <trkpt lat="45.54275" lon="4.50664">
        <ele>637</ele>
        <time>2022-11-18T14:37:42Z</time>
      </trkpt>
      <trkpt lat="45.54297" lon="4.50593">
        <ele>643</ele>
        <time>2022-11-18T14:37:52Z</time>
      </trkpt>
      <trkpt lat="45.54323" lon="4.50526">
        <ele>650</ele>
        <time>2022-11-18T14:38:01Z</time>
      </trkpt>
      <trkpt lat="45.54332" lon="4.50487">
        <ele>652</ele>
        <time>2022-11-18T14:38:06Z</time>
      </trkpt>
      <trkpt lat="45.54343" lon="4.50333">
        <ele>658</ele>
        <time>2022-11-18T14:38:26Z</time>
      </trkpt>
      <trkpt lat="45.5431" lon="4.50196">
        <ele>664</ele>
        <time>2022-11-18T14:38:44Z</time>
      </trkpt>
      <trkpt lat="45.54294" lon="4.50156">
        <ele>665</ele>
        <time>2022-11-18T14:38:49Z</time>
      </trkpt>
      <trkpt lat="45.54285" lon="4.50112">
        <ele>670</ele>
        <time>2022-11-18T14:38:55Z</time>
      </trkpt>
      <trkpt lat="45.54274" lon="4.50075">
        <ele>674</ele>
        <time>2022-11-18T14:39:00Z</time>
      </trkpt>
      <trkpt lat="45.54256" lon="4.50033">
        <ele>675</ele>
        <time>2022-11-18T14:39:06Z</time>
      </trkpt>
      <trkpt lat="45.54232" lon="4.49999">
        <ele>675</ele>
        <time>2022-11-18T14:39:12Z</time>
      </trkpt>
      <trkpt lat="45.5419" lon="4.49967">
        <ele>675</ele>
        <time>2022-11-18T14:39:21Z</time>
      </trkpt>
      <trkpt lat="45.54165" lon="4.49939">
        <ele>677</ele>
        <time>2022-11-18T14:39:26Z</time>
      </trkpt>
      <trkpt lat="45.54156" lon="4.49917">
        <ele>682</ele>
        <time>2022-11-18T14:39:30Z</time>
      </trkpt>
      <trkpt lat="45.54144" lon="4.49904">
        <ele>686</ele>
        <time>2022-11-18T14:39:32Z</time>
      </trkpt>
      <trkpt lat="45.54131" lon="4.49895">
        <ele>688</ele>
        <time>2022-11-18T14:39:35Z</time>
      </trkpt>
      <trkpt lat="45.54115" lon="4.49892">
        <ele>688</ele>
        <time>2022-11-18T14:39:38Z</time>
      </trkpt>
      <trkpt lat="45.54087" lon="4.49895">
        <ele>684</ele>
        <time>2022-11-18T14:39:43Z</time>
      </trkpt>
      <trkpt lat="45.54069" lon="4.49892">
        <ele>685</ele>
        <time>2022-11-18T14:39:46Z</time>
      </trkpt>
      <trkpt lat="45.5403" lon="4.49874">
        <ele>692</ele>
        <time>2022-11-18T14:39:53Z</time>
      </trkpt>
      <trkpt lat="45.53994" lon="4.49866">
        <ele>694</ele>
        <time>2022-11-18T14:40:00Z</time>
      </trkpt>
      <trkpt lat="45.53972" lon="4.49857">
        <ele>693</ele>
        <time>2022-11-18T14:40:04Z</time>
      </trkpt>
      <trkpt lat="45.5392" lon="4.49809">
        <ele>698</ele>
        <time>2022-11-18T14:40:15Z</time>
      </trkpt>
      <trkpt lat="45.53896" lon="4.49771">
        <ele>703</ele>
        <time>2022-11-18T14:40:21Z</time>
      </trkpt>
      <trkpt lat="45.53871" lon="4.49726">
        <ele>705</ele>
        <time>2022-11-18T14:40:28Z</time>
      </trkpt>
      <trkpt lat="45.53853" lon="4.4968">
        <ele>708</ele>
        <time>2022-11-18T14:40:35Z</time>
      </trkpt>
      <trkpt lat="45.53842" lon="4.4963">
        <ele>711</ele>
        <time>2022-11-18T14:40:41Z</time>
      </trkpt>
      <trkpt lat="45.53827" lon="4.49536">
        <ele>720</ele>
        <time>2022-11-18T14:40:53Z</time>
      </trkpt>
      <trkpt lat="45.53816" lon="4.49492">
        <ele>723</ele>
        <time>2022-11-18T14:40:59Z</time>
      </trkpt>
      <trkpt lat="45.53778" lon="4.49384">
        <ele>728</ele>
        <time>2022-11-18T14:41:14Z</time>
      </trkpt>
      <trkpt lat="45.53712" lon="4.49283">
        <ele>727</ele>
        <time>2022-11-18T14:41:31Z</time>
      </trkpt>
      <trkpt lat="45.53683" lon="4.49231">
        <ele>727</ele>
        <time>2022-11-18T14:41:40Z</time>
      </trkpt>
      <trkpt lat="45.53667" lon="4.49194">
        <ele>730</ele>
        <time>2022-11-18T14:41:45Z</time>
      </trkpt>
      <trkpt lat="45.53644" lon="4.49127">
        <ele>735</ele>
        <time>2022-11-18T14:41:54Z</time>
      </trkpt>
      <trkpt lat="45.53605" lon="4.49034">
        <ele>741</ele>
        <time>2022-11-18T14:42:08Z</time>
      </trkpt>
      <trkpt lat="45.53562" lon="4.4895">
        <ele>742</ele>
        <time>2022-11-18T14:42:21Z</time>
      </trkpt>
      <trkpt lat="45.53547" lon="4.48915">
        <ele>743</ele>
        <time>2022-11-18T14:42:26Z</time>
      </trkpt>
      <trkpt lat="45.53539" lon="4.48883">
        <ele>741</ele>
        <time>2022-11-18T14:42:30Z</time>
      </trkpt>
      <trkpt lat="45.53528" lon="4.48824">
        <ele>742</ele>
        <time>2022-11-18T14:42:38Z</time>
      </trkpt>
      <trkpt lat="45.53524" lon="4.48782">
        <ele>744</ele>
        <time>2022-11-18T14:42:43Z</time>
      </trkpt>
      <trkpt lat="45.53524" lon="4.48754">
        <ele>747</ele>
        <time>2022-11-18T14:42:47Z</time>
      </trkpt>
      <trkpt lat="45.5353" lon="4.48745">
        <ele>748</ele>
        <time>2022-11-18T14:42:48Z</time>
      </trkpt>
      <trkpt lat="45.53545" lon="4.48731">
        <ele>749</ele>
        <time>2022-11-18T14:42:51Z</time>
      </trkpt>
      <trkpt lat="45.53575" lon="4.48681">
        <ele>748</ele>
        <time>2022-11-18T14:43:00Z</time>
      </trkpt>
      <trkpt lat="45.5359" lon="4.48668">
        <ele>747</ele>
        <time>2022-11-18T14:43:03Z</time>
      </trkpt>
      <trkpt lat="45.53617" lon="4.48666">
        <ele>744</ele>
        <time>2022-11-18T14:43:08Z</time>
      </trkpt>
      <trkpt lat="45.53651" lon="4.4867">
        <ele>742</ele>
        <time>2022-11-18T14:43:14Z</time>
      </trkpt>
      <trkpt lat="45.53664" lon="4.48666">
        <ele>740</ele>
        <time>2022-11-18T14:43:16Z</time>
      </trkpt>
      <trkpt lat="45.53673" lon="4.4866">
        <ele>738</ele>
        <time>2022-11-18T14:43:18Z</time>
      </trkpt>
      <trkpt lat="45.53675" lon="4.4865">
        <ele>737</ele>
        <time>2022-11-18T14:43:19Z</time>
      </trkpt>
      <trkpt lat="45.53674" lon="4.48637">
        <ele>735</ele>
        <time>2022-11-18T14:43:21Z</time>
      </trkpt>
      <trkpt lat="45.53666" lon="4.48622">
        <ele>734</ele>
        <time>2022-11-18T14:43:23Z</time>
      </trkpt>
      <trkpt lat="45.5363" lon="4.48585">
        <ele>734</ele>
        <time>2022-11-18T14:43:31Z</time>
      </trkpt>
      <trkpt lat="45.53577" lon="4.48514">
        <ele>733</ele>
        <time>2022-11-18T14:43:44Z</time>
      </trkpt>
      <trkpt lat="45.53573" lon="4.48505">
        <ele>733</ele>
        <time>2022-11-18T14:43:45Z</time>
      </trkpt>
      <trkpt lat="45.53571" lon="4.48486">
        <ele>732</ele>
        <time>2022-11-18T14:43:48Z</time>
      </trkpt>
      <trkpt lat="45.53572" lon="4.48433">
        <ele>726</ele>
        <time>2022-11-18T14:43:54Z</time>
      </trkpt>
      <trkpt lat="45.53565" lon="4.48395">
        <ele>724</ele>
        <time>2022-11-18T14:43:59Z</time>
      </trkpt>
      <trkpt lat="45.53559" lon="4.48379">
        <ele>724</ele>
        <time>2022-11-18T14:44:01Z</time>
      </trkpt>
      <trkpt lat="45.53507" lon="4.48292">
        <ele>725</ele>
        <time>2022-11-18T14:44:16Z</time>
      </trkpt>
      <trkpt lat="45.53464" lon="4.48161">
        <ele>718</ele>
        <time>2022-11-18T14:44:34Z</time>
      </trkpt>
      <trkpt lat="45.53458" lon="4.48132">
        <ele>718</ele>
        <time>2022-11-18T14:44:37Z</time>
      </trkpt>
      <trkpt lat="45.53457" lon="4.4806">
        <ele>715</ele>
        <time>2022-11-18T14:44:46Z</time>
      </trkpt>
      <trkpt lat="45.53449" lon="4.47983">
        <ele>713</ele>
        <time>2022-11-18T14:44:56Z</time>
      </trkpt>
      <trkpt lat="45.5345" lon="4.47951">
        <ele>712</ele>
        <time>2022-11-18T14:45:00Z</time>
      </trkpt>
      <trkpt lat="45.53457" lon="4.47888">
        <ele>706</ele>
        <time>2022-11-18T14:45:08Z</time>
      </trkpt>
      <trkpt lat="45.53454" lon="4.47868">
        <ele>705</ele>
        <time>2022-11-18T14:45:11Z</time>
      </trkpt>
      <trkpt lat="45.53448" lon="4.47848">
        <ele>704</ele>
        <time>2022-11-18T14:45:13Z</time>
      </trkpt>
      <trkpt lat="45.53438" lon="4.47832">
        <ele>704</ele>
        <time>2022-11-18T14:45:16Z</time>
      </trkpt>
      <trkpt lat="45.53424" lon="4.4782">
        <ele>704</ele>
        <time>2022-11-18T14:45:19Z</time>
      </trkpt>
      <trkpt lat="45.53401" lon="4.47807">
        <ele>705</ele>
        <time>2022-11-18T14:45:23Z</time>
      </trkpt>
      <trkpt lat="45.53393" lon="4.478">
        <ele>705</ele>
        <time>2022-11-18T14:45:25Z</time>
      </trkpt>
      <trkpt lat="45.53388" lon="4.47789">
        <ele>703</ele>
        <time>2022-11-18T14:45:27Z</time>
      </trkpt>
      <trkpt lat="45.53392" lon="4.47772">
        <ele>700</ele>
        <time>2022-11-18T14:45:29Z</time>
      </trkpt>
      <trkpt lat="45.53404" lon="4.47767">
        <ele>699</ele>
        <time>2022-11-18T14:45:31Z</time>
      </trkpt>
      <trkpt lat="45.535" lon="4.47784">
        <ele>691</ele>
        <time>2022-11-18T14:45:48Z</time>
      </trkpt>
      <trkpt lat="45.53515" lon="4.47784">
        <ele>692</ele>
        <time>2022-11-18T14:45:51Z</time>
      </trkpt>
      <trkpt lat="45.53528" lon="4.47775">
        <ele>692</ele>
        <time>2022-11-18T14:45:53Z</time>
      </trkpt>
      <trkpt lat="45.53539" lon="4.47762">
        <ele>692</ele>
        <time>2022-11-18T14:45:56Z</time>
      </trkpt>
      <trkpt lat="45.53544" lon="4.47744">
        <ele>692</ele>
        <time>2022-11-18T14:45:58Z</time>
      </trkpt>
      <trkpt lat="45.53545" lon="4.4772">
        <ele>695</ele>
        <time>2022-11-18T14:46:01Z</time>
      </trkpt>
      <trkpt lat="45.53542" lon="4.47704">
        <ele>696</ele>
        <time>2022-11-18T14:46:03Z</time>
      </trkpt>
      <trkpt lat="45.53534" lon="4.4769">
        <ele>696</ele>
        <time>2022-11-18T14:46:06Z</time>
      </trkpt>
      <trkpt lat="45.5352" lon="4.47679">
        <ele>695</ele>
        <time>2022-11-18T14:46:09Z</time>
      </trkpt>
      <trkpt lat="45.53482" lon="4.47662">
        <ele>692</ele>
        <time>2022-11-18T14:46:16Z</time>
      </trkpt>
      <trkpt lat="45.53421" lon="4.47643">
        <ele>689</ele>
        <time>2022-11-18T14:46:27Z</time>
      </trkpt>
      <trkpt lat="45.534" lon="4.47626">
        <ele>688</ele>
        <time>2022-11-18T14:46:31Z</time>
      </trkpt>
      <trkpt lat="45.53374" lon="4.47596">
        <ele>687</ele>
        <time>2022-11-18T14:46:37Z</time>
      </trkpt>
      <trkpt lat="45.53349" lon="4.47575">
        <ele>686</ele>
        <time>2022-11-18T14:46:42Z</time>
      </trkpt>
      <trkpt lat="45.53313" lon="4.47557">
        <ele>686</ele>
        <time>2022-11-18T14:46:49Z</time>
      </trkpt>
      <trkpt lat="45.53236" lon="4.47533">
        <ele>685</ele>
        <time>2022-11-18T14:47:03Z</time>
      </trkpt>
      <trkpt lat="45.53216" lon="4.47535">
        <ele>684</ele>
        <time>2022-11-18T14:47:07Z</time>
      </trkpt>
      <trkpt lat="45.53194" lon="4.47542">
        <ele>683</ele>
        <time>2022-11-18T14:47:11Z</time>
      </trkpt>
      <trkpt lat="45.53136" lon="4.47553">
        <ele>681</ele>
        <time>2022-11-18T14:47:21Z</time>
      </trkpt>
      <trkpt lat="45.5308" lon="4.47556">
        <ele>679</ele>
        <time>2022-11-18T14:47:31Z</time>
      </trkpt>
      <trkpt lat="45.5304" lon="4.4755">
        <ele>676</ele>
        <time>2022-11-18T14:47:38Z</time>
      </trkpt>
      <trkpt lat="45.53029" lon="4.47544">
        <ele>675</ele>
        <time>2022-11-18T14:47:40Z</time>
      </trkpt>
      <trkpt lat="45.53015" lon="4.47532">
        <ele>673</ele>
        <time>2022-11-18T14:47:43Z</time>
      </trkpt>
      <trkpt lat="45.53008" lon="4.4752">
        <ele>673</ele>
        <time>2022-11-18T14:47:45Z</time>
      </trkpt>
      <trkpt lat="45.53002" lon="4.47501">
        <ele>671</ele>
        <time>2022-11-18T14:47:48Z</time>
      </trkpt>
      <trkpt lat="45.52985" lon="4.47382">
        <ele>676</ele>
        <time>2022-11-18T14:48:03Z</time>
      </trkpt>
      <trkpt lat="45.52977" lon="4.47348">
        <ele>678</ele>
        <time>2022-11-18T14:48:07Z</time>
      </trkpt>
      <trkpt lat="45.52962" lon="4.47305">
        <ele>678</ele>
        <time>2022-11-18T14:48:13Z</time>
      </trkpt>
      <trkpt lat="45.52923" lon="4.47227">
        <ele>669</ele>
        <time>2022-11-18T14:48:25Z</time>
      </trkpt>
      <trkpt lat="45.52917" lon="4.47209">
        <ele>666</ele>
        <time>2022-11-18T14:48:28Z</time>
      </trkpt>
      <trkpt lat="45.52913" lon="4.47185">
        <ele>665</ele>
        <time>2022-11-18T14:48:31Z</time>
      </trkpt>
      <trkpt lat="45.52916" lon="4.4715">
        <ele>663</ele>
        <time>2022-11-18T14:48:35Z</time>
      </trkpt>
      <trkpt lat="45.52922" lon="4.47132">
        <ele>664</ele>
        <time>2022-11-18T14:48:38Z</time>
      </trkpt>
      <trkpt lat="45.52984" lon="4.47023">
        <ele>667</ele>
        <time>2022-11-18T14:48:55Z</time>
      </trkpt>
      <trkpt lat="45.53004" lon="4.46981">
        <ele>664</ele>
        <time>2022-11-18T14:49:01Z</time>
      </trkpt>
      <trkpt lat="45.53011" lon="4.46949">
        <ele>663</ele>
        <time>2022-11-18T14:49:06Z</time>
      </trkpt>
      <trkpt lat="45.53017" lon="4.46898">
        <ele>661</ele>
        <time>2022-11-18T14:49:12Z</time>
      </trkpt>
      <trkpt lat="45.53015" lon="4.46867">
        <ele>660</ele>
        <time>2022-11-18T14:49:16Z</time>
      </trkpt>
      <trkpt lat="45.53005" lon="4.46812">
        <ele>654</ele>
        <time>2022-11-18T14:49:23Z</time>
      </trkpt>
      <trkpt lat="45.53013" lon="4.46723">
        <ele>653</ele>
        <time>2022-11-18T14:49:34Z</time>
      </trkpt>
      <trkpt lat="45.53011" lon="4.4669">
        <ele>654</ele>
        <time>2022-11-18T14:49:38Z</time>
      </trkpt>
      <trkpt lat="45.53003" lon="4.46655">
        <ele>655</ele>
        <time>2022-11-18T14:49:43Z</time>
      </trkpt>
      <trkpt lat="45.5298" lon="4.46584">
        <ele>656</ele>
        <time>2022-11-18T14:49:53Z</time>
      </trkpt>
      <trkpt lat="45.52966" lon="4.46556">
        <ele>657</ele>
        <time>2022-11-18T14:49:57Z</time>
      </trkpt>
      <trkpt lat="45.52953" lon="4.46539">
        <ele>657</ele>
        <time>2022-11-18T14:50:00Z</time>
      </trkpt>
      <trkpt lat="45.52936" lon="4.46526">
        <ele>656</ele>
        <time>2022-11-18T14:50:04Z</time>
      </trkpt>
      <trkpt lat="45.52909" lon="4.46517">
        <ele>652</ele>
        <time>2022-11-18T14:50:09Z</time>
      </trkpt>
      <trkpt lat="45.52886" lon="4.46506">
        <ele>649</ele>
        <time>2022-11-18T14:50:13Z</time>
      </trkpt>
      <trkpt lat="45.52871" lon="4.46494">
        <ele>647</ele>
        <time>2022-11-18T14:50:16Z</time>
      </trkpt>
      <trkpt lat="45.52849" lon="4.46465">
        <ele>648</ele>
        <time>2022-11-18T14:50:21Z</time>
      </trkpt>
      <trkpt lat="45.52831" lon="4.46447">
        <ele>647</ele>
        <time>2022-11-18T14:50:25Z</time>
      </trkpt>
      <trkpt lat="45.52811" lon="4.46434">
        <ele>647</ele>
        <time>2022-11-18T14:50:29Z</time>
      </trkpt>
      <trkpt lat="45.52771" lon="4.46423">
        <ele>644</ele>
        <time>2022-11-18T14:50:36Z</time>
      </trkpt>
      <trkpt lat="45.52725" lon="4.46417">
        <ele>639</ele>
        <time>2022-11-18T14:50:44Z</time>
      </trkpt>
      <trkpt lat="45.52697" lon="4.46404">
        <ele>637</ele>
        <time>2022-11-18T14:50:50Z</time>
      </trkpt>
      <trkpt lat="45.52677" lon="4.46389">
        <ele>636</ele>
        <time>2022-11-18T14:50:54Z</time>
      </trkpt>
      <trkpt lat="45.5266" lon="4.46364">
        <ele>636</ele>
        <time>2022-11-18T14:50:58Z</time>
      </trkpt>
      <trkpt lat="45.52636" lon="4.46303">
        <ele>637</ele>
        <time>2022-11-18T14:51:07Z</time>
      </trkpt>
      <trkpt lat="45.52621" lon="4.46276">
        <ele>636</ele>
        <time>2022-11-18T14:51:11Z</time>
      </trkpt>
      <trkpt lat="45.52566" lon="4.462">
        <ele>630</ele>
        <time>2022-11-18T14:51:25Z</time>
      </trkpt>
      <trkpt lat="45.52559" lon="4.46182">
        <ele>630</ele>
        <time>2022-11-18T14:51:27Z</time>
      </trkpt>
      <trkpt lat="45.52557" lon="4.46165">
        <ele>630</ele>
        <time>2022-11-18T14:51:29Z</time>
      </trkpt>
      <trkpt lat="45.52561" lon="4.46138">
        <ele>629</ele>
        <time>2022-11-18T14:51:33Z</time>
      </trkpt>
      <trkpt lat="45.52572" lon="4.46109">
        <ele>627</ele>
        <time>2022-11-18T14:51:37Z</time>
      </trkpt>
      <trkpt lat="45.52587" lon="4.46086">
        <ele>627</ele>
        <time>2022-11-18T14:51:41Z</time>
      </trkpt>
      <trkpt lat="45.526" lon="4.46046">
        <ele>627</ele>
        <time>2022-11-18T14:51:46Z</time>
      </trkpt>
      <trkpt lat="45.52606" lon="4.46012">
        <ele>626</ele>
        <time>2022-11-18T14:51:51Z</time>
      </trkpt>
      <trkpt lat="45.52606" lon="4.45988">
        <ele>625</ele>
        <time>2022-11-18T14:51:54Z</time>
      </trkpt>
      <trkpt lat="45.52603" lon="4.4597">
        <ele>624</ele>
        <time>2022-11-18T14:51:56Z</time>
      </trkpt>
      <trkpt lat="45.52587" lon="4.45919">
        <ele>622</ele>
        <time>2022-11-18T14:52:03Z</time>
      </trkpt>
      <trkpt lat="45.52581" lon="4.45884">
        <ele>620</ele>
        <time>2022-11-18T14:52:08Z</time>
      </trkpt>
      <trkpt lat="45.52577" lon="4.45836">
        <ele>618</ele>
        <time>2022-11-18T14:52:14Z</time>
      </trkpt>
      <trkpt lat="45.5258" lon="4.45808">
        <ele>617</ele>
        <time>2022-11-18T14:52:17Z</time>
      </trkpt>
      <trkpt lat="45.52591" lon="4.45778">
        <ele>616</ele>
        <time>2022-11-18T14:52:21Z</time>
      </trkpt>
      <trkpt lat="45.52595" lon="4.45753">
        <ele>615</ele>
        <time>2022-11-18T14:52:25Z</time>
      </trkpt>
      <trkpt lat="45.5259" lon="4.45727">
        <ele>616</ele>
        <time>2022-11-18T14:52:28Z</time>
      </trkpt>
      <trkpt lat="45.52578" lon="4.45709">
        <ele>616</ele>
        <time>2022-11-18T14:52:31Z</time>
      </trkpt>
      <trkpt lat="45.52541" lon="4.45678">
        <ele>612</ele>
        <time>2022-11-18T14:52:39Z</time>
      </trkpt>
      <trkpt lat="45.52526" lon="4.45656">
        <ele>611</ele>
        <time>2022-11-18T14:52:42Z</time>
      </trkpt>
      <trkpt lat="45.52508" lon="4.45608">
        <ele>610</ele>
        <time>2022-11-18T14:52:49Z</time>
      </trkpt>
      <trkpt lat="45.52466" lon="4.45531">
        <ele>610</ele>
        <time>2022-11-18T14:53:01Z</time>
      </trkpt>
      <trkpt lat="45.5244" lon="4.45462">
        <ele>607</ele>
        <time>2022-11-18T14:53:11Z</time>
      </trkpt>
      <trkpt lat="45.52396" lon="4.45396">
        <ele>605</ele>
        <time>2022-11-18T14:53:23Z</time>
      </trkpt>
      <trkpt lat="45.52309" lon="4.4515">
        <ele>602</ele>
        <time>2022-11-18T14:53:57Z</time>
      </trkpt>
      <trkpt lat="45.52287" lon="4.45112">
        <ele>600</ele>
        <time>2022-11-18T14:54:03Z</time>
      </trkpt>
      <trkpt lat="45.52259" lon="4.45084">
        <ele>594</ele>
        <time>2022-11-18T14:54:09Z</time>
      </trkpt>
      <trkpt lat="45.52164" lon="4.45035">
        <ele>590</ele>
        <time>2022-11-18T14:54:27Z</time>
      </trkpt>
      <trkpt lat="45.52127" lon="4.44991">
        <ele>588</ele>
        <time>2022-11-18T14:54:36Z</time>
      </trkpt>
      <trkpt lat="45.52117" lon="4.44969">
        <ele>588</ele>
        <time>2022-11-18T14:54:39Z</time>
      </trkpt>
      <trkpt lat="45.52098" lon="4.44906">
        <ele>587</ele>
        <time>2022-11-18T14:54:47Z</time>
      </trkpt>
      <trkpt lat="45.52085" lon="4.4488">
        <ele>587</ele>
        <time>2022-11-18T14:54:51Z</time>
      </trkpt>
      <trkpt lat="45.52073" lon="4.44864">
        <ele>588</ele>
        <time>2022-11-18T14:54:54Z</time>
      </trkpt>
      <trkpt lat="45.52052" lon="4.4485">
        <ele>586</ele>
        <time>2022-11-18T14:54:58Z</time>
      </trkpt>
      <trkpt lat="45.52004" lon="4.44833">
        <ele>582</ele>
        <time>2022-11-18T14:55:07Z</time>
      </trkpt>
      <trkpt lat="45.51982" lon="4.4482">
        <ele>581</ele>
        <time>2022-11-18T14:55:12Z</time>
      </trkpt>
      <trkpt lat="45.51965" lon="4.44804">
        <ele>581</ele>
        <time>2022-11-18T14:55:15Z</time>
      </trkpt>
      <trkpt lat="45.51896" lon="4.44711">
        <ele>580</ele>
        <time>2022-11-18T14:55:32Z</time>
      </trkpt>
      <trkpt lat="45.51829" lon="4.44649">
        <ele>574</ele>
        <time>2022-11-18T14:55:46Z</time>
      </trkpt>
      <trkpt lat="45.51789" lon="4.44604">
        <ele>573</ele>
        <time>2022-11-18T14:55:55Z</time>
      </trkpt>
      <trkpt lat="45.51772" lon="4.44582">
        <ele>572</ele>
        <time>2022-11-18T14:55:59Z</time>
      </trkpt>
      <trkpt lat="45.51758" lon="4.44556">
        <ele>570</ele>
        <time>2022-11-18T14:56:03Z</time>
      </trkpt>
      <trkpt lat="45.51753" lon="4.44508">
        <ele>569</ele>
        <time>2022-11-18T14:56:10Z</time>
      </trkpt>
      <trkpt lat="45.51747" lon="4.4449">
        <ele>570</ele>
        <time>2022-11-18T14:56:12Z</time>
      </trkpt>
      <trkpt lat="45.51738" lon="4.44478">
        <ele>571</ele>
        <time>2022-11-18T14:56:14Z</time>
      </trkpt>
      <trkpt lat="45.51728" lon="4.44471">
        <ele>571</ele>
        <time>2022-11-18T14:56:16Z</time>
      </trkpt>
      <trkpt lat="45.51717" lon="4.44472">
        <ele>571</ele>
        <time>2022-11-18T14:56:18Z</time>
      </trkpt>
      <trkpt lat="45.51698" lon="4.44486">
        <ele>570</ele>
        <time>2022-11-18T14:56:22Z</time>
      </trkpt>
      <trkpt lat="45.51683" lon="4.44492">
        <ele>570</ele>
        <time>2022-11-18T14:56:25Z</time>
      </trkpt>
      <trkpt lat="45.51667" lon="4.4449">
        <ele>570</ele>
        <time>2022-11-18T14:56:28Z</time>
      </trkpt>
      <trkpt lat="45.51652" lon="4.44477">
        <ele>571</ele>
        <time>2022-11-18T14:56:31Z</time>
      </trkpt>
      <trkpt lat="45.51598" lon="4.44406">
        <ele>570</ele>
        <time>2022-11-18T14:56:44Z</time>
      </trkpt>
      <trkpt lat="45.51545" lon="4.44331">
        <ele>569</ele>
        <time>2022-11-18T14:56:57Z</time>
      </trkpt>
      <trkpt lat="45.51497" lon="4.44282">
        <ele>568</ele>
        <time>2022-11-18T14:57:08Z</time>
      </trkpt>
      <trkpt lat="45.51464" lon="4.44266">
        <ele>568</ele>
        <time>2022-11-18T14:57:14Z</time>
      </trkpt>
      <trkpt lat="45.51439" lon="4.44261">
        <ele>566</ele>
        <time>2022-11-18T14:57:18Z</time>
      </trkpt>
      <trkpt lat="45.51279" lon="4.44213">
        <ele>562</ele>
        <time>2022-11-18T14:57:47Z</time>
      </trkpt>
      <trkpt lat="45.51231" lon="4.44188">
        <ele>561</ele>
        <time>2022-11-18T14:57:56Z</time>
      </trkpt>
      <trkpt lat="45.51211" lon="4.44168">
        <ele>561</ele>
        <time>2022-11-18T14:58:01Z</time>
      </trkpt>
      <trkpt lat="45.5114" lon="4.44075">
        <ele>565</ele>
        <time>2022-11-18T14:58:18Z</time>
      </trkpt>
      <trkpt lat="45.5111" lon="4.44031">
        <ele>564</ele>
        <time>2022-11-18T14:58:26Z</time>
      </trkpt>
      <trkpt lat="45.51072" lon="4.43989">
        <ele>561</ele>
        <time>2022-11-18T14:58:34Z</time>
      </trkpt>
      <trkpt lat="45.5103" lon="4.43965">
        <ele>560</ele>
        <time>2022-11-18T14:58:42Z</time>
      </trkpt>
      <trkpt lat="45.50924" lon="4.4394">
        <ele>552</ele>
        <time>2022-11-18T14:59:01Z</time>
      </trkpt>
      <trkpt lat="45.50747" lon="4.43908">
        <ele>548</ele>
        <time>2022-11-18T14:59:33Z</time>
      </trkpt>
      <trkpt lat="45.50723" lon="4.43893">
        <ele>548</ele>
        <time>2022-11-18T14:59:38Z</time>
      </trkpt>
      <trkpt lat="45.50696" lon="4.43868">
        <ele>547</ele>
        <time>2022-11-18T14:59:43Z</time>
      </trkpt>
      <trkpt lat="45.50636" lon="4.43791">
        <ele>547</ele>
        <time>2022-11-18T14:59:58Z</time>
      </trkpt>
      <trkpt lat="45.50612" lon="4.43764">
        <ele>547</ele>
        <time>2022-11-18T15:00:03Z</time>
      </trkpt>
      <trkpt lat="45.50582" lon="4.43737">
        <ele>545</ele>
        <time>2022-11-18T15:00:10Z</time>
      </trkpt>
      <trkpt lat="45.50552" lon="4.43714">
        <ele>546</ele>
        <time>2022-11-18T15:00:16Z</time>
      </trkpt>
      <trkpt lat="45.50512" lon="4.4369">
        <ele>543</ele>
        <time>2022-11-18T15:00:23Z</time>
      </trkpt>
      <trkpt lat="45.50416" lon="4.43642">
        <ele>536</ele>
        <time>2022-11-18T15:00:41Z</time>
      </trkpt>
      <trkpt lat="45.50323" lon="4.43602">
        <ele>537</ele>
        <time>2022-11-18T15:00:59Z</time>
      </trkpt>
      <trkpt lat="45.50279" lon="4.4358">
        <ele>536</ele>
        <time>2022-11-18T15:01:07Z</time>
      </trkpt>
      <trkpt lat="45.50231" lon="4.43544">
        <ele>538</ele>
        <time>2022-11-18T15:01:17Z</time>
      </trkpt>
      <trkpt lat="45.50208" lon="4.43516">
        <ele>538</ele>
        <time>2022-11-18T15:01:22Z</time>
      </trkpt>
      <trkpt lat="45.50205" lon="4.43505">
        <ele>538</ele>
        <time>2022-11-18T15:01:23Z</time>
      </trkpt>
      <trkpt lat="45.50071" lon="4.43434">
        <ele>536</ele>
        <time>2022-11-18T15:01:49Z</time>
      </trkpt>
      <trkpt lat="45.50037" lon="4.43426">
        <ele>535</ele>
        <time>2022-11-18T15:01:55Z</time>
      </trkpt>
      <trkpt lat="45.49053" lon="4.43565">
        <ele>525</ele>
        <time>2022-11-18T15:04:51Z</time>
      </trkpt>
      <trkpt lat="45.4877" lon="4.43603">
        <ele>516</ele>
        <time>2022-11-18T15:05:42Z</time>
      </trkpt>
      <trkpt lat="45.48746" lon="4.43609">
        <ele>515</ele>
        <time>2022-11-18T15:05:46Z</time>
      </trkpt>
      <trkpt lat="45.48687" lon="4.43616">
        <ele>517</ele>
        <time>2022-11-18T15:05:56Z</time>
      </trkpt>
      <trkpt lat="45.48685" lon="4.43607">
        <ele>518</ele>
        <time>2022-11-18T15:05:58Z</time>
      </trkpt>
      <trkpt lat="45.48674" lon="4.43602">
        <ele>518</ele>
        <time>2022-11-18T15:06:00Z</time>
      </trkpt>
      <trkpt lat="45.48669" lon="4.43607">
        <ele>518</ele>
        <time>2022-11-18T15:06:01Z</time>
      </trkpt>
      <trkpt lat="45.48666" lon="4.43619">
        <ele>517</ele>
        <time>2022-11-18T15:06:02Z</time>
      </trkpt>
      <trkpt lat="45.48541" lon="4.43636">
        <ele>514</ele>
        <time>2022-11-18T15:06:25Z</time>
      </trkpt>
      <trkpt lat="45.48495" lon="4.4364">
        <ele>513</ele>
        <time>2022-11-18T15:06:33Z</time>
      </trkpt>
      <trkpt lat="45.4845" lon="4.43636">
        <ele>513</ele>
        <time>2022-11-18T15:06:41Z</time>
      </trkpt>
      <trkpt lat="45.48391" lon="4.43621">
        <ele>512</ele>
        <time>2022-11-18T15:06:52Z</time>
      </trkpt>
      <trkpt lat="45.48324" lon="4.43592">
        <ele>511</ele>
        <time>2022-11-18T15:07:04Z</time>
      </trkpt>
      <trkpt lat="45.48306" lon="4.43569">
        <ele>511</ele>
        <time>2022-11-18T15:07:08Z</time>
      </trkpt>
      <trkpt lat="45.48211" lon="4.43429">
        <ele>509</ele>
        <time>2022-11-18T15:07:33Z</time>
      </trkpt>
      <trkpt lat="45.48007" lon="4.43121">
        <ele>505</ele>
        <time>2022-11-18T15:08:25Z</time>
      </trkpt>
      <trkpt lat="45.47983" lon="4.43087">
        <ele>504</ele>
        <time>2022-11-18T15:08:31Z</time>
      </trkpt>
      <trkpt lat="45.47971" lon="4.43082">
        <ele>504</ele>
        <time>2022-11-18T15:08:34Z</time>
      </trkpt>
      <trkpt lat="45.47963" lon="4.43054">
        <ele>503</ele>
        <time>2022-11-18T15:08:37Z</time>
      </trkpt>
      <trkpt lat="45.47969" lon="4.4305">
        <ele>504</ele>
        <time>2022-11-18T15:08:39Z</time>
      </trkpt>
      <trkpt lat="45.47973" lon="4.43037">
        <ele>504</ele>
        <time>2022-11-18T15:08:40Z</time>
      </trkpt>
      <trkpt lat="45.47971" lon="4.43027">
        <ele>504</ele>
        <time>2022-11-18T15:08:42Z</time>
      </trkpt>
      <trkpt lat="45.47961" lon="4.43021">
        <ele>503</ele>
        <time>2022-11-18T15:08:44Z</time>
      </trkpt>
      <trkpt lat="45.47966" lon="4.43011">
        <ele>504</ele>
        <time>2022-11-18T15:08:45Z</time>
      </trkpt>
      <trkpt lat="45.48038" lon="4.42751">
        <ele>501</ele>
        <time>2022-11-18T15:09:20Z</time>
      </trkpt>
      <trkpt lat="45.48046" lon="4.4271">
        <ele>501</ele>
        <time>2022-11-18T15:09:25Z</time>
      </trkpt>
      <trkpt lat="45.4805" lon="4.42715">
        <ele>501</ele>
        <time>2022-11-18T15:09:26Z</time>
      </trkpt>
      <trkpt lat="45.48061" lon="4.42716">
        <ele>502</ele>
        <time>2022-11-18T15:09:28Z</time>
      </trkpt>
      <trkpt lat="45.48066" lon="4.42713">
        <ele>502</ele>
        <time>2022-11-18T15:09:29Z</time>
      </trkpt>
      <trkpt lat="45.48072" lon="4.427">
        <ele>502</ele>
        <time>2022-11-18T15:09:31Z</time>
      </trkpt>
      <trkpt lat="45.48071" lon="4.42683">
        <ele>502</ele>
        <time>2022-11-18T15:09:33Z</time>
      </trkpt>
      <trkpt lat="45.48064" lon="4.42673">
        <ele>501</ele>
        <time>2022-11-18T15:09:35Z</time>
      </trkpt>
      <trkpt lat="45.48054" lon="4.42671">
        <ele>501</ele>
        <time>2022-11-18T15:09:37Z</time>
      </trkpt>
      <trkpt lat="45.48049" lon="4.42578">
        <ele>500</ele>
        <time>2022-11-18T15:09:49Z</time>
      </trkpt>
      <trkpt lat="45.48042" lon="4.42539">
        <ele>498</ele>
        <time>2022-11-18T15:09:54Z</time>
      </trkpt>
      <trkpt lat="45.48022" lon="4.42466">
        <ele>495</ele>
        <time>2022-11-18T15:10:03Z</time>
      </trkpt>
      <trkpt lat="45.47927" lon="4.4222">
        <ele>496</ele>
        <time>2022-11-18T15:10:38Z</time>
      </trkpt>
      <trkpt lat="45.47894" lon="4.42156">
        <ele>495</ele>
        <time>2022-11-18T15:10:48Z</time>
      </trkpt>
      <trkpt lat="45.47882" lon="4.42138">
        <ele>495</ele>
        <time>2022-11-18T15:10:51Z</time>
      </trkpt>
      <trkpt lat="45.47838" lon="4.42095">
        <ele>493</ele>
        <time>2022-11-18T15:11:01Z</time>
      </trkpt>
      <trkpt lat="45.47768" lon="4.42037">
        <ele>491</ele>
        <time>2022-11-18T15:11:15Z</time>
      </trkpt>
      <trkpt lat="45.47751" lon="4.42003">
        <ele>491</ele>
        <time>2022-11-18T15:11:20Z</time>
      </trkpt>
      <trkpt lat="45.47741" lon="4.41958">
        <ele>491</ele>
        <time>2022-11-18T15:11:26Z</time>
      </trkpt>
      <trkpt lat="45.47732" lon="4.41863">
        <ele>491</ele>
        <time>2022-11-18T15:11:38Z</time>
      </trkpt>
      <trkpt lat="45.47733" lon="4.41771">
        <ele>489</ele>
        <time>2022-11-18T15:11:50Z</time>
      </trkpt>
      <trkpt lat="45.4773" lon="4.41713">
        <ele>488</ele>
        <time>2022-11-18T15:11:57Z</time>
      </trkpt>
      <trkpt lat="45.47702" lon="4.41534">
        <ele>486</ele>
        <time>2022-11-18T15:12:20Z</time>
      </trkpt>
      <trkpt lat="45.47699" lon="4.41494">
        <ele>486</ele>
        <time>2022-11-18T15:12:25Z</time>
      </trkpt>
      <trkpt lat="45.47701" lon="4.41419">
        <ele>485</ele>
        <time>2022-11-18T15:12:34Z</time>
      </trkpt>
      <trkpt lat="45.4771" lon="4.41318">
        <ele>483</ele>
        <time>2022-11-18T15:12:47Z</time>
      </trkpt>
      <trkpt lat="45.47716" lon="4.41283">
        <ele>482</ele>
        <time>2022-11-18T15:12:52Z</time>
      </trkpt>
      <trkpt lat="45.47726" lon="4.41281">
        <ele>483</ele>
        <time>2022-11-18T15:12:53Z</time>
      </trkpt>
      <trkpt lat="45.47734" lon="4.41271">
        <ele>483</ele>
        <time>2022-11-18T15:12:55Z</time>
      </trkpt>
      <trkpt lat="45.47734" lon="4.41249">
        <ele>482</ele>
        <time>2022-11-18T15:12:58Z</time>
      </trkpt>
      <trkpt lat="45.47726" lon="4.41239">
        <ele>481</ele>
        <time>2022-11-18T15:13:00Z</time>
      </trkpt>
      <trkpt lat="45.47721" lon="4.41237">
        <ele>481</ele>
        <time>2022-11-18T15:13:01Z</time>
      </trkpt>
      <trkpt lat="45.47701" lon="4.41244">
        <ele>480</ele>
        <time>2022-11-18T15:13:04Z</time>
      </trkpt>
      <trkpt lat="45.47692" lon="4.41241">
        <ele>479</ele>
        <time>2022-11-18T15:13:06Z</time>
      </trkpt>
      <trkpt lat="45.47673" lon="4.41226">
        <ele>478</ele>
        <time>2022-11-18T15:13:10Z</time>
      </trkpt>
      <trkpt lat="45.47648" lon="4.41145">
        <ele>478</ele>
        <time>2022-11-18T15:13:21Z</time>
      </trkpt>
      <trkpt lat="45.47637" lon="4.41127">
        <ele>479</ele>
        <time>2022-11-18T15:13:24Z</time>
      </trkpt>
      <trkpt lat="45.47621" lon="4.4111">
        <ele>479</ele>
        <time>2022-11-18T15:13:28Z</time>
      </trkpt>
      <trkpt lat="45.47598" lon="4.41101">
        <ele>479</ele>
        <time>2022-11-18T15:13:32Z</time>
      </trkpt>
      <trkpt lat="45.4757" lon="4.41102">
        <ele>479</ele>
        <time>2022-11-18T15:13:37Z</time>
      </trkpt>
      <trkpt lat="45.47525" lon="4.41117">
        <ele>481</ele>
        <time>2022-11-18T15:13:45Z</time>
      </trkpt>
      <trkpt lat="45.47476" lon="4.41137">
        <ele>486</ele>
        <time>2022-11-18T15:13:54Z</time>
      </trkpt>
      <trkpt lat="45.47433" lon="4.41172">
        <ele>490</ele>
        <time>2022-11-18T15:14:03Z</time>
      </trkpt>
      <trkpt lat="45.47377" lon="4.41224">
        <ele>497</ele>
        <time>2022-11-18T15:14:15Z</time>
      </trkpt>
      <trkpt lat="45.47347" lon="4.41235">
        <ele>498</ele>
        <time>2022-11-18T15:14:20Z</time>
      </trkpt>
      <trkpt lat="45.47154" lon="4.41251">
        <ele>494</ele>
        <time>2022-11-18T15:14:55Z</time>
      </trkpt>
      <trkpt lat="45.47068" lon="4.41247">
        <ele>493</ele>
        <time>2022-11-18T15:15:10Z</time>
      </trkpt>
      <trkpt lat="45.47017" lon="4.41228">
        <ele>495</ele>
        <time>2022-11-18T15:15:19Z</time>
      </trkpt>
      <trkpt lat="45.46972" lon="4.41203">
        <ele>495</ele>
        <time>2022-11-18T15:15:28Z</time>
      </trkpt>
      <trkpt lat="45.46938" lon="4.4119">
        <ele>494</ele>
        <time>2022-11-18T15:15:34Z</time>
      </trkpt>
      <trkpt lat="45.46898" lon="4.41184">
        <ele>494</ele>
        <time>2022-11-18T15:15:41Z</time>
      </trkpt>
      <trkpt lat="45.46862" lon="4.41184">
        <ele>494</ele>
        <time>2022-11-18T15:15:48Z</time>
      </trkpt>
      <trkpt lat="45.46776" lon="4.41195">
        <ele>498</ele>
        <time>2022-11-18T15:16:03Z</time>
      </trkpt>
      <trkpt lat="45.46724" lon="4.41191">
        <ele>497</ele>
        <time>2022-11-18T15:16:12Z</time>
      </trkpt>
      <trkpt lat="45.46703" lon="4.41184">
        <ele>496</ele>
        <time>2022-11-18T15:16:16Z</time>
      </trkpt>
      <trkpt lat="45.46613" lon="4.41139">
        <ele>495</ele>
        <time>2022-11-18T15:16:33Z</time>
      </trkpt>
      <trkpt lat="45.46578" lon="4.41135">
        <ele>495</ele>
        <time>2022-11-18T15:16:39Z</time>
      </trkpt>
      <trkpt lat="45.46527" lon="4.41124">
        <ele>493</ele>
        <time>2022-11-18T15:16:49Z</time>
      </trkpt>
      <trkpt lat="45.46356" lon="4.4106">
        <ele>495</ele>
        <time>2022-11-18T15:17:20Z</time>
      </trkpt>
      <trkpt lat="45.46308" lon="4.41035">
        <ele>496</ele>
        <time>2022-11-18T15:17:29Z</time>
      </trkpt>
      <trkpt lat="45.4626" lon="4.41016">
        <ele>497</ele>
        <time>2022-11-18T15:17:38Z</time>
      </trkpt>
      <trkpt lat="45.46215" lon="4.40995">
        <ele>498</ele>
        <time>2022-11-18T15:17:46Z</time>
      </trkpt>
      <trkpt lat="45.46083" lon="4.40947">
        <ele>499</ele>
        <time>2022-11-18T15:18:11Z</time>
      </trkpt>
      <trkpt lat="45.46026" lon="4.4092">
        <ele>497</ele>
        <time>2022-11-18T15:18:21Z</time>
      </trkpt>
      <trkpt lat="45.46011" lon="4.40912">
        <ele>497</ele>
        <time>2022-11-18T15:18:24Z</time>
      </trkpt>
      <trkpt lat="45.45998" lon="4.40901">
        <ele>497</ele>
        <time>2022-11-18T15:18:27Z</time>
      </trkpt>
      <trkpt lat="45.45978" lon="4.40879">
        <ele>498</ele>
        <time>2022-11-18T15:18:31Z</time>
      </trkpt>
      <trkpt lat="45.45938" lon="4.4082">
        <ele>500</ele>
        <time>2022-11-18T15:18:42Z</time>
      </trkpt>
      <trkpt lat="45.45933" lon="4.40807">
        <ele>500</ele>
        <time>2022-11-18T15:18:44Z</time>
      </trkpt>
      <trkpt lat="45.45932" lon="4.40781">
        <ele>501</ele>
        <time>2022-11-18T15:18:47Z</time>
      </trkpt>
      <trkpt lat="45.45928" lon="4.40774">
        <ele>501</ele>
        <time>2022-11-18T15:18:48Z</time>
      </trkpt>
      <trkpt lat="45.45923" lon="4.40769">
        <ele>501</ele>
        <time>2022-11-18T15:18:49Z</time>
      </trkpt>
      <trkpt lat="45.45917" lon="4.40767">
        <ele>501</ele>
        <time>2022-11-18T15:18:50Z</time>
      </trkpt>
      <trkpt lat="45.45909" lon="4.40756">
        <ele>501</ele>
        <time>2022-11-18T15:18:52Z</time>
      </trkpt>
      <trkpt lat="45.45826" lon="4.40605">
        <ele>495</ele>
        <time>2022-11-18T15:19:16Z</time>
      </trkpt>
      <trkpt lat="45.45824" lon="4.40585">
        <ele>494</ele>
        <time>2022-11-18T15:19:19Z</time>
      </trkpt>
      <trkpt lat="45.45825" lon="4.40563">
        <ele>493</ele>
        <time>2022-11-18T15:19:21Z</time>
      </trkpt>
      <trkpt lat="45.45818" lon="4.40543">
        <ele>492</ele>
        <time>2022-11-18T15:19:24Z</time>
      </trkpt>
      <trkpt lat="45.45812" lon="4.40535">
        <ele>492</ele>
        <time>2022-11-18T15:19:26Z</time>
      </trkpt>
      <trkpt lat="45.45803" lon="4.4053">
        <ele>492</ele>
        <time>2022-11-18T15:19:27Z</time>
      </trkpt>
      <trkpt lat="45.45785" lon="4.40533">
        <ele>492</ele>
        <time>2022-11-18T15:19:30Z</time>
      </trkpt>
      <trkpt lat="45.45752" lon="4.40484">
        <ele>491</ele>
        <time>2022-11-18T15:19:39Z</time>
      </trkpt>
      <trkpt lat="45.45639" lon="4.40286">
        <ele>495</ele>
        <time>2022-11-18T15:20:11Z</time>
      </trkpt>
      <trkpt lat="45.4552" lon="4.40114">
        <ele>501</ele>
        <time>2022-11-18T15:20:41Z</time>
      </trkpt>
      <trkpt lat="45.45492" lon="4.40079">
        <ele>501</ele>
        <time>2022-11-18T15:20:48Z</time>
      </trkpt>
      <trkpt lat="45.45359" lon="4.39893">
        <ele>496</ele>
        <time>2022-11-18T15:21:21Z</time>
      </trkpt>
      <trkpt lat="45.45347" lon="4.39888">
        <ele>495</ele>
        <time>2022-11-18T15:21:23Z</time>
      </trkpt>
      <trkpt lat="45.45229" lon="4.3986">
        <ele>494</ele>
        <time>2022-11-18T15:21:44Z</time>
      </trkpt>
      <trkpt lat="45.45203" lon="4.39862">
        <ele>493</ele>
        <time>2022-11-18T15:21:49Z</time>
      </trkpt>
      <trkpt lat="45.4506" lon="4.39841">
        <ele>492</ele>
        <time>2022-11-18T15:22:14Z</time>
      </trkpt>
      <trkpt lat="45.44878" lon="4.39821">
        <ele>496</ele>
        <time>2022-11-18T15:22:47Z</time>
      </trkpt>
      <trkpt lat="45.44701" lon="4.39796">
        <ele>500</ele>
        <time>2022-11-18T15:23:19Z</time>
      </trkpt>
      <trkpt lat="45.44492" lon="4.39801">
        <ele>506</ele>
        <time>2022-11-18T15:23:56Z</time>
      </trkpt>
      <trkpt lat="45.44486" lon="4.39792">
        <ele>506</ele>
        <time>2022-11-18T15:23:57Z</time>
      </trkpt>
      <trkpt lat="45.44483" lon="4.3978">
        <ele>506</ele>
        <time>2022-11-18T15:23:59Z</time>
      </trkpt>
      <trkpt lat="45.44461" lon="4.39766">
        <ele>506</ele>
        <time>2022-11-18T15:24:03Z</time>
      </trkpt>
      <trkpt lat="45.44387" lon="4.39705">
        <ele>508</ele>
        <time>2022-11-18T15:24:18Z</time>
      </trkpt>
      <trkpt lat="45.44331" lon="4.39683">
        <ele>509</ele>
        <time>2022-11-18T15:24:29Z</time>
      </trkpt>
      <trkpt lat="45.4432" lon="4.39683">
        <ele>510</ele>
        <time>2022-11-18T15:24:31Z</time>
      </trkpt>
      <trkpt lat="45.44316" lon="4.39686">
        <ele>510</ele>
        <time>2022-11-18T15:24:31Z</time>
      </trkpt>
      <trkpt lat="45.44311" lon="4.39717">
        <ele>509</ele>
        <time>2022-11-18T15:24:35Z</time>
      </trkpt>
      <trkpt lat="45.44306" lon="4.39731">
        <ele>509</ele>
        <time>2022-11-18T15:24:37Z</time>
      </trkpt>
      <trkpt lat="45.44294" lon="4.39746">
        <ele>509</ele>
        <time>2022-11-18T15:24:40Z</time>
      </trkpt>
      <trkpt lat="45.4418" lon="4.3986">
        <ele>517</ele>
        <time>2022-11-18T15:25:05Z</time>
      </trkpt>
      <trkpt lat="45.44031" lon="4.39772">
        <ele>528</ele>
        <time>2022-11-18T15:25:34Z</time>
      </trkpt>
      <trkpt lat="45.44027" lon="4.39763">
        <ele>529</ele>
        <time>2022-11-18T15:25:35Z</time>
      </trkpt>
      <trkpt lat="45.44026" lon="4.39749">
        <ele>529</ele>
        <time>2022-11-18T15:25:37Z</time>
      </trkpt>
      <trkpt lat="45.43989" lon="4.39667">
        <ele>533</ele>
        <time>2022-11-18T15:25:49Z</time>
      </trkpt>
      <trkpt lat="45.43987" lon="4.39655">
        <ele>533</ele>
        <time>2022-11-18T15:25:51Z</time>
      </trkpt>
      <trkpt lat="45.43976" lon="4.3966">
        <ele>533</ele>
        <time>2022-11-18T15:25:53Z</time>
      </trkpt>
      <trkpt lat="45.43975" lon="4.39658">
        <ele>533</ele>
        <time>2022-11-18T15:25:53Z</time>
      </trkpt>
      <trkpt lat="45.43983" lon="4.39638">
        <ele>533</ele>
        <time>2022-11-18T15:25:56Z</time>
      </trkpt>
      <trkpt lat="45.43972" lon="4.39607">
        <ele>534</ele>
        <time>2022-11-18T15:26:00Z</time>
      </trkpt>
      <trkpt lat="45.43964" lon="4.39602">
        <ele>533</ele>
        <time>2022-11-18T15:26:02Z</time>
      </trkpt>
      <trkpt lat="45.43939" lon="4.39552">
        <ele>533</ele>
        <time>2022-11-18T15:26:09Z</time>
      </trkpt>
      <trkpt lat="45.4395" lon="4.39542">
        <ele>534</ele>
        <time>2022-11-18T15:26:12Z</time>
      </trkpt>
      <trkpt lat="45.43847" lon="4.38812">
        <ele>525</ele>
        <time>2022-11-18T15:27:45Z</time>
      </trkpt>
      <trkpt lat="45.43852" lon="4.38808">
        <ele>525</ele>
        <time>2022-11-18T15:27:46Z</time>
      </trkpt>
      <trkpt lat="45.44141" lon="4.38732">
        <ele>518</ele>
        <time>2022-11-18T15:28:38Z</time>
      </trkpt>
      <trkpt lat="45.44721" lon="4.38564">
        <ele>507</ele>
        <time>2022-11-18T15:30:23Z</time>
      </trkpt>
      <trkpt lat="45.44744" lon="4.38647">
        <ele>507</ele>
        <time>2022-11-18T15:30:34Z</time>
      </trkpt>
      <trkpt lat="45.44849" lon="4.38994">
        <ele>500</ele>
        <time>2022-11-18T15:31:22Z</time>
      </trkpt>
      <trkpt lat="45.44864" lon="4.39049">
        <ele>499</ele>
        <time>2022-11-18T15:31:29Z</time>
      </trkpt>
      <trkpt lat="45.44871" lon="4.39089">
        <ele>497</ele>
        <time>2022-11-18T15:31:34Z</time>
      </trkpt>
      <trkpt lat="45.44879" lon="4.39111">
        <ele>496</ele>
        <time>2022-11-18T15:31:37Z</time>
      </trkpt>
      <trkpt lat="45.44884" lon="4.39116">
        <ele>496</ele>
        <time>2022-11-18T15:31:38Z</time>
      </trkpt>
      <trkpt lat="45.44894" lon="4.39113">
        <ele>496</ele>
        <time>2022-11-18T15:31:40Z</time>
      </trkpt>
      <trkpt lat="45.44948" lon="4.39056">
        <ele>497</ele>
        <time>2022-11-18T15:31:52Z</time>
      </trkpt>
      <trkpt lat="45.44978" lon="4.3903">
        <ele>498</ele>
        <time>2022-11-18T15:31:58Z</time>
      </trkpt>
      <trkpt lat="45.45033" lon="4.38991">
        <ele>499</ele>
        <time>2022-11-18T15:32:09Z</time>
      </trkpt>
      <trkpt lat="45.45349" lon="4.38848">
        <ele>500</ele>
        <time>2022-11-18T15:33:08Z</time>
      </trkpt>
      <trkpt lat="45.45545" lon="4.38755">
        <ele>497</ele>
        <time>2022-11-18T15:33:45Z</time>
      </trkpt>
      <trkpt lat="45.45558" lon="4.3878">
        <ele>496</ele>
        <time>2022-11-18T15:33:49Z</time>
      </trkpt>
      <trkpt lat="45.45802" lon="4.38868">
        <ele>493</ele>
        <time>2022-11-18T15:34:34Z</time>
      </trkpt>
      <trkpt lat="45.45814" lon="4.38877">
        <ele>493</ele>
        <time>2022-11-18T15:34:36Z</time>
      </trkpt>
      <trkpt lat="45.45948" lon="4.38874">
        <ele>491</ele>
        <time>2022-11-18T15:35:00Z</time>
      </trkpt>
      <trkpt lat="45.4597" lon="4.3887">
        <ele>491</ele>
        <time>2022-11-18T15:35:04Z</time>
      </trkpt>
      <trkpt lat="45.46002" lon="4.38858">
        <ele>490</ele>
        <time>2022-11-18T15:35:10Z</time>
      </trkpt>
    </trkseg>
  </trk>
</gpx>